<?xml version='1.0' encoding='UTF-8'?><gpx version="1.1" creator="JPX - https://github.com/jenetics/jpx" xmlns="http://www.topografix.com/GPX/1/1"><trk><trkseg><trkpt lat="43.20159148159361" lon="12.15110343864176"><ele>544.0</ele><time>2026-05-02T15:46:26Z</time></trkpt><trkpt lat="43.20165692549817" lon="12.151136305982979"><ele>544.0</ele><time>2026-05-02T15:46:27Z</time></trkpt><trkpt lat="43.20172121279915" lon="12.151168569420108"><ele>544.0</ele><time>2026-05-02T15:46:28Z</time></trkpt><trkpt lat="43.20178170577999" lon="12.15120490069649"><ele>544.0</ele><time>2026-05-02T15:46:29Z</time></trkpt><trkpt lat="43.20184698179052" lon="12.151246525765547"><ele>544.0</ele><time>2026-05-02T15:46:30Z</time></trkpt><trkpt lat="43.20193469547186" lon="12.151317542319806"><ele>544.0</ele><time>2026-05-02T15:46:32Z</time></trkpt><trkpt lat="43.20200942338582" lon="12.151388649652956"><ele>544.0</ele><time>2026-05-02T15:46:34Z</time></trkpt><trkpt lat="43.202099926258654" lon="12.151461982019402"><ele>544.0</ele><time>2026-05-02T15:46:36Z</time></trkpt><trkpt lat="43.20215734218918" lon="12.151594243767358"><ele>544.0</ele><time>2026-05-02T15:46:38Z</time></trkpt><trkpt lat="43.20219301260754" lon="12.151697537206779"><ele>544.0</ele><time>2026-05-02T15:46:39Z</time></trkpt><trkpt lat="43.20222329963709" lon="12.151778696558619"><ele>544.0</ele><time>2026-05-02T15:46:40Z</time></trkpt><trkpt lat="43.20225178759732" lon="12.15190135068988"><ele>545.3333333333334</ele><time>2026-05-02T15:46:42Z</time></trkpt><trkpt lat="43.202243007003105" lon="12.15207133969688"><ele>546.6666666666667</ele><time>2026-05-02T15:46:44Z</time></trkpt><trkpt lat="43.20224049896748" lon="12.152167979425641"><ele>548.0</ele><time>2026-05-02T15:46:45Z</time></trkpt><trkpt lat="43.202240185445675" lon="12.152264150873023"><ele>549.3333333333334</ele><time>2026-05-02T15:46:46Z</time></trkpt><trkpt lat="43.20223744467502" lon="12.152361512547644"><ele>550.6666666666666</ele><time>2026-05-02T15:46:47Z</time></trkpt><trkpt lat="43.20222277396496" lon="12.152512490822053"><ele>552.0</ele><time>2026-05-02T15:46:49Z</time></trkpt><trkpt lat="43.202206024750375" lon="12.15266035573334"><ele>553.1666666666666</ele><time>2026-05-02T15:46:51Z</time></trkpt><trkpt lat="43.20219141179092" lon="12.152750985824078"><ele>554.3333333333334</ele><time>2026-05-02T15:46:52Z</time></trkpt><trkpt lat="43.20216402341497" lon="12.152840407037933"><ele>555.5</ele><time>2026-05-02T15:46:53Z</time></trkpt><trkpt lat="43.20213381465318" lon="12.152939001355302"><ele>556.6666666666667</ele><time>2026-05-02T15:46:54Z</time></trkpt><trkpt lat="43.20210176459188" lon="12.153093341778463"><ele>557.8333333333334</ele><time>2026-05-02T15:46:56Z</time></trkpt><trkpt lat="43.20215552386314" lon="12.153207213473735"><ele>559.0</ele><time>2026-05-02T15:46:58Z</time></trkpt><trkpt lat="43.20221507645998" lon="12.153262210194525"><ele>559.0</ele><time>2026-05-02T15:46:59Z</time></trkpt><trkpt lat="43.20228601595599" lon="12.153324794741637"><ele>559.0</ele><time>2026-05-02T15:47:00Z</time></trkpt><trkpt lat="43.20234124072425" lon="12.153376523395183"><ele>559.0</ele><time>2026-05-02T15:47:01Z</time></trkpt><trkpt lat="43.20241896021177" lon="12.153498794339894"><ele>559.0</ele><time>2026-05-02T15:47:03Z</time></trkpt><trkpt lat="43.20249997079268" lon="12.153617293442288"><ele>559.0</ele><time>2026-05-02T15:47:05Z</time></trkpt><trkpt lat="43.20254974108477" lon="12.153672505857863"><ele>557.2</ele><time>2026-05-02T15:47:06Z</time></trkpt><trkpt lat="43.202610421321594" lon="12.15373832416307"><ele>555.4</ele><time>2026-05-02T15:47:07Z</time></trkpt><trkpt lat="43.20264669517691" lon="12.153810808944392"><ele>553.6</ele><time>2026-05-02T15:47:08Z</time></trkpt><trkpt lat="43.20269008343637" lon="12.15398031620884"><ele>551.8</ele><time>2026-05-02T15:47:10Z</time></trkpt><trkpt lat="43.20269742508556" lon="12.15406952109096"><ele>550.0</ele><time>2026-05-02T15:47:11Z</time></trkpt><trkpt lat="43.20267871377586" lon="12.154238719852213"><ele>550.0</ele><time>2026-05-02T15:47:13Z</time></trkpt><trkpt lat="43.202653058718994" lon="12.154324534425477"><ele>550.0</ele><time>2026-05-02T15:47:14Z</time></trkpt><trkpt lat="43.202616761813786" lon="12.154509829683827"><ele>550.0</ele><time>2026-05-02T15:47:16Z</time></trkpt><trkpt lat="43.20261953291108" lon="12.1546209603144"><ele>550.0</ele><time>2026-05-02T15:47:17Z</time></trkpt><trkpt lat="43.20265988162619" lon="12.15470614435326"><ele>550.0</ele><time>2026-05-02T15:47:18Z</time></trkpt><trkpt lat="43.2027780505599" lon="12.154853995935504"><ele>550.5</ele><time>2026-05-02T15:47:20Z</time></trkpt><trkpt lat="43.20283461330446" lon="12.154945961140841"><ele>551.0</ele><time>2026-05-02T15:47:21Z</time></trkpt><trkpt lat="43.202868510861485" lon="12.155019739780702"><ele>551.5</ele><time>2026-05-02T15:47:22Z</time></trkpt><trkpt lat="43.20290626807351" lon="12.15509327453668"><ele>552.0</ele><time>2026-05-02T15:47:23Z</time></trkpt><trkpt lat="43.202959608768076" lon="12.15515873960219"><ele>552.5</ele><time>2026-05-02T15:47:24Z</time></trkpt><trkpt lat="43.20303675081925" lon="12.155218251402676"><ele>553.0</ele><time>2026-05-02T15:47:25Z</time></trkpt><trkpt lat="43.20311064882722" lon="12.155277149630544"><ele>550.0</ele><time>2026-05-02T15:47:26Z</time></trkpt><trkpt lat="43.203195250620034" lon="12.15534799535184"><ele>547.0</ele><time>2026-05-02T15:47:27Z</time></trkpt><trkpt lat="43.20326312964217" lon="12.155431283647788"><ele>544.0</ele><time>2026-05-02T15:47:28Z</time></trkpt><trkpt lat="43.203316936348216" lon="12.155518853931856"><ele>541.0</ele><time>2026-05-02T15:47:29Z</time></trkpt><trkpt lat="43.203352837465545" lon="12.155597502846557"><ele>538.0</ele><time>2026-05-02T15:47:30Z</time></trkpt><trkpt lat="43.20340971744255" lon="12.155727717715823"><ele>538.0</ele><time>2026-05-02T15:47:32Z</time></trkpt><trkpt lat="43.20347603234957" lon="12.15588672781232"><ele>538.0</ele><time>2026-05-02T15:47:34Z</time></trkpt><trkpt lat="43.20351754221366" lon="12.155969595159288"><ele>538.0</ele><time>2026-05-02T15:47:35Z</time></trkpt><trkpt lat="43.20355150146912" lon="12.156043470784105"><ele>538.0</ele><time>2026-05-02T15:47:36Z</time></trkpt><trkpt lat="43.203618072157816" lon="12.156186223509053"><ele>538.0</ele><time>2026-05-02T15:47:38Z</time></trkpt><trkpt lat="43.203645078461264" lon="12.156283308414318"><ele>538.0</ele><time>2026-05-02T15:47:39Z</time></trkpt><trkpt lat="43.20367201204105" lon="12.156387642988188"><ele>538.0</ele><time>2026-05-02T15:47:40Z</time></trkpt><trkpt lat="43.20369506171431" lon="12.156469755176586"><ele>538.0</ele><time>2026-05-02T15:47:41Z</time></trkpt><trkpt lat="43.203733533796736" lon="12.156590223937798"><ele>538.0</ele><time>2026-05-02T15:47:43Z</time></trkpt><trkpt lat="43.203758824626824" lon="12.156744568071252"><ele>538.0</ele><time>2026-05-02T15:47:45Z</time></trkpt><trkpt lat="43.203772813601205" lon="12.156830986842271"><ele>538.0</ele><time>2026-05-02T15:47:46Z</time></trkpt><trkpt lat="43.20374338464376" lon="12.156938659951015"><ele>538.0</ele><time>2026-05-02T15:47:51Z</time></trkpt><trkpt lat="43.20364181964063" lon="12.157004752339656"><ele>538.0</ele><time>2026-05-02T15:47:53Z</time></trkpt><trkpt lat="43.20357145393356" lon="12.157072566141917"><ele>538.0</ele><time>2026-05-02T15:47:55Z</time></trkpt><trkpt lat="43.203489626598795" lon="12.157149143427393"><ele>538.0</ele><time>2026-05-02T15:47:57Z</time></trkpt><trkpt lat="43.203428572563574" lon="12.157189731557647"><ele>538.0</ele><time>2026-05-02T15:47:58Z</time></trkpt><trkpt lat="43.2033316892452" lon="12.15727832694877"><ele>538.0</ele><time>2026-05-02T15:48:00Z</time></trkpt><trkpt lat="43.20324656121525" lon="12.15731758210101"><ele>538.0</ele><time>2026-05-02T15:48:02Z</time></trkpt><trkpt lat="43.20316550648951" lon="12.157380736050664"><ele>538.0</ele><time>2026-05-02T15:48:04Z</time></trkpt><trkpt lat="43.203097216527034" lon="12.157444856678735"><ele>538.0</ele><time>2026-05-02T15:48:06Z</time></trkpt><trkpt lat="43.203005151829075" lon="12.15754709370512"><ele>538.0</ele><time>2026-05-02T15:48:08Z</time></trkpt><trkpt lat="43.202936189732" lon="12.157596084183997"><ele>538.6</ele><time>2026-05-02T15:48:10Z</time></trkpt><trkpt lat="43.20285268588975" lon="12.157633348170084"><ele>539.1999999999999</ele><time>2026-05-02T15:48:12Z</time></trkpt><trkpt lat="43.20274358558706" lon="12.157680808640853"><ele>539.8</ele><time>2026-05-02T15:48:14Z</time></trkpt><trkpt lat="43.202659913848805" lon="12.157722355027456"><ele>540.4</ele><time>2026-05-02T15:48:16Z</time></trkpt><trkpt lat="43.202559214327074" lon="12.157771025501917"><ele>541.0</ele><time>2026-05-02T15:48:18Z</time></trkpt><trkpt lat="43.202506543554826" lon="12.157823722688793"><ele>541.0</ele><time>2026-05-02T15:48:22Z</time></trkpt><trkpt lat="43.20249661486536" lon="12.15794558708034"><ele>541.0</ele><time>2026-05-02T15:48:25Z</time></trkpt><trkpt lat="43.20253091711953" lon="12.158018422218944"><ele>541.0</ele><time>2026-05-02T15:48:26Z</time></trkpt><trkpt lat="43.20258123409634" lon="12.158116240185747"><ele>541.0</ele><time>2026-05-02T15:48:27Z</time></trkpt><trkpt lat="43.20262083722897" lon="12.158226300391416"><ele>541.0</ele><time>2026-05-02T15:48:28Z</time></trkpt><trkpt lat="43.20264188247262" lon="12.158344940968563"><ele>541.0</ele><time>2026-05-02T15:48:29Z</time></trkpt><trkpt lat="43.20267984451869" lon="12.158427574493333"><ele>540.1666666666667</ele><time>2026-05-02T15:48:30Z</time></trkpt><trkpt lat="43.20271254733513" lon="12.15850345486041"><ele>539.3333333333334</ele><time>2026-05-02T15:48:31Z</time></trkpt><trkpt lat="43.20276897364482" lon="12.158643765481223"><ele>538.5</ele><time>2026-05-02T15:48:33Z</time></trkpt><trkpt lat="43.20280756620098" lon="12.158712563674912"><ele>537.6666666666666</ele><time>2026-05-02T15:48:34Z</time></trkpt><trkpt lat="43.20282260232672" lon="12.158816729979804"><ele>536.8333333333333</ele><time>2026-05-02T15:48:35Z</time></trkpt><trkpt lat="43.20281654274097" lon="12.15892112806787"><ele>536.0</ele><time>2026-05-02T15:48:36Z</time></trkpt><trkpt lat="43.20283323755822" lon="12.15901006727281"><ele>534.6</ele><time>2026-05-02T15:48:37Z</time></trkpt><trkpt lat="43.20281099315347" lon="12.159163516192322"><ele>533.2</ele><time>2026-05-02T15:48:39Z</time></trkpt><trkpt lat="43.20279145013603" lon="12.159296449180443"><ele>531.8</ele><time>2026-05-02T15:48:41Z</time></trkpt><trkpt lat="43.20276748523091" lon="12.159421165460383"><ele>530.4</ele><time>2026-05-02T15:48:43Z</time></trkpt><trkpt lat="43.202735355398524" lon="12.159584728323097"><ele>529.0</ele><time>2026-05-02T15:48:45Z</time></trkpt><trkpt lat="43.20271096700429" lon="12.159666937530284"><ele>529.0</ele><time>2026-05-02T15:48:46Z</time></trkpt><trkpt lat="43.202642851743164" lon="12.159784743963632"><ele>529.0</ele><time>2026-05-02T15:48:48Z</time></trkpt><trkpt lat="43.20261912689686" lon="12.159882563870628"><ele>529.0</ele><time>2026-05-02T15:48:50Z</time></trkpt><trkpt lat="43.202678396860414" lon="12.159762708612462"><ele>529.0</ele><time>2026-05-02T15:48:56Z</time></trkpt><trkpt lat="43.202704730604395" lon="12.1596581704946"><ele>529.0</ele><time>2026-05-02T15:48:57Z</time></trkpt><trkpt lat="43.20272698740776" lon="12.15954961457172"><ele>529.0</ele><time>2026-05-02T15:48:58Z</time></trkpt><trkpt lat="43.202764124140884" lon="12.159436778027354"><ele>529.0</ele><time>2026-05-02T15:48:59Z</time></trkpt><trkpt lat="43.20279613489235" lon="12.159323103891449"><ele>529.0</ele><time>2026-05-02T15:49:00Z</time></trkpt><trkpt lat="43.20283345709498" lon="12.159240383357123"><ele>529.0</ele><time>2026-05-02T15:49:01Z</time></trkpt><trkpt lat="43.20288263732166" lon="12.159175509732634"><ele>529.0</ele><time>2026-05-02T15:49:02Z</time></trkpt><trkpt lat="43.202942435383775" lon="12.15909278386998"><ele>529.0</ele><time>2026-05-02T15:49:03Z</time></trkpt><trkpt lat="43.20300485437566" lon="12.159004983831618"><ele>530.2</ele><time>2026-05-02T15:49:04Z</time></trkpt><trkpt lat="43.203052968076996" lon="12.158928016896157"><ele>531.4</ele><time>2026-05-02T15:49:05Z</time></trkpt><trkpt lat="43.203134344455535" lon="12.158796760142597"><ele>532.6</ele><time>2026-05-02T15:49:07Z</time></trkpt><trkpt lat="43.20317619928036" lon="12.158701758273288"><ele>533.8</ele><time>2026-05-02T15:49:08Z</time></trkpt><trkpt lat="43.20321875454827" lon="12.158579197004979"><ele>535.0</ele><time>2026-05-02T15:49:10Z</time></trkpt><trkpt lat="43.20330699366593" lon="12.158551497027101"><ele>535.0</ele><time>2026-05-02T15:49:12Z</time></trkpt><trkpt lat="43.20339226396485" lon="12.158506451687364"><ele>535.0</ele><time>2026-05-02T15:49:14Z</time></trkpt><trkpt lat="43.20346375694008" lon="12.158468553632673"><ele>535.0</ele><time>2026-05-02T15:49:16Z</time></trkpt><trkpt lat="43.203536156790946" lon="12.158444037745143"><ele>535.0</ele><time>2026-05-02T15:49:19Z</time></trkpt><trkpt lat="43.20361341510557" lon="12.158391259211184"><ele>535.0</ele><time>2026-05-02T15:49:21Z</time></trkpt><trkpt lat="43.20370276824749" lon="12.158337267886267"><ele>535.0</ele><time>2026-05-02T15:49:23Z</time></trkpt><trkpt lat="43.20381908876092" lon="12.158328865403748"><ele>535.0</ele><time>2026-05-02T15:49:25Z</time></trkpt><trkpt lat="43.20389841636646" lon="12.158348847788552"><ele>535.0</ele><time>2026-05-02T15:49:27Z</time></trkpt><trkpt lat="43.203982210452914" lon="12.158369973274677"><ele>535.0</ele><time>2026-05-02T15:49:29Z</time></trkpt><trkpt lat="43.2040548324029" lon="12.158384427891214"><ele>535.0</ele><time>2026-05-02T15:49:31Z</time></trkpt><trkpt lat="43.20412212985533" lon="12.158338317447171"><ele>535.0</ele><time>2026-05-02T15:49:35Z</time></trkpt><trkpt lat="43.20419324594178" lon="12.15829282522364"><ele>535.0</ele><time>2026-05-02T15:49:37Z</time></trkpt><trkpt lat="43.20429241946205" lon="12.15833973399995"><ele>531.6666666666667</ele><time>2026-05-02T15:49:39Z</time></trkpt><trkpt lat="43.204353801049045" lon="12.158363721773192"><ele>528.3333333333334</ele><time>2026-05-02T15:49:42Z</time></trkpt><trkpt lat="43.204388290689145" lon="12.15848697457239"><ele>525.0</ele><time>2026-05-02T15:49:46Z</time></trkpt><trkpt lat="43.20437072139177" lon="12.158607737635988"><ele>521.6666666666666</ele><time>2026-05-02T15:49:48Z</time></trkpt><trkpt lat="43.20441322484067" lon="12.158717296997368"><ele>518.3333333333333</ele><time>2026-05-02T15:49:51Z</time></trkpt><trkpt lat="43.20439181235578" lon="12.158593441715334"><ele>515.0</ele><time>2026-05-02T15:50:36Z</time></trkpt><trkpt lat="43.20438861847584" lon="12.158449621532416"><ele>515.0</ele><time>2026-05-02T15:50:39Z</time></trkpt><trkpt lat="43.20438694308151" lon="12.15834245052573"><ele>515.0</ele><time>2026-05-02T15:50:43Z</time></trkpt><trkpt lat="43.20446920054179" lon="12.158294637292144"><ele>515.0</ele><time>2026-05-02T15:50:45Z</time></trkpt><trkpt lat="43.204559866774325" lon="12.158234014983993"><ele>515.0</ele><time>2026-05-02T15:50:47Z</time></trkpt><trkpt lat="43.204600159967384" lon="12.158167433945666"><ele>515.0</ele><time>2026-05-02T15:50:49Z</time></trkpt><trkpt lat="43.20462404797502" lon="12.15807292726739"><ele>515.0</ele><time>2026-05-02T15:50:54Z</time></trkpt><trkpt lat="43.204617175753455" lon="12.158160485811571"><ele>515.0</ele><time>2026-05-02T15:51:29Z</time></trkpt><trkpt lat="43.20455232209097" lon="12.158233152991489"><ele>515.0</ele><time>2026-05-02T15:51:31Z</time></trkpt><trkpt lat="43.20446757333271" lon="12.158286062840714"><ele>515.0</ele><time>2026-05-02T15:51:33Z</time></trkpt><trkpt lat="43.20437658832257" lon="12.158343086686765"><ele>515.0</ele><time>2026-05-02T15:51:35Z</time></trkpt><trkpt lat="43.204283162849116" lon="12.158357691915148"><ele>515.0</ele><time>2026-05-02T15:51:38Z</time></trkpt><trkpt lat="43.20421822192801" lon="12.158314779429851"><ele>515.0</ele><time>2026-05-02T15:51:40Z</time></trkpt><trkpt lat="43.20414520254461" lon="12.15837511941124"><ele>515.0</ele><time>2026-05-02T15:51:42Z</time></trkpt><trkpt lat="43.204073670009414" lon="12.158415811921"><ele>515.0</ele><time>2026-05-02T15:51:44Z</time></trkpt><trkpt lat="43.2039653444686" lon="12.158370496612863"><ele>515.0</ele><time>2026-05-02T15:51:46Z</time></trkpt><trkpt lat="43.20385685065208" lon="12.15834493299246"><ele>515.0</ele><time>2026-05-02T15:51:48Z</time></trkpt><trkpt lat="43.20373178146938" lon="12.158347191234299"><ele>515.0</ele><time>2026-05-02T15:51:50Z</time></trkpt><trkpt lat="43.20366905436045" lon="12.158363050870653"><ele>519.0</ele><time>2026-05-02T15:51:51Z</time></trkpt><trkpt lat="43.203574539175115" lon="12.15845900653171"><ele>523.0</ele><time>2026-05-02T15:51:53Z</time></trkpt><trkpt lat="43.20346660546132" lon="12.158486782096302"><ele>527.0</ele><time>2026-05-02T15:51:55Z</time></trkpt><trkpt lat="43.203363837913706" lon="12.15853793166684"><ele>531.0</ele><time>2026-05-02T15:51:57Z</time></trkpt><trkpt lat="43.20330430750106" lon="12.158575659371724"><ele>535.0</ele><time>2026-05-02T15:51:58Z</time></trkpt><trkpt lat="43.20321472181488" lon="12.158625467320599"><ele>535.0</ele><time>2026-05-02T15:52:00Z</time></trkpt><trkpt lat="43.2031653828101" lon="12.158741555937908"><ele>535.0</ele><time>2026-05-02T15:52:02Z</time></trkpt><trkpt lat="43.20311207087541" lon="12.158878048491134"><ele>535.0</ele><time>2026-05-02T15:52:04Z</time></trkpt><trkpt lat="43.2030606347746" lon="12.158949311465483"><ele>535.0</ele><time>2026-05-02T15:52:05Z</time></trkpt><trkpt lat="43.20300886696247" lon="12.159015555835563"><ele>535.0</ele><time>2026-05-02T15:52:06Z</time></trkpt><trkpt lat="43.2029637433673" lon="12.159092444489014"><ele>535.0</ele><time>2026-05-02T15:52:07Z</time></trkpt><trkpt lat="43.20292223718822" lon="12.159164799675999"><ele>533.8</ele><time>2026-05-02T15:52:08Z</time></trkpt><trkpt lat="43.202857867512684" lon="12.15928040836148"><ele>532.6</ele><time>2026-05-02T15:52:10Z</time></trkpt><trkpt lat="43.202795682726475" lon="12.159357763943808"><ele>531.4</ele><time>2026-05-02T15:52:12Z</time></trkpt><trkpt lat="43.20275261829147" lon="12.159522136032297"><ele>530.2</ele><time>2026-05-02T15:52:14Z</time></trkpt><trkpt lat="43.20272195627681" lon="12.15965256104089"><ele>529.0</ele><time>2026-05-02T15:52:15Z</time></trkpt><trkpt lat="43.20268028537969" lon="12.159791409945914"><ele>528.8</ele><time>2026-05-02T15:52:16Z</time></trkpt><trkpt lat="43.202634754062615" lon="12.15993516236717"><ele>528.5999999999999</ele><time>2026-05-02T15:52:17Z</time></trkpt><trkpt lat="43.2025913625248" lon="12.160059632011071"><ele>528.4</ele><time>2026-05-02T15:52:18Z</time></trkpt><trkpt lat="43.202531485335975" lon="12.160168461628059"><ele>528.1999999999999</ele><time>2026-05-02T15:52:19Z</time></trkpt><trkpt lat="43.20247575421489" lon="12.160291093735205"><ele>528.0</ele><time>2026-05-02T15:52:20Z</time></trkpt><trkpt lat="43.20241103726836" lon="12.160414275231108"><ele>528.75</ele><time>2026-05-02T15:52:21Z</time></trkpt><trkpt lat="43.202328170625414" lon="12.160543525146501"><ele>529.5</ele><time>2026-05-02T15:52:22Z</time></trkpt><trkpt lat="43.20222896537206" lon="12.160690909971876"><ele>530.25</ele><time>2026-05-02T15:52:23Z</time></trkpt><trkpt lat="43.20213640069748" lon="12.160817897820118"><ele>531.0</ele><time>2026-05-02T15:52:24Z</time></trkpt><trkpt lat="43.20204247181861" lon="12.160933542963988"><ele>531.0</ele><time>2026-05-02T15:52:25Z</time></trkpt><trkpt lat="43.201943939591196" lon="12.161041373985604"><ele>531.0</ele><time>2026-05-02T15:52:26Z</time></trkpt><trkpt lat="43.20185353534134" lon="12.161151831943776"><ele>531.0</ele><time>2026-05-02T15:52:27Z</time></trkpt><trkpt lat="43.20176051751904" lon="12.16123279734517"><ele>531.0</ele><time>2026-05-02T15:52:28Z</time></trkpt><trkpt lat="43.201674796462164" lon="12.161316079000532"><ele>531.0</ele><time>2026-05-02T15:52:29Z</time></trkpt><trkpt lat="43.20158188588833" lon="12.16139917473148"><ele>531.0</ele><time>2026-05-02T15:52:30Z</time></trkpt><trkpt lat="43.20149091541454" lon="12.16147846497657"><ele>531.0</ele><time>2026-05-02T15:52:31Z</time></trkpt><trkpt lat="43.2014004485684" lon="12.161563417172186"><ele>531.0</ele><time>2026-05-02T15:52:32Z</time></trkpt><trkpt lat="43.20132543699456" lon="12.161650983740977"><ele>531.0</ele><time>2026-05-02T15:52:33Z</time></trkpt><trkpt lat="43.201251473158685" lon="12.161758103267344"><ele>531.25</ele><time>2026-05-02T15:52:34Z</time></trkpt><trkpt lat="43.20115914861094" lon="12.161877084141167"><ele>531.5</ele><time>2026-05-02T15:52:35Z</time></trkpt><trkpt lat="43.20107375733686" lon="12.1620034265464"><ele>531.75</ele><time>2026-05-02T15:52:36Z</time></trkpt><trkpt lat="43.200994744680635" lon="12.162114329797864"><ele>532.0</ele><time>2026-05-02T15:52:37Z</time></trkpt><trkpt lat="43.20092563029646" lon="12.162200970160379"><ele>532.0</ele><time>2026-05-02T15:52:38Z</time></trkpt><trkpt lat="43.20086038533924" lon="12.162285509515044"><ele>532.0</ele><time>2026-05-02T15:52:39Z</time></trkpt><trkpt lat="43.20079122944476" lon="12.162375451111869"><ele>532.0</ele><time>2026-05-02T15:52:40Z</time></trkpt><trkpt lat="43.200713503412985" lon="12.16247145920591"><ele>532.0</ele><time>2026-05-02T15:52:41Z</time></trkpt><trkpt lat="43.20063316178448" lon="12.162572634893566"><ele>532.0</ele><time>2026-05-02T15:52:42Z</time></trkpt><trkpt lat="43.20055158803138" lon="12.162683884610791"><ele>532.0</ele><time>2026-05-02T15:52:43Z</time></trkpt><trkpt lat="43.20047492812403" lon="12.162781326931285"><ele>532.0</ele><time>2026-05-02T15:52:44Z</time></trkpt><trkpt lat="43.200403390084915" lon="12.162860914694347"><ele>532.0</ele><time>2026-05-02T15:52:45Z</time></trkpt><trkpt lat="43.20034963267379" lon="12.162919166877266"><ele>532.0</ele><time>2026-05-02T15:52:46Z</time></trkpt><trkpt lat="43.200304001143145" lon="12.162998179941141"><ele>532.0</ele><time>2026-05-02T15:52:47Z</time></trkpt><trkpt lat="43.20026732468596" lon="12.16310254426631"><ele>532.0</ele><time>2026-05-02T15:52:48Z</time></trkpt><trkpt lat="43.200255240851114" lon="12.16319255160444"><ele>534.6</ele><time>2026-05-02T15:52:49Z</time></trkpt><trkpt lat="43.200244426061474" lon="12.163341298519896"><ele>537.2</ele><time>2026-05-02T15:52:51Z</time></trkpt><trkpt lat="43.20023054929449" lon="12.163515698480886"><ele>539.8</ele><time>2026-05-02T15:52:53Z</time></trkpt><trkpt lat="43.20025090162628" lon="12.163619777161445"><ele>542.4</ele><time>2026-05-02T15:52:54Z</time></trkpt><trkpt lat="43.20025702833771" lon="12.163725205131797"><ele>545.0</ele><time>2026-05-02T15:52:55Z</time></trkpt><trkpt lat="43.20026294644607" lon="12.16383164425494"><ele>545.0</ele><time>2026-05-02T15:52:56Z</time></trkpt><trkpt lat="43.200278639671374" lon="12.163944559748076"><ele>545.0</ele><time>2026-05-02T15:52:57Z</time></trkpt><trkpt lat="43.200285507135725" lon="12.164054790693651"><ele>545.0</ele><time>2026-05-02T15:52:58Z</time></trkpt><trkpt lat="43.20030243406183" lon="12.164151016189184"><ele>545.0</ele><time>2026-05-02T15:52:59Z</time></trkpt><trkpt lat="43.20032096339773" lon="12.164256351014364"><ele>545.0</ele><time>2026-05-02T15:53:00Z</time></trkpt><trkpt lat="43.200344351649285" lon="12.16437544998313"><ele>545.0</ele><time>2026-05-02T15:53:01Z</time></trkpt><trkpt lat="43.20037193731823" lon="12.164493498342768"><ele>545.4</ele><time>2026-05-02T15:53:02Z</time></trkpt><trkpt lat="43.200422060122705" lon="12.164613641112082"><ele>545.8</ele><time>2026-05-02T15:53:03Z</time></trkpt><trkpt lat="43.20044620318808" lon="12.164722457826251"><ele>546.2</ele><time>2026-05-02T15:53:04Z</time></trkpt><trkpt lat="43.20046807913564" lon="12.164808087813217"><ele>546.6</ele><time>2026-05-02T15:53:05Z</time></trkpt><trkpt lat="43.200493484304495" lon="12.164958193534163"><ele>547.0</ele><time>2026-05-02T15:53:07Z</time></trkpt><trkpt lat="43.20050443713517" lon="12.165092977466044"><ele>548.2</ele><time>2026-05-02T15:53:09Z</time></trkpt><trkpt lat="43.20048709783081" lon="12.165212009633198"><ele>549.4000000000001</ele><time>2026-05-02T15:53:11Z</time></trkpt><trkpt lat="43.20045823747342" lon="12.165378602904731"><ele>550.5999999999999</ele><time>2026-05-02T15:53:13Z</time></trkpt><trkpt lat="43.20043208457208" lon="12.16547060119986"><ele>551.8</ele><time>2026-05-02T15:53:14Z</time></trkpt><trkpt lat="43.200397919196725" lon="12.165571176406488"><ele>553.0</ele><time>2026-05-02T15:53:15Z</time></trkpt><trkpt lat="43.20037081548334" lon="12.165686596152618"><ele>554.1666666666667</ele><time>2026-05-02T15:53:16Z</time></trkpt><trkpt lat="43.2003209878744" lon="12.165785189873251"><ele>555.3333333333334</ele><time>2026-05-02T15:53:17Z</time></trkpt><trkpt lat="43.20028198804098" lon="12.165897257770569"><ele>556.5</ele><time>2026-05-02T15:53:18Z</time></trkpt><trkpt lat="43.200252614830305" lon="12.16600975444811"><ele>557.6666666666666</ele><time>2026-05-02T15:53:19Z</time></trkpt><trkpt lat="43.20023283563176" lon="12.16612087773067"><ele>558.8333333333333</ele><time>2026-05-02T15:53:20Z</time></trkpt><trkpt lat="43.20022258824437" lon="12.166234630972003"><ele>560.0</ele><time>2026-05-02T15:53:21Z</time></trkpt><trkpt lat="43.20023018937192" lon="12.166345429940955"><ele>560.0</ele><time>2026-05-02T15:53:22Z</time></trkpt><trkpt lat="43.20024395454005" lon="12.16646031518124"><ele>560.0</ele><time>2026-05-02T15:53:23Z</time></trkpt><trkpt lat="43.200257418157584" lon="12.16656596634265"><ele>560.0</ele><time>2026-05-02T15:53:24Z</time></trkpt><trkpt lat="43.2002740514675" lon="12.166662540771844"><ele>560.0</ele><time>2026-05-02T15:53:25Z</time></trkpt><trkpt lat="43.20029327858403" lon="12.166764581943623"><ele>560.0</ele><time>2026-05-02T15:53:26Z</time></trkpt><trkpt lat="43.20031199215056" lon="12.166856800632043"><ele>560.0</ele><time>2026-05-02T15:53:27Z</time></trkpt><trkpt lat="43.20032977324888" lon="12.166944424249758"><ele>560.0</ele><time>2026-05-02T15:53:28Z</time></trkpt><trkpt lat="43.20036170788006" lon="12.16701894157858"><ele>561.4</ele><time>2026-05-02T15:53:29Z</time></trkpt><trkpt lat="43.20037442910886" lon="12.167117450921513"><ele>562.8</ele><time>2026-05-02T15:53:31Z</time></trkpt><trkpt lat="43.20038996144108" lon="12.166897909589087"><ele>564.2</ele><time>2026-05-02T15:53:37Z</time></trkpt><trkpt lat="43.20038302698079" lon="12.166798672208879"><ele>565.6</ele><time>2026-05-02T15:53:39Z</time></trkpt><trkpt lat="43.20041129677317" lon="12.166703668459839"><ele>567.0</ele><time>2026-05-02T15:53:41Z</time></trkpt><trkpt lat="43.200493940523806" lon="12.166694729705274"><ele>567.0</ele><time>2026-05-02T15:53:43Z</time></trkpt><trkpt lat="43.20055859499059" lon="12.166734304914236"><ele>567.0</ele><time>2026-05-02T15:53:44Z</time></trkpt><trkpt lat="43.20064025098077" lon="12.166773696210182"><ele>567.0</ele><time>2026-05-02T15:53:45Z</time></trkpt><trkpt lat="43.20070077466247" lon="12.166799581429485"><ele>567.0</ele><time>2026-05-02T15:53:46Z</time></trkpt><trkpt lat="43.200808920497465" lon="12.16680741829844"><ele>567.0</ele><time>2026-05-02T15:53:48Z</time></trkpt><trkpt lat="43.20091999345556" lon="12.166753328816228"><ele>567.0</ele><time>2026-05-02T15:53:50Z</time></trkpt><trkpt lat="43.200977730437536" lon="12.166712938156385"><ele>566.8333333333334</ele><time>2026-05-02T15:53:51Z</time></trkpt><trkpt lat="43.2010351437684" lon="12.166665550521618"><ele>566.6666666666666</ele><time>2026-05-02T15:53:52Z</time></trkpt><trkpt lat="43.20108271535903" lon="12.16660888370348"><ele>566.5</ele><time>2026-05-02T15:53:53Z</time></trkpt><trkpt lat="43.20112433909146" lon="12.16654160221085"><ele>566.3333333333333</ele><time>2026-05-02T15:53:54Z</time></trkpt><trkpt lat="43.20115974143186" lon="12.166448685676372"><ele>566.1666666666666</ele><time>2026-05-02T15:53:55Z</time></trkpt><trkpt lat="43.20119671372465" lon="12.166337317454428"><ele>566.0</ele><time>2026-05-02T15:53:56Z</time></trkpt><trkpt lat="43.20124335244779" lon="12.166224176127225"><ele>565.8333333333333</ele><time>2026-05-02T15:53:57Z</time></trkpt><trkpt lat="43.20128777152814" lon="12.166119944978226"><ele>565.6666666666666</ele><time>2026-05-02T15:53:58Z</time></trkpt><trkpt lat="43.20133074981975" lon="12.16602320060861"><ele>565.5</ele><time>2026-05-02T15:53:59Z</time></trkpt><trkpt lat="43.2013777626655" lon="12.165952148835343"><ele>565.3333333333334</ele><time>2026-05-02T15:54:00Z</time></trkpt><trkpt lat="43.20143680473546" lon="12.165842791673725"><ele>565.1666666666667</ele><time>2026-05-02T15:54:02Z</time></trkpt><trkpt lat="43.20150698263527" lon="12.165780884490301"><ele>565.0</ele><time>2026-05-02T15:54:04Z</time></trkpt><trkpt lat="43.20157870645733" lon="12.165726342023191"><ele>564.6</ele><time>2026-05-02T15:54:06Z</time></trkpt><trkpt lat="43.201649275975186" lon="12.165733342233494"><ele>564.2</ele><time>2026-05-02T15:54:08Z</time></trkpt><trkpt lat="43.201734104789615" lon="12.165720831777382"><ele>563.8</ele><time>2026-05-02T15:54:10Z</time></trkpt><trkpt lat="43.20181897355946" lon="12.165682732628206"><ele>563.4</ele><time>2026-05-02T15:54:12Z</time></trkpt><trkpt lat="43.20193844893649" lon="12.165599958778825"><ele>563.0</ele><time>2026-05-02T15:54:14Z</time></trkpt><trkpt lat="43.202018953951765" lon="12.165547351129684"><ele>564.6</ele><time>2026-05-02T15:54:15Z</time></trkpt><trkpt lat="43.202095743989105" lon="12.165504126111923"><ele>566.1999999999999</ele><time>2026-05-02T15:54:16Z</time></trkpt><trkpt lat="43.202174290976444" lon="12.16545557766139"><ele>567.8</ele><time>2026-05-02T15:54:17Z</time></trkpt><trkpt lat="43.202242668620826" lon="12.165416870475855"><ele>569.4</ele><time>2026-05-02T15:54:18Z</time></trkpt><trkpt lat="43.202339809351066" lon="12.165347070968492"><ele>571.0</ele><time>2026-05-02T15:54:20Z</time></trkpt><trkpt lat="43.2024475923615" lon="12.165244462855945"><ele>571.0</ele><time>2026-05-02T15:54:22Z</time></trkpt><trkpt lat="43.202508478325576" lon="12.165175039378703"><ele>571.0</ele><time>2026-05-02T15:54:23Z</time></trkpt><trkpt lat="43.20258002064745" lon="12.16505390094294"><ele>571.0</ele><time>2026-05-02T15:54:25Z</time></trkpt><trkpt lat="43.20266752047811" lon="12.16495386421873"><ele>571.0</ele><time>2026-05-02T15:54:27Z</time></trkpt><trkpt lat="43.20273688255538" lon="12.164851315558497"><ele>571.0</ele><time>2026-05-02T15:54:29Z</time></trkpt><trkpt lat="43.20279354088117" lon="12.164746670675333"><ele>572.1666666666667</ele><time>2026-05-02T15:54:31Z</time></trkpt><trkpt lat="43.202835594495674" lon="12.164633029683301"><ele>573.3333333333334</ele><time>2026-05-02T15:54:33Z</time></trkpt><trkpt lat="43.20277053914753" lon="12.164567106152308"><ele>574.5</ele><time>2026-05-02T15:54:37Z</time></trkpt><trkpt lat="43.202701906510825" lon="12.164534651146617"><ele>575.6666666666666</ele><time>2026-05-02T15:54:39Z</time></trkpt><trkpt lat="43.20263639290426" lon="12.164444394666475"><ele>576.8333333333333</ele><time>2026-05-02T15:54:42Z</time></trkpt><trkpt lat="43.202570583692534" lon="12.164412397833344"><ele>578.0</ele><time>2026-05-02T15:54:46Z</time></trkpt><trkpt lat="43.2024848220156" lon="12.164394448571738"><ele>578.0</ele><time>2026-05-02T15:54:49Z</time></trkpt><trkpt lat="43.20238965401346" lon="12.164390734620062"><ele>578.0</ele><time>2026-05-02T15:54:51Z</time></trkpt><trkpt lat="43.202326944517225" lon="12.164335087801817"><ele>578.0</ele><time>2026-05-02T15:54:53Z</time></trkpt><trkpt lat="43.20230417214544" lon="12.164230970865646"><ele>578.0</ele><time>2026-05-02T15:54:57Z</time></trkpt><trkpt lat="43.20231089041505" lon="12.164114215535589"><ele>578.0</ele><time>2026-05-02T15:55:01Z</time></trkpt><trkpt lat="43.20226030345875" lon="12.164010082265758"><ele>578.0</ele><time>2026-05-02T15:55:03Z</time></trkpt><trkpt lat="43.202199014919145" lon="12.163935988009214"><ele>578.0</ele><time>2026-05-02T15:55:05Z</time></trkpt><trkpt lat="43.202244755542466" lon="12.163857059727315"><ele>578.0</ele><time>2026-05-02T15:55:12Z</time></trkpt><trkpt lat="43.2022992186436" lon="12.163905813165913"><ele>578.0</ele><time>2026-05-02T15:55:15Z</time></trkpt><trkpt lat="43.2022791134982" lon="12.16399472432299"><ele>578.0</ele><time>2026-05-02T15:55:20Z</time></trkpt><trkpt lat="43.20229614074417" lon="12.164080165598314"><ele>578.0</ele><time>2026-05-02T15:55:23Z</time></trkpt><trkpt lat="43.20233059679848" lon="12.164183429026776"><ele>578.0</ele><time>2026-05-02T15:55:26Z</time></trkpt><trkpt lat="43.2022904175503" lon="12.164279352845938"><ele>578.0</ele><time>2026-05-02T15:55:29Z</time></trkpt><trkpt lat="43.20234284059865" lon="12.164342874966088"><ele>578.0</ele><time>2026-05-02T15:55:32Z</time></trkpt><trkpt lat="43.202435216876786" lon="12.164387476650289"><ele>578.0</ele><time>2026-05-02T15:55:35Z</time></trkpt><trkpt lat="43.20251257208579" lon="12.164379078205958"><ele>578.0</ele><time>2026-05-02T15:55:37Z</time></trkpt><trkpt lat="43.202592589109265" lon="12.164393480220651"><ele>578.0</ele><time>2026-05-02T15:55:39Z</time></trkpt><trkpt lat="43.2026555595525" lon="12.164458426330082"><ele>578.0</ele><time>2026-05-02T15:55:43Z</time></trkpt><trkpt lat="43.202703854719886" lon="12.164528262852805"><ele>578.0</ele><time>2026-05-02T15:55:45Z</time></trkpt><trkpt lat="43.20277274822006" lon="12.164540762027276"><ele>578.0</ele><time>2026-05-02T15:55:47Z</time></trkpt><trkpt lat="43.20284257733127" lon="12.164611700466942"><ele>578.0</ele><time>2026-05-02T15:55:50Z</time></trkpt><trkpt lat="43.202811358416994" lon="12.164690800222028"><ele>578.0</ele><time>2026-05-02T15:55:52Z</time></trkpt><trkpt lat="43.202746593607706" lon="12.164814609562294"><ele>578.0</ele><time>2026-05-02T15:55:54Z</time></trkpt><trkpt lat="43.202702922737394" lon="12.16489388344439"><ele>578.0</ele><time>2026-05-02T15:55:56Z</time></trkpt><trkpt lat="43.20264420491969" lon="12.164980987788768"><ele>578.0</ele><time>2026-05-02T15:55:59Z</time></trkpt><trkpt lat="43.20258682706004" lon="12.165048720446265"><ele>577.0</ele><time>2026-05-02T15:56:01Z</time></trkpt><trkpt lat="43.20251834149494" lon="12.165152043704664"><ele>576.0</ele><time>2026-05-02T15:56:03Z</time></trkpt><trkpt lat="43.202432671658634" lon="12.165269337204018"><ele>575.0</ele><time>2026-05-02T15:56:05Z</time></trkpt><trkpt lat="43.202374871365045" lon="12.16532461990953"><ele>574.0</ele><time>2026-05-02T15:56:06Z</time></trkpt><trkpt lat="43.20227717750237" lon="12.165398371710962"><ele>573.0</ele><time>2026-05-02T15:56:08Z</time></trkpt><trkpt lat="43.20221855812608" lon="12.165440991747207"><ele>573.0</ele><time>2026-05-02T15:56:09Z</time></trkpt><trkpt lat="43.20214269666125" lon="12.165480338839902"><ele>573.0</ele><time>2026-05-02T15:56:10Z</time></trkpt><trkpt lat="43.202062699015826" lon="12.165527131441703"><ele>573.0</ele><time>2026-05-02T15:56:11Z</time></trkpt><trkpt lat="43.20199635715042" lon="12.165571515066805"><ele>573.0</ele><time>2026-05-02T15:56:12Z</time></trkpt><trkpt lat="43.201929578964716" lon="12.165614025295843"><ele>573.0</ele><time>2026-05-02T15:56:13Z</time></trkpt><trkpt lat="43.20186112782665" lon="12.165654850980333"><ele>573.0</ele><time>2026-05-02T15:56:14Z</time></trkpt><trkpt lat="43.20179340214749" lon="12.165693903110679"><ele>571.4</ele><time>2026-05-02T15:56:15Z</time></trkpt><trkpt lat="43.20172131938673" lon="12.165744907794176"><ele>569.8</ele><time>2026-05-02T15:56:16Z</time></trkpt><trkpt lat="43.201650379238195" lon="12.165784147638508"><ele>568.2</ele><time>2026-05-02T15:56:17Z</time></trkpt><trkpt lat="43.20157971333899" lon="12.165826587026197"><ele>566.6</ele><time>2026-05-02T15:56:18Z</time></trkpt><trkpt lat="43.20147218783198" lon="12.165884957561701"><ele>565.0</ele><time>2026-05-02T15:56:20Z</time></trkpt><trkpt lat="43.20136899552093" lon="12.165952430604865"><ele>565.0</ele><time>2026-05-02T15:56:22Z</time></trkpt><trkpt lat="43.201324945522124" lon="12.166040984721713"><ele>565.0</ele><time>2026-05-02T15:56:23Z</time></trkpt><trkpt lat="43.20128876256489" lon="12.166144242918712"><ele>565.0</ele><time>2026-05-02T15:56:24Z</time></trkpt><trkpt lat="43.201237031256895" lon="12.16626946389811"><ele>565.0</ele><time>2026-05-02T15:56:25Z</time></trkpt><trkpt lat="43.20118703195791" lon="12.166392009027621"><ele>565.0</ele><time>2026-05-02T15:56:26Z</time></trkpt><trkpt lat="43.20114939766129" lon="12.166481633078165"><ele>565.0</ele><time>2026-05-02T15:56:27Z</time></trkpt><trkpt lat="43.201113214074624" lon="12.166559052369852"><ele>565.1666666666667</ele><time>2026-05-02T15:56:28Z</time></trkpt><trkpt lat="43.20107220017742" lon="12.16662974177213"><ele>565.3333333333334</ele><time>2026-05-02T15:56:29Z</time></trkpt><trkpt lat="43.20097497953968" lon="12.166733761193589"><ele>565.5</ele><time>2026-05-02T15:56:31Z</time></trkpt><trkpt lat="43.200880834538424" lon="12.166778904616507"><ele>565.6666666666666</ele><time>2026-05-02T15:56:32Z</time></trkpt><trkpt lat="43.20080940734354" lon="12.16680546730774"><ele>565.8333333333333</ele><time>2026-05-02T15:56:33Z</time></trkpt><trkpt lat="43.20073494573249" lon="12.166814191211252"><ele>566.0</ele><time>2026-05-02T15:56:34Z</time></trkpt><trkpt lat="43.200657675978206" lon="12.166801250682667"><ele>566.1666666666666</ele><time>2026-05-02T15:56:35Z</time></trkpt><trkpt lat="43.200582453773634" lon="12.166768169913873"><ele>566.3333333333333</ele><time>2026-05-02T15:56:36Z</time></trkpt><trkpt lat="43.2004945278037" lon="12.166722882836828"><ele>566.5</ele><time>2026-05-02T15:56:37Z</time></trkpt><trkpt lat="43.20042953738059" lon="12.166695335108509"><ele>566.6666666666666</ele><time>2026-05-02T15:56:38Z</time></trkpt><trkpt lat="43.2003638308904" lon="12.166730512793537"><ele>566.8333333333334</ele><time>2026-05-02T15:56:40Z</time></trkpt><trkpt lat="43.200378897291664" lon="12.16690772657667"><ele>567.0</ele><time>2026-05-02T15:56:41Z</time></trkpt><trkpt lat="43.20016560463415" lon="12.166931784200557"><ele>567.0</ele><time>2026-05-02T15:56:46Z</time></trkpt><trkpt lat="43.20005652459974" lon="12.167109457661365"><ele>567.0</ele><time>2026-05-02T15:56:47Z</time></trkpt><trkpt lat="43.20045441639628" lon="12.167336135637555"><ele>567.8333333333334</ele><time>2026-05-02T15:56:48Z</time></trkpt><trkpt lat="43.20046926403987" lon="12.167446767532375"><ele>568.6666666666666</ele><time>2026-05-02T15:56:49Z</time></trkpt><trkpt lat="43.20048839803976" lon="12.167552942469484"><ele>569.5</ele><time>2026-05-02T15:56:50Z</time></trkpt><trkpt lat="43.20051625301098" lon="12.167661534287904"><ele>570.3333333333333</ele><time>2026-05-02T15:56:51Z</time></trkpt><trkpt lat="43.200549033615005" lon="12.16777394761146"><ele>571.1666666666666</ele><time>2026-05-02T15:56:52Z</time></trkpt><trkpt lat="43.20058761833722" lon="12.16789007271862"><ele>572.0</ele><time>2026-05-02T15:56:53Z</time></trkpt><trkpt lat="43.200629544497055" lon="12.168007773987794"><ele>570.8333333333333</ele><time>2026-05-02T15:56:54Z</time></trkpt><trkpt lat="43.20067603076571" lon="12.16811560504557"><ele>569.6666666666666</ele><time>2026-05-02T15:56:55Z</time></trkpt><trkpt lat="43.20072458518342" lon="12.168219130491766"><ele>568.5</ele><time>2026-05-02T15:56:56Z</time></trkpt><trkpt lat="43.20077235733157" lon="12.168323857063868"><ele>567.3333333333334</ele><time>2026-05-02T15:56:57Z</time></trkpt><trkpt lat="43.2008237540192" lon="12.168429869762072"><ele>566.1666666666667</ele><time>2026-05-02T15:56:58Z</time></trkpt><trkpt lat="43.200869376243865" lon="12.168525886684797"><ele>565.0</ele><time>2026-05-02T15:56:59Z</time></trkpt><trkpt lat="43.20091301661514" lon="12.168621101557536"><ele>565.0</ele><time>2026-05-02T15:57:00Z</time></trkpt><trkpt lat="43.20094512329233" lon="12.16872205507744"><ele>565.0</ele><time>2026-05-02T15:57:01Z</time></trkpt><trkpt lat="43.20097301170442" lon="12.168830791282476"><ele>565.0</ele><time>2026-05-02T15:57:02Z</time></trkpt><trkpt lat="43.20099607668873" lon="12.168918885702674"><ele>565.0</ele><time>2026-05-02T15:57:03Z</time></trkpt><trkpt lat="43.20104687215142" lon="12.16906248593187"><ele>565.0</ele><time>2026-05-02T15:57:05Z</time></trkpt><trkpt lat="43.20109246356435" lon="12.169205046996575"><ele>565.6666666666667</ele><time>2026-05-02T15:57:07Z</time></trkpt><trkpt lat="43.20111223092625" lon="12.169291132586558"><ele>566.3333333333334</ele><time>2026-05-02T15:57:08Z</time></trkpt><trkpt lat="43.20112623487921" lon="12.169379670377408"><ele>567.0</ele><time>2026-05-02T15:57:09Z</time></trkpt><trkpt lat="43.20113054981714" lon="12.169478062707118"><ele>567.6666666666666</ele><time>2026-05-02T15:57:10Z</time></trkpt><trkpt lat="43.201121735807355" lon="12.169591132668812"><ele>568.3333333333333</ele><time>2026-05-02T15:57:11Z</time></trkpt><trkpt lat="43.20110250742317" lon="12.169740974770669"><ele>569.0</ele><time>2026-05-02T15:57:12Z</time></trkpt><trkpt lat="43.20108357659487" lon="12.169867326672543"><ele>569.6666666666666</ele><time>2026-05-02T15:57:13Z</time></trkpt><trkpt lat="43.20107384004119" lon="12.169983850579724"><ele>570.3333333333333</ele><time>2026-05-02T15:57:14Z</time></trkpt><trkpt lat="43.201072352331146" lon="12.170089226205544"><ele>571.0</ele><time>2026-05-02T15:57:15Z</time></trkpt><trkpt lat="43.20108652336473" lon="12.170176489274846"><ele>571.6666666666666</ele><time>2026-05-02T15:57:16Z</time></trkpt><trkpt lat="43.20111955477964" lon="12.170266803176881"><ele>572.3333333333334</ele><time>2026-05-02T15:57:17Z</time></trkpt><trkpt lat="43.20117071851538" lon="12.170352397725496"><ele>573.0</ele><time>2026-05-02T15:57:18Z</time></trkpt><trkpt lat="43.20124130819235" lon="12.17043828712565"><ele>573.0</ele><time>2026-05-02T15:57:19Z</time></trkpt><trkpt lat="43.20131583376024" lon="12.170551135960002"><ele>573.0</ele><time>2026-05-02T15:57:20Z</time></trkpt><trkpt lat="43.201426025621444" lon="12.170657542002965"><ele>573.0</ele><time>2026-05-02T15:57:21Z</time></trkpt><trkpt lat="43.20152759386596" lon="12.170739485662232"><ele>573.0</ele><time>2026-05-02T15:57:22Z</time></trkpt><trkpt lat="43.20160472616915" lon="12.170820233856624"><ele>571.6666666666666</ele><time>2026-05-02T15:57:23Z</time></trkpt><trkpt lat="43.201681758393576" lon="12.170896398436524"><ele>570.3333333333334</ele><time>2026-05-02T15:57:24Z</time></trkpt><trkpt lat="43.201750457855574" lon="12.170967782581235"><ele>569.0</ele><time>2026-05-02T15:57:25Z</time></trkpt><trkpt lat="43.2018130081741" lon="12.171020982090905"><ele>567.6666666666667</ele><time>2026-05-02T15:57:26Z</time></trkpt><trkpt lat="43.20186917055134" lon="12.171077182067997"><ele>566.3333333333334</ele><time>2026-05-02T15:57:27Z</time></trkpt><trkpt lat="43.20195717848377" lon="12.17116866035138"><ele>565.0</ele><time>2026-05-02T15:57:29Z</time></trkpt><trkpt lat="43.20203635250037" lon="12.17124983414702"><ele>565.0</ele><time>2026-05-02T15:57:31Z</time></trkpt><trkpt lat="43.202088497502345" lon="12.17130606967024"><ele>565.0</ele><time>2026-05-02T15:57:32Z</time></trkpt><trkpt lat="43.20214833538707" lon="12.171369120979511"><ele>565.0</ele><time>2026-05-02T15:57:33Z</time></trkpt><trkpt lat="43.202216183955045" lon="12.17143895873523"><ele>565.0</ele><time>2026-05-02T15:57:34Z</time></trkpt><trkpt lat="43.20227930122691" lon="12.171490987263738"><ele>565.0</ele><time>2026-05-02T15:57:35Z</time></trkpt><trkpt lat="43.202345082213114" lon="12.171582102285052"><ele>565.0</ele><time>2026-05-02T15:57:37Z</time></trkpt><trkpt lat="43.20245120139072" lon="12.171697816577746"><ele>565.6</ele><time>2026-05-02T15:57:39Z</time></trkpt><trkpt lat="43.20251586895067" lon="12.171771845180995"><ele>566.2</ele><time>2026-05-02T15:57:40Z</time></trkpt><trkpt lat="43.20257487601605" lon="12.17184776813704"><ele>566.8</ele><time>2026-05-02T15:57:41Z</time></trkpt><trkpt lat="43.202619101414385" lon="12.171931462418675"><ele>567.4</ele><time>2026-05-02T15:57:42Z</time></trkpt><trkpt lat="43.20265420352239" lon="12.172064947245728"><ele>568.0</ele><time>2026-05-02T15:57:44Z</time></trkpt><trkpt lat="43.20267948860388" lon="12.172228665122017"><ele>568.0</ele><time>2026-05-02T15:57:46Z</time></trkpt><trkpt lat="43.20272057483591" lon="12.172324435429758"><ele>568.0</ele><time>2026-05-02T15:57:48Z</time></trkpt><trkpt lat="43.202758212957626" lon="12.172412168192272"><ele>568.0</ele><time>2026-05-02T15:57:50Z</time></trkpt><trkpt lat="43.20279018618559" lon="12.17248669655038"><ele>568.0</ele><time>2026-05-02T15:57:52Z</time></trkpt><trkpt lat="43.20283511377204" lon="12.172591421013419"><ele>568.0</ele><time>2026-05-02T15:57:55Z</time></trkpt><trkpt lat="43.202775592591124" lon="12.172511299741636"><ele>568.0</ele><time>2026-05-02T15:57:56Z</time></trkpt><trkpt lat="43.20323483362109" lon="12.172692902472033"><ele>567.0</ele><time>2026-05-02T15:58:40Z</time></trkpt><trkpt lat="43.20325377405194" lon="12.17277771042166"><ele>566.0</ele><time>2026-05-02T15:58:43Z</time></trkpt><trkpt lat="43.20333020852936" lon="12.172857524734951"><ele>565.0</ele><time>2026-05-02T15:58:45Z</time></trkpt><trkpt lat="43.203393669986916" lon="12.172947369225424"><ele>564.0</ele><time>2026-05-02T15:58:46Z</time></trkpt><trkpt lat="43.203447565927135" lon="12.173080938769372"><ele>563.0</ele><time>2026-05-02T15:58:47Z</time></trkpt><trkpt lat="43.20351958148635" lon="12.173169208145236"><ele>563.4</ele><time>2026-05-02T15:58:48Z</time></trkpt><trkpt lat="43.20356438125704" lon="12.173259617895445"><ele>563.8</ele><time>2026-05-02T15:58:49Z</time></trkpt><trkpt lat="43.20362744795185" lon="12.173354514834061"><ele>564.2</ele><time>2026-05-02T15:58:50Z</time></trkpt><trkpt lat="43.20370067038887" lon="12.173445997562657"><ele>564.6</ele><time>2026-05-02T15:58:51Z</time></trkpt><trkpt lat="43.2037739072791" lon="12.173550003690005"><ele>565.0</ele><time>2026-05-02T15:58:52Z</time></trkpt><trkpt lat="43.203835586809575" lon="12.173655187001375"><ele>565.0</ele><time>2026-05-02T15:58:53Z</time></trkpt><trkpt lat="43.20388935610392" lon="12.173754891200003"><ele>565.0</ele><time>2026-05-02T15:58:54Z</time></trkpt><trkpt lat="43.20395107927731" lon="12.173856196805586"><ele>565.0</ele><time>2026-05-02T15:58:55Z</time></trkpt><trkpt lat="43.20401898014095" lon="12.173945756624311"><ele>565.0</ele><time>2026-05-02T15:58:56Z</time></trkpt><trkpt lat="43.204073858548306" lon="12.174028047987095"><ele>565.0</ele><time>2026-05-02T15:58:57Z</time></trkpt><trkpt lat="43.2041185687833" lon="12.174113392179454"><ele>565.0</ele><time>2026-05-02T15:58:58Z</time></trkpt><trkpt lat="43.204161677853065" lon="12.174202524749813"><ele>564.4285714285713</ele><time>2026-05-02T15:58:59Z</time></trkpt><trkpt lat="43.20420527490422" lon="12.174268649109898"><ele>563.8571428571429</ele><time>2026-05-02T15:59:00Z</time></trkpt><trkpt lat="43.20426506107726" lon="12.17435222384723"><ele>563.2857142857142</ele><time>2026-05-02T15:59:01Z</time></trkpt><trkpt lat="43.20431496573871" lon="12.174437283945386"><ele>562.7142857142857</ele><time>2026-05-02T15:59:02Z</time></trkpt><trkpt lat="43.204358899437764" lon="12.174515298657042"><ele>562.1428571428571</ele><time>2026-05-02T15:59:03Z</time></trkpt><trkpt lat="43.20442277766724" lon="12.174577661370977"><ele>561.5714285714286</ele><time>2026-05-02T15:59:04Z</time></trkpt><trkpt lat="43.20447354587741" lon="12.17463032477937"><ele>561.0</ele><time>2026-05-02T15:59:05Z</time></trkpt><trkpt lat="43.204538472928604" lon="12.174776652882965"><ele>560.25</ele><time>2026-05-02T15:59:07Z</time></trkpt><trkpt lat="43.204608501893425" lon="12.174898727081091"><ele>559.5</ele><time>2026-05-02T15:59:09Z</time></trkpt><trkpt lat="43.20469811288454" lon="12.175013940405458"><ele>558.75</ele><time>2026-05-02T15:59:11Z</time></trkpt><trkpt lat="43.2047886100915" lon="12.175103143432588"><ele>558.0</ele><time>2026-05-02T15:59:13Z</time></trkpt><trkpt lat="43.20488246308426" lon="12.17521805649106"><ele>558.0</ele><time>2026-05-02T15:59:15Z</time></trkpt><trkpt lat="43.20492291516709" lon="12.175287042466667"><ele>558.0</ele><time>2026-05-02T15:59:16Z</time></trkpt><trkpt lat="43.20498771799138" lon="12.17537714075804"><ele>558.0</ele><time>2026-05-02T15:59:17Z</time></trkpt><trkpt lat="43.205050273305844" lon="12.175469139147658"><ele>558.0</ele><time>2026-05-02T15:59:19Z</time></trkpt><trkpt lat="43.20517362361927" lon="12.175512194089777"><ele>558.0</ele><time>2026-05-02T15:59:21Z</time></trkpt><trkpt lat="43.20524714431349" lon="12.175551555640986"><ele>558.0</ele><time>2026-05-02T15:59:22Z</time></trkpt><trkpt lat="43.20530267521912" lon="12.17560826040121"><ele>558.0</ele><time>2026-05-02T15:59:23Z</time></trkpt><trkpt lat="43.205352968152795" lon="12.175660327178015"><ele>558.0</ele><time>2026-05-02T15:59:24Z</time></trkpt><trkpt lat="43.20544358828931" lon="12.17577457699236"><ele>558.0</ele><time>2026-05-02T15:59:26Z</time></trkpt><trkpt lat="43.20553460696983" lon="12.175863153838618"><ele>558.0</ele><time>2026-05-02T15:59:28Z</time></trkpt><trkpt lat="43.20561179793431" lon="12.175878857173945"><ele>558.0</ele><time>2026-05-02T15:59:29Z</time></trkpt><trkpt lat="43.205670401539365" lon="12.175913339293789"><ele>556.3333333333334</ele><time>2026-05-02T15:59:30Z</time></trkpt><trkpt lat="43.20574340819351" lon="12.175976542446104"><ele>554.6666666666666</ele><time>2026-05-02T15:59:31Z</time></trkpt><trkpt lat="43.205809855168134" lon="12.176022898119266"><ele>553.0</ele><time>2026-05-02T15:59:32Z</time></trkpt><trkpt lat="43.20589111447784" lon="12.176057631835736"><ele>551.3333333333333</ele><time>2026-05-02T15:59:33Z</time></trkpt><trkpt lat="43.20596337388706" lon="12.176094563205089"><ele>549.6666666666666</ele><time>2026-05-02T15:59:34Z</time></trkpt><trkpt lat="43.20601735399725" lon="12.17614101694803"><ele>548.0</ele><time>2026-05-02T15:59:35Z</time></trkpt><trkpt lat="43.206076532344994" lon="12.176207474221474"><ele>548.0</ele><time>2026-05-02T15:59:36Z</time></trkpt><trkpt lat="43.20613408360519" lon="12.176256099182272"><ele>548.0</ele><time>2026-05-02T15:59:37Z</time></trkpt><trkpt lat="43.20618387674674" lon="12.176313405845422"><ele>548.0</ele><time>2026-05-02T15:59:38Z</time></trkpt><trkpt lat="43.20619455952269" lon="12.176458901745987"><ele>548.0</ele><time>2026-05-02T15:59:40Z</time></trkpt><trkpt lat="43.206183221118394" lon="12.176609158452214"><ele>548.0</ele><time>2026-05-02T15:59:42Z</time></trkpt><trkpt lat="43.20625003819059" lon="12.176736635462923"><ele>546.8</ele><time>2026-05-02T15:59:44Z</time></trkpt><trkpt lat="43.20623565813182" lon="12.176902495268497"><ele>545.5999999999999</ele><time>2026-05-02T15:59:46Z</time></trkpt><trkpt lat="43.206217367255945" lon="12.177071212993546"><ele>544.4000000000001</ele><time>2026-05-02T15:59:48Z</time></trkpt><trkpt lat="43.20628488130198" lon="12.177218001834563"><ele>543.2</ele><time>2026-05-02T15:59:50Z</time></trkpt><trkpt lat="43.20634261005051" lon="12.177285579922978"><ele>542.0</ele><time>2026-05-02T15:59:51Z</time></trkpt><trkpt lat="43.20638520498642" lon="12.177422653234506"><ele>541.0</ele><time>2026-05-02T15:59:53Z</time></trkpt><trkpt lat="43.20645366271366" lon="12.17751403604208"><ele>540.0</ele><time>2026-05-02T15:59:55Z</time></trkpt><trkpt lat="43.20650269578006" lon="12.17757205647969"><ele>539.0</ele><time>2026-05-02T15:59:56Z</time></trkpt><trkpt lat="43.206576091423756" lon="12.177664977577551"><ele>538.0</ele><time>2026-05-02T15:59:58Z</time></trkpt><trkpt lat="43.20664673205872" lon="12.17781103176954"><ele>537.0</ele><time>2026-05-02T16:00:00Z</time></trkpt><trkpt lat="43.20670131465346" lon="12.177899952493705"><ele>537.0</ele><time>2026-05-02T16:00:01Z</time></trkpt><trkpt lat="43.206741692771985" lon="12.177972085655078"><ele>537.0</ele><time>2026-05-02T16:00:02Z</time></trkpt><trkpt lat="43.206818270453475" lon="12.178112727735092"><ele>537.0</ele><time>2026-05-02T16:00:04Z</time></trkpt><trkpt lat="43.20686915647026" lon="12.17817612177038"><ele>537.0</ele><time>2026-05-02T16:00:05Z</time></trkpt><trkpt lat="43.20692049974036" lon="12.178239739479277"><ele>537.0</ele><time>2026-05-02T16:00:07Z</time></trkpt><trkpt lat="43.206855701949294" lon="12.178309949270343"><ele>537.0</ele><time>2026-05-02T16:00:09Z</time></trkpt><trkpt lat="43.20672344006353" lon="12.178260379254446"><ele>537.0</ele><time>2026-05-02T16:00:11Z</time></trkpt><trkpt lat="43.206649535426976" lon="12.178207090859651"><ele>537.0</ele><time>2026-05-02T16:00:12Z</time></trkpt><trkpt lat="43.20656175924403" lon="12.178146836025814"><ele>537.0</ele><time>2026-05-02T16:00:14Z</time></trkpt><trkpt lat="43.206464019019386" lon="12.17808048167858"><ele>537.0</ele><time>2026-05-02T16:00:16Z</time></trkpt><trkpt lat="43.206349777311225" lon="12.178042267514389"><ele>537.0</ele><time>2026-05-02T16:00:18Z</time></trkpt><trkpt lat="43.20625280149086" lon="12.177961329259059"><ele>535.8000000000001</ele><time>2026-05-02T16:00:20Z</time></trkpt><trkpt lat="43.2061868617812" lon="12.177889892501673"><ele>534.6</ele><time>2026-05-02T16:00:22Z</time></trkpt><trkpt lat="43.20611177805126" lon="12.177804313019056"><ele>533.4000000000001</ele><time>2026-05-02T16:00:24Z</time></trkpt><trkpt lat="43.20601265728404" lon="12.177706517099542"><ele>532.2</ele><time>2026-05-02T16:00:26Z</time></trkpt><trkpt lat="43.205943744880635" lon="12.177663562138322"><ele>531.0</ele><time>2026-05-02T16:00:27Z</time></trkpt><trkpt lat="43.205838708734994" lon="12.177603880347618"><ele>531.0</ele><time>2026-05-02T16:00:29Z</time></trkpt><trkpt lat="43.205751990968395" lon="12.177602982568857"><ele>531.0</ele><time>2026-05-02T16:00:31Z</time></trkpt><trkpt lat="43.20568856942043" lon="12.17769124083656"><ele>531.0</ele><time>2026-05-02T16:00:33Z</time></trkpt><trkpt lat="43.20574089752685" lon="12.177778575846633"><ele>531.0</ele><time>2026-05-02T16:00:35Z</time></trkpt><trkpt lat="43.205821855008715" lon="12.17787861200908"><ele>531.0</ele><time>2026-05-02T16:00:37Z</time></trkpt><trkpt lat="43.205859252315285" lon="12.177948365860933"><ele>531.0</ele><time>2026-05-02T16:00:38Z</time></trkpt><trkpt lat="43.20592230722895" lon="12.178053398540277"><ele>531.0</ele><time>2026-05-02T16:00:40Z</time></trkpt><trkpt lat="43.20599299247909" lon="12.178161153078051"><ele>531.0</ele><time>2026-05-02T16:00:42Z</time></trkpt><trkpt lat="43.2060396070928" lon="12.17832793677087"><ele>531.0</ele><time>2026-05-02T16:00:44Z</time></trkpt><trkpt lat="43.20608301782984" lon="12.178407504811972"><ele>531.0</ele><time>2026-05-02T16:00:45Z</time></trkpt><trkpt lat="43.20614304674433" lon="12.178524119642816"><ele>531.0</ele><time>2026-05-02T16:00:47Z</time></trkpt><trkpt lat="43.20619394285528" lon="12.17859651339436"><ele>527.75</ele><time>2026-05-02T16:00:49Z</time></trkpt><trkpt lat="43.20623208108285" lon="12.178681608851726"><ele>524.5</ele><time>2026-05-02T16:00:51Z</time></trkpt><trkpt lat="43.20630861890571" lon="12.1789460150136"><ele>521.25</ele><time>2026-05-02T16:00:54Z</time></trkpt><trkpt lat="43.2063628980276" lon="12.17906632869255"><ele>518.0</ele><time>2026-05-02T16:00:56Z</time></trkpt><trkpt lat="43.20634805044811" lon="12.179213998524622"><ele>514.6</ele><time>2026-05-02T16:00:58Z</time></trkpt><trkpt lat="43.20626556301861" lon="12.179336762608346"><ele>511.19999999999993</ele><time>2026-05-02T16:01:00Z</time></trkpt><trkpt lat="43.20621161772242" lon="12.179422750675682"><ele>507.8</ele><time>2026-05-02T16:01:01Z</time></trkpt><trkpt lat="43.206206155271936" lon="12.179563667568345"><ele>504.4</ele><time>2026-05-02T16:01:03Z</time></trkpt><trkpt lat="43.2062869344284" lon="12.179652484013669"><ele>501.0</ele><time>2026-05-02T16:01:05Z</time></trkpt><trkpt lat="43.20636324601155" lon="12.179707505650766"><ele>501.0</ele><time>2026-05-02T16:01:07Z</time></trkpt><trkpt lat="43.2064975458521" lon="12.179804756790471"><ele>501.0</ele><time>2026-05-02T16:01:09Z</time></trkpt><trkpt lat="43.20655675388784" lon="12.179843836813134"><ele>501.0</ele><time>2026-05-02T16:01:10Z</time></trkpt><trkpt lat="43.20665233906285" lon="12.179894833990463"><ele>501.0</ele><time>2026-05-02T16:01:12Z</time></trkpt><trkpt lat="43.20677474768715" lon="12.179889090487851"><ele>501.0</ele><time>2026-05-02T16:01:14Z</time></trkpt><trkpt lat="43.20683984531506" lon="12.17987869183021"><ele>501.0</ele><time>2026-05-02T16:01:15Z</time></trkpt><trkpt lat="43.20691420029077" lon="12.179864283497139"><ele>501.0</ele><time>2026-05-02T16:01:16Z</time></trkpt><trkpt lat="43.2070189574015" lon="12.17987625867831"><ele>501.0</ele><time>2026-05-02T16:01:18Z</time></trkpt><trkpt lat="43.207091138841264" lon="12.179862694693483"><ele>501.0</ele><time>2026-05-02T16:01:20Z</time></trkpt><trkpt lat="43.2071878756548" lon="12.179875793546806"><ele>501.0</ele><time>2026-05-02T16:01:22Z</time></trkpt><trkpt lat="43.20726234066092" lon="12.17985915831188"><ele>501.0</ele><time>2026-05-02T16:01:24Z</time></trkpt><trkpt lat="43.2073375412972" lon="12.179920778250192"><ele>500.0</ele><time>2026-05-02T16:01:26Z</time></trkpt><trkpt lat="43.207357466178" lon="12.1800394922135"><ele>499.0</ele><time>2026-05-02T16:01:28Z</time></trkpt><trkpt lat="43.20734968614083" lon="12.180176880898763"><ele>498.0</ele><time>2026-05-02T16:01:31Z</time></trkpt><trkpt lat="43.207351817156905" lon="12.180271530525445"><ele>497.0</ele><time>2026-05-02T16:01:33Z</time></trkpt><trkpt lat="43.20736518849649" lon="12.180389951647884"><ele>496.0</ele><time>2026-05-02T16:01:35Z</time></trkpt><trkpt lat="43.20743044450384" lon="12.180477937797306"><ele>495.0</ele><time>2026-05-02T16:01:37Z</time></trkpt><trkpt lat="43.207488441167975" lon="12.180568978573982"><ele>495.0</ele><time>2026-05-02T16:01:39Z</time></trkpt><trkpt lat="43.207533336820795" lon="12.180639749649522"><ele>495.0</ele><time>2026-05-02T16:01:41Z</time></trkpt><trkpt lat="43.207599791917076" lon="12.180763772357134"><ele>495.0</ele><time>2026-05-02T16:01:44Z</time></trkpt><trkpt lat="43.20768409590463" lon="12.180816125993763"><ele>495.0</ele><time>2026-05-02T16:01:46Z</time></trkpt><trkpt lat="43.20778283129984" lon="12.180824382327156"><ele>495.0</ele><time>2026-05-02T16:01:48Z</time></trkpt><trkpt lat="43.20784652983447" lon="12.180847227156185"><ele>495.0</ele><time>2026-05-02T16:01:49Z</time></trkpt><trkpt lat="43.20788625772422" lon="12.180972253572296"><ele>493.0</ele><time>2026-05-02T16:01:51Z</time></trkpt><trkpt lat="43.20782433853524" lon="12.181092349213259"><ele>491.0</ele><time>2026-05-02T16:01:53Z</time></trkpt><trkpt lat="43.20775106464341" lon="12.181217268598624"><ele>489.0</ele><time>2026-05-02T16:01:55Z</time></trkpt><trkpt lat="43.20764759165141" lon="12.181275901787618"><ele>487.0</ele><time>2026-05-02T16:01:57Z</time></trkpt><trkpt lat="43.207571174000975" lon="12.181268023533635"><ele>485.0</ele><time>2026-05-02T16:01:58Z</time></trkpt><trkpt lat="43.20749884049105" lon="12.18124343838539"><ele>485.0</ele><time>2026-05-02T16:01:59Z</time></trkpt><trkpt lat="43.20743397366975" lon="12.18121673645423"><ele>485.0</ele><time>2026-05-02T16:02:00Z</time></trkpt><trkpt lat="43.20731631708678" lon="12.18118830019129"><ele>485.0</ele><time>2026-05-02T16:02:02Z</time></trkpt><trkpt lat="43.20725495772878" lon="12.18116873346758"><ele>485.0</ele><time>2026-05-02T16:02:03Z</time></trkpt><trkpt lat="43.20714232703416" lon="12.181133346335532"><ele>485.0</ele><time>2026-05-02T16:02:05Z</time></trkpt><trkpt lat="43.20702876110065" lon="12.181107440762982"><ele>484.8333333333333</ele><time>2026-05-02T16:02:07Z</time></trkpt><trkpt lat="43.20696641048324" lon="12.18107385318424"><ele>484.66666666666663</ele><time>2026-05-02T16:02:08Z</time></trkpt><trkpt lat="43.206886387740774" lon="12.18104082314047"><ele>484.5</ele><time>2026-05-02T16:02:09Z</time></trkpt><trkpt lat="43.206823692862834" lon="12.181022678478334"><ele>484.33333333333337</ele><time>2026-05-02T16:02:10Z</time></trkpt><trkpt lat="43.206720212015846" lon="12.181001758654586"><ele>484.1666666666667</ele><time>2026-05-02T16:02:12Z</time></trkpt><trkpt lat="43.20665752260791" lon="12.180982580521418"><ele>484.0</ele><time>2026-05-02T16:02:14Z</time></trkpt><trkpt lat="43.20666524150448" lon="12.181104300000918"><ele>484.00000000000006</ele><time>2026-05-02T16:02:16Z</time></trkpt><trkpt lat="43.20671376539947" lon="12.181162373137258"><ele>484.0</ele><time>2026-05-02T16:02:17Z</time></trkpt><trkpt lat="43.20679016188229" lon="12.181206388545773"><ele>484.0</ele><time>2026-05-02T16:02:19Z</time></trkpt><trkpt lat="43.20681683914332" lon="12.181291631676979"><ele>484.0</ele><time>2026-05-02T16:02:20Z</time></trkpt><trkpt lat="43.206847018264824" lon="12.181389659561953"><ele>484.00000000000006</ele><time>2026-05-02T16:02:21Z</time></trkpt><trkpt lat="43.206883363501156" lon="12.181463319927165"><ele>484.0</ele><time>2026-05-02T16:02:22Z</time></trkpt><trkpt lat="43.206938402249186" lon="12.181593662692991"><ele>480.6666666666667</ele><time>2026-05-02T16:02:24Z</time></trkpt><trkpt lat="43.206989179102386" lon="12.181683780318654"><ele>477.33333333333337</ele><time>2026-05-02T16:02:26Z</time></trkpt><trkpt lat="43.20704483582037" lon="12.181759512535187"><ele>474.0</ele><time>2026-05-02T16:02:30Z</time></trkpt><trkpt lat="43.20709107891154" lon="12.181848086498968"><ele>470.66666666666663</ele><time>2026-05-02T16:02:33Z</time></trkpt><trkpt lat="43.20714830101208" lon="12.181942473094729"><ele>467.3333333333333</ele><time>2026-05-02T16:02:37Z</time></trkpt><trkpt lat="43.20719301069056" lon="12.182043253776593"><ele>464.0</ele><time>2026-05-02T16:02:40Z</time></trkpt><trkpt lat="43.20725445726433" lon="12.182123195530426"><ele>463.99999999999994</ele><time>2026-05-02T16:02:42Z</time></trkpt><trkpt lat="43.20731121531865" lon="12.182211246200366"><ele>464.0</ele><time>2026-05-02T16:02:44Z</time></trkpt><trkpt lat="43.20734582102518" lon="12.182304462680674"><ele>464.0</ele><time>2026-05-02T16:02:46Z</time></trkpt><trkpt lat="43.207396331853545" lon="12.182394128503578"><ele>464.0</ele><time>2026-05-02T16:02:48Z</time></trkpt><trkpt lat="43.207441764094455" lon="12.18246233368282"><ele>463.99999999999994</ele><time>2026-05-02T16:02:49Z</time></trkpt><trkpt lat="43.20748654020545" lon="12.18253833871145"><ele>464.0</ele><time>2026-05-02T16:02:50Z</time></trkpt><trkpt lat="43.2075332748583" lon="12.18260868597463"><ele>462.4</ele><time>2026-05-02T16:02:52Z</time></trkpt><trkpt lat="43.20759140852723" lon="12.182721166356862"><ele>460.79999999999995</ele><time>2026-05-02T16:02:55Z</time></trkpt><trkpt lat="43.20764810980845" lon="12.182822568056146"><ele>459.20000000000005</ele><time>2026-05-02T16:02:57Z</time></trkpt><trkpt lat="43.20770137675297" lon="12.182924098695448"><ele>457.6</ele><time>2026-05-02T16:02:59Z</time></trkpt><trkpt lat="43.20777755491654" lon="12.183036355927959"><ele>456.0</ele><time>2026-05-02T16:03:01Z</time></trkpt><trkpt lat="43.20784000572907" lon="12.183096354669301"><ele>456.0</ele><time>2026-05-02T16:03:02Z</time></trkpt><trkpt lat="43.2079008335136" lon="12.183161025108243"><ele>456.0</ele><time>2026-05-02T16:03:03Z</time></trkpt><trkpt lat="43.20796526715454" lon="12.183223637404547"><ele>456.0</ele><time>2026-05-02T16:03:04Z</time></trkpt><trkpt lat="43.20804020696584" lon="12.183295011386544"><ele>456.0</ele><time>2026-05-02T16:03:06Z</time></trkpt><trkpt lat="43.20811360030224" lon="12.183377427386588"><ele>456.0</ele><time>2026-05-02T16:03:08Z</time></trkpt><trkpt lat="43.20814664921452" lon="12.183476965547149"><ele>456.0</ele><time>2026-05-02T16:03:09Z</time></trkpt><trkpt lat="43.20818110012792" lon="12.18357082431563"><ele>455.8</ele><time>2026-05-02T16:03:10Z</time></trkpt><trkpt lat="43.208228124868725" lon="12.183716459192121"><ele>455.6</ele><time>2026-05-02T16:03:12Z</time></trkpt><trkpt lat="43.208265379423935" lon="12.183790460874272"><ele>455.4</ele><time>2026-05-02T16:03:13Z</time></trkpt><trkpt lat="43.20833416815337" lon="12.183889644908367"><ele>455.2</ele><time>2026-05-02T16:03:15Z</time></trkpt><trkpt lat="43.208401301125235" lon="12.184024824522423"><ele>455.0</ele><time>2026-05-02T16:03:17Z</time></trkpt><trkpt lat="43.20847954793091" lon="12.184152525830061"><ele>452.49999999999994</ele><time>2026-05-02T16:03:19Z</time></trkpt><trkpt lat="43.20853920674394" lon="12.18426490685148"><ele>450.0</ele><time>2026-05-02T16:03:21Z</time></trkpt><trkpt lat="43.20860590777913" lon="12.184348740642593"><ele>447.5</ele><time>2026-05-02T16:03:23Z</time></trkpt><trkpt lat="43.208662313449565" lon="12.184433938834156"><ele>445.0</ele><time>2026-05-02T16:03:25Z</time></trkpt><trkpt lat="43.208701306493445" lon="12.184537475994835"><ele>442.49999999999994</ele><time>2026-05-02T16:03:27Z</time></trkpt><trkpt lat="43.20874219092846" lon="12.18462487693749"><ele>440.0</ele><time>2026-05-02T16:03:29Z</time></trkpt><trkpt lat="43.20881990507317" lon="12.184721755358469"><ele>436.8</ele><time>2026-05-02T16:03:31Z</time></trkpt><trkpt lat="43.20888617502167" lon="12.184858884036444"><ele>433.6</ele><time>2026-05-02T16:03:33Z</time></trkpt><trkpt lat="43.208935862061544" lon="12.184970650288374"><ele>430.4</ele><time>2026-05-02T16:03:35Z</time></trkpt><trkpt lat="43.20895771045597" lon="12.185087916306728"><ele>427.2</ele><time>2026-05-02T16:03:37Z</time></trkpt><trkpt lat="43.20891388341946" lon="12.185184506041304"><ele>424.0</ele><time>2026-05-02T16:03:39Z</time></trkpt><trkpt lat="43.208845680928526" lon="12.185189286574962"><ele>424.00000000000006</ele><time>2026-05-02T16:03:41Z</time></trkpt><trkpt lat="43.2087854037303" lon="12.185261315652445"><ele>424.0</ele><time>2026-05-02T16:03:44Z</time></trkpt><trkpt lat="43.208795583925" lon="12.185408572779036"><ele>424.0</ele><time>2026-05-02T16:03:46Z</time></trkpt><trkpt lat="43.20883851045841" lon="12.185482740040827"><ele>424.0</ele><time>2026-05-02T16:03:47Z</time></trkpt><trkpt lat="43.20887378049321" lon="12.185556917621064"><ele>424.00000000000006</ele><time>2026-05-02T16:03:48Z</time></trkpt><trkpt lat="43.20890643334997" lon="12.185634722299934"><ele>424.0</ele><time>2026-05-02T16:03:50Z</time></trkpt><trkpt lat="43.20895104091729" lon="12.185717263248227"><ele>424.2</ele><time>2026-05-02T16:03:54Z</time></trkpt><trkpt lat="43.20901948869186" lon="12.185791423066332"><ele>424.4</ele><time>2026-05-02T16:03:56Z</time></trkpt><trkpt lat="43.20907969407466" lon="12.185845407650502"><ele>424.6</ele><time>2026-05-02T16:03:57Z</time></trkpt><trkpt lat="43.20916392381134" lon="12.18596041004063"><ele>424.8</ele><time>2026-05-02T16:03:59Z</time></trkpt><trkpt lat="43.20924431952455" lon="12.1860496197699"><ele>425.0</ele><time>2026-05-02T16:04:01Z</time></trkpt><trkpt lat="43.20934334323423" lon="12.186087420240616"><ele>424.99999999999994</ele><time>2026-05-02T16:04:03Z</time></trkpt><trkpt lat="43.209427110887106" lon="12.186137292122261"><ele>425.0</ele><time>2026-05-02T16:04:05Z</time></trkpt><trkpt lat="43.20950260029279" lon="12.186163779895914"><ele>425.0</ele><time>2026-05-02T16:04:07Z</time></trkpt><trkpt lat="43.20959751794379" lon="12.186151613443364"><ele>425.0</ele><time>2026-05-02T16:04:09Z</time></trkpt><trkpt lat="43.20967702032276" lon="12.186120693558202"><ele>424.99999999999994</ele><time>2026-05-02T16:04:11Z</time></trkpt><trkpt lat="43.20972295537038" lon="12.186207392596856"><ele>425.0</ele><time>2026-05-02T16:04:13Z</time></trkpt><trkpt lat="43.209643165165865" lon="12.18629771068934"><ele>425.0</ele><time>2026-05-02T16:04:15Z</time></trkpt><trkpt lat="43.209586443421905" lon="12.186387330560889"><ele>425.0</ele><time>2026-05-02T16:04:17Z</time></trkpt><trkpt lat="43.209508376143" lon="12.186479941884667"><ele>425.0</ele><time>2026-05-02T16:04:19Z</time></trkpt><trkpt lat="43.20941903961198" lon="12.186550421950518"><ele>425.0</ele><time>2026-05-02T16:04:21Z</time></trkpt><trkpt lat="43.20931243534048" lon="12.186593758744392"><ele>425.0</ele><time>2026-05-02T16:04:23Z</time></trkpt><trkpt lat="43.20921792605299" lon="12.186600847126632"><ele>420.6</ele><time>2026-05-02T16:04:25Z</time></trkpt><trkpt lat="43.20911503695189" lon="12.186615063519772"><ele>416.2</ele><time>2026-05-02T16:04:27Z</time></trkpt><trkpt lat="43.209005352590296" lon="12.186595503628268"><ele>411.79999999999995</ele><time>2026-05-02T16:04:29Z</time></trkpt><trkpt lat="43.20889339879762" lon="12.18657704096448"><ele>407.4</ele><time>2026-05-02T16:04:31Z</time></trkpt><trkpt lat="43.20879202887662" lon="12.186571595684379"><ele>403.0</ele><time>2026-05-02T16:04:33Z</time></trkpt><trkpt lat="43.20872634451914" lon="12.186568237782868"><ele>404.2</ele><time>2026-05-02T16:04:34Z</time></trkpt><trkpt lat="43.20863605516243" lon="12.186552901356423"><ele>405.4</ele><time>2026-05-02T16:04:36Z</time></trkpt><trkpt lat="43.208558361708164" lon="12.186516064957559"><ele>406.59999999999997</ele><time>2026-05-02T16:04:38Z</time></trkpt><trkpt lat="43.20845948869258" lon="12.186483430444737"><ele>407.79999999999995</ele><time>2026-05-02T16:04:40Z</time></trkpt><trkpt lat="43.208352001957806" lon="12.18646183315375"><ele>409.0</ele><time>2026-05-02T16:04:42Z</time></trkpt><trkpt lat="43.2082602615849" lon="12.186399748262145"><ele>409.00000000000006</ele><time>2026-05-02T16:04:44Z</time></trkpt><trkpt lat="43.208214546276785" lon="12.186284317648935"><ele>409.0</ele><time>2026-05-02T16:04:46Z</time></trkpt><trkpt lat="43.208163921764125" lon="12.18619326233176"><ele>409.0</ele><time>2026-05-02T16:04:49Z</time></trkpt><trkpt lat="43.20812051125559" lon="12.186116300359567"><ele>409.0</ele><time>2026-05-02T16:04:52Z</time></trkpt><trkpt lat="43.20804324186739" lon="12.18600385187203"><ele>409.00000000000006</ele><time>2026-05-02T16:04:55Z</time></trkpt><trkpt lat="43.20797703683864" lon="12.18592992837003"><ele>409.0</ele><time>2026-05-02T16:04:57Z</time></trkpt><trkpt lat="43.20789017195607" lon="12.185893136510321"><ele>403.4</ele><time>2026-05-02T16:04:59Z</time></trkpt><trkpt lat="43.207799943464835" lon="12.185900595008594"><ele>397.79999999999995</ele><time>2026-05-02T16:05:01Z</time></trkpt><trkpt lat="43.207758760145204" lon="12.185996058364204"><ele>392.20000000000005</ele><time>2026-05-02T16:05:03Z</time></trkpt><trkpt lat="43.20779325385018" lon="12.186100143736637"><ele>386.6</ele><time>2026-05-02T16:05:05Z</time></trkpt><trkpt lat="43.20785198199394" lon="12.186221461341352"><ele>381.0</ele><time>2026-05-02T16:05:07Z</time></trkpt><trkpt lat="43.207893488240956" lon="12.186335136452817"><ele>381.0</ele><time>2026-05-02T16:05:10Z</time></trkpt><trkpt lat="43.20792742046253" lon="12.186476176685032"><ele>381.0</ele><time>2026-05-02T16:05:12Z</time></trkpt><trkpt lat="43.20796814179315" lon="12.186549427201218"><ele>381.0</ele><time>2026-05-02T16:05:13Z</time></trkpt><trkpt lat="43.20802848818505" lon="12.186668007699224"><ele>381.0</ele><time>2026-05-02T16:05:15Z</time></trkpt><trkpt lat="43.20807885151716" lon="12.186800446419344"><ele>381.0</ele><time>2026-05-02T16:05:18Z</time></trkpt><trkpt lat="43.20812988700506" lon="12.186929029306196"><ele>379.5</ele><time>2026-05-02T16:05:20Z</time></trkpt><trkpt lat="43.208165139155085" lon="12.187001840504626"><ele>378.0</ele><time>2026-05-02T16:05:23Z</time></trkpt><trkpt lat="43.20822127080403" lon="12.187072232436082"><ele>376.5</ele><time>2026-05-02T16:05:25Z</time></trkpt><trkpt lat="43.20829698349932" lon="12.187158514867663"><ele>375.0</ele><time>2026-05-02T16:05:27Z</time></trkpt><trkpt lat="43.20835864469405" lon="12.187238952537575"><ele>373.5</ele><time>2026-05-02T16:05:29Z</time></trkpt><trkpt lat="43.208402394274984" lon="12.187318487529932"><ele>372.0</ele><time>2026-05-02T16:05:31Z</time></trkpt><trkpt lat="43.20845095368503" lon="12.187404474134048"><ele>372.00000000000006</ele><time>2026-05-02T16:05:33Z</time></trkpt><trkpt lat="43.20850689610496" lon="12.187502284618928"><ele>372.0</ele><time>2026-05-02T16:05:36Z</time></trkpt><trkpt lat="43.208537756467635" lon="12.187589710118202"><ele>372.0</ele><time>2026-05-02T16:05:38Z</time></trkpt><trkpt lat="43.20859914147451" lon="12.187677622503498"><ele>372.0</ele><time>2026-05-02T16:05:41Z</time></trkpt><trkpt lat="43.208660616253304" lon="12.187703706267811"><ele>372.0</ele><time>2026-05-02T16:05:43Z</time></trkpt><trkpt lat="43.20871961775172" lon="12.18773536016338"><ele>372.00000000000006</ele><time>2026-05-02T16:05:45Z</time></trkpt><trkpt lat="43.20877938315238" lon="12.187770912734718"><ele>372.0</ele><time>2026-05-02T16:05:48Z</time></trkpt><trkpt lat="43.20885090368316" lon="12.187793346828801"><ele>372.0</ele><time>2026-05-02T16:05:50Z</time></trkpt><trkpt lat="43.20893538448792" lon="12.1877970553755"><ele>372.0</ele><time>2026-05-02T16:05:51Z</time></trkpt><trkpt lat="43.20901191856216" lon="12.187815020364027"><ele>372.0</ele><time>2026-05-02T16:05:52Z</time></trkpt><trkpt lat="43.2090976534316" lon="12.187908823984888"><ele>372.0</ele><time>2026-05-02T16:05:54Z</time></trkpt><trkpt lat="43.209101309067385" lon="12.188049497877305"><ele>372.0</ele><time>2026-05-02T16:05:56Z</time></trkpt><trkpt lat="43.209117338627685" lon="12.188159058516634"><ele>370.40000000000003</ele><time>2026-05-02T16:05:58Z</time></trkpt><trkpt lat="43.209142079019" lon="12.188242790583248"><ele>368.8</ele><time>2026-05-02T16:05:59Z</time></trkpt><trkpt lat="43.20916722547755" lon="12.188328019874417"><ele>367.2</ele><time>2026-05-02T16:06:00Z</time></trkpt><trkpt lat="43.2092113283286" lon="12.188452338003172"><ele>365.6</ele><time>2026-05-02T16:06:02Z</time></trkpt><trkpt lat="43.20925450854309" lon="12.188593522120406"><ele>364.0</ele><time>2026-05-02T16:06:04Z</time></trkpt><trkpt lat="43.20933369972202" lon="12.188705151555732"><ele>364.0</ele><time>2026-05-02T16:06:06Z</time></trkpt><trkpt lat="43.20938549851245" lon="12.188756145483193"><ele>364.0</ele><time>2026-05-02T16:06:07Z</time></trkpt><trkpt lat="43.209445991963335" lon="12.188802499233923"><ele>364.0</ele><time>2026-05-02T16:06:08Z</time></trkpt><trkpt lat="43.209533582185514" lon="12.188884166180904"><ele>364.0</ele><time>2026-05-02T16:06:10Z</time></trkpt><trkpt lat="43.20960199609072" lon="12.188967899278008"><ele>364.0</ele><time>2026-05-02T16:06:12Z</time></trkpt><trkpt lat="43.209611144844324" lon="12.189062708205235"><ele>364.0</ele><time>2026-05-02T16:06:14Z</time></trkpt><trkpt lat="43.209640471237584" lon="12.189140233340442"><ele>362.16666666666663</ele><time>2026-05-02T16:06:16Z</time></trkpt><trkpt lat="43.209691030782146" lon="12.189238465822307"><ele>360.3333333333333</ele><time>2026-05-02T16:06:19Z</time></trkpt><trkpt lat="43.209730914214006" lon="12.18931724248634"><ele>358.5</ele><time>2026-05-02T16:06:21Z</time></trkpt><trkpt lat="43.20979623437662" lon="12.18939627255092"><ele>356.6666666666667</ele><time>2026-05-02T16:06:24Z</time></trkpt><trkpt lat="43.20982689043191" lon="12.189471967496479"><ele>354.83333333333337</ele><time>2026-05-02T16:06:26Z</time></trkpt><trkpt lat="43.209884059421334" lon="12.18954380506182"><ele>353.0</ele><time>2026-05-02T16:06:28Z</time></trkpt><trkpt lat="43.209937439164904" lon="12.18960198536801"><ele>353.0</ele><time>2026-05-02T16:06:30Z</time></trkpt><trkpt lat="43.21001606984395" lon="12.189665087886674"><ele>353.0</ele><time>2026-05-02T16:06:32Z</time></trkpt><trkpt lat="43.21010381481411" lon="12.189704790342219"><ele>353.0</ele><time>2026-05-02T16:06:34Z</time></trkpt><trkpt lat="43.21016279711921" lon="12.189741167047014"><ele>353.0</ele><time>2026-05-02T16:06:36Z</time></trkpt><trkpt lat="43.21022283231086" lon="12.189771183247114"><ele>353.0</ele><time>2026-05-02T16:06:38Z</time></trkpt><trkpt lat="43.21030638197678" lon="12.189789079198572"><ele>353.0</ele><time>2026-05-02T16:06:41Z</time></trkpt><trkpt lat="43.210376626069575" lon="12.189742597741704"><ele>353.0</ele><time>2026-05-02T16:06:44Z</time></trkpt><trkpt lat="43.21044967090461" lon="12.189719340707088"><ele>353.0</ele><time>2026-05-02T16:06:47Z</time></trkpt><trkpt lat="43.21051793217366" lon="12.189691235743739"><ele>353.0</ele><time>2026-05-02T16:06:53Z</time></trkpt><trkpt lat="43.21059775923395" lon="12.189692248036518"><ele>353.0</ele><time>2026-05-02T16:06:55Z</time></trkpt><trkpt lat="43.21068429741372" lon="12.189705378428558"><ele>353.0</ele><time>2026-05-02T16:06:58Z</time></trkpt><trkpt lat="43.210745362533835" lon="12.189732879699639"><ele>353.0</ele><time>2026-05-02T16:07:01Z</time></trkpt><trkpt lat="43.210815598219284" lon="12.189785016340373"><ele>348.4</ele><time>2026-05-02T16:07:03Z</time></trkpt><trkpt lat="43.210895861733306" lon="12.18987904186024"><ele>343.79999999999995</ele><time>2026-05-02T16:07:05Z</time></trkpt><trkpt lat="43.21099833953461" lon="12.18989716164924"><ele>339.2</ele><time>2026-05-02T16:07:07Z</time></trkpt><trkpt lat="43.211064133000946" lon="12.189882420469784"><ele>334.6</ele><time>2026-05-02T16:07:09Z</time></trkpt><trkpt lat="43.21114645242235" lon="12.189885535923716"><ele>330.0</ele><time>2026-05-02T16:07:11Z</time></trkpt><trkpt lat="43.21124471515564" lon="12.18988242331923"><ele>330.0</ele><time>2026-05-02T16:07:13Z</time></trkpt><trkpt lat="43.211335103446" lon="12.189861127035243"><ele>330.0</ele><time>2026-05-02T16:07:15Z</time></trkpt><trkpt lat="43.21143709034624" lon="12.189881273638948"><ele>330.0</ele><time>2026-05-02T16:07:17Z</time></trkpt><trkpt lat="43.211478437787164" lon="12.189993729301543"><ele>330.0</ele><time>2026-05-02T16:07:19Z</time></trkpt><trkpt lat="43.211414212587634" lon="12.190152030934783"><ele>330.0</ele><time>2026-05-02T16:07:21Z</time></trkpt><trkpt lat="43.211371174248086" lon="12.190245532172943"><ele>330.0</ele><time>2026-05-02T16:07:22Z</time></trkpt><trkpt lat="43.2113210162882" lon="12.190327482397011"><ele>330.0</ele><time>2026-05-02T16:07:23Z</time></trkpt><trkpt lat="43.21126739742511" lon="12.190383420263412"><ele>330.0</ele><time>2026-05-02T16:07:24Z</time></trkpt><trkpt lat="43.21118511907802" lon="12.19047297024684"><ele>330.0</ele><time>2026-05-02T16:07:26Z</time></trkpt><trkpt lat="43.211241450380726" lon="12.190522581352562"><ele>330.0</ele><time>2026-05-02T16:07:28Z</time></trkpt><trkpt lat="43.21131568839577" lon="12.190557031869204"><ele>330.0</ele><time>2026-05-02T16:07:30Z</time></trkpt><trkpt lat="43.21139069867228" lon="12.190614016503899"><ele>328.4</ele><time>2026-05-02T16:08:11Z</time></trkpt><trkpt lat="43.21147513093517" lon="12.190705711812374"><ele>326.8</ele><time>2026-05-02T16:08:13Z</time></trkpt><trkpt lat="43.21155450099014" lon="12.190785618094703"><ele>325.20000000000005</ele><time>2026-05-02T16:08:15Z</time></trkpt><trkpt lat="43.211639254724766" lon="12.190865134840413"><ele>323.6</ele><time>2026-05-02T16:08:17Z</time></trkpt><trkpt lat="43.211708404753416" lon="12.190980527129923"><ele>322.0</ele><time>2026-05-02T16:08:19Z</time></trkpt><trkpt lat="43.211795716501214" lon="12.191062337639808"><ele>321.0</ele><time>2026-05-02T16:08:21Z</time></trkpt><trkpt lat="43.21188117282298" lon="12.191144029419169"><ele>320.0</ele><time>2026-05-02T16:08:23Z</time></trkpt><trkpt lat="43.21197044319214" lon="12.191231698722975"><ele>319.0</ele><time>2026-05-02T16:08:25Z</time></trkpt><trkpt lat="43.21205847367891" lon="12.19131815038362"><ele>318.0</ele><time>2026-05-02T16:08:27Z</time></trkpt><trkpt lat="43.21215096158023" lon="12.191400867937967"><ele>317.0</ele><time>2026-05-02T16:08:29Z</time></trkpt><trkpt lat="43.21225305579594" lon="12.19149338738014"><ele>316.6666666666667</ele><time>2026-05-02T16:08:31Z</time></trkpt><trkpt lat="43.21231926751067" lon="12.191555388625083"><ele>316.33333333333337</ele><time>2026-05-02T16:08:32Z</time></trkpt><trkpt lat="43.21237970754561" lon="12.191619119186708"><ele>316.0</ele><time>2026-05-02T16:08:33Z</time></trkpt><trkpt lat="43.2124302978623" lon="12.191677144602744"><ele>315.6666666666667</ele><time>2026-05-02T16:08:34Z</time></trkpt><trkpt lat="43.21247644197963" lon="12.191747545874383"><ele>315.3333333333333</ele><time>2026-05-02T16:08:35Z</time></trkpt><trkpt lat="43.21251383442246" lon="12.191869838052153"><ele>315.0</ele><time>2026-05-02T16:08:37Z</time></trkpt><trkpt lat="43.21253348542201" lon="12.19201674285538"><ele>315.0</ele><time>2026-05-02T16:08:39Z</time></trkpt><trkpt lat="43.21253528349901" lon="12.192122630779084"><ele>315.0</ele><time>2026-05-02T16:08:40Z</time></trkpt><trkpt lat="43.21255949784684" lon="12.192285967194932"><ele>315.0</ele><time>2026-05-02T16:08:42Z</time></trkpt><trkpt lat="43.212630260157994" lon="12.192321190057534"><ele>315.0</ele><time>2026-05-02T16:08:43Z</time></trkpt><trkpt lat="43.212697424835675" lon="12.19234720717713"><ele>315.0</ele><time>2026-05-02T16:08:44Z</time></trkpt><trkpt lat="43.212790315369546" lon="12.192383044250624"><ele>315.0</ele><time>2026-05-02T16:08:45Z</time></trkpt><trkpt lat="43.21289313331263" lon="12.192404603682824"><ele>315.0</ele><time>2026-05-02T16:08:46Z</time></trkpt><trkpt lat="43.21298074839559" lon="12.192420219192819"><ele>315.0</ele><time>2026-05-02T16:08:47Z</time></trkpt><trkpt lat="43.213063636182156" lon="12.192434180901554"><ele>315.0</ele><time>2026-05-02T16:08:48Z</time></trkpt><trkpt lat="43.21314825838435" lon="12.192448434755528"><ele>315.0</ele><time>2026-05-02T16:08:49Z</time></trkpt><trkpt lat="43.213231659008" lon="12.192462482846297"><ele>315.0</ele><time>2026-05-02T16:08:50Z</time></trkpt><trkpt lat="43.213312625554835" lon="12.192476120939764"><ele>315.0</ele><time>2026-05-02T16:08:51Z</time></trkpt><trkpt lat="43.21338404975332" lon="12.19248815170974"><ele>315.0</ele><time>2026-05-02T16:08:52Z</time></trkpt><trkpt lat="43.21345243829671" lon="12.192499671150811"><ele>315.0</ele><time>2026-05-02T16:08:53Z</time></trkpt><trkpt lat="43.213520036244475" lon="12.192483117466606"><ele>315.0</ele><time>2026-05-02T16:08:54Z</time></trkpt><trkpt lat="43.213621769649734" lon="12.192500547274049"><ele>315.0</ele><time>2026-05-02T16:08:56Z</time></trkpt><trkpt lat="43.213670089838416" lon="12.192409955590964"><ele>315.0</ele><time>2026-05-02T16:08:58Z</time></trkpt><trkpt lat="43.21367797214561" lon="12.192314626277382"><ele>315.0</ele><time>2026-05-02T16:08:59Z</time></trkpt><trkpt lat="43.21371019105075" lon="12.192208502784048"><ele>314.6</ele><time>2026-05-02T16:09:00Z</time></trkpt><trkpt lat="43.213787563009646" lon="12.192109284256635"><ele>314.2</ele><time>2026-05-02T16:09:01Z</time></trkpt><trkpt lat="43.21389373918816" lon="12.192060084109361"><ele>313.8</ele><time>2026-05-02T16:09:02Z</time></trkpt><trkpt lat="43.21401171126373" lon="12.19204692816709"><ele>313.4</ele><time>2026-05-02T16:09:03Z</time></trkpt><trkpt lat="43.214123397188615" lon="12.192048610081631"><ele>313.0</ele><time>2026-05-02T16:09:04Z</time></trkpt><trkpt lat="43.21422692519401" lon="12.192050637714182"><ele>312.8</ele><time>2026-05-02T16:09:05Z</time></trkpt><trkpt lat="43.214324160116995" lon="12.192038910374157"><ele>312.6</ele><time>2026-05-02T16:09:06Z</time></trkpt><trkpt lat="43.21441759150173" lon="12.19202510373241"><ele>312.4</ele><time>2026-05-02T16:09:07Z</time></trkpt><trkpt lat="43.21451225532452" lon="12.192016683437945"><ele>312.2</ele><time>2026-05-02T16:09:08Z</time></trkpt><trkpt lat="43.214604221728806" lon="12.192014828912185"><ele>312.0</ele><time>2026-05-02T16:09:09Z</time></trkpt><trkpt lat="43.21469179296141" lon="12.19201109574532"><ele>312.0</ele><time>2026-05-02T16:09:10Z</time></trkpt><trkpt lat="43.214774344294064" lon="12.192003573253201"><ele>312.0</ele><time>2026-05-02T16:09:11Z</time></trkpt><trkpt lat="43.2148506862106" lon="12.191999516189595"><ele>312.0</ele><time>2026-05-02T16:09:12Z</time></trkpt><trkpt lat="43.2149218939967" lon="12.191995256628617"><ele>312.0</ele><time>2026-05-02T16:09:13Z</time></trkpt><trkpt lat="43.21499881336919" lon="12.191990923664676"><ele>312.0</ele><time>2026-05-02T16:09:14Z</time></trkpt><trkpt lat="43.215073635114095" lon="12.191987594164388"><ele>312.0</ele><time>2026-05-02T16:09:15Z</time></trkpt><trkpt lat="43.21515666565474" lon="12.191977856570864"><ele>312.0</ele><time>2026-05-02T16:09:16Z</time></trkpt><trkpt lat="43.21524055436319" lon="12.191970021229997"><ele>312.0</ele><time>2026-05-02T16:09:17Z</time></trkpt><trkpt lat="43.215325558305665" lon="12.191962059995323"><ele>312.0</ele><time>2026-05-02T16:09:18Z</time></trkpt><trkpt lat="43.21541509535214" lon="12.191956639466458"><ele>312.0</ele><time>2026-05-02T16:09:19Z</time></trkpt><trkpt lat="43.21550653622099" lon="12.191949895105362"><ele>312.0</ele><time>2026-05-02T16:09:20Z</time></trkpt><trkpt lat="43.21560134118888" lon="12.191939469399863"><ele>312.0</ele><time>2026-05-02T16:09:21Z</time></trkpt><trkpt lat="43.21569515807264" lon="12.191929227715047"><ele>312.5</ele><time>2026-05-02T16:09:22Z</time></trkpt><trkpt lat="43.21578552489865" lon="12.19191980978049"><ele>313.0</ele><time>2026-05-02T16:09:23Z</time></trkpt><trkpt lat="43.21587468356615" lon="12.191915969474191"><ele>313.5</ele><time>2026-05-02T16:09:24Z</time></trkpt><trkpt lat="43.21595812990385" lon="12.191909442562746"><ele>314.0</ele><time>2026-05-02T16:09:25Z</time></trkpt><trkpt lat="43.216045233000415" lon="12.19190224293045"><ele>314.5</ele><time>2026-05-02T16:09:26Z</time></trkpt><trkpt lat="43.21612662244735" lon="12.191895062572552"><ele>315.0</ele><time>2026-05-02T16:09:27Z</time></trkpt><trkpt lat="43.216202658149065" lon="12.191886340405837"><ele>315.0</ele><time>2026-05-02T16:09:28Z</time></trkpt><trkpt lat="43.2162745445967" lon="12.191878728840951"><ele>315.0</ele><time>2026-05-02T16:09:29Z</time></trkpt><trkpt lat="43.21634100792987" lon="12.191869541041891"><ele>315.0</ele><time>2026-05-02T16:09:30Z</time></trkpt><trkpt lat="43.21640697617379" lon="12.191855966802786"><ele>315.0</ele><time>2026-05-02T16:09:31Z</time></trkpt><trkpt lat="43.21647211313482" lon="12.191851486938193"><ele>315.0</ele><time>2026-05-02T16:09:32Z</time></trkpt><trkpt lat="43.2165434303239" lon="12.191849543485873"><ele>315.0</ele><time>2026-05-02T16:09:33Z</time></trkpt><trkpt lat="43.216612976123166" lon="12.191847171472205"><ele>315.0</ele><time>2026-05-02T16:09:34Z</time></trkpt><trkpt lat="43.216687495625514" lon="12.191836352416116"><ele>314.7142857142857</ele><time>2026-05-02T16:09:35Z</time></trkpt><trkpt lat="43.21675988903162" lon="12.191834641524089"><ele>314.42857142857144</ele><time>2026-05-02T16:09:36Z</time></trkpt><trkpt lat="43.2168344357043" lon="12.19183398328984"><ele>314.1428571428571</ele><time>2026-05-02T16:09:37Z</time></trkpt><trkpt lat="43.21690904533288" lon="12.191827804590691"><ele>313.8571428571429</ele><time>2026-05-02T16:09:38Z</time></trkpt><trkpt lat="43.21698113479829" lon="12.191823449908997"><ele>313.57142857142856</ele><time>2026-05-02T16:09:39Z</time></trkpt><trkpt lat="43.217052423188534" lon="12.19181032910029"><ele>313.2857142857143</ele><time>2026-05-02T16:09:40Z</time></trkpt><trkpt lat="43.21712441669081" lon="12.191804183820878"><ele>313.0</ele><time>2026-05-02T16:09:41Z</time></trkpt><trkpt lat="43.21719759601728" lon="12.191797392915001"><ele>312.8333333333333</ele><time>2026-05-02T16:09:42Z</time></trkpt><trkpt lat="43.21733355000525" lon="12.191787056628435"><ele>312.66666666666663</ele><time>2026-05-02T16:09:44Z</time></trkpt><trkpt lat="43.21739695988186" lon="12.191779028753713"><ele>312.5</ele><time>2026-05-02T16:09:45Z</time></trkpt><trkpt lat="43.21746645750278" lon="12.191767065256512"><ele>312.3333333333333</ele><time>2026-05-02T16:09:46Z</time></trkpt><trkpt lat="43.21752987812171" lon="12.19176764351623"><ele>312.1666666666667</ele><time>2026-05-02T16:09:47Z</time></trkpt><trkpt lat="43.217595990193225" lon="12.191761225488404"><ele>312.0</ele><time>2026-05-02T16:09:48Z</time></trkpt><trkpt lat="43.217663571362735" lon="12.191745299992604"><ele>312.0</ele><time>2026-05-02T16:09:49Z</time></trkpt><trkpt lat="43.217738363772334" lon="12.191735061925048"><ele>312.0</ele><time>2026-05-02T16:09:50Z</time></trkpt><trkpt lat="43.21781004654482" lon="12.191736212850927"><ele>312.0</ele><time>2026-05-02T16:09:51Z</time></trkpt><trkpt lat="43.21789059389066" lon="12.191738035055755"><ele>312.0</ele><time>2026-05-02T16:09:52Z</time></trkpt><trkpt lat="43.21796963984461" lon="12.19173311232765"><ele>312.0</ele><time>2026-05-02T16:09:53Z</time></trkpt><trkpt lat="43.21804867243524" lon="12.191714389749094"><ele>312.0</ele><time>2026-05-02T16:09:54Z</time></trkpt><trkpt lat="43.21812212878483" lon="12.191700568516499"><ele>312.0</ele><time>2026-05-02T16:09:55Z</time></trkpt><trkpt lat="43.2181976230074" lon="12.191695789319548"><ele>312.0</ele><time>2026-05-02T16:09:56Z</time></trkpt><trkpt lat="43.21827187859019" lon="12.191691819784097"><ele>312.0</ele><time>2026-05-02T16:09:57Z</time></trkpt><trkpt lat="43.218346501315814" lon="12.191683925417548"><ele>312.0</ele><time>2026-05-02T16:09:58Z</time></trkpt><trkpt lat="43.218418057063204" lon="12.191674515291872"><ele>312.0</ele><time>2026-05-02T16:09:59Z</time></trkpt><trkpt lat="43.218485706006845" lon="12.19166534447852"><ele>312.0</ele><time>2026-05-02T16:10:00Z</time></trkpt><trkpt lat="43.218554565914346" lon="12.191650753744543"><ele>312.0</ele><time>2026-05-02T16:10:01Z</time></trkpt><trkpt lat="43.218625507197814" lon="12.191635761899104"><ele>312.0</ele><time>2026-05-02T16:10:02Z</time></trkpt><trkpt lat="43.21870201734592" lon="12.191618771303727"><ele>312.0</ele><time>2026-05-02T16:10:03Z</time></trkpt><trkpt lat="43.21877161752009" lon="12.191596460835985"><ele>312.0</ele><time>2026-05-02T16:10:04Z</time></trkpt><trkpt lat="43.21884246923149" lon="12.191563165648644"><ele>312.0</ele><time>2026-05-02T16:10:05Z</time></trkpt><trkpt lat="43.218903332492765" lon="12.191529953343942"><ele>312.0</ele><time>2026-05-02T16:10:06Z</time></trkpt><trkpt lat="43.21897101128205" lon="12.191496765859926"><ele>312.0</ele><time>2026-05-02T16:10:07Z</time></trkpt><trkpt lat="43.21903761320729" lon="12.191463410764966"><ele>312.0</ele><time>2026-05-02T16:10:08Z</time></trkpt><trkpt lat="43.21911081371586" lon="12.191415579775423"><ele>312.6666666666667</ele><time>2026-05-02T16:10:09Z</time></trkpt><trkpt lat="43.21918853203188" lon="12.191365795766483"><ele>313.3333333333333</ele><time>2026-05-02T16:10:10Z</time></trkpt><trkpt lat="43.21926777414613" lon="12.191319958738854"><ele>314.0</ele><time>2026-05-02T16:10:11Z</time></trkpt><trkpt lat="43.21934992747529" lon="12.191275176569892"><ele>314.66666666666663</ele><time>2026-05-02T16:10:12Z</time></trkpt><trkpt lat="43.219418545369145" lon="12.191236643019693"><ele>315.3333333333333</ele><time>2026-05-02T16:10:13Z</time></trkpt><trkpt lat="43.21949135727509" lon="12.191185667424962"><ele>316.0</ele><time>2026-05-02T16:10:14Z</time></trkpt><trkpt lat="43.219578568434855" lon="12.191125084573475"><ele>316.0</ele><time>2026-05-02T16:10:15Z</time></trkpt><trkpt lat="43.21964899695881" lon="12.191076393460264"><ele>316.0</ele><time>2026-05-02T16:10:16Z</time></trkpt><trkpt lat="43.219729359015396" lon="12.191030177789782"><ele>316.0</ele><time>2026-05-02T16:10:17Z</time></trkpt><trkpt lat="43.219807182285535" lon="12.190988015984836"><ele>316.0</ele><time>2026-05-02T16:10:18Z</time></trkpt><trkpt lat="43.219875707977124" lon="12.190945130803831"><ele>316.0</ele><time>2026-05-02T16:10:19Z</time></trkpt><trkpt lat="43.21995401519972" lon="12.19090287247637"><ele>316.0</ele><time>2026-05-02T16:10:20Z</time></trkpt><trkpt lat="43.220020183808245" lon="12.190859143029014"><ele>316.66666666666663</ele><time>2026-05-02T16:10:21Z</time></trkpt><trkpt lat="43.220088011287295" lon="12.190817785972861"><ele>317.3333333333333</ele><time>2026-05-02T16:10:22Z</time></trkpt><trkpt lat="43.220152034820096" lon="12.190779195187872"><ele>318.0</ele><time>2026-05-02T16:10:23Z</time></trkpt><trkpt lat="43.22022077876358" lon="12.190746826335147"><ele>318.6666666666667</ele><time>2026-05-02T16:10:24Z</time></trkpt><trkpt lat="43.22029665575811" lon="12.19071157905703"><ele>319.33333333333337</ele><time>2026-05-02T16:10:25Z</time></trkpt><trkpt lat="43.220415596643846" lon="12.190634701348044"><ele>320.0</ele><time>2026-05-02T16:10:27Z</time></trkpt><trkpt lat="43.220477320135934" lon="12.190605417368296"><ele>320.0</ele><time>2026-05-02T16:10:28Z</time></trkpt><trkpt lat="43.22054536346705" lon="12.190563956457828"><ele>320.0</ele><time>2026-05-02T16:10:29Z</time></trkpt><trkpt lat="43.220604835416715" lon="12.190524341404894"><ele>320.0</ele><time>2026-05-02T16:10:30Z</time></trkpt><trkpt lat="43.22072373464857" lon="12.190453574635049"><ele>320.0</ele><time>2026-05-02T16:10:32Z</time></trkpt><trkpt lat="43.22078744482436" lon="12.19042288665235"><ele>320.0</ele><time>2026-05-02T16:10:33Z</time></trkpt><trkpt lat="43.220850254469276" lon="12.19039201525083"><ele>320.0</ele><time>2026-05-02T16:10:34Z</time></trkpt><trkpt lat="43.22091358535263" lon="12.190355601029383"><ele>321.0</ele><time>2026-05-02T16:10:35Z</time></trkpt><trkpt lat="43.220971622552455" lon="12.190318855870576"><ele>322.0</ele><time>2026-05-02T16:10:36Z</time></trkpt><trkpt lat="43.22104324565228" lon="12.190287984016697"><ele>323.0</ele><time>2026-05-02T16:10:37Z</time></trkpt><trkpt lat="43.22111164690572" lon="12.190277548960562"><ele>324.0</ele><time>2026-05-02T16:10:38Z</time></trkpt><trkpt lat="43.22119089937715" lon="12.190272931370888"><ele>325.0</ele><time>2026-05-02T16:10:39Z</time></trkpt><trkpt lat="43.22126676374016" lon="12.190273747046936"><ele>326.0</ele><time>2026-05-02T16:10:40Z</time></trkpt><trkpt lat="43.22134077034611" lon="12.190280436284286"><ele>327.0</ele><time>2026-05-02T16:10:41Z</time></trkpt><trkpt lat="43.22140910611321" lon="12.190299636763237"><ele>327.42857142857144</ele><time>2026-05-02T16:10:42Z</time></trkpt><trkpt lat="43.22148906787887" lon="12.19032727171143"><ele>327.8571428571429</ele><time>2026-05-02T16:10:43Z</time></trkpt><trkpt lat="43.221556122381116" lon="12.190351198688354"><ele>328.28571428571433</ele><time>2026-05-02T16:10:44Z</time></trkpt><trkpt lat="43.221620050536295" lon="12.190373504347978"><ele>328.7142857142857</ele><time>2026-05-02T16:10:45Z</time></trkpt><trkpt lat="43.22168506060722" lon="12.190393617791575"><ele>329.14285714285717</ele><time>2026-05-02T16:10:46Z</time></trkpt><trkpt lat="43.22176313244299" lon="12.190415670040267"><ele>329.5714285714286</ele><time>2026-05-02T16:10:47Z</time></trkpt><trkpt lat="43.22183013266837" lon="12.190436410271664"><ele>330.0</ele><time>2026-05-02T16:10:48Z</time></trkpt><trkpt lat="43.221893756570196" lon="12.1904585653025"><ele>330.0</ele><time>2026-05-02T16:10:49Z</time></trkpt><trkpt lat="43.221962216008926" lon="12.190489330571529"><ele>330.0</ele><time>2026-05-02T16:10:50Z</time></trkpt><trkpt lat="43.22208279087651" lon="12.190535681132719"><ele>330.0</ele><time>2026-05-02T16:10:52Z</time></trkpt><trkpt lat="43.222152218568425" lon="12.190556545305588"><ele>330.0</ele><time>2026-05-02T16:10:53Z</time></trkpt><trkpt lat="43.222226004189224" lon="12.190575412243287"><ele>330.0</ele><time>2026-05-02T16:10:54Z</time></trkpt><trkpt lat="43.2222881535422" lon="12.190608634524564"><ele>330.0</ele><time>2026-05-02T16:10:55Z</time></trkpt><trkpt lat="43.22237676755667" lon="12.190631549879507"><ele>329.6666666666667</ele><time>2026-05-02T16:10:56Z</time></trkpt><trkpt lat="43.22244172002907" lon="12.190653773138068"><ele>329.3333333333333</ele><time>2026-05-02T16:10:57Z</time></trkpt><trkpt lat="43.22252433172544" lon="12.190672564132703"><ele>329.0</ele><time>2026-05-02T16:10:58Z</time></trkpt><trkpt lat="43.222611070624865" lon="12.190681779898135"><ele>328.66666666666663</ele><time>2026-05-02T16:10:59Z</time></trkpt><trkpt lat="43.22270021371801" lon="12.190683603023901"><ele>328.3333333333333</ele><time>2026-05-02T16:11:00Z</time></trkpt><trkpt lat="43.22279326178715" lon="12.19067441808364"><ele>328.0</ele><time>2026-05-02T16:11:01Z</time></trkpt><trkpt lat="43.222887870427385" lon="12.190660736608907"><ele>328.0</ele><time>2026-05-02T16:11:02Z</time></trkpt><trkpt lat="43.222974858700624" lon="12.19064719951272"><ele>328.0</ele><time>2026-05-02T16:11:03Z</time></trkpt><trkpt lat="43.22306432079176" lon="12.190628694791574"><ele>328.0</ele><time>2026-05-02T16:11:04Z</time></trkpt><trkpt lat="43.2231480136457" lon="12.190617102745275"><ele>328.0</ele><time>2026-05-02T16:11:05Z</time></trkpt><trkpt lat="43.223230756453724" lon="12.190603293126747"><ele>328.0</ele><time>2026-05-02T16:11:06Z</time></trkpt><trkpt lat="43.22331354769439" lon="12.190586985306842"><ele>328.0</ele><time>2026-05-02T16:11:07Z</time></trkpt><trkpt lat="43.22340118552574" lon="12.19057133702082"><ele>327.66666666666663</ele><time>2026-05-02T16:11:08Z</time></trkpt><trkpt lat="43.223474283052106" lon="12.190567114784287"><ele>327.3333333333333</ele><time>2026-05-02T16:11:09Z</time></trkpt><trkpt lat="43.22355787966981" lon="12.190548337618733"><ele>327.0</ele><time>2026-05-02T16:11:10Z</time></trkpt><trkpt lat="43.223634220522214" lon="12.190538481012824"><ele>326.6666666666667</ele><time>2026-05-02T16:11:11Z</time></trkpt><trkpt lat="43.22371553108276" lon="12.19052444780141"><ele>326.33333333333337</ele><time>2026-05-02T16:11:12Z</time></trkpt><trkpt lat="43.22379278263233" lon="12.190514688698785"><ele>326.0</ele><time>2026-05-02T16:11:13Z</time></trkpt><trkpt lat="43.22387029982204" lon="12.190499573201272"><ele>326.0</ele><time>2026-05-02T16:11:14Z</time></trkpt><trkpt lat="43.223946610204166" lon="12.19048442746781"><ele>326.0</ele><time>2026-05-02T16:11:15Z</time></trkpt><trkpt lat="43.22401146936825" lon="12.19048208599751"><ele>326.0</ele><time>2026-05-02T16:11:16Z</time></trkpt><trkpt lat="43.22408145332622" lon="12.190473092249533"><ele>326.0</ele><time>2026-05-02T16:11:17Z</time></trkpt><trkpt lat="43.22414995183239" lon="12.190465487031"><ele>326.0</ele><time>2026-05-02T16:11:18Z</time></trkpt><trkpt lat="43.224213486635655" lon="12.19045686700607"><ele>326.0</ele><time>2026-05-02T16:11:19Z</time></trkpt><trkpt lat="43.22427953907703" lon="12.190438436445078"><ele>326.0</ele><time>2026-05-02T16:11:20Z</time></trkpt><trkpt lat="43.22434412977703" lon="12.190418204693234"><ele>326.5714285714286</ele><time>2026-05-02T16:11:21Z</time></trkpt><trkpt lat="43.22441259573727" lon="12.190390225096746"><ele>327.1428571428571</ele><time>2026-05-02T16:11:22Z</time></trkpt><trkpt lat="43.22447500265347" lon="12.190360390942468"><ele>327.7142857142857</ele><time>2026-05-02T16:11:23Z</time></trkpt><trkpt lat="43.22453647529975" lon="12.190324839823509"><ele>328.28571428571433</ele><time>2026-05-02T16:11:24Z</time></trkpt><trkpt lat="43.22459711054983" lon="12.19028567267341"><ele>328.8571428571429</ele><time>2026-05-02T16:11:25Z</time></trkpt><trkpt lat="43.22465999217371" lon="12.190243245547105"><ele>329.42857142857144</ele><time>2026-05-02T16:11:26Z</time></trkpt><trkpt lat="43.224719612282904" lon="12.190201950114984"><ele>330.0</ele><time>2026-05-02T16:11:27Z</time></trkpt><trkpt lat="43.22477667294828" lon="12.190160070580957"><ele>331.00000000000006</ele><time>2026-05-02T16:11:28Z</time></trkpt><trkpt lat="43.224837174810524" lon="12.19011720898035"><ele>332.0</ele><time>2026-05-02T16:11:29Z</time></trkpt><trkpt lat="43.22489977258129" lon="12.19007727756801"><ele>333.0</ele><time>2026-05-02T16:11:30Z</time></trkpt><trkpt lat="43.22496284675021" lon="12.190045561843519"><ele>334.0</ele><time>2026-05-02T16:11:31Z</time></trkpt><trkpt lat="43.225023549914276" lon="12.19001300492895"><ele>335.0</ele><time>2026-05-02T16:11:32Z</time></trkpt><trkpt lat="43.22508612323559" lon="12.189988714301077"><ele>336.00000000000006</ele><time>2026-05-02T16:11:33Z</time></trkpt><trkpt lat="43.22515401788529" lon="12.18996684911506"><ele>337.0</ele><time>2026-05-02T16:11:34Z</time></trkpt><trkpt lat="43.225221766986564" lon="12.189958242447725"><ele>337.00000000000006</ele><time>2026-05-02T16:11:35Z</time></trkpt><trkpt lat="43.22529528940083" lon="12.189953224767718"><ele>337.0</ele><time>2026-05-02T16:11:36Z</time></trkpt><trkpt lat="43.22536580880372" lon="12.189957858575987"><ele>337.0</ele><time>2026-05-02T16:11:37Z</time></trkpt><trkpt lat="43.22544985186743" lon="12.18997813114176"><ele>337.0</ele><time>2026-05-02T16:11:38Z</time></trkpt><trkpt lat="43.22552418448629" lon="12.189996490464642"><ele>337.0</ele><time>2026-05-02T16:11:39Z</time></trkpt><trkpt lat="43.22560399354806" lon="12.1900097080151"><ele>337.00000000000006</ele><time>2026-05-02T16:11:40Z</time></trkpt><trkpt lat="43.22566793370202" lon="12.190014505364621"><ele>337.0</ele><time>2026-05-02T16:11:41Z</time></trkpt><trkpt lat="43.225731225726285" lon="12.190011588969819"><ele>336.8</ele><time>2026-05-02T16:11:42Z</time></trkpt><trkpt lat="43.22579775224239" lon="12.189989640198458"><ele>336.6</ele><time>2026-05-02T16:11:43Z</time></trkpt><trkpt lat="43.22591905964256" lon="12.189940793753317"><ele>336.40000000000003</ele><time>2026-05-02T16:11:45Z</time></trkpt><trkpt lat="43.22598163051108" lon="12.189898313325575"><ele>336.20000000000005</ele><time>2026-05-02T16:11:46Z</time></trkpt><trkpt lat="43.226084584165164" lon="12.189829807050018"><ele>336.0</ele><time>2026-05-02T16:11:48Z</time></trkpt><trkpt lat="43.22617552494849" lon="12.189802739031252"><ele>336.0</ele><time>2026-05-02T16:11:50Z</time></trkpt><trkpt lat="43.22622563897637" lon="12.189871289504527"><ele>336.0</ele><time>2026-05-02T16:11:53Z</time></trkpt><trkpt lat="43.22613549974257" lon="12.189909679587748"><ele>336.0</ele><time>2026-05-02T16:11:58Z</time></trkpt><trkpt lat="43.226105427567546" lon="12.189831575671636"><ele>336.0</ele><time>2026-05-02T16:13:08.999Z</time></trkpt><trkpt lat="43.22618905989602" lon="12.189742003224616"><ele>336.0</ele><time>2026-05-02T16:13:11.999Z</time></trkpt><trkpt lat="43.22624466890489" lon="12.189697553173644"><ele>336.0</ele><time>2026-05-02T16:13:12.999Z</time></trkpt><trkpt lat="43.226344298894105" lon="12.189628330512008"><ele>336.0</ele><time>2026-05-02T16:13:14.999Z</time></trkpt><trkpt lat="43.22640879637674" lon="12.189581145561757"><ele>336.0</ele><time>2026-05-02T16:13:15.999Z</time></trkpt><trkpt lat="43.22647205847429" lon="12.189543315566732"><ele>336.0</ele><time>2026-05-02T16:13:16.999Z</time></trkpt><trkpt lat="43.22653776039832" lon="12.189502147509687"><ele>336.0</ele><time>2026-05-02T16:13:17.999Z</time></trkpt><trkpt lat="43.22659925203929" lon="12.189464666840339"><ele>336.0</ele><time>2026-05-02T16:13:18.999Z</time></trkpt><trkpt lat="43.22666284276849" lon="12.18943318971584"><ele>336.0</ele><time>2026-05-02T16:13:19.999Z</time></trkpt><trkpt lat="43.22673331377066" lon="12.189407710143422"><ele>336.0</ele><time>2026-05-02T16:13:20.999Z</time></trkpt><trkpt lat="43.226802724225266" lon="12.189382823395986"><ele>336.0</ele><time>2026-05-02T16:13:21.999Z</time></trkpt><trkpt lat="43.22687376971741" lon="12.189363407878922"><ele>336.0</ele><time>2026-05-02T16:13:22.999Z</time></trkpt><trkpt lat="43.2269441152818" lon="12.189344116090474"><ele>336.0</ele><time>2026-05-02T16:13:23.999Z</time></trkpt><trkpt lat="43.227014391581655" lon="12.189326337758184"><ele>336.0</ele><time>2026-05-02T16:13:24.999Z</time></trkpt><trkpt lat="43.22708766975122" lon="12.18931061553971"><ele>336.0</ele><time>2026-05-02T16:13:25.999Z</time></trkpt><trkpt lat="43.22716811608467" lon="12.189291165273684"><ele>336.0</ele><time>2026-05-02T16:13:26.999Z</time></trkpt><trkpt lat="43.22725165336972" lon="12.189270589814344"><ele>336.1666666666667</ele><time>2026-05-02T16:13:27.999Z</time></trkpt><trkpt lat="43.22733932416534" lon="12.189253056572452"><ele>336.3333333333333</ele><time>2026-05-02T16:13:28.999Z</time></trkpt><trkpt lat="43.227427404575266" lon="12.189239667180761"><ele>336.5</ele><time>2026-05-02T16:13:29.999Z</time></trkpt><trkpt lat="43.22750920719093" lon="12.189230295788617"><ele>336.66666666666663</ele><time>2026-05-02T16:13:30.999Z</time></trkpt><trkpt lat="43.22759333348789" lon="12.189226777703624"><ele>336.8333333333333</ele><time>2026-05-02T16:13:31.999Z</time></trkpt><trkpt lat="43.22767584602913" lon="12.189232426156735"><ele>337.0</ele><time>2026-05-02T16:13:32.999Z</time></trkpt><trkpt lat="43.22775322114615" lon="12.189235939706524"><ele>337.0</ele><time>2026-05-02T16:13:33.999Z</time></trkpt><trkpt lat="43.22782059679281" lon="12.18922692225104"><ele>337.0</ele><time>2026-05-02T16:13:34.999Z</time></trkpt><trkpt lat="43.22794378872446" lon="12.189227369032107"><ele>337.0</ele><time>2026-05-02T16:13:36.999Z</time></trkpt><trkpt lat="43.22803559671267" lon="12.189228484518283"><ele>337.0</ele><time>2026-05-02T16:13:39Z</time></trkpt><trkpt lat="43.228120670606444" lon="12.189218339904953"><ele>337.0</ele><time>2026-05-02T16:13:41Z</time></trkpt><trkpt lat="43.22821892121886" lon="12.189195266745214"><ele>337.66666666666663</ele><time>2026-05-02T16:13:43Z</time></trkpt><trkpt lat="43.228291146677506" lon="12.1891918858474"><ele>338.3333333333333</ele><time>2026-05-02T16:15:54Z</time></trkpt><trkpt lat="43.22838493710314" lon="12.189137210702413"><ele>339.0</ele><time>2026-05-02T16:15:56Z</time></trkpt><trkpt lat="43.2284485545161" lon="12.18910421997471"><ele>339.6666666666667</ele><time>2026-05-02T16:15:57Z</time></trkpt><trkpt lat="43.228523257617226" lon="12.189081112088406"><ele>340.33333333333337</ele><time>2026-05-02T16:15:58Z</time></trkpt><trkpt lat="43.2285869319355" lon="12.189065113454669"><ele>341.0</ele><time>2026-05-02T16:15:59Z</time></trkpt><trkpt lat="43.22865328285202" lon="12.189028690440821"><ele>341.20000000000005</ele><time>2026-05-02T16:16:00Z</time></trkpt><trkpt lat="43.22873501989726" lon="12.189001914955464"><ele>341.40000000000003</ele><time>2026-05-02T16:16:01Z</time></trkpt><trkpt lat="43.228823418345215" lon="12.18897689620051"><ele>341.6</ele><time>2026-05-02T16:16:02Z</time></trkpt><trkpt lat="43.22891380169743" lon="12.188944846271392"><ele>341.8</ele><time>2026-05-02T16:16:03Z</time></trkpt><trkpt lat="43.22899375749209" lon="12.188902334163416"><ele>342.0</ele><time>2026-05-02T16:16:04Z</time></trkpt><trkpt lat="43.22907951535443" lon="12.188836940589436"><ele>342.0</ele><time>2026-05-02T16:16:05Z</time></trkpt><trkpt lat="43.229157489714275" lon="12.188768961105461"><ele>342.0</ele><time>2026-05-02T16:16:06Z</time></trkpt><trkpt lat="43.229241033242786" lon="12.18869567485588"><ele>342.0</ele><time>2026-05-02T16:16:07Z</time></trkpt><trkpt lat="43.22931939764555" lon="12.188622523164682"><ele>342.0</ele><time>2026-05-02T16:16:08Z</time></trkpt><trkpt lat="43.22940004525353" lon="12.188546644865193"><ele>342.0</ele><time>2026-05-02T16:16:09Z</time></trkpt><trkpt lat="43.22948740347277" lon="12.188469172212269"><ele>342.0</ele><time>2026-05-02T16:16:10Z</time></trkpt><trkpt lat="43.22957597651737" lon="12.18838957381406"><ele>342.0</ele><time>2026-05-02T16:16:11Z</time></trkpt><trkpt lat="43.22967112187765" lon="12.188306417384565"><ele>342.0</ele><time>2026-05-02T16:16:12Z</time></trkpt><trkpt lat="43.22975286631233" lon="12.188232604018769"><ele>342.0</ele><time>2026-05-02T16:16:13Z</time></trkpt><trkpt lat="43.22983249397974" lon="12.188148625434517"><ele>342.0</ele><time>2026-05-02T16:16:14Z</time></trkpt><trkpt lat="43.229904455356305" lon="12.188046285810431"><ele>345.0</ele><time>2026-05-02T16:16:15Z</time></trkpt><trkpt lat="43.22996354157694" lon="12.187915116445849"><ele>348.0</ele><time>2026-05-02T16:16:16Z</time></trkpt><trkpt lat="43.23001689937516" lon="12.187763694501477"><ele>351.0</ele><time>2026-05-02T16:16:17Z</time></trkpt><trkpt lat="43.23006603655409" lon="12.187620864257974"><ele>354.0</ele><time>2026-05-02T16:16:18Z</time></trkpt><trkpt lat="43.23011851960943" lon="12.187480205124926"><ele>353.0</ele><time>2026-05-02T16:16:19Z</time></trkpt><trkpt lat="43.230172821545615" lon="12.187341125469315"><ele>352.0</ele><time>2026-05-02T16:16:20Z</time></trkpt><trkpt lat="43.23022848001909" lon="12.187202749593935"><ele>351.0</ele><time>2026-05-02T16:16:21Z</time></trkpt><trkpt lat="43.23030371245776" lon="12.187084971736315"><ele>350.0</ele><time>2026-05-02T16:16:22Z</time></trkpt><trkpt lat="43.23038935445124" lon="12.186977079883246"><ele>350.0</ele><time>2026-05-02T16:16:23Z</time></trkpt><trkpt lat="43.23047474172765" lon="12.18688905045126"><ele>350.0</ele><time>2026-05-02T16:16:24Z</time></trkpt><trkpt lat="43.23056341742664" lon="12.186808986170496"><ele>350.0</ele><time>2026-05-02T16:16:25Z</time></trkpt><trkpt lat="43.2306459156625" lon="12.186724685707048"><ele>350.0</ele><time>2026-05-02T16:16:26Z</time></trkpt><trkpt lat="43.23071443314401" lon="12.186649644210771"><ele>350.0</ele><time>2026-05-02T16:16:27Z</time></trkpt><trkpt lat="43.23077557217982" lon="12.186571457191874"><ele>352.8</ele><time>2026-05-02T16:16:28Z</time></trkpt><trkpt lat="43.23082999597402" lon="12.186453548796536"><ele>355.6</ele><time>2026-05-02T16:16:29Z</time></trkpt><trkpt lat="43.23086000267006" lon="12.186311467498978"><ele>358.4</ele><time>2026-05-02T16:16:30Z</time></trkpt><trkpt lat="43.23086713005592" lon="12.186141569327244"><ele>361.2</ele><time>2026-05-02T16:16:31Z</time></trkpt><trkpt lat="43.230870004112774" lon="12.185982533372572"><ele>364.0</ele><time>2026-05-02T16:16:32Z</time></trkpt><trkpt lat="43.23088421264021" lon="12.185827585599702"><ele>364.0</ele><time>2026-05-02T16:16:33Z</time></trkpt><trkpt lat="43.23091041056804" lon="12.18568135205493"><ele>364.0</ele><time>2026-05-02T16:16:34Z</time></trkpt><trkpt lat="43.23096064037162" lon="12.185557541624496"><ele>364.0</ele><time>2026-05-02T16:16:35Z</time></trkpt><trkpt lat="43.23102762300437" lon="12.185446555107518"><ele>364.0</ele><time>2026-05-02T16:16:36Z</time></trkpt><trkpt lat="43.23110790932503" lon="12.185332120175618"><ele>364.0</ele><time>2026-05-02T16:16:37Z</time></trkpt><trkpt lat="43.23120358379481" lon="12.185223929252297"><ele>362.75</ele><time>2026-05-02T16:16:38Z</time></trkpt><trkpt lat="43.23132409087688" lon="12.185120967778548"><ele>361.5</ele><time>2026-05-02T16:16:39Z</time></trkpt><trkpt lat="43.23146511270785" lon="12.185030852322496"><ele>360.25</ele><time>2026-05-02T16:16:40Z</time></trkpt><trkpt lat="43.231604268227656" lon="12.18497380838297"><ele>359.0</ele><time>2026-05-02T16:16:41Z</time></trkpt><trkpt lat="43.23173974855097" lon="12.184926297482326"><ele>361.5</ele><time>2026-05-02T16:16:42Z</time></trkpt><trkpt lat="43.23187166746414" lon="12.184881868114221"><ele>364.0</ele><time>2026-05-02T16:16:43Z</time></trkpt><trkpt lat="43.23199853634376" lon="12.184832627184035"><ele>366.5</ele><time>2026-05-02T16:16:44Z</time></trkpt><trkpt lat="43.23212077884993" lon="12.184784529052866"><ele>369.0</ele><time>2026-05-02T16:16:45Z</time></trkpt><trkpt lat="43.23223845189414" lon="12.184744265111902"><ele>371.0</ele><time>2026-05-02T16:16:46Z</time></trkpt><trkpt lat="43.23234668107971" lon="12.184708142515364"><ele>373.0</ele><time>2026-05-02T16:16:47Z</time></trkpt><trkpt lat="43.232435359181686" lon="12.184677216720463"><ele>375.0</ele><time>2026-05-02T16:16:48Z</time></trkpt><trkpt lat="43.23252662095167" lon="12.184642912071073"><ele>377.0</ele><time>2026-05-02T16:16:49Z</time></trkpt><trkpt lat="43.23262992237232" lon="12.184619104663385"><ele>379.0</ele><time>2026-05-02T16:16:50Z</time></trkpt><trkpt lat="43.23273765434118" lon="12.184608206626372"><ele>379.0</ele><time>2026-05-02T16:16:51Z</time></trkpt><trkpt lat="43.23284106317463" lon="12.184597476428143"><ele>379.0</ele><time>2026-05-02T16:16:52Z</time></trkpt><trkpt lat="43.23293968800044" lon="12.184584583370983"><ele>379.0</ele><time>2026-05-02T16:16:53Z</time></trkpt><trkpt lat="43.23302393623246" lon="12.184543098957827"><ele>379.0</ele><time>2026-05-02T16:16:54Z</time></trkpt><trkpt lat="43.23310981134058" lon="12.184477191531956"><ele>379.0</ele><time>2026-05-02T16:16:55Z</time></trkpt><trkpt lat="43.233184738138775" lon="12.184382857246623"><ele>380.6</ele><time>2026-05-02T16:16:56Z</time></trkpt><trkpt lat="43.23325653421004" lon="12.184264828173449"><ele>382.2</ele><time>2026-05-02T16:16:57Z</time></trkpt><trkpt lat="43.23332367705841" lon="12.184145789444601"><ele>383.8</ele><time>2026-05-02T16:16:58Z</time></trkpt><trkpt lat="43.2333924301577" lon="12.184027070695025"><ele>385.40000000000003</ele><time>2026-05-02T16:16:59Z</time></trkpt><trkpt lat="43.23345530439172" lon="12.183913545329755"><ele>387.0</ele><time>2026-05-02T16:17:00Z</time></trkpt><trkpt lat="43.23351924014514" lon="12.183797931576366"><ele>387.0</ele><time>2026-05-02T16:17:01Z</time></trkpt><trkpt lat="43.23358873002701" lon="12.183685789553843"><ele>387.0</ele><time>2026-05-02T16:17:02Z</time></trkpt><trkpt lat="43.23365441473947" lon="12.183582290349793"><ele>387.0</ele><time>2026-05-02T16:17:03Z</time></trkpt><trkpt lat="43.233722014510704" lon="12.183480838906775"><ele>387.0</ele><time>2026-05-02T16:17:04Z</time></trkpt><trkpt lat="43.23379354876203" lon="12.183377471657593"><ele>387.0</ele><time>2026-05-02T16:17:05Z</time></trkpt><trkpt lat="43.23387320065751" lon="12.183288966116248"><ele>387.0</ele><time>2026-05-02T16:17:06Z</time></trkpt><trkpt lat="43.23396309491453" lon="12.18320474409832"><ele>387.0</ele><time>2026-05-02T16:17:07Z</time></trkpt><trkpt lat="43.23405321699072" lon="12.183127078205711"><ele>387.0</ele><time>2026-05-02T16:17:08Z</time></trkpt><trkpt lat="43.23414554460308" lon="12.18303395278442"><ele>387.0</ele><time>2026-05-02T16:17:09Z</time></trkpt><trkpt lat="43.23422973306033" lon="12.182946946945988"><ele>387.0</ele><time>2026-05-02T16:17:10Z</time></trkpt><trkpt lat="43.234313398672484" lon="12.182858498332227"><ele>388.6</ele><time>2026-05-02T16:17:11Z</time></trkpt><trkpt lat="43.23439839340075" lon="12.18277506973994"><ele>390.20000000000005</ele><time>2026-05-02T16:17:12Z</time></trkpt><trkpt lat="43.23447707828484" lon="12.182684736470286"><ele>391.8</ele><time>2026-05-02T16:17:13Z</time></trkpt><trkpt lat="43.234554717748736" lon="12.182582200904932"><ele>393.4</ele><time>2026-05-02T16:17:14Z</time></trkpt><trkpt lat="43.23462397279518" lon="12.182483569939542"><ele>395.0</ele><time>2026-05-02T16:17:15Z</time></trkpt><trkpt lat="43.2346927905007" lon="12.182388380688964"><ele>393.8</ele><time>2026-05-02T16:17:16Z</time></trkpt><trkpt lat="43.234760802491664" lon="12.182297983614452"><ele>392.6</ele><time>2026-05-02T16:17:17Z</time></trkpt><trkpt lat="43.234835225114644" lon="12.182209103672722"><ele>391.4</ele><time>2026-05-02T16:17:18Z</time></trkpt><trkpt lat="43.23491413077494" lon="12.182118775773974"><ele>390.2</ele><time>2026-05-02T16:17:19Z</time></trkpt><trkpt lat="43.23499892384475" lon="12.18203135294111"><ele>389.0</ele><time>2026-05-02T16:17:20Z</time></trkpt><trkpt lat="43.23508582909457" lon="12.181944744347652"><ele>391.2</ele><time>2026-05-02T16:17:21Z</time></trkpt><trkpt lat="43.23517140944643" lon="12.181853780717741"><ele>393.4</ele><time>2026-05-02T16:17:22Z</time></trkpt><trkpt lat="43.23526191919414" lon="12.181758030122577"><ele>395.6</ele><time>2026-05-02T16:17:23Z</time></trkpt><trkpt lat="43.235347133069716" lon="12.181670237197029"><ele>397.8</ele><time>2026-05-02T16:17:24Z</time></trkpt><trkpt lat="43.23543046600858" lon="12.181588741518546"><ele>400.0</ele><time>2026-05-02T16:17:25Z</time></trkpt><trkpt lat="43.23551615619654" lon="12.181493601574553"><ele>400.0</ele><time>2026-05-02T16:17:26Z</time></trkpt><trkpt lat="43.23560163410845" lon="12.181406235141617"><ele>400.0</ele><time>2026-05-02T16:17:27Z</time></trkpt><trkpt lat="43.23569478615534" lon="12.181312185163689"><ele>400.0</ele><time>2026-05-02T16:17:28Z</time></trkpt><trkpt lat="43.23578580623884" lon="12.181206019346304"><ele>400.0</ele><time>2026-05-02T16:17:29Z</time></trkpt><trkpt lat="43.23585768984285" lon="12.181081192545673"><ele>402.75</ele><time>2026-05-02T16:17:30Z</time></trkpt><trkpt lat="43.23592770456137" lon="12.18095064336209"><ele>405.5</ele><time>2026-05-02T16:17:31Z</time></trkpt><trkpt lat="43.23599415567599" lon="12.180819055578937"><ele>408.25</ele><time>2026-05-02T16:17:32Z</time></trkpt><trkpt lat="43.23606042345477" lon="12.180692931625616"><ele>411.0</ele><time>2026-05-02T16:17:33Z</time></trkpt><trkpt lat="43.23612650669321" lon="12.18057259008835"><ele>411.0</ele><time>2026-05-02T16:17:34Z</time></trkpt><trkpt lat="43.23619461206239" lon="12.180452575379437"><ele>411.0</ele><time>2026-05-02T16:17:35Z</time></trkpt><trkpt lat="43.23625842416415" lon="12.180333192753627"><ele>411.0</ele><time>2026-05-02T16:17:36Z</time></trkpt><trkpt lat="43.236320175401744" lon="12.180207149739806"><ele>411.0</ele><time>2026-05-02T16:17:37Z</time></trkpt><trkpt lat="43.23638738769511" lon="12.180084607297282"><ele>411.0</ele><time>2026-05-02T16:17:38Z</time></trkpt><trkpt lat="43.236449909163206" lon="12.179957021050587"><ele>414.0</ele><time>2026-05-02T16:17:39Z</time></trkpt><trkpt lat="43.23650735052722" lon="12.179819136761456"><ele>417.0</ele><time>2026-05-02T16:17:40Z</time></trkpt><trkpt lat="43.2365515888492" lon="12.179670571850536"><ele>420.0</ele><time>2026-05-02T16:17:41Z</time></trkpt><trkpt lat="43.23659071731972" lon="12.179511125371556"><ele>423.0</ele><time>2026-05-02T16:17:42Z</time></trkpt><trkpt lat="43.23663608874296" lon="12.179359869250035"><ele>423.0</ele><time>2026-05-02T16:17:43Z</time></trkpt><trkpt lat="43.236677748068644" lon="12.179221293064021"><ele>423.0</ele><time>2026-05-02T16:17:44Z</time></trkpt><trkpt lat="43.236713604334454" lon="12.179080147258114"><ele>423.0</ele><time>2026-05-02T16:17:45Z</time></trkpt><trkpt lat="43.23674419920834" lon="12.17896092078176"><ele>423.0</ele><time>2026-05-02T16:17:46Z</time></trkpt><trkpt lat="43.236774538123655" lon="12.178857757874669"><ele>423.0</ele><time>2026-05-02T16:17:47Z</time></trkpt><trkpt lat="43.23679981715538" lon="12.178777953904886"><ele>422.8333333333333</ele><time>2026-05-02T16:17:48Z</time></trkpt><trkpt lat="43.23683173111762" lon="12.178683295785957"><ele>422.66666666666663</ele><time>2026-05-02T16:17:50Z</time></trkpt><trkpt lat="43.23685376292997" lon="12.178588228928541"><ele>422.5</ele><time>2026-05-02T16:17:52Z</time></trkpt><trkpt lat="43.23686185700065" lon="12.17849599503015"><ele>422.3333333333333</ele><time>2026-05-02T16:17:53Z</time></trkpt><trkpt lat="43.23688179391255" lon="12.178386078690774"><ele>422.16666666666663</ele><time>2026-05-02T16:17:54Z</time></trkpt><trkpt lat="43.23691417990666" lon="12.178242089057699"><ele>422.0</ele><time>2026-05-02T16:17:55Z</time></trkpt><trkpt lat="43.236941622124576" lon="12.178071279847378"><ele>422.5</ele><time>2026-05-02T16:17:56Z</time></trkpt><trkpt lat="43.23695503966656" lon="12.177891757771036"><ele>423.0</ele><time>2026-05-02T16:17:57Z</time></trkpt><trkpt lat="43.23695446724007" lon="12.177721658928983"><ele>423.5</ele><time>2026-05-02T16:17:58Z</time></trkpt><trkpt lat="43.2369469301124" lon="12.177559990491893"><ele>424.0</ele><time>2026-05-02T16:17:59Z</time></trkpt><trkpt lat="43.23694278633181" lon="12.177413232663545"><ele>424.79999999999995</ele><time>2026-05-02T16:18:00Z</time></trkpt><trkpt lat="43.23693984360529" lon="12.177275340169379"><ele>425.59999999999997</ele><time>2026-05-02T16:18:01Z</time></trkpt><trkpt lat="43.23692785569936" lon="12.177127104397684"><ele>426.4</ele><time>2026-05-02T16:18:02Z</time></trkpt><trkpt lat="43.23691847506633" lon="12.176975478826416"><ele>427.2</ele><time>2026-05-02T16:18:03Z</time></trkpt><trkpt lat="43.2369107737834" lon="12.176828908461545"><ele>428.0</ele><time>2026-05-02T16:18:04Z</time></trkpt><trkpt lat="43.23690289468037" lon="12.176690721170067"><ele>428.0</ele><time>2026-05-02T16:18:05Z</time></trkpt><trkpt lat="43.23689053020886" lon="12.176548098295715"><ele>427.99999999999994</ele><time>2026-05-02T16:18:06Z</time></trkpt><trkpt lat="43.236871701084844" lon="12.176389136513762"><ele>427.99999999999994</ele><time>2026-05-02T16:18:07Z</time></trkpt><trkpt lat="43.236855132776824" lon="12.176231873710174"><ele>428.0</ele><time>2026-05-02T16:18:08Z</time></trkpt><trkpt lat="43.23684146179065" lon="12.176081551706988"><ele>428.0</ele><time>2026-05-02T16:18:09Z</time></trkpt><trkpt lat="43.23684153489609" lon="12.175923049997113"><ele>428.2</ele><time>2026-05-02T16:18:10Z</time></trkpt><trkpt lat="43.23687104264278" lon="12.175769143026615"><ele>428.4</ele><time>2026-05-02T16:18:11Z</time></trkpt><trkpt lat="43.23693027556247" lon="12.17563383342054"><ele>428.59999999999997</ele><time>2026-05-02T16:18:12Z</time></trkpt><trkpt lat="43.23700086603212" lon="12.175525510886876"><ele>428.79999999999995</ele><time>2026-05-02T16:18:13Z</time></trkpt><trkpt lat="43.23708457603258" lon="12.17543921039313"><ele>429.0</ele><time>2026-05-02T16:18:14Z</time></trkpt><trkpt lat="43.23715761256531" lon="12.175356055923125"><ele>429.3333333333333</ele><time>2026-05-02T16:18:15Z</time></trkpt><trkpt lat="43.237198371552154" lon="12.175256801719344"><ele>429.66666666666663</ele><time>2026-05-02T16:18:16Z</time></trkpt><trkpt lat="43.237217587124604" lon="12.17516146400484"><ele>430.0</ele><time>2026-05-02T16:18:17Z</time></trkpt><trkpt lat="43.237224649712616" lon="12.17505448814956"><ele>430.3333333333333</ele><time>2026-05-02T16:18:18Z</time></trkpt><trkpt lat="43.23721967021594" lon="12.174935333583417"><ele>430.66666666666663</ele><time>2026-05-02T16:18:19Z</time></trkpt><trkpt lat="43.23719555176215" lon="12.174806877142604"><ele>431.0</ele><time>2026-05-02T16:18:20Z</time></trkpt><trkpt lat="43.23716341878302" lon="12.174672400096249"><ele>431.0</ele><time>2026-05-02T16:18:21Z</time></trkpt><trkpt lat="43.23714941782256" lon="12.174532233511895"><ele>431.0</ele><time>2026-05-02T16:18:22Z</time></trkpt><trkpt lat="43.237159724419755" lon="12.174380773734903"><ele>431.0</ele><time>2026-05-02T16:18:23Z</time></trkpt><trkpt lat="43.237196644104586" lon="12.1742293698069"><ele>431.0</ele><time>2026-05-02T16:18:24Z</time></trkpt><trkpt lat="43.237255096117785" lon="12.174092016622152"><ele>431.0</ele><time>2026-05-02T16:18:25Z</time></trkpt><trkpt lat="43.237349602554595" lon="12.173957321986375"><ele>436.75</ele><time>2026-05-02T16:18:26Z</time></trkpt><trkpt lat="43.237450128997246" lon="12.17384286024271"><ele>442.5</ele><time>2026-05-02T16:18:27Z</time></trkpt><trkpt lat="43.23753124399398" lon="12.173727793826346"><ele>448.25</ele><time>2026-05-02T16:18:28Z</time></trkpt><trkpt lat="43.237586284971556" lon="12.17360836438947"><ele>454.0</ele><time>2026-05-02T16:18:29Z</time></trkpt><trkpt lat="43.237628861186955" lon="12.1734851632118"><ele>454.0</ele><time>2026-05-02T16:18:30Z</time></trkpt><trkpt lat="43.237660230927155" lon="12.173349820750952"><ele>454.0</ele><time>2026-05-02T16:18:31Z</time></trkpt><trkpt lat="43.237689159424754" lon="12.173212282665428"><ele>454.0</ele><time>2026-05-02T16:18:32Z</time></trkpt><trkpt lat="43.237713490692116" lon="12.173069284711127"><ele>454.0</ele><time>2026-05-02T16:18:33Z</time></trkpt><trkpt lat="43.237747061013515" lon="12.172924690392104"><ele>454.0</ele><time>2026-05-02T16:18:34Z</time></trkpt><trkpt lat="43.237780049459886" lon="12.17278424601502"><ele>453.4</ele><time>2026-05-02T16:18:35Z</time></trkpt><trkpt lat="43.237814140866824" lon="12.17264844053292"><ele>452.79999999999995</ele><time>2026-05-02T16:18:36Z</time></trkpt><trkpt lat="43.23784551893614" lon="12.172508976612127"><ele>452.20000000000005</ele><time>2026-05-02T16:18:37Z</time></trkpt><trkpt lat="43.237879068289494" lon="12.172377054034088"><ele>451.6</ele><time>2026-05-02T16:18:38Z</time></trkpt><trkpt lat="43.23792105635457" lon="12.172244041946893"><ele>451.0</ele><time>2026-05-02T16:18:39Z</time></trkpt><trkpt lat="43.23797035392194" lon="12.172121041082722"><ele>450.6</ele><time>2026-05-02T16:18:40Z</time></trkpt><trkpt lat="43.23802279210524" lon="12.172001960225332"><ele>450.20000000000005</ele><time>2026-05-02T16:18:41Z</time></trkpt><trkpt lat="43.238086134137305" lon="12.171884840599146"><ele>449.79999999999995</ele><time>2026-05-02T16:18:42Z</time></trkpt><trkpt lat="43.238158524455166" lon="12.171776470589778"><ele>449.4</ele><time>2026-05-02T16:18:43Z</time></trkpt><trkpt lat="43.23823875908022" lon="12.171687193829445"><ele>449.0</ele><time>2026-05-02T16:18:44Z</time></trkpt><trkpt lat="43.23831785982742" lon="12.171583459537114"><ele>454.5</ele><time>2026-05-02T16:18:45Z</time></trkpt><trkpt lat="43.23839763367084" lon="12.17148666551266"><ele>460.0</ele><time>2026-05-02T16:18:46Z</time></trkpt><trkpt lat="43.23847877137527" lon="12.171382315400034"><ele>465.5</ele><time>2026-05-02T16:18:47Z</time></trkpt><trkpt lat="43.238558809233716" lon="12.171266554180072"><ele>471.0</ele><time>2026-05-02T16:18:48Z</time></trkpt><trkpt lat="43.23864401684869" lon="12.171156827405598"><ele>471.0</ele><time>2026-05-02T16:18:49Z</time></trkpt><trkpt lat="43.238727139755895" lon="12.171061807467051"><ele>471.0</ele><time>2026-05-02T16:18:50Z</time></trkpt><trkpt lat="43.2388030305724" lon="12.170959265676156"><ele>471.0</ele><time>2026-05-02T16:18:51Z</time></trkpt><trkpt lat="43.23886672745551" lon="12.170850314276855"><ele>471.0</ele><time>2026-05-02T16:18:52Z</time></trkpt><trkpt lat="43.23892264332786" lon="12.170741070660556"><ele>471.0</ele><time>2026-05-02T16:18:53Z</time></trkpt><trkpt lat="43.23897236870947" lon="12.170630321954897"><ele>474.20000000000005</ele><time>2026-05-02T16:18:54Z</time></trkpt><trkpt lat="43.239020690684136" lon="12.170501837495296"><ele>477.40000000000003</ele><time>2026-05-02T16:18:55Z</time></trkpt><trkpt lat="43.2390523434387" lon="12.170368377100809"><ele>480.6</ele><time>2026-05-02T16:18:56Z</time></trkpt><trkpt lat="43.23907114912736" lon="12.170259919832386"><ele>483.8</ele><time>2026-05-02T16:18:57Z</time></trkpt><trkpt lat="43.23908487092771" lon="12.170148761746528"><ele>487.0</ele><time>2026-05-02T16:18:58Z</time></trkpt><trkpt lat="43.23907317513382" lon="12.17002038526593"><ele>487.0</ele><time>2026-05-02T16:18:59Z</time></trkpt><trkpt lat="43.239023229333284" lon="12.169897341766044"><ele>487.00000000000006</ele><time>2026-05-02T16:19:00Z</time></trkpt><trkpt lat="43.23893999440852" lon="12.169785754453715"><ele>487.00000000000006</ele><time>2026-05-02T16:19:01Z</time></trkpt><trkpt lat="43.238855791569144" lon="12.16968961482366"><ele>487.0</ele><time>2026-05-02T16:19:02Z</time></trkpt><trkpt lat="43.23876856105456" lon="12.169602859306032"><ele>487.0</ele><time>2026-05-02T16:19:03Z</time></trkpt><trkpt lat="43.23868989827252" lon="12.16952027842012"><ele>487.0</ele><time>2026-05-02T16:19:04Z</time></trkpt><trkpt lat="43.23861232657165" lon="12.169441582080635"><ele>487.00000000000006</ele><time>2026-05-02T16:19:05Z</time></trkpt><trkpt lat="43.2385367559374" lon="12.169362033539958"><ele>487.00000000000006</ele><time>2026-05-02T16:19:06Z</time></trkpt><trkpt lat="43.23846848357592" lon="12.169271202105808"><ele>487.0</ele><time>2026-05-02T16:19:07Z</time></trkpt><trkpt lat="43.23841389844346" lon="12.169167871730783"><ele>487.0</ele><time>2026-05-02T16:19:08Z</time></trkpt><trkpt lat="43.23836635736606" lon="12.169055949601065"><ele>487.6</ele><time>2026-05-02T16:19:09Z</time></trkpt><trkpt lat="43.238318602257934" lon="12.168940747577613"><ele>488.20000000000005</ele><time>2026-05-02T16:19:10Z</time></trkpt><trkpt lat="43.23827122340935" lon="12.168821255780827"><ele>488.8</ele><time>2026-05-02T16:19:11Z</time></trkpt><trkpt lat="43.238224224802764" lon="12.168705335196808"><ele>489.4</ele><time>2026-05-02T16:19:12Z</time></trkpt><trkpt lat="43.23817556605983" lon="12.168591085166678"><ele>490.0</ele><time>2026-05-02T16:19:13Z</time></trkpt><trkpt lat="43.23812493164751" lon="12.168480097976179"><ele>490.00000000000006</ele><time>2026-05-02T16:19:14Z</time></trkpt><trkpt lat="43.23807651990508" lon="12.1683770627249"><ele>490.0</ele><time>2026-05-02T16:19:15Z</time></trkpt><trkpt lat="43.23803928781391" lon="12.168278859340592"><ele>490.0</ele><time>2026-05-02T16:19:16Z</time></trkpt><trkpt lat="43.23800431566056" lon="12.168184553155438"><ele>490.0</ele><time>2026-05-02T16:19:17Z</time></trkpt><trkpt lat="43.23798431257963" lon="12.168085834105133"><ele>490.00000000000006</ele><time>2026-05-02T16:19:18Z</time></trkpt><trkpt lat="43.23799726244007" lon="12.167934940005146"><ele>490.0</ele><time>2026-05-02T16:19:20Z</time></trkpt><trkpt lat="43.238128241887786" lon="12.167853852316213"><ele>493.8</ele><time>2026-05-02T16:19:22Z</time></trkpt><trkpt lat="43.238217051092334" lon="12.167818699216925"><ele>497.6</ele><time>2026-05-02T16:19:23Z</time></trkpt><trkpt lat="43.238306202060514" lon="12.167792408960176"><ele>501.4</ele><time>2026-05-02T16:19:24Z</time></trkpt><trkpt lat="43.2383994612058" lon="12.167764369086385"><ele>505.2</ele><time>2026-05-02T16:19:25Z</time></trkpt><trkpt lat="43.238490865452825" lon="12.167744098322709"><ele>509.0</ele><time>2026-05-02T16:19:26Z</time></trkpt><trkpt lat="43.23858505164726" lon="12.167727420529385"><ele>508.99999999999994</ele><time>2026-05-02T16:19:27Z</time></trkpt><trkpt lat="43.23867254057821" lon="12.16770580744029"><ele>509.0</ele><time>2026-05-02T16:19:28Z</time></trkpt><trkpt lat="43.238758466452744" lon="12.167680868228512"><ele>509.0</ele><time>2026-05-02T16:19:29Z</time></trkpt><trkpt lat="43.238827781877035" lon="12.167660141765516"><ele>509.0</ele><time>2026-05-02T16:19:30Z</time></trkpt><trkpt lat="43.238940661496486" lon="12.167615024738959"><ele>508.99999999999994</ele><time>2026-05-02T16:19:32Z</time></trkpt><trkpt lat="43.23902289937996" lon="12.167601509916263"><ele>509.0</ele><time>2026-05-02T16:19:34Z</time></trkpt><trkpt lat="43.23901976879287" lon="12.167508024981167"><ele>509.0</ele><time>2026-05-02T16:19:39Z</time></trkpt><trkpt lat="43.238962859068785" lon="12.16746914495322"><ele>509.0</ele><time>2026-05-02T16:19:40Z</time></trkpt><trkpt lat="43.23887165368414" lon="12.167380884461167"><ele>509.0</ele><time>2026-05-02T16:19:42Z</time></trkpt><trkpt lat="43.238787330324115" lon="12.16722849037507"><ele>509.0</ele><time>2026-05-02T16:19:44Z</time></trkpt><trkpt lat="43.23873519700567" lon="12.167139132566291"><ele>509.0</ele><time>2026-05-02T16:19:46Z</time></trkpt><trkpt lat="43.23870326869391" lon="12.167061066819084"><ele>512.1666666666666</ele><time>2026-05-02T16:19:48Z</time></trkpt><trkpt lat="43.238684035778256" lon="12.166954322232618"><ele>515.3333333333333</ele><time>2026-05-02T16:19:50Z</time></trkpt><trkpt lat="43.23868049826393" lon="12.166856686602694"><ele>518.5</ele><time>2026-05-02T16:19:54Z</time></trkpt><trkpt lat="43.238679369377905" lon="12.166745022964285"><ele>521.6666666666666</ele><time>2026-05-02T16:19:56Z</time></trkpt><trkpt lat="43.23866119085918" lon="12.166576992352354"><ele>524.8333333333334</ele><time>2026-05-02T16:19:58Z</time></trkpt><trkpt lat="43.23864234193594" lon="12.166492627419682"><ele>528.0</ele><time>2026-05-02T16:19:59Z</time></trkpt><trkpt lat="43.23861608611474" lon="12.166410233838791"><ele>528.6666666666666</ele><time>2026-05-02T16:20:00Z</time></trkpt><trkpt lat="43.23857547355522" lon="12.166248497288482"><ele>529.3333333333334</ele><time>2026-05-02T16:20:02Z</time></trkpt><trkpt lat="43.23855243539356" lon="12.166145327557357"><ele>530.0</ele><time>2026-05-02T16:20:03Z</time></trkpt><trkpt lat="43.23852546542184" lon="12.166039749975356"><ele>530.6666666666667</ele><time>2026-05-02T16:20:04Z</time></trkpt><trkpt lat="43.23849845071402" lon="12.165943507158765"><ele>531.3333333333334</ele><time>2026-05-02T16:20:05Z</time></trkpt><trkpt lat="43.23848398439845" lon="12.165853354330924"><ele>532.0</ele><time>2026-05-02T16:20:06Z</time></trkpt><trkpt lat="43.23847341266758" lon="12.16574022956554"><ele>532.1666666666667</ele><time>2026-05-02T16:20:07Z</time></trkpt><trkpt lat="43.23845917752376" lon="12.165617198365306"><ele>532.3333333333334</ele><time>2026-05-02T16:20:08Z</time></trkpt><trkpt lat="43.238441428679266" lon="12.165507760822408"><ele>532.5</ele><time>2026-05-02T16:20:09Z</time></trkpt><trkpt lat="43.238428876478366" lon="12.165416247778891"><ele>532.6666666666666</ele><time>2026-05-02T16:20:10Z</time></trkpt><trkpt lat="43.23841983025044" lon="12.16531342078115"><ele>532.8333333333333</ele><time>2026-05-02T16:20:11Z</time></trkpt><trkpt lat="43.23841599209435" lon="12.16520309056918"><ele>533.0</ele><time>2026-05-02T16:20:12Z</time></trkpt><trkpt lat="43.23840417436406" lon="12.16509904780027"><ele>533.0</ele><time>2026-05-02T16:20:13Z</time></trkpt><trkpt lat="43.23839329668359" lon="12.165009992679614"><ele>533.0</ele><time>2026-05-02T16:20:14Z</time></trkpt><trkpt lat="43.238351248024394" lon="12.164861192231017"><ele>533.0</ele><time>2026-05-02T16:20:16Z</time></trkpt><trkpt lat="43.23829874105353" lon="12.16473243135626"><ele>533.0</ele><time>2026-05-02T16:20:18Z</time></trkpt><trkpt lat="43.23825828731792" lon="12.164590319071213"><ele>533.0</ele><time>2026-05-02T16:20:20Z</time></trkpt><trkpt lat="43.23822119619357" lon="12.164445514931437"><ele>532.8333333333333</ele><time>2026-05-02T16:20:22Z</time></trkpt><trkpt lat="43.2382151178144" lon="12.164275537473813"><ele>532.6666666666666</ele><time>2026-05-02T16:20:24Z</time></trkpt><trkpt lat="43.23822173604317" lon="12.164187597079655"><ele>532.5</ele><time>2026-05-02T16:20:25Z</time></trkpt><trkpt lat="43.238249362971594" lon="12.164091026126531"><ele>532.3333333333334</ele><time>2026-05-02T16:20:26Z</time></trkpt><trkpt lat="43.23827799173828" lon="12.163990895549986"><ele>532.1666666666667</ele><time>2026-05-02T16:20:27Z</time></trkpt><trkpt lat="43.23829152536122" lon="12.16390367093429"><ele>532.0</ele><time>2026-05-02T16:20:28Z</time></trkpt><trkpt lat="43.238278673428354" lon="12.163806682876082"><ele>531.7142857142857</ele><time>2026-05-02T16:20:29Z</time></trkpt><trkpt lat="43.2382534619335" lon="12.163707641888127"><ele>531.4285714285714</ele><time>2026-05-02T16:20:30Z</time></trkpt><trkpt lat="43.238224790132215" lon="12.163617565407367"><ele>531.1428571428571</ele><time>2026-05-02T16:20:31Z</time></trkpt><trkpt lat="43.23820040871475" lon="12.163534993786755"><ele>530.8571428571429</ele><time>2026-05-02T16:20:32Z</time></trkpt><trkpt lat="43.238176127985994" lon="12.163441652509775"><ele>530.5714285714286</ele><time>2026-05-02T16:20:33Z</time></trkpt><trkpt lat="43.23813542096775" lon="12.163347386669328"><ele>530.2857142857142</ele><time>2026-05-02T16:20:34Z</time></trkpt><trkpt lat="43.23808381021926" lon="12.163279549266726"><ele>530.0</ele><time>2026-05-02T16:20:35Z</time></trkpt><trkpt lat="43.23799785659237" lon="12.163210901954988"><ele>530.0</ele><time>2026-05-02T16:20:37Z</time></trkpt><trkpt lat="43.23808844061937" lon="12.163298873389639"><ele>530.0</ele><time>2026-05-02T16:20:49Z</time></trkpt><trkpt lat="43.23814298488223" lon="12.163388359505177"><ele>530.0</ele><time>2026-05-02T16:20:51Z</time></trkpt><trkpt lat="43.23817348951804" lon="12.163493253683338"><ele>530.0</ele><time>2026-05-02T16:20:53Z</time></trkpt><trkpt lat="43.238202448672986" lon="12.163577830909444"><ele>530.0</ele><time>2026-05-02T16:20:54Z</time></trkpt><trkpt lat="43.23824067703388" lon="12.163694995705503"><ele>530.0</ele><time>2026-05-02T16:20:56Z</time></trkpt><trkpt lat="43.23825665010428" lon="12.163801568797542"><ele>530.0</ele><time>2026-05-02T16:20:58Z</time></trkpt><trkpt lat="43.238257612886336" lon="12.163939921506635"><ele>530.0</ele><time>2026-05-02T16:21:00Z</time></trkpt><trkpt lat="43.23822893708961" lon="12.164074681810712"><ele>530.0</ele><time>2026-05-02T16:21:02Z</time></trkpt><trkpt lat="43.23819427702738" lon="12.164202137992875"><ele>530.0</ele><time>2026-05-02T16:21:04Z</time></trkpt><trkpt lat="43.238194029806984" lon="12.164339739008561"><ele>530.0</ele><time>2026-05-02T16:21:06Z</time></trkpt><trkpt lat="43.2382104512944" lon="12.164498541752787"><ele>530.4</ele><time>2026-05-02T16:21:08Z</time></trkpt><trkpt lat="43.23824821277949" lon="12.164637023615729"><ele>530.8</ele><time>2026-05-02T16:21:10Z</time></trkpt><trkpt lat="43.23829505367598" lon="12.164729385087092"><ele>531.2</ele><time>2026-05-02T16:21:12Z</time></trkpt><trkpt lat="43.23834224949462" lon="12.164855449867447"><ele>531.6</ele><time>2026-05-02T16:21:14Z</time></trkpt><trkpt lat="43.23838137348694" lon="12.165007723536466"><ele>532.0</ele><time>2026-05-02T16:21:16Z</time></trkpt><trkpt lat="43.23837485672933" lon="12.165104390996142"><ele>532.0</ele><time>2026-05-02T16:21:17Z</time></trkpt><trkpt lat="43.23838920246209" lon="12.165203908600358"><ele>532.0</ele><time>2026-05-02T16:21:18Z</time></trkpt><trkpt lat="43.23841018457033" lon="12.16530241744479"><ele>532.0</ele><time>2026-05-02T16:21:19Z</time></trkpt><trkpt lat="43.23841313028682" lon="12.165405189311697"><ele>532.0</ele><time>2026-05-02T16:21:20Z</time></trkpt><trkpt lat="43.23842438590803" lon="12.165525948628074"><ele>532.0</ele><time>2026-05-02T16:21:21Z</time></trkpt><trkpt lat="43.238425979116094" lon="12.165650637354641"><ele>532.0</ele><time>2026-05-02T16:21:22Z</time></trkpt><trkpt lat="43.23845265051644" lon="12.165777703332312"><ele>532.0</ele><time>2026-05-02T16:21:23Z</time></trkpt><trkpt lat="43.23849292654422" lon="12.16590193759568"><ele>532.0</ele><time>2026-05-02T16:21:24Z</time></trkpt><trkpt lat="43.238521190537725" lon="12.166039999447715"><ele>532.0</ele><time>2026-05-02T16:21:25Z</time></trkpt><trkpt lat="43.238553830033965" lon="12.166157165484902"><ele>532.0</ele><time>2026-05-02T16:21:26Z</time></trkpt><trkpt lat="43.2385779029683" lon="12.16625388295533"><ele>532.0</ele><time>2026-05-02T16:21:27Z</time></trkpt><trkpt lat="43.238599444458764" lon="12.166348277499306"><ele>532.0</ele><time>2026-05-02T16:21:28Z</time></trkpt><trkpt lat="43.238623673619905" lon="12.16644859849426"><ele>531.3333333333334</ele><time>2026-05-02T16:21:29Z</time></trkpt><trkpt lat="43.23864662839148" lon="12.166544197070575"><ele>530.6666666666667</ele><time>2026-05-02T16:21:30Z</time></trkpt><trkpt lat="43.23866454087607" lon="12.166662935748128"><ele>530.0</ele><time>2026-05-02T16:21:31Z</time></trkpt><trkpt lat="43.23867850185413" lon="12.166772466206233"><ele>529.3333333333334</ele><time>2026-05-02T16:21:32Z</time></trkpt><trkpt lat="43.23867917558802" lon="12.166895066156686"><ele>528.6666666666666</ele><time>2026-05-02T16:21:33Z</time></trkpt><trkpt lat="43.2387049532603" lon="12.166990052383815"><ele>528.0</ele><time>2026-05-02T16:21:34Z</time></trkpt><trkpt lat="43.23871469993029" lon="12.167081234951233"><ele>528.0</ele><time>2026-05-02T16:21:35Z</time></trkpt><trkpt lat="43.238744540939045" lon="12.1671646007617"><ele>528.0</ele><time>2026-05-02T16:21:36Z</time></trkpt><trkpt lat="43.23878292682097" lon="12.16724255970753"><ele>528.0</ele><time>2026-05-02T16:21:37Z</time></trkpt><trkpt lat="43.23883924319129" lon="12.167314142687905"><ele>528.0</ele><time>2026-05-02T16:21:38Z</time></trkpt><trkpt lat="43.23888187204475" lon="12.167402863451102"><ele>528.0</ele><time>2026-05-02T16:21:39Z</time></trkpt><trkpt lat="43.2389266731196" lon="12.167476854725416"><ele>528.0</ele><time>2026-05-02T16:21:40Z</time></trkpt><trkpt lat="43.23897240915004" lon="12.167566351975042"><ele>528.0</ele><time>2026-05-02T16:21:42Z</time></trkpt><trkpt lat="43.239107399751504" lon="12.167569051978486"><ele>524.4</ele><time>2026-05-02T16:21:45Z</time></trkpt><trkpt lat="43.23917969384441" lon="12.167561991402955"><ele>520.8</ele><time>2026-05-02T16:21:46Z</time></trkpt><trkpt lat="43.239264998914805" lon="12.167533779488682"><ele>517.2</ele><time>2026-05-02T16:21:47Z</time></trkpt><trkpt lat="43.239350234650736" lon="12.1674943620614"><ele>513.6</ele><time>2026-05-02T16:21:48Z</time></trkpt><trkpt lat="43.23943441331534" lon="12.167451682744288"><ele>510.0</ele><time>2026-05-02T16:21:49Z</time></trkpt><trkpt lat="43.239550121942166" lon="12.167406508416867"><ele>509.4</ele><time>2026-05-02T16:21:50Z</time></trkpt><trkpt lat="43.23968719984858" lon="12.167314107621284"><ele>508.8</ele><time>2026-05-02T16:21:52Z</time></trkpt><trkpt lat="43.23975563656696" lon="12.16723250723376"><ele>508.20000000000005</ele><time>2026-05-02T16:21:53Z</time></trkpt><trkpt lat="43.23980935797315" lon="12.167125066678098"><ele>507.6</ele><time>2026-05-02T16:21:54Z</time></trkpt><trkpt lat="43.23985465095052" lon="12.167013387938411"><ele>507.0</ele><time>2026-05-02T16:21:55Z</time></trkpt><trkpt lat="43.239901851175304" lon="12.166899254764918"><ele>507.0</ele><time>2026-05-02T16:21:56Z</time></trkpt><trkpt lat="43.23994816776453" lon="12.166779975182731"><ele>507.00000000000006</ele><time>2026-05-02T16:21:57Z</time></trkpt><trkpt lat="43.239995901876334" lon="12.166651196902523"><ele>507.00000000000006</ele><time>2026-05-02T16:21:58Z</time></trkpt><trkpt lat="43.24004989764121" lon="12.166538730216626"><ele>507.0</ele><time>2026-05-02T16:21:59Z</time></trkpt><trkpt lat="43.24010267662726" lon="12.166419384132128"><ele>507.0</ele><time>2026-05-02T16:22:00Z</time></trkpt><trkpt lat="43.24015925477908" lon="12.166308584041115"><ele>504.40000000000003</ele><time>2026-05-02T16:22:01Z</time></trkpt><trkpt lat="43.24021502206521" lon="12.166201872171218"><ele>501.80000000000007</ele><time>2026-05-02T16:22:02Z</time></trkpt><trkpt lat="43.240278177986966" lon="12.166103344990047"><ele>499.2</ele><time>2026-05-02T16:22:03Z</time></trkpt><trkpt lat="43.240343387833406" lon="12.16601508377641"><ele>496.6</ele><time>2026-05-02T16:22:04Z</time></trkpt><trkpt lat="43.24040693238683" lon="12.165917299163493"><ele>494.0</ele><time>2026-05-02T16:22:05Z</time></trkpt><trkpt lat="43.24046387009007" lon="12.165820865656922"><ele>494.0</ele><time>2026-05-02T16:22:06Z</time></trkpt><trkpt lat="43.24052498231635" lon="12.165721289120214"><ele>494.0</ele><time>2026-05-02T16:22:07Z</time></trkpt><trkpt lat="43.240608072713115" lon="12.165628247565481"><ele>494.0</ele><time>2026-05-02T16:22:08Z</time></trkpt><trkpt lat="43.24071284268221" lon="12.165545847868046"><ele>494.0</ele><time>2026-05-02T16:22:09Z</time></trkpt><trkpt lat="43.24081449628365" lon="12.165475455613167"><ele>494.0</ele><time>2026-05-02T16:22:10Z</time></trkpt><trkpt lat="43.24090852331777" lon="12.16541213750104"><ele>492.4</ele><time>2026-05-02T16:22:11Z</time></trkpt><trkpt lat="43.24099352899423" lon="12.165342482300789"><ele>490.79999999999995</ele><time>2026-05-02T16:22:12Z</time></trkpt><trkpt lat="43.241063782356576" lon="12.165241116385"><ele>489.20000000000005</ele><time>2026-05-02T16:22:13Z</time></trkpt><trkpt lat="43.24111331353734" lon="12.16510924684467"><ele>487.6</ele><time>2026-05-02T16:22:14Z</time></trkpt><trkpt lat="43.24115982543918" lon="12.16496001981347"><ele>486.0</ele><time>2026-05-02T16:22:15Z</time></trkpt><trkpt lat="43.24120839407457" lon="12.16481501022638"><ele>485.8</ele><time>2026-05-02T16:22:16Z</time></trkpt><trkpt lat="43.241260056277824" lon="12.16468513589807"><ele>485.6</ele><time>2026-05-02T16:22:17Z</time></trkpt><trkpt lat="43.241315931394254" lon="12.164563504159878"><ele>485.4</ele><time>2026-05-02T16:22:18Z</time></trkpt><trkpt lat="43.24138277795285" lon="12.164457561737262"><ele>485.2</ele><time>2026-05-02T16:22:19Z</time></trkpt><trkpt lat="43.241452769413094" lon="12.164364109932295"><ele>485.0</ele><time>2026-05-02T16:22:20Z</time></trkpt><trkpt lat="43.24152611519359" lon="12.164272996112269"><ele>485.0</ele><time>2026-05-02T16:22:21Z</time></trkpt><trkpt lat="43.24159595116447" lon="12.164191259615052"><ele>485.0</ele><time>2026-05-02T16:22:22Z</time></trkpt><trkpt lat="43.24167169475395" lon="12.1641056236056"><ele>485.0</ele><time>2026-05-02T16:22:23Z</time></trkpt><trkpt lat="43.24174960839821" lon="12.164019814889247"><ele>485.0</ele><time>2026-05-02T16:22:24Z</time></trkpt><trkpt lat="43.24182558607259" lon="12.16393737647778"><ele>485.0</ele><time>2026-05-02T16:22:25Z</time></trkpt><trkpt lat="43.24190334747131" lon="12.163853454740547"><ele>484.0</ele><time>2026-05-02T16:22:26Z</time></trkpt><trkpt lat="43.24198486955593" lon="12.163776520556299"><ele>483.0</ele><time>2026-05-02T16:22:27Z</time></trkpt><trkpt lat="43.24206995975867" lon="12.163694780797016"><ele>482.0</ele><time>2026-05-02T16:22:28Z</time></trkpt><trkpt lat="43.24214892317639" lon="12.163613429196522"><ele>481.0</ele><time>2026-05-02T16:22:29Z</time></trkpt><trkpt lat="43.242228046912295" lon="12.16352916847773"><ele>480.0</ele><time>2026-05-02T16:22:30Z</time></trkpt><trkpt lat="43.24229878965966" lon="12.163439089422837"><ele>480.0</ele><time>2026-05-02T16:22:31Z</time></trkpt><trkpt lat="43.24236012878466" lon="12.163349568830606"><ele>480.0</ele><time>2026-05-02T16:22:32Z</time></trkpt><trkpt lat="43.242425584432276" lon="12.163266760175143"><ele>480.0</ele><time>2026-05-02T16:22:33Z</time></trkpt><trkpt lat="43.242486418016256" lon="12.16319091119549"><ele>480.0</ele><time>2026-05-02T16:22:34Z</time></trkpt><trkpt lat="43.24254763871419" lon="12.16310313647193"><ele>480.0</ele><time>2026-05-02T16:22:35Z</time></trkpt><trkpt lat="43.242611715582726" lon="12.163030724019013"><ele>480.0</ele><time>2026-05-02T16:22:36Z</time></trkpt><trkpt lat="43.242683367539556" lon="12.162959433049384"><ele>476.8</ele><time>2026-05-02T16:22:37Z</time></trkpt><trkpt lat="43.242766933930675" lon="12.162905662171692"><ele>473.6</ele><time>2026-05-02T16:22:38Z</time></trkpt><trkpt lat="43.242860939234816" lon="12.16286466213582"><ele>470.4</ele><time>2026-05-02T16:22:39Z</time></trkpt><trkpt lat="43.24295099923327" lon="12.16282716051699"><ele>467.2</ele><time>2026-05-02T16:22:40Z</time></trkpt><trkpt lat="43.24304289908073" lon="12.16276981603841"><ele>464.0</ele><time>2026-05-02T16:22:41Z</time></trkpt><trkpt lat="43.243118141429704" lon="12.162679146388744"><ele>464.0</ele><time>2026-05-02T16:22:42Z</time></trkpt><trkpt lat="43.243181270983996" lon="12.162576179697378"><ele>464.0</ele><time>2026-05-02T16:22:43Z</time></trkpt><trkpt lat="43.24325373985034" lon="12.162494517004163"><ele>464.0</ele><time>2026-05-02T16:22:44Z</time></trkpt><trkpt lat="43.24329134493109" lon="12.162375355402798"><ele>464.0</ele><time>2026-05-02T16:22:45Z</time></trkpt><trkpt lat="43.2433211237894" lon="12.162259800823332"><ele>464.0</ele><time>2026-05-02T16:22:46Z</time></trkpt><trkpt lat="43.24334541177411" lon="12.162126052695742"><ele>464.0</ele><time>2026-05-02T16:22:47Z</time></trkpt><trkpt lat="43.243376475086016" lon="12.161999100192956"><ele>464.0</ele><time>2026-05-02T16:22:48Z</time></trkpt><trkpt lat="43.24339239003162" lon="12.161880271284792"><ele>464.0</ele><time>2026-05-02T16:22:49Z</time></trkpt><trkpt lat="43.24341052355183" lon="12.161756622593632"><ele>464.0</ele><time>2026-05-02T16:22:50Z</time></trkpt><trkpt lat="43.24341223180128" lon="12.161637150087097"><ele>464.0</ele><time>2026-05-02T16:22:51Z</time></trkpt><trkpt lat="43.24345438438088" lon="12.161515901434486"><ele>460.4</ele><time>2026-05-02T16:22:52Z</time></trkpt><trkpt lat="43.243495226125475" lon="12.161396311123767"><ele>456.79999999999995</ele><time>2026-05-02T16:22:53Z</time></trkpt><trkpt lat="43.24353532937553" lon="12.161266534668043"><ele>453.20000000000005</ele><time>2026-05-02T16:22:54Z</time></trkpt><trkpt lat="43.24363429344013" lon="12.161175281501468"><ele>449.6</ele><time>2026-05-02T16:22:55Z</time></trkpt><trkpt lat="43.24374846932657" lon="12.16109165102653"><ele>446.0</ele><time>2026-05-02T16:22:56Z</time></trkpt><trkpt lat="43.24383500626679" lon="12.160985960647691"><ele>446.0</ele><time>2026-05-02T16:22:57Z</time></trkpt><trkpt lat="43.243917853912315" lon="12.16089419389204"><ele>446.0</ele><time>2026-05-02T16:22:58Z</time></trkpt><trkpt lat="43.24398647773783" lon="12.160783903580693"><ele>446.0</ele><time>2026-05-02T16:22:59Z</time></trkpt><trkpt lat="43.24404621439835" lon="12.160666962370927"><ele>446.0</ele><time>2026-05-02T16:23:00Z</time></trkpt><trkpt lat="43.244099864528046" lon="12.160551043230273"><ele>446.0</ele><time>2026-05-02T16:23:01Z</time></trkpt><trkpt lat="43.244150154134914" lon="12.16044210767997"><ele>446.3333333333333</ele><time>2026-05-02T16:23:02Z</time></trkpt><trkpt lat="43.24419747864978" lon="12.160348009529203"><ele>446.66666666666663</ele><time>2026-05-02T16:23:03Z</time></trkpt><trkpt lat="43.24423789549151" lon="12.1602712789633"><ele>447.0</ele><time>2026-05-02T16:23:04Z</time></trkpt><trkpt lat="43.24427113448596" lon="12.160191703419342"><ele>447.33333333333337</ele><time>2026-05-02T16:23:05Z</time></trkpt><trkpt lat="43.24431307183926" lon="12.160057093624273"><ele>447.6666666666667</ele><time>2026-05-02T16:23:07Z</time></trkpt><trkpt lat="43.24428135700284" lon="12.159963413731711"><ele>448.0</ele><time>2026-05-02T16:23:09Z</time></trkpt><trkpt lat="43.24422512218882" lon="12.159885171499601"><ele>448.00000000000006</ele><time>2026-05-02T16:23:12Z</time></trkpt><trkpt lat="43.244283202669116" lon="12.159940031712352"><ele>448.0</ele><time>2026-05-02T16:23:20Z</time></trkpt><trkpt lat="43.24433753287253" lon="12.159859923893354"><ele>448.0</ele><time>2026-05-02T16:23:22Z</time></trkpt><trkpt lat="43.24436734903332" lon="12.15976374179504"><ele>448.0</ele><time>2026-05-02T16:23:24Z</time></trkpt><trkpt lat="43.244455454415" lon="12.159670763335775"><ele>448.00000000000006</ele><time>2026-05-02T16:23:26Z</time></trkpt><trkpt lat="43.24451147914837" lon="12.159621779392682"><ele>448.0</ele><time>2026-05-02T16:23:27Z</time></trkpt><trkpt lat="43.24460263757797" lon="12.15951980267817"><ele>445.83333333333337</ele><time>2026-05-02T16:23:29Z</time></trkpt><trkpt lat="43.244657728295444" lon="12.159411770430278"><ele>443.6666666666667</ele><time>2026-05-02T16:23:31Z</time></trkpt><trkpt lat="43.2445972678037" lon="12.159565844365208"><ele>441.5</ele><time>2026-05-02T16:23:53Z</time></trkpt><trkpt lat="43.244550830438044" lon="12.159646789003473"><ele>439.33333333333337</ele><time>2026-05-02T16:23:54Z</time></trkpt><trkpt lat="43.244473117909315" lon="12.1596576387605"><ele>437.1666666666667</ele><time>2026-05-02T16:23:55Z</time></trkpt><trkpt lat="43.24441939033778" lon="12.15970564598286"><ele>435.0</ele><time>2026-05-02T16:23:56Z</time></trkpt><trkpt lat="43.244334970561184" lon="12.159787025959314"><ele>434.8</ele><time>2026-05-02T16:23:58Z</time></trkpt><trkpt lat="43.24429137932634" lon="12.15988760689057"><ele>434.6</ele><time>2026-05-02T16:24:00Z</time></trkpt><trkpt lat="43.244219805202235" lon="12.159951637333927"><ele>434.4</ele><time>2026-05-02T16:24:03Z</time></trkpt><trkpt lat="43.244108483771406" lon="12.159887730090635"><ele>434.2</ele><time>2026-05-02T16:24:05Z</time></trkpt><trkpt lat="43.244024725906506" lon="12.159945314510557"><ele>434.0</ele><time>2026-05-02T16:24:06Z</time></trkpt><trkpt lat="43.243936701091826" lon="12.160036388493486"><ele>434.0</ele><time>2026-05-02T16:24:07Z</time></trkpt><trkpt lat="43.24383940423783" lon="12.160154194564372"><ele>434.0</ele><time>2026-05-02T16:24:08Z</time></trkpt><trkpt lat="43.24376477276464" lon="12.16026956425912"><ele>434.0</ele><time>2026-05-02T16:24:09Z</time></trkpt><trkpt lat="43.24369701641788" lon="12.160378730206894"><ele>434.0</ele><time>2026-05-02T16:24:10Z</time></trkpt><trkpt lat="43.24362502118461" lon="12.160478468509622"><ele>434.0</ele><time>2026-05-02T16:24:11Z</time></trkpt><trkpt lat="43.243547651656726" lon="12.160558753743606"><ele>434.0</ele><time>2026-05-02T16:24:12Z</time></trkpt><trkpt lat="43.24347097568447" lon="12.160623362096324"><ele>434.0</ele><time>2026-05-02T16:24:13Z</time></trkpt><trkpt lat="43.243388309960146" lon="12.160675447073189"><ele>434.0</ele><time>2026-05-02T16:24:14Z</time></trkpt><trkpt lat="43.243297276057916" lon="12.160722017592624"><ele>434.0</ele><time>2026-05-02T16:24:15Z</time></trkpt><trkpt lat="43.24320150317583" lon="12.160758395723335"><ele>434.0</ele><time>2026-05-02T16:24:16Z</time></trkpt><trkpt lat="43.24310206306332" lon="12.160809863180988"><ele>434.49999999999994</ele><time>2026-05-02T16:24:17Z</time></trkpt><trkpt lat="43.243005903177284" lon="12.160852155367587"><ele>435.0</ele><time>2026-05-02T16:24:18Z</time></trkpt><trkpt lat="43.24291559524429" lon="12.16086519211149"><ele>435.5</ele><time>2026-05-02T16:24:19Z</time></trkpt><trkpt lat="43.242830152596184" lon="12.160872995848456"><ele>436.0</ele><time>2026-05-02T16:24:20Z</time></trkpt><trkpt lat="43.2427517776786" lon="12.160876839773644"><ele>436.49999999999994</ele><time>2026-05-02T16:24:21Z</time></trkpt><trkpt lat="43.24266220638369" lon="12.160883118848888"><ele>437.0</ele><time>2026-05-02T16:24:22Z</time></trkpt><trkpt lat="43.242582719903844" lon="12.160896328592207"><ele>436.99999999999994</ele><time>2026-05-02T16:24:23Z</time></trkpt><trkpt lat="43.24250820815262" lon="12.16090867540894"><ele>437.0</ele><time>2026-05-02T16:24:24Z</time></trkpt><trkpt lat="43.24243942484615" lon="12.160926840130236"><ele>437.0</ele><time>2026-05-02T16:24:25Z</time></trkpt><trkpt lat="43.24237591955672" lon="12.16094480663049"><ele>437.0</ele><time>2026-05-02T16:24:26Z</time></trkpt><trkpt lat="43.24225374876467" lon="12.160984480581286"><ele>436.99999999999994</ele><time>2026-05-02T16:24:28Z</time></trkpt><trkpt lat="43.24218274944541" lon="12.16100872194032"><ele>437.0</ele><time>2026-05-02T16:24:29Z</time></trkpt><trkpt lat="43.242101813237625" lon="12.161044178947485"><ele>435.8333333333333</ele><time>2026-05-02T16:24:30Z</time></trkpt><trkpt lat="43.24202518335653" lon="12.161082402113562"><ele>434.66666666666663</ele><time>2026-05-02T16:24:31Z</time></trkpt><trkpt lat="43.24194191489768" lon="12.161119314111154"><ele>433.5</ele><time>2026-05-02T16:24:32Z</time></trkpt><trkpt lat="43.241860450603205" lon="12.161155477131391"><ele>432.33333333333337</ele><time>2026-05-02T16:24:33Z</time></trkpt><trkpt lat="43.24177498118328" lon="12.161196191053937"><ele>431.1666666666667</ele><time>2026-05-02T16:24:34Z</time></trkpt><trkpt lat="43.24169785158534" lon="12.161252755457419"><ele>430.0</ele><time>2026-05-02T16:24:35Z</time></trkpt><trkpt lat="43.24162371266852" lon="12.16132542364061"><ele>430.00000000000006</ele><time>2026-05-02T16:24:36Z</time></trkpt><trkpt lat="43.241550615834534" lon="12.161400910621323"><ele>430.0</ele><time>2026-05-02T16:24:37Z</time></trkpt><trkpt lat="43.2414864964906" lon="12.161477187207238"><ele>430.0</ele><time>2026-05-02T16:24:38Z</time></trkpt><trkpt lat="43.2414184143786" lon="12.161552686875885"><ele>430.0</ele><time>2026-05-02T16:24:39Z</time></trkpt><trkpt lat="43.24134651043228" lon="12.16161767924474"><ele>430.00000000000006</ele><time>2026-05-02T16:24:40Z</time></trkpt><trkpt lat="43.24127730873652" lon="12.1616632634163"><ele>430.0</ele><time>2026-05-02T16:24:41Z</time></trkpt><trkpt lat="43.2412094979371" lon="12.161675725042633"><ele>430.6666666666667</ele><time>2026-05-02T16:24:42Z</time></trkpt><trkpt lat="43.2411443476216" lon="12.161639582923057"><ele>431.33333333333337</ele><time>2026-05-02T16:24:43Z</time></trkpt><trkpt lat="43.241093377797064" lon="12.161551511107476"><ele>432.0</ele><time>2026-05-02T16:24:44Z</time></trkpt><trkpt lat="43.24108836968492" lon="12.161421578640672"><ele>432.66666666666663</ele><time>2026-05-02T16:24:45Z</time></trkpt><trkpt lat="43.241044167321036" lon="12.16130013849667"><ele>433.3333333333333</ele><time>2026-05-02T16:24:46Z</time></trkpt><trkpt lat="43.241016684581254" lon="12.161169600218523"><ele>434.0</ele><time>2026-05-02T16:24:47Z</time></trkpt><trkpt lat="43.240977203518824" lon="12.161042541893785"><ele>434.0</ele><time>2026-05-02T16:24:48Z</time></trkpt><trkpt lat="43.24093127451535" lon="12.160916416163722"><ele>434.0</ele><time>2026-05-02T16:24:49Z</time></trkpt><trkpt lat="43.24089313654585" lon="12.160790174984452"><ele>434.0</ele><time>2026-05-02T16:24:50Z</time></trkpt><trkpt lat="43.240867761314064" lon="12.160658925855207"><ele>434.0</ele><time>2026-05-02T16:24:51Z</time></trkpt><trkpt lat="43.24088023535988" lon="12.16051012789486"><ele>434.0</ele><time>2026-05-02T16:24:52Z</time></trkpt><trkpt lat="43.2408949971286" lon="12.160376091775657"><ele>431.79999999999995</ele><time>2026-05-02T16:24:53Z</time></trkpt><trkpt lat="43.24089567587907" lon="12.160240786687844"><ele>429.59999999999997</ele><time>2026-05-02T16:24:54Z</time></trkpt><trkpt lat="43.2409026279522" lon="12.16011230046827"><ele>427.4</ele><time>2026-05-02T16:24:55Z</time></trkpt><trkpt lat="43.240882378274335" lon="12.15998285456488"><ele>425.2</ele><time>2026-05-02T16:24:56Z</time></trkpt><trkpt lat="43.24083736638315" lon="12.15986887204257"><ele>423.0</ele><time>2026-05-02T16:24:57Z</time></trkpt><trkpt lat="43.240755725901415" lon="12.159775806965108"><ele>424.2</ele><time>2026-05-02T16:24:58Z</time></trkpt><trkpt lat="43.24065600608875" lon="12.159707836837578"><ele>425.4</ele><time>2026-05-02T16:24:59Z</time></trkpt><trkpt lat="43.240560962577625" lon="12.15964984827444"><ele>426.59999999999997</ele><time>2026-05-02T16:25:00Z</time></trkpt><trkpt lat="43.24047057742414" lon="12.159603315136172"><ele>427.79999999999995</ele><time>2026-05-02T16:25:01Z</time></trkpt><trkpt lat="43.24038915409404" lon="12.159559195455577"><ele>429.0</ele><time>2026-05-02T16:25:02Z</time></trkpt><trkpt lat="43.24032554110925" lon="12.159514341619145"><ele>429.0</ele><time>2026-05-02T16:25:03Z</time></trkpt><trkpt lat="43.24027297500097" lon="12.159382951569185"><ele>429.0</ele><time>2026-05-02T16:25:05Z</time></trkpt><trkpt lat="43.24036767528085" lon="12.15928794908712"><ele>429.0</ele><time>2026-05-02T16:25:07Z</time></trkpt><trkpt lat="43.240441925715906" lon="12.159330238490924"><ele>429.0</ele><time>2026-05-02T16:25:08Z</time></trkpt><trkpt lat="43.240524147315334" lon="12.1593837247192"><ele>429.0</ele><time>2026-05-02T16:25:09Z</time></trkpt><trkpt lat="43.24062695106675" lon="12.159419198786596"><ele>425.6666666666667</ele><time>2026-05-02T16:25:10Z</time></trkpt><trkpt lat="43.24071882925557" lon="12.159466774418004"><ele>422.33333333333337</ele><time>2026-05-02T16:25:11Z</time></trkpt><trkpt lat="43.240800069971435" lon="12.159487750109038"><ele>419.0</ele><time>2026-05-02T16:25:12Z</time></trkpt><trkpt lat="43.24086340983307" lon="12.159470182193914"><ele>415.6666666666667</ele><time>2026-05-02T16:25:13Z</time></trkpt><trkpt lat="43.24089434631341" lon="12.159304044281187"><ele>412.33333333333337</ele><time>2026-05-02T16:25:15Z</time></trkpt><trkpt lat="43.24086061659776" lon="12.159212815607658"><ele>409.0</ele><time>2026-05-02T16:25:16Z</time></trkpt><trkpt lat="43.24079993822439" lon="12.159086122153658"><ele>407.00000000000006</ele><time>2026-05-02T16:25:18Z</time></trkpt><trkpt lat="43.24076035750168" lon="12.159015023872227"><ele>405.0</ele><time>2026-05-02T16:25:19Z</time></trkpt><trkpt lat="43.24071513759559" lon="12.158931759836793"><ele>403.0</ele><time>2026-05-02T16:25:20Z</time></trkpt><trkpt lat="43.24066414255218" lon="12.158832422860582"><ele>401.0</ele><time>2026-05-02T16:25:21Z</time></trkpt><trkpt lat="43.240607326709465" lon="12.158714261773525"><ele>399.00000000000006</ele><time>2026-05-02T16:25:22Z</time></trkpt><trkpt lat="43.2405542876108" lon="12.15858894257785"><ele>397.0</ele><time>2026-05-02T16:25:23Z</time></trkpt><trkpt lat="43.240499368976096" lon="12.158474027919373"><ele>402.8</ele><time>2026-05-02T16:25:24Z</time></trkpt><trkpt lat="43.24044719531133" lon="12.158373360440617"><ele>408.6</ele><time>2026-05-02T16:25:25Z</time></trkpt><trkpt lat="43.24040165795207" lon="12.158261654212874"><ele>414.40000000000003</ele><time>2026-05-02T16:25:26Z</time></trkpt><trkpt lat="43.240396613616184" lon="12.158140631469895"><ele>420.20000000000005</ele><time>2026-05-02T16:25:27Z</time></trkpt><trkpt lat="43.24042030518123" lon="12.158011985198497"><ele>426.0</ele><time>2026-05-02T16:25:28Z</time></trkpt><trkpt lat="43.24045335502562" lon="12.15788680037854"><ele>426.6</ele><time>2026-05-02T16:25:29Z</time></trkpt><trkpt lat="43.24049527057636" lon="12.157772917984577"><ele>427.20000000000005</ele><time>2026-05-02T16:25:30Z</time></trkpt><trkpt lat="43.240544641786215" lon="12.157637282056035"><ele>427.79999999999995</ele><time>2026-05-02T16:25:31Z</time></trkpt><trkpt lat="43.24061001763004" lon="12.15750001783602"><ele>428.4</ele><time>2026-05-02T16:25:32Z</time></trkpt><trkpt lat="43.24067604607854" lon="12.157371900822643"><ele>429.0</ele><time>2026-05-02T16:25:33Z</time></trkpt><trkpt lat="43.240744458785564" lon="12.157242301847004"><ele>422.0</ele><time>2026-05-02T16:25:34Z</time></trkpt><trkpt lat="43.24080179857968" lon="12.157089083242155"><ele>415.0</ele><time>2026-05-02T16:25:35Z</time></trkpt><trkpt lat="43.24084973994303" lon="12.156944131224254"><ele>408.0</ele><time>2026-05-02T16:25:36Z</time></trkpt><trkpt lat="43.24088662153997" lon="12.156804794327451"><ele>401.0</ele><time>2026-05-02T16:25:37Z</time></trkpt><trkpt lat="43.24091158574254" lon="12.1566864189855"><ele>394.0</ele><time>2026-05-02T16:25:38Z</time></trkpt><trkpt lat="43.240919894630586" lon="12.156571409056193"><ele>390.5</ele><time>2026-05-02T16:25:39Z</time></trkpt><trkpt lat="43.24088986602727" lon="12.156434870937487"><ele>387.0</ele><time>2026-05-02T16:25:40Z</time></trkpt><trkpt lat="43.24082769088594" lon="12.156302472769644"><ele>383.5</ele><time>2026-05-02T16:25:41Z</time></trkpt><trkpt lat="43.24073520273123" lon="12.156172241387111"><ele>380.0</ele><time>2026-05-02T16:25:42Z</time></trkpt><trkpt lat="43.240651576057004" lon="12.156041491591452"><ele>383.33333333333337</ele><time>2026-05-02T16:25:43Z</time></trkpt><trkpt lat="43.24058495055442" lon="12.155919488619071"><ele>386.6666666666667</ele><time>2026-05-02T16:25:44Z</time></trkpt><trkpt lat="43.24052599397782" lon="12.155818824273997"><ele>390.0</ele><time>2026-05-02T16:25:45Z</time></trkpt><trkpt lat="43.24047387020673" lon="12.155730202918589"><ele>393.33333333333337</ele><time>2026-05-02T16:25:46Z</time></trkpt><trkpt lat="43.240440859693294" lon="12.15564084637766"><ele>396.6666666666667</ele><time>2026-05-02T16:25:47Z</time></trkpt><trkpt lat="43.24045114028595" lon="12.155538596606375"><ele>400.0</ele><time>2026-05-02T16:25:48Z</time></trkpt><trkpt lat="43.24048551931497" lon="12.155430313602048"><ele>400.0</ele><time>2026-05-02T16:25:49Z</time></trkpt><trkpt lat="43.24055697921809" lon="12.155367234131775"><ele>400.0</ele><time>2026-05-02T16:25:50Z</time></trkpt><trkpt lat="43.24063929348693" lon="12.155321997203552"><ele>400.0</ele><time>2026-05-02T16:25:51Z</time></trkpt><trkpt lat="43.2407400795478" lon="12.155341435500194"><ele>400.0</ele><time>2026-05-02T16:25:52Z</time></trkpt><trkpt lat="43.24083937246563" lon="12.155436630913204"><ele>400.0</ele><time>2026-05-02T16:25:53Z</time></trkpt><trkpt lat="43.240964276703174" lon="12.15550376723204"><ele>395.0</ele><time>2026-05-02T16:25:54Z</time></trkpt><trkpt lat="43.24107931415657" lon="12.155573487834225"><ele>390.0</ele><time>2026-05-02T16:25:55Z</time></trkpt><trkpt lat="43.24119205931544" lon="12.155636896367525"><ele>385.0</ele><time>2026-05-02T16:25:56Z</time></trkpt><trkpt lat="43.241303981302515" lon="12.155686361911238"><ele>380.0</ele><time>2026-05-02T16:25:57Z</time></trkpt><trkpt lat="43.24141680094621" lon="12.155735328215254"><ele>377.4</ele><time>2026-05-02T16:25:58Z</time></trkpt><trkpt lat="43.241526143488315" lon="12.15577302385119"><ele>374.8</ele><time>2026-05-02T16:25:59Z</time></trkpt><trkpt lat="43.24164026537125" lon="12.155794967875716"><ele>372.20000000000005</ele><time>2026-05-02T16:26:00Z</time></trkpt><trkpt lat="43.24175183470119" lon="12.155795066611926"><ele>369.6</ele><time>2026-05-02T16:26:01Z</time></trkpt><trkpt lat="43.241849521392005" lon="12.155775617963597"><ele>367.0</ele><time>2026-05-02T16:26:02Z</time></trkpt><trkpt lat="43.24192817312119" lon="12.155734411123806"><ele>365.6</ele><time>2026-05-02T16:26:03Z</time></trkpt><trkpt lat="43.241996193389106" lon="12.155669265836963"><ele>364.20000000000005</ele><time>2026-05-02T16:26:04Z</time></trkpt><trkpt lat="43.24203176674165" lon="12.155568062514348"><ele>362.8</ele><time>2026-05-02T16:26:05Z</time></trkpt><trkpt lat="43.24203399291542" lon="12.155431161667654"><ele>361.4</ele><time>2026-05-02T16:26:06Z</time></trkpt><trkpt lat="43.24201382620211" lon="12.155278262731962"><ele>360.0</ele><time>2026-05-02T16:26:07Z</time></trkpt><trkpt lat="43.242000551731564" lon="12.155124060405994"><ele>360.0</ele><time>2026-05-02T16:26:08Z</time></trkpt><trkpt lat="43.2419898191436" lon="12.154966067484075"><ele>360.0</ele><time>2026-05-02T16:26:09Z</time></trkpt><trkpt lat="43.24196965931954" lon="12.154810037430545"><ele>360.0</ele><time>2026-05-02T16:26:10Z</time></trkpt><trkpt lat="43.24192477026919" lon="12.154669781911576"><ele>360.0</ele><time>2026-05-02T16:26:11Z</time></trkpt><trkpt lat="43.24186889493071" lon="12.154546766876416"><ele>360.0</ele><time>2026-05-02T16:26:12Z</time></trkpt><trkpt lat="43.241803573158776" lon="12.154438631144261"><ele>359.0</ele><time>2026-05-02T16:26:13Z</time></trkpt><trkpt lat="43.24172619750832" lon="12.154350026164884"><ele>358.0</ele><time>2026-05-02T16:26:14Z</time></trkpt><trkpt lat="43.241623274068374" lon="12.15427995230461"><ele>357.0</ele><time>2026-05-02T16:26:15Z</time></trkpt><trkpt lat="43.24152719603436" lon="12.154187096331436"><ele>356.0</ele><time>2026-05-02T16:26:16Z</time></trkpt><trkpt lat="43.24143039029484" lon="12.154133042890447"><ele>355.0</ele><time>2026-05-02T16:26:17Z</time></trkpt><trkpt lat="43.24135412889299" lon="12.154051318480969"><ele>358.3333333333333</ele><time>2026-05-02T16:26:18Z</time></trkpt><trkpt lat="43.241293517432226" lon="12.153959073959017"><ele>361.66666666666663</ele><time>2026-05-02T16:26:19Z</time></trkpt><trkpt lat="43.24125800029781" lon="12.153859813471943"><ele>365.0</ele><time>2026-05-02T16:26:20Z</time></trkpt><trkpt lat="43.24124829536652" lon="12.153754838359024"><ele>368.3333333333333</ele><time>2026-05-02T16:26:21Z</time></trkpt><trkpt lat="43.24126540539074" lon="12.15366685570769"><ele>371.6666666666667</ele><time>2026-05-02T16:26:22Z</time></trkpt><trkpt lat="43.24130763539392" lon="12.153582653734993"><ele>375.0</ele><time>2026-05-02T16:26:23Z</time></trkpt><trkpt lat="43.24138186460662" lon="12.153509384267126"><ele>373.6</ele><time>2026-05-02T16:26:24Z</time></trkpt><trkpt lat="43.24146680760773" lon="12.153449926111644"><ele>372.2</ele><time>2026-05-02T16:26:25Z</time></trkpt><trkpt lat="43.241554965203775" lon="12.15340938268014"><ele>370.79999999999995</ele><time>2026-05-02T16:26:26Z</time></trkpt><trkpt lat="43.241635528701735" lon="12.1533390598692"><ele>369.4</ele><time>2026-05-02T16:26:27Z</time></trkpt><trkpt lat="43.24171146297787" lon="12.15325937130312"><ele>368.0</ele><time>2026-05-02T16:26:28Z</time></trkpt><trkpt lat="43.241788987736435" lon="12.153182885973559"><ele>368.0</ele><time>2026-05-02T16:26:29Z</time></trkpt><trkpt lat="43.24186450415845" lon="12.153101449122936"><ele>368.0</ele><time>2026-05-02T16:26:30Z</time></trkpt><trkpt lat="43.24192488997255" lon="12.153025782424752"><ele>368.0</ele><time>2026-05-02T16:26:31Z</time></trkpt><trkpt lat="43.24199587403893" lon="12.152922786437184"><ele>368.0</ele><time>2026-05-02T16:26:32Z</time></trkpt><trkpt lat="43.24206637607624" lon="12.152824960021366"><ele>368.0</ele><time>2026-05-02T16:26:33Z</time></trkpt><trkpt lat="43.24213732897062" lon="12.152724749517308"><ele>368.0</ele><time>2026-05-02T16:26:34Z</time></trkpt><trkpt lat="43.2422037657697" lon="12.15262475351719"><ele>368.0</ele><time>2026-05-02T16:26:35Z</time></trkpt><trkpt lat="43.24227041484001" lon="12.152532549164691"><ele>368.0</ele><time>2026-05-02T16:26:36Z</time></trkpt><trkpt lat="43.24234059514827" lon="12.15243922115037"><ele>368.0</ele><time>2026-05-02T16:26:37Z</time></trkpt><trkpt lat="43.24240493081595" lon="12.152327141845413"><ele>368.0</ele><time>2026-05-02T16:26:38Z</time></trkpt><trkpt lat="43.242457069937245" lon="12.152206465053329"><ele>364.25</ele><time>2026-05-02T16:26:39Z</time></trkpt><trkpt lat="43.24250305793465" lon="12.15206738053097"><ele>360.5</ele><time>2026-05-02T16:26:40Z</time></trkpt><trkpt lat="43.24252859797439" lon="12.15190916286444"><ele>356.75</ele><time>2026-05-02T16:26:41Z</time></trkpt><trkpt lat="43.242546867300526" lon="12.151745579448226"><ele>353.0</ele><time>2026-05-02T16:26:42Z</time></trkpt><trkpt lat="43.2425588338563" lon="12.151586139241257"><ele>354.79999999999995</ele><time>2026-05-02T16:26:43Z</time></trkpt><trkpt lat="43.24256935589829" lon="12.151442273686225"><ele>356.6</ele><time>2026-05-02T16:26:44Z</time></trkpt><trkpt lat="43.24258017418264" lon="12.151307489550899"><ele>358.4</ele><time>2026-05-02T16:26:45Z</time></trkpt><trkpt lat="43.242595680971164" lon="12.151181607798245"><ele>360.20000000000005</ele><time>2026-05-02T16:26:46Z</time></trkpt><trkpt lat="43.24261877770164" lon="12.15105681785289"><ele>362.0</ele><time>2026-05-02T16:26:47Z</time></trkpt><trkpt lat="43.24265013633092" lon="12.150933973046085"><ele>362.0</ele><time>2026-05-02T16:26:48Z</time></trkpt><trkpt lat="43.24268988477647" lon="12.150814673541614"><ele>362.0</ele><time>2026-05-02T16:26:49Z</time></trkpt><trkpt lat="43.24274231207838" lon="12.150714266678444"><ele>362.0</ele><time>2026-05-02T16:26:50Z</time></trkpt><trkpt lat="43.24280987813569" lon="12.150621089458381"><ele>362.0</ele><time>2026-05-02T16:26:51Z</time></trkpt><trkpt lat="43.242889399583085" lon="12.150535810042932"><ele>362.0</ele><time>2026-05-02T16:26:52Z</time></trkpt><trkpt lat="43.24297658248071" lon="12.15046057690639"><ele>364.8</ele><time>2026-05-02T16:26:53Z</time></trkpt><trkpt lat="43.24306378237359" lon="12.150390628571165"><ele>367.6</ele><time>2026-05-02T16:26:54Z</time></trkpt><trkpt lat="43.24314823344772" lon="12.150319341596397"><ele>370.40000000000003</ele><time>2026-05-02T16:26:55Z</time></trkpt><trkpt lat="43.24322875044873" lon="12.150234895052346"><ele>373.20000000000005</ele><time>2026-05-02T16:26:56Z</time></trkpt><trkpt lat="43.24330592315595" lon="12.15013921116928"><ele>376.0</ele><time>2026-05-02T16:26:57Z</time></trkpt><trkpt lat="43.24337971645717" lon="12.150039497621414"><ele>372.8</ele><time>2026-05-02T16:26:58Z</time></trkpt><trkpt lat="43.24343650510928" lon="12.149920995029966"><ele>369.6</ele><time>2026-05-02T16:26:59Z</time></trkpt><trkpt lat="43.243495588014945" lon="12.149805664842141"><ele>366.4</ele><time>2026-05-02T16:27:00Z</time></trkpt><trkpt lat="43.243552575404294" lon="12.14968899038353"><ele>363.2</ele><time>2026-05-02T16:27:01Z</time></trkpt><trkpt lat="43.24360888645705" lon="12.149567206837277"><ele>360.0</ele><time>2026-05-02T16:27:02Z</time></trkpt><trkpt lat="43.24366190683134" lon="12.149451328657667"><ele>360.0</ele><time>2026-05-02T16:27:03Z</time></trkpt><trkpt lat="43.24370969368378" lon="12.149333788092834"><ele>360.0</ele><time>2026-05-02T16:27:04Z</time></trkpt><trkpt lat="43.243755921195834" lon="12.149203825383783"><ele>360.0</ele><time>2026-05-02T16:27:05Z</time></trkpt><trkpt lat="43.243791895208915" lon="12.14907480527692"><ele>360.0</ele><time>2026-05-02T16:27:06Z</time></trkpt><trkpt lat="43.243824961958936" lon="12.148957878599465"><ele>360.0</ele><time>2026-05-02T16:27:07Z</time></trkpt><trkpt lat="43.24386197709186" lon="12.148846111333626"><ele>363.2</ele><time>2026-05-02T16:27:08Z</time></trkpt><trkpt lat="43.24389728940922" lon="12.148731056797544"><ele>366.4</ele><time>2026-05-02T16:27:09Z</time></trkpt><trkpt lat="43.24392643927694" lon="12.148604703891635"><ele>369.6</ele><time>2026-05-02T16:27:10Z</time></trkpt><trkpt lat="43.24395198215621" lon="12.148474405236042"><ele>372.8</ele><time>2026-05-02T16:27:11Z</time></trkpt><trkpt lat="43.243981990680076" lon="12.148344757661683"><ele>376.0</ele><time>2026-05-02T16:27:12Z</time></trkpt><trkpt lat="43.24401232610561" lon="12.148210347283202"><ele>369.6</ele><time>2026-05-02T16:27:13Z</time></trkpt><trkpt lat="43.244034752467016" lon="12.148073948588566"><ele>363.20000000000005</ele><time>2026-05-02T16:27:14Z</time></trkpt><trkpt lat="43.24405811912124" lon="12.147936784514727"><ele>356.79999999999995</ele><time>2026-05-02T16:27:15Z</time></trkpt><trkpt lat="43.24407880016706" lon="12.14780753397734"><ele>350.4</ele><time>2026-05-02T16:27:16Z</time></trkpt><trkpt lat="43.2440973452688" lon="12.147690357235309"><ele>344.0</ele><time>2026-05-02T16:27:17Z</time></trkpt><trkpt lat="43.24411804140689" lon="12.147595482480982"><ele>344.0</ele><time>2026-05-02T16:27:18Z</time></trkpt><trkpt lat="43.24415102915233" lon="12.147515679804204"><ele>344.0</ele><time>2026-05-02T16:27:20Z</time></trkpt><trkpt lat="43.24415949434384" lon="12.14742458522046"><ele>344.0</ele><time>2026-05-02T16:27:27Z</time></trkpt><trkpt lat="43.24424852272877" lon="12.147386591833776"><ele>344.0</ele><time>2026-05-02T16:27:29Z</time></trkpt><trkpt lat="43.24431489866633" lon="12.147285256599789"><ele>344.0</ele><time>2026-05-02T16:27:31Z</time></trkpt><trkpt lat="43.244346473393" lon="12.14718201095865"><ele>344.0</ele><time>2026-05-02T16:27:34Z</time></trkpt><trkpt lat="43.243934342441825" lon="12.147129536718213"><ele>351.0</ele><time>2026-05-02T16:27:37Z</time></trkpt><trkpt lat="43.2438544665781" lon="12.14718428964803"><ele>358.0</ele><time>2026-05-02T16:27:39Z</time></trkpt><trkpt lat="43.24382324970581" lon="12.14728907186915"><ele>365.0</ele><time>2026-05-02T16:27:44Z</time></trkpt><trkpt lat="43.24373597028135" lon="12.147364681171563"><ele>372.0</ele><time>2026-05-02T16:27:46Z</time></trkpt><trkpt lat="43.2436779591343" lon="12.147444283679414"><ele>378.99999999999994</ele><time>2026-05-02T16:27:49Z</time></trkpt><trkpt lat="43.24365267400931" lon="12.14754109829762"><ele>386.0</ele><time>2026-05-02T16:27:51Z</time></trkpt><trkpt lat="43.243637542474225" lon="12.14765610140543"><ele>385.99999999999994</ele><time>2026-05-02T16:27:53Z</time></trkpt><trkpt lat="43.2436155701199" lon="12.14773871602057"><ele>386.0</ele><time>2026-05-02T16:27:57Z</time></trkpt><trkpt lat="43.24356896795928" lon="12.147821736910897"><ele>386.0</ele><time>2026-05-02T16:28:03Z</time></trkpt><trkpt lat="43.24350440100445" lon="12.147904754685484"><ele>386.0</ele><time>2026-05-02T16:28:06Z</time></trkpt><trkpt lat="43.24344030982885" lon="12.147945152086482"><ele>385.99999999999994</ele><time>2026-05-02T16:28:10Z</time></trkpt><trkpt lat="43.24339704423003" lon="12.148016318271194"><ele>386.0</ele><time>2026-05-02T16:28:15Z</time></trkpt><trkpt lat="43.24339976438722" lon="12.148134959495234"><ele>384.0</ele><time>2026-05-02T16:28:17Z</time></trkpt><trkpt lat="43.24344120833662" lon="12.14823568126478"><ele>382.0</ele><time>2026-05-02T16:28:19Z</time></trkpt><trkpt lat="43.2434057031277" lon="12.148354790669147"><ele>380.0</ele><time>2026-05-02T16:28:23Z</time></trkpt><trkpt lat="43.2433313049033" lon="12.148458758786642"><ele>378.0</ele><time>2026-05-02T16:28:25Z</time></trkpt><trkpt lat="43.24324784752477" lon="12.148562191763794"><ele>376.0</ele><time>2026-05-02T16:28:27Z</time></trkpt><trkpt lat="43.24319226522845" lon="12.148616794738578"><ele>376.0</ele><time>2026-05-02T16:28:28Z</time></trkpt><trkpt lat="43.243132232781655" lon="12.148712532121298"><ele>376.0</ele><time>2026-05-02T16:28:30Z</time></trkpt><trkpt lat="43.2430614857505" lon="12.148807214740115"><ele>376.0</ele><time>2026-05-02T16:28:32Z</time></trkpt><trkpt lat="43.242972941654834" lon="12.148915074760179"><ele>376.0</ele><time>2026-05-02T16:28:34Z</time></trkpt><trkpt lat="43.24289572139639" lon="12.148983274448076"><ele>376.0</ele><time>2026-05-02T16:28:36Z</time></trkpt><trkpt lat="43.24284072984101" lon="12.149062941284702"><ele>380.3333333333333</ele><time>2026-05-02T16:28:38Z</time></trkpt><trkpt lat="43.242785492485744" lon="12.149217292703856"><ele>384.66666666666663</ele><time>2026-05-02T16:28:41Z</time></trkpt><trkpt lat="43.24274482618881" lon="12.149283533072976"><ele>389.0</ele><time>2026-05-02T16:28:42Z</time></trkpt><trkpt lat="43.24268215903884" lon="12.149319899629353"><ele>393.3333333333333</ele><time>2026-05-02T16:28:44Z</time></trkpt><trkpt lat="43.24261981881987" lon="12.149339924041284"><ele>397.6666666666667</ele><time>2026-05-02T16:28:46Z</time></trkpt><trkpt lat="43.242544342493495" lon="12.14934282947057"><ele>402.0</ele><time>2026-05-02T16:28:48Z</time></trkpt><trkpt lat="43.24243730344389" lon="12.149390909025184"><ele>402.0</ele><time>2026-05-02T16:28:50Z</time></trkpt><trkpt lat="43.24233446502619" lon="12.149410913523838"><ele>402.0</ele><time>2026-05-02T16:28:52Z</time></trkpt><trkpt lat="43.2422391333631" lon="12.149412018136072"><ele>402.0</ele><time>2026-05-02T16:28:54Z</time></trkpt><trkpt lat="43.24214681809905" lon="12.149411524292455"><ele>402.0</ele><time>2026-05-02T16:28:57Z</time></trkpt><trkpt lat="43.242085454117756" lon="12.14937647432714"><ele>402.0</ele><time>2026-05-02T16:29:03Z</time></trkpt><trkpt lat="43.24201328654102" lon="12.149393557686599"><ele>402.0</ele><time>2026-05-02T16:29:11Z</time></trkpt><trkpt lat="43.24194199193853" lon="12.149424466228806"><ele>406.8333333333333</ele><time>2026-05-02T16:29:13Z</time></trkpt><trkpt lat="43.241879054376014" lon="12.149434355662882"><ele>411.66666666666663</ele><time>2026-05-02T16:29:15Z</time></trkpt><trkpt lat="43.24179937181314" lon="12.149447855851719"><ele>416.5</ele><time>2026-05-02T16:29:17Z</time></trkpt><trkpt lat="43.24172882497115" lon="12.149461262013684"><ele>421.3333333333333</ele><time>2026-05-02T16:29:20Z</time></trkpt><trkpt lat="43.24163161738051" lon="12.149481095337482"><ele>426.16666666666663</ele><time>2026-05-02T16:29:25Z</time></trkpt><trkpt lat="43.24156645018214" lon="12.14950085604697"><ele>431.0</ele><time>2026-05-02T16:29:28Z</time></trkpt><trkpt lat="43.24146986026981" lon="12.149449285975207"><ele>435.99999999999994</ele><time>2026-05-02T16:29:31Z</time></trkpt><trkpt lat="43.24140210847985" lon="12.149379941846059"><ele>441.0</ele><time>2026-05-02T16:29:33Z</time></trkpt><trkpt lat="43.24134285965033" lon="12.149276811912122"><ele>446.0</ele><time>2026-05-02T16:29:35Z</time></trkpt><trkpt lat="43.2412729157959" lon="12.149250920110614"><ele>451.0</ele><time>2026-05-02T16:29:38Z</time></trkpt><trkpt lat="43.24118129420356" lon="12.149284903536017"><ele>455.99999999999994</ele><time>2026-05-02T16:29:40Z</time></trkpt><trkpt lat="43.24111172256108" lon="12.149240568863544"><ele>461.0</ele><time>2026-05-02T16:29:43Z</time></trkpt><trkpt lat="43.241168068305" lon="12.149285952242089"><ele>461.0</ele><time>2026-05-02T16:31:52Z</time></trkpt><trkpt lat="43.24124881148564" lon="12.149293766254088"><ele>461.00000000000006</ele><time>2026-05-02T16:31:56Z</time></trkpt><trkpt lat="43.24131302488857" lon="12.149285307725854"><ele>461.0</ele><time>2026-05-02T16:32:00Z</time></trkpt><trkpt lat="43.241380327950225" lon="12.149313726877741"><ele>461.0</ele><time>2026-05-02T16:32:04Z</time></trkpt><trkpt lat="43.24142702626323" lon="12.149410873334885"><ele>461.00000000000006</ele><time>2026-05-02T16:32:08Z</time></trkpt><trkpt lat="43.24149463904453" lon="12.149451956415202"><ele>461.0</ele><time>2026-05-02T16:32:12Z</time></trkpt><trkpt lat="43.241544925893024" lon="12.149509370316752"><ele>461.0</ele><time>2026-05-02T16:32:15Z</time></trkpt><trkpt lat="43.24150715241263" lon="12.149586245682633"><ele>461.0</ele><time>2026-05-02T16:32:20Z</time></trkpt><trkpt lat="43.24144141732508" lon="12.149613200399557"><ele>461.00000000000006</ele><time>2026-05-02T16:32:25Z</time></trkpt><trkpt lat="43.24139524359453" lon="12.149677659449289"><ele>461.0</ele><time>2026-05-02T16:32:29Z</time></trkpt><trkpt lat="43.24137695048932" lon="12.149783375784445"><ele>461.0</ele><time>2026-05-02T16:32:39Z</time></trkpt><trkpt lat="43.241390141699746" lon="12.149891581467012"><ele>461.00000000000006</ele><time>2026-05-02T16:32:43Z</time></trkpt><trkpt lat="43.24141779868164" lon="12.149972143021062"><ele>461.0</ele><time>2026-05-02T16:32:46Z</time></trkpt><trkpt lat="43.241421650466044" lon="12.150091374787785"><ele>461.0</ele><time>2026-05-02T16:32:50Z</time></trkpt><trkpt lat="43.24142040699914" lon="12.150212099541445"><ele>457.3333333333333</ele><time>2026-05-02T16:32:54Z</time></trkpt><trkpt lat="43.241424920336534" lon="12.15031500267003"><ele>453.66666666666663</ele><time>2026-05-02T16:32:58Z</time></trkpt><trkpt lat="43.24134678206726" lon="12.150350134561965"><ele>450.0</ele><time>2026-05-02T16:33:09Z</time></trkpt><trkpt lat="43.241264395917206" lon="12.150405501235246"><ele>446.33333333333337</ele><time>2026-05-02T16:33:11Z</time></trkpt><trkpt lat="43.24119216049631" lon="12.150458993383626"><ele>442.6666666666667</ele><time>2026-05-02T16:33:13Z</time></trkpt><trkpt lat="43.24111722008801" lon="12.150542747102852"><ele>439.0</ele><time>2026-05-02T16:33:15Z</time></trkpt><trkpt lat="43.24106855662667" lon="12.150600197366384"><ele>439.00000000000006</ele><time>2026-05-02T16:33:16Z</time></trkpt><trkpt lat="43.24101638794221" lon="12.15068955865452"><ele>439.0</ele><time>2026-05-02T16:33:18Z</time></trkpt><trkpt lat="43.24097063862721" lon="12.150770152878179"><ele>439.0</ele><time>2026-05-02T16:33:20Z</time></trkpt><trkpt lat="43.24092069390132" lon="12.150835117931022"><ele>439.0</ele><time>2026-05-02T16:33:21Z</time></trkpt><trkpt lat="43.24084586225518" lon="12.15094290372788"><ele>439.00000000000006</ele><time>2026-05-02T16:33:23Z</time></trkpt><trkpt lat="43.24076678438493" lon="12.151047381470196"><ele>439.0</ele><time>2026-05-02T16:33:25Z</time></trkpt><trkpt lat="43.24070019649007" lon="12.151139056218867"><ele>441.6666666666667</ele><time>2026-05-02T16:33:27Z</time></trkpt><trkpt lat="43.24063018314485" lon="12.151197794486134"><ele>444.33333333333337</ele><time>2026-05-02T16:33:30Z</time></trkpt><trkpt lat="43.240547203531136" lon="12.151172927074265"><ele>447.0</ele><time>2026-05-02T16:33:34Z</time></trkpt><trkpt lat="43.24048473833756" lon="12.151122058418423"><ele>449.66666666666663</ele><time>2026-05-02T16:33:36Z</time></trkpt><trkpt lat="43.24042386307323" lon="12.15115552189353"><ele>452.3333333333333</ele><time>2026-05-02T16:33:38Z</time></trkpt><trkpt lat="43.24034405703191" lon="12.151131539569006"><ele>455.0</ele><time>2026-05-02T16:33:41Z</time></trkpt><trkpt lat="43.24041604694822" lon="12.151173640980797"><ele>454.99999999999994</ele><time>2026-05-02T16:35:28Z</time></trkpt><trkpt lat="43.24049220803654" lon="12.151174323448442"><ele>455.0</ele><time>2026-05-02T16:35:33Z</time></trkpt><trkpt lat="43.24056488090396" lon="12.151204559615524"><ele>455.0</ele><time>2026-05-02T16:35:36Z</time></trkpt><trkpt lat="43.24064164957453" lon="12.151205701121873"><ele>455.0</ele><time>2026-05-02T16:35:40Z</time></trkpt><trkpt lat="43.24069662045666" lon="12.151150492255221"><ele>454.99999999999994</ele><time>2026-05-02T16:35:42Z</time></trkpt><trkpt lat="43.2407568991627" lon="12.151072079033067"><ele>455.0</ele><time>2026-05-02T16:35:44Z</time></trkpt><trkpt lat="43.240821939078145" lon="12.150995828974525"><ele>452.3333333333333</ele><time>2026-05-02T16:35:46Z</time></trkpt><trkpt lat="43.240879000799225" lon="12.150895823166293"><ele>449.66666666666663</ele><time>2026-05-02T16:35:48Z</time></trkpt><trkpt lat="43.24093941593101" lon="12.15082476663733"><ele>447.0</ele><time>2026-05-02T16:35:50Z</time></trkpt><trkpt lat="43.24100175059199" lon="12.150741329676332"><ele>444.33333333333337</ele><time>2026-05-02T16:35:52Z</time></trkpt><trkpt lat="43.24103204897408" lon="12.150664426487959"><ele>441.6666666666667</ele><time>2026-05-02T16:35:54Z</time></trkpt><trkpt lat="43.241103954857756" lon="12.150585513066568"><ele>439.0</ele><time>2026-05-02T16:35:57Z</time></trkpt><trkpt lat="43.241170813030884" lon="12.150518600539353"><ele>439.00000000000006</ele><time>2026-05-02T16:36:01Z</time></trkpt><trkpt lat="43.24123933263081" lon="12.150451586337713"><ele>439.0</ele><time>2026-05-02T16:36:03Z</time></trkpt><trkpt lat="43.24130964835603" lon="12.150402982762646"><ele>439.0</ele><time>2026-05-02T16:36:05Z</time></trkpt><trkpt lat="43.24138325414795" lon="12.15035995129411"><ele>439.0</ele><time>2026-05-02T16:36:07Z</time></trkpt><trkpt lat="43.241466724095424" lon="12.150375509158124"><ele>439.00000000000006</ele><time>2026-05-02T16:36:11Z</time></trkpt><trkpt lat="43.24151787268973" lon="12.15048105108917"><ele>439.0</ele><time>2026-05-02T16:36:13Z</time></trkpt><trkpt lat="43.241558384298486" lon="12.150594018913415"><ele>432.1666666666667</ele><time>2026-05-02T16:36:15Z</time></trkpt><trkpt lat="43.24159266493091" lon="12.150694722385413"><ele>425.33333333333337</ele><time>2026-05-02T16:36:17Z</time></trkpt><trkpt lat="43.24162725548115" lon="12.15079709051901"><ele>418.5</ele><time>2026-05-02T16:36:19Z</time></trkpt><trkpt lat="43.241660046837545" lon="12.150925363922552"><ele>411.66666666666663</ele><time>2026-05-02T16:36:21Z</time></trkpt><trkpt lat="43.24165005557285" lon="12.15103635964522"><ele>404.8333333333333</ele><time>2026-05-02T16:36:23Z</time></trkpt><trkpt lat="43.2415947628674" lon="12.151107509643456"><ele>398.0</ele><time>2026-05-02T16:36:25Z</time></trkpt><trkpt lat="43.241537168425694" lon="12.151181477044668"><ele>395.66666666666663</ele><time>2026-05-02T16:36:27Z</time></trkpt><trkpt lat="43.24153011365585" lon="12.151272790499876"><ele>393.3333333333333</ele><time>2026-05-02T16:36:29Z</time></trkpt><trkpt lat="43.24151586194856" lon="12.151360713158287"><ele>391.0</ele><time>2026-05-02T16:36:31Z</time></trkpt><trkpt lat="43.24148005955292" lon="12.151519421427784"><ele>388.66666666666663</ele><time>2026-05-02T16:36:33Z</time></trkpt><trkpt lat="43.24147862838322" lon="12.151627252266984"><ele>386.3333333333333</ele><time>2026-05-02T16:36:35Z</time></trkpt><trkpt lat="43.24152122094132" lon="12.151709598445413"><ele>384.0</ele><time>2026-05-02T16:36:37Z</time></trkpt><trkpt lat="43.241579109902084" lon="12.15181638865318"><ele>382.3333333333333</ele><time>2026-05-02T16:36:39Z</time></trkpt><trkpt lat="43.24164134151561" lon="12.151902028124256"><ele>380.6666666666667</ele><time>2026-05-02T16:36:41Z</time></trkpt><trkpt lat="43.24170785741673" lon="12.151979878838613"><ele>379.0</ele><time>2026-05-02T16:36:43Z</time></trkpt><trkpt lat="43.241789117993285" lon="12.152030570805037"><ele>377.33333333333337</ele><time>2026-05-02T16:36:45Z</time></trkpt><trkpt lat="43.24185418146256" lon="12.152078670772475"><ele>375.6666666666667</ele><time>2026-05-02T16:36:47Z</time></trkpt><trkpt lat="43.24186060688415" lon="12.152186735043102"><ele>374.0</ele><time>2026-05-02T16:36:50Z</time></trkpt><trkpt lat="43.24185063272278" lon="12.15231145365408"><ele>372.79999999999995</ele><time>2026-05-02T16:36:52Z</time></trkpt><trkpt lat="43.24180340039259" lon="12.152453099171781"><ele>371.59999999999997</ele><time>2026-05-02T16:36:54Z</time></trkpt><trkpt lat="43.241784713388476" lon="12.152595801440064"><ele>370.4</ele><time>2026-05-02T16:36:56Z</time></trkpt><trkpt lat="43.24176316373867" lon="12.15275309917456"><ele>369.2</ele><time>2026-05-02T16:36:58Z</time></trkpt><trkpt lat="43.241740672882166" lon="12.152884097734411"><ele>368.0</ele><time>2026-05-02T16:37:00Z</time></trkpt><trkpt lat="43.2417189068068" lon="12.152980303963925"><ele>368.0</ele><time>2026-05-02T16:37:02Z</time></trkpt><trkpt lat="43.241695727081954" lon="12.153086417342056"><ele>368.0</ele><time>2026-05-02T16:37:04Z</time></trkpt><trkpt lat="43.24168530929772" lon="12.153186396670383"><ele>368.0</ele><time>2026-05-02T16:37:07Z</time></trkpt><trkpt lat="43.24175982367815" lon="12.153228456040079"><ele>368.0</ele><time>2026-05-02T16:37:11Z</time></trkpt><trkpt lat="43.24182986932745" lon="12.153167857980511"><ele>368.0</ele><time>2026-05-02T16:37:15Z</time></trkpt><trkpt lat="43.24188320045902" lon="12.15308481572499"><ele>368.0</ele><time>2026-05-02T16:37:17Z</time></trkpt><trkpt lat="43.24194805860117" lon="12.153000279190522"><ele>368.0</ele><time>2026-05-02T16:37:19Z</time></trkpt><trkpt lat="43.242026095829196" lon="12.152894907300045"><ele>368.0</ele><time>2026-05-02T16:37:21Z</time></trkpt><trkpt lat="43.24211125008558" lon="12.152765842608995"><ele>368.0</ele><time>2026-05-02T16:37:23Z</time></trkpt><trkpt lat="43.24215334221588" lon="12.152699651286332"><ele>368.0</ele><time>2026-05-02T16:37:24Z</time></trkpt><trkpt lat="43.242241327075455" lon="12.152584003441103"><ele>368.0</ele><time>2026-05-02T16:37:26Z</time></trkpt><trkpt lat="43.242287900518946" lon="12.152506668236446"><ele>365.5</ele><time>2026-05-02T16:37:27Z</time></trkpt><trkpt lat="43.24234019946965" lon="12.152427960941287"><ele>363.0</ele><time>2026-05-02T16:37:28Z</time></trkpt><trkpt lat="43.24239107820248" lon="12.152350853451832"><ele>360.5</ele><time>2026-05-02T16:37:29Z</time></trkpt><trkpt lat="43.24243891753356" lon="12.152260242562464"><ele>358.0</ele><time>2026-05-02T16:37:30Z</time></trkpt><trkpt lat="43.242474608918755" lon="12.152165236005166"><ele>355.5</ele><time>2026-05-02T16:37:31Z</time></trkpt><trkpt lat="43.24249954808249" lon="12.152052120635584"><ele>353.0</ele><time>2026-05-02T16:37:32Z</time></trkpt><trkpt lat="43.242521447943226" lon="12.151930435102592"><ele>353.0</ele><time>2026-05-02T16:37:33Z</time></trkpt><trkpt lat="43.24253716139039" lon="12.151814316548402"><ele>353.0</ele><time>2026-05-02T16:37:34Z</time></trkpt><trkpt lat="43.24254802484951" lon="12.151694996331818"><ele>353.0</ele><time>2026-05-02T16:37:35Z</time></trkpt><trkpt lat="43.24255301994226" lon="12.15157073327326"><ele>353.0</ele><time>2026-05-02T16:37:36Z</time></trkpt><trkpt lat="43.24256177259003" lon="12.15145985487006"><ele>353.0</ele><time>2026-05-02T16:37:37Z</time></trkpt><trkpt lat="43.242571562667074" lon="12.15135044844717"><ele>353.0</ele><time>2026-05-02T16:37:38Z</time></trkpt><trkpt lat="43.242586470171304" lon="12.151242581612705"><ele>354.79999999999995</ele><time>2026-05-02T16:37:39Z</time></trkpt><trkpt lat="43.242604542008436" lon="12.151116223692846"><ele>356.6</ele><time>2026-05-02T16:37:40Z</time></trkpt><trkpt lat="43.24263034508345" lon="12.15099002232103"><ele>358.4</ele><time>2026-05-02T16:37:41Z</time></trkpt><trkpt lat="43.242665650581806" lon="12.150868340456764"><ele>360.20000000000005</ele><time>2026-05-02T16:37:42Z</time></trkpt><trkpt lat="43.24271576395081" lon="12.150752560046412"><ele>362.0</ele><time>2026-05-02T16:37:43Z</time></trkpt><trkpt lat="43.242780486519365" lon="12.150660458167078"><ele>364.33333333333337</ele><time>2026-05-02T16:37:44Z</time></trkpt><trkpt lat="43.24285283378324" lon="12.150575032356963"><ele>366.6666666666667</ele><time>2026-05-02T16:37:45Z</time></trkpt><trkpt lat="43.24292704418263" lon="12.150498084456599"><ele>369.0</ele><time>2026-05-02T16:37:46Z</time></trkpt><trkpt lat="43.24299928418609" lon="12.150436306743842"><ele>371.3333333333333</ele><time>2026-05-02T16:37:47Z</time></trkpt><trkpt lat="43.243067815991616" lon="12.150375430991717"><ele>373.66666666666663</ele><time>2026-05-02T16:37:48Z</time></trkpt><trkpt lat="43.24313309567676" lon="12.150324102268728"><ele>376.0</ele><time>2026-05-02T16:37:49Z</time></trkpt><trkpt lat="43.243188931936544" lon="12.150270379417647"><ele>373.3333333333333</ele><time>2026-05-02T16:37:50Z</time></trkpt><trkpt lat="43.24324083205282" lon="12.150204972233894"><ele>370.66666666666663</ele><time>2026-05-02T16:37:51Z</time></trkpt><trkpt lat="43.2432909705221" lon="12.150145889431746"><ele>368.0</ele><time>2026-05-02T16:37:52Z</time></trkpt><trkpt lat="43.243373098917786" lon="12.15002511968065"><ele>365.3333333333333</ele><time>2026-05-02T16:37:54Z</time></trkpt><trkpt lat="43.24345008763303" lon="12.149922874541572"><ele>362.6666666666667</ele><time>2026-05-02T16:37:56Z</time></trkpt><trkpt lat="43.24348503399232" lon="12.149833083168735"><ele>360.0</ele><time>2026-05-02T16:38:24Z</time></trkpt><trkpt lat="43.243548185045455" lon="12.14969421682287"><ele>360.0</ele><time>2026-05-02T16:38:27Z</time></trkpt><trkpt lat="43.24360852053376" lon="12.149579795356885"><ele>360.0</ele><time>2026-05-02T16:38:29Z</time></trkpt><trkpt lat="43.24366108386211" lon="12.149447571620296"><ele>360.0</ele><time>2026-05-02T16:38:31Z</time></trkpt><trkpt lat="43.24369375711289" lon="12.149361972566544"><ele>360.0</ele><time>2026-05-02T16:38:32Z</time></trkpt><trkpt lat="43.24372427603256" lon="12.149283048038159"><ele>360.0</ele><time>2026-05-02T16:38:33Z</time></trkpt><trkpt lat="43.24375175115515" lon="12.149205110601573"><ele>360.0</ele><time>2026-05-02T16:38:34Z</time></trkpt><trkpt lat="43.24378063006066" lon="12.149121073700744"><ele>362.6666666666667</ele><time>2026-05-02T16:38:35Z</time></trkpt><trkpt lat="43.24380571371637" lon="12.149031089891656"><ele>365.3333333333333</ele><time>2026-05-02T16:38:36Z</time></trkpt><trkpt lat="43.243830492527536" lon="12.148944861844775"><ele>368.0</ele><time>2026-05-02T16:38:37Z</time></trkpt><trkpt lat="43.24387603792845" lon="12.148775195506929"><ele>370.66666666666663</ele><time>2026-05-02T16:38:39Z</time></trkpt><trkpt lat="43.243899493404186" lon="12.148684872179846"><ele>373.3333333333333</ele><time>2026-05-02T16:38:40Z</time></trkpt><trkpt lat="43.243925057091005" lon="12.148599293891401"><ele>376.0</ele><time>2026-05-02T16:38:41Z</time></trkpt><trkpt lat="43.24394562686785" lon="12.14851531972657"><ele>369.6</ele><time>2026-05-02T16:38:42Z</time></trkpt><trkpt lat="43.24398816759926" lon="12.148354220019959"><ele>363.20000000000005</ele><time>2026-05-02T16:38:44Z</time></trkpt><trkpt lat="43.24401259101261" lon="12.148197113922855"><ele>356.79999999999995</ele><time>2026-05-02T16:38:46Z</time></trkpt><trkpt lat="43.24403305459342" lon="12.14807792678308"><ele>350.4</ele><time>2026-05-02T16:38:48Z</time></trkpt><trkpt lat="43.24405868399182" lon="12.14794031781312"><ele>344.0</ele><time>2026-05-02T16:38:50Z</time></trkpt><trkpt lat="43.24408890949155" lon="12.147785589413843"><ele>344.0</ele><time>2026-05-02T16:38:52Z</time></trkpt><trkpt lat="43.24410153954271" lon="12.147677151646718"><ele>344.0</ele><time>2026-05-02T16:38:53Z</time></trkpt><trkpt lat="43.24412790877859" lon="12.147561265721166"><ele>344.0</ele><time>2026-05-02T16:38:54Z</time></trkpt><trkpt lat="43.24417480733303" lon="12.147475225569014"><ele>344.0</ele><time>2026-05-02T16:38:55Z</time></trkpt><trkpt lat="43.244234447467356" lon="12.147396243717232"><ele>344.0</ele><time>2026-05-02T16:38:56Z</time></trkpt><trkpt lat="43.244286255426495" lon="12.147316265692456"><ele>344.0</ele><time>2026-05-02T16:38:57Z</time></trkpt><trkpt lat="43.24432909971614" lon="12.147233222605946"><ele>345.6</ele><time>2026-05-02T16:38:58Z</time></trkpt><trkpt lat="43.24436027171438" lon="12.147142966930407"><ele>347.2</ele><time>2026-05-02T16:38:59Z</time></trkpt><trkpt lat="43.24436680703697" lon="12.147025368952011"><ele>348.8</ele><time>2026-05-02T16:39:00Z</time></trkpt><trkpt lat="43.24436514234642" lon="12.146906929203045"><ele>350.40000000000003</ele><time>2026-05-02T16:39:01Z</time></trkpt><trkpt lat="43.24437869951488" lon="12.146693581204191"><ele>352.0</ele><time>2026-05-02T16:39:03Z</time></trkpt><trkpt lat="43.24441445675089" lon="12.146599690474305"><ele>354.16666666666663</ele><time>2026-05-02T16:39:04Z</time></trkpt><trkpt lat="43.24447278733474" lon="12.146511643258195"><ele>356.3333333333333</ele><time>2026-05-02T16:39:05Z</time></trkpt><trkpt lat="43.24454418833177" lon="12.14643816396767"><ele>358.5</ele><time>2026-05-02T16:39:06Z</time></trkpt><trkpt lat="43.24461916872263" lon="12.14639006211062"><ele>360.6666666666667</ele><time>2026-05-02T16:39:07Z</time></trkpt><trkpt lat="43.24469434859651" lon="12.146349075869997"><ele>362.83333333333337</ele><time>2026-05-02T16:39:08Z</time></trkpt><trkpt lat="43.24476769776768" lon="12.146293241072348"><ele>365.0</ele><time>2026-05-02T16:39:09Z</time></trkpt><trkpt lat="43.24484025359902" lon="12.146234716221612"><ele>360.1666666666667</ele><time>2026-05-02T16:39:10Z</time></trkpt><trkpt lat="43.24491059680154" lon="12.146180948035877"><ele>355.33333333333337</ele><time>2026-05-02T16:39:11Z</time></trkpt><trkpt lat="43.24497783912794" lon="12.146125106299605"><ele>350.5</ele><time>2026-05-02T16:39:12Z</time></trkpt><trkpt lat="43.24504633755814" lon="12.146057217010734"><ele>345.6666666666667</ele><time>2026-05-02T16:39:13Z</time></trkpt><trkpt lat="43.24510872842952" lon="12.14599081017649"><ele>340.8333333333333</ele><time>2026-05-02T16:39:14Z</time></trkpt><trkpt lat="43.24516622906338" lon="12.145914682079008"><ele>336.0</ele><time>2026-05-02T16:39:15Z</time></trkpt><trkpt lat="43.24521890856846" lon="12.145839597304454"><ele>336.0</ele><time>2026-05-02T16:39:16Z</time></trkpt><trkpt lat="43.245266242517765" lon="12.145760430229481"><ele>336.0</ele><time>2026-05-02T16:39:17Z</time></trkpt><trkpt lat="43.24531562981144" lon="12.145680478464955"><ele>336.0</ele><time>2026-05-02T16:39:18Z</time></trkpt><trkpt lat="43.24536550538523" lon="12.145607105511068"><ele>336.0</ele><time>2026-05-02T16:39:19Z</time></trkpt><trkpt lat="43.2454150689202" lon="12.145520721575497"><ele>336.0</ele><time>2026-05-02T16:39:20Z</time></trkpt><trkpt lat="43.2454547991063" lon="12.145424012041008"><ele>336.0</ele><time>2026-05-02T16:39:21Z</time></trkpt><trkpt lat="43.24549454937798" lon="12.145333868028407"><ele>337.6666666666667</ele><time>2026-05-02T16:39:22Z</time></trkpt><trkpt lat="43.24553385030595" lon="12.145244853267732"><ele>339.3333333333333</ele><time>2026-05-02T16:39:23Z</time></trkpt><trkpt lat="43.24557020325962" lon="12.145152197657158"><ele>341.0</ele><time>2026-05-02T16:39:24Z</time></trkpt><trkpt lat="43.24561423925104" lon="12.145059247370765"><ele>342.66666666666663</ele><time>2026-05-02T16:39:25Z</time></trkpt><trkpt lat="43.245655572436334" lon="12.144950896480134"><ele>344.3333333333333</ele><time>2026-05-02T16:39:26Z</time></trkpt><trkpt lat="43.2456914038864" lon="12.144854039200473"><ele>346.0</ele><time>2026-05-02T16:39:27Z</time></trkpt><trkpt lat="43.2457335548352" lon="12.144757181452654"><ele>341.66666666666663</ele><time>2026-05-02T16:39:28Z</time></trkpt><trkpt lat="43.24578464931056" lon="12.144653770628212"><ele>337.3333333333333</ele><time>2026-05-02T16:39:29Z</time></trkpt><trkpt lat="43.245829045701285" lon="12.144555356269786"><ele>333.0</ele><time>2026-05-02T16:39:30Z</time></trkpt><trkpt lat="43.24586718749482" lon="12.144451413199086"><ele>328.6666666666667</ele><time>2026-05-02T16:39:31Z</time></trkpt><trkpt lat="43.2459066650361" lon="12.144358708166077"><ele>324.33333333333337</ele><time>2026-05-02T16:39:32Z</time></trkpt><trkpt lat="43.24594827529793" lon="12.14426006723233"><ele>320.0</ele><time>2026-05-02T16:39:33Z</time></trkpt><trkpt lat="43.24598511082422" lon="12.144162422529647"><ele>320.0</ele><time>2026-05-02T16:39:34Z</time></trkpt><trkpt lat="43.24602136970695" lon="12.144078850772074"><ele>320.0</ele><time>2026-05-02T16:39:35Z</time></trkpt><trkpt lat="43.246057098835834" lon="12.144001632020299"><ele>320.0</ele><time>2026-05-02T16:39:36Z</time></trkpt><trkpt lat="43.24609186115783" lon="12.143929337861744"><ele>320.0</ele><time>2026-05-02T16:39:37Z</time></trkpt><trkpt lat="43.24616241520782" lon="12.143797056369582"><ele>320.0</ele><time>2026-05-02T16:39:39Z</time></trkpt><trkpt lat="43.24623416968289" lon="12.143652653090415"><ele>320.0</ele><time>2026-05-02T16:39:41Z</time></trkpt><trkpt lat="43.24627377047884" lon="12.143581473719761"><ele>319.8</ele><time>2026-05-02T16:39:42Z</time></trkpt><trkpt lat="43.246319891385134" lon="12.143517861124053"><ele>319.6</ele><time>2026-05-02T16:39:43Z</time></trkpt><trkpt lat="43.24638338861097" lon="12.143384577496446"><ele>319.4</ele><time>2026-05-02T16:39:45Z</time></trkpt><trkpt lat="43.24643278184332" lon="12.14332887182316"><ele>319.2</ele><time>2026-05-02T16:39:47Z</time></trkpt><trkpt lat="43.24638012231607" lon="12.14322818502077"><ele>319.0</ele><time>2026-05-02T16:39:48Z</time></trkpt><trkpt lat="43.246294693095884" lon="12.14310911705345"><ele>319.0</ele><time>2026-05-02T16:39:50Z</time></trkpt><trkpt lat="43.246241207995325" lon="12.143053347372238"><ele>319.0</ele><time>2026-05-02T16:39:51Z</time></trkpt><trkpt lat="43.24617827886172" lon="12.142986436200268"><ele>319.0</ele><time>2026-05-02T16:39:52Z</time></trkpt><trkpt lat="43.2461055134273" lon="12.142937678942582"><ele>319.0</ele><time>2026-05-02T16:39:53Z</time></trkpt><trkpt lat="43.24601910939601" lon="12.142899538317439"><ele>319.0</ele><time>2026-05-02T16:39:54Z</time></trkpt><trkpt lat="43.24592895652144" lon="12.142876919587026"><ele>319.0</ele><time>2026-05-02T16:39:55Z</time></trkpt><trkpt lat="43.24584212332557" lon="12.142864551664575"><ele>319.0</ele><time>2026-05-02T16:39:56Z</time></trkpt><trkpt lat="43.24576046335965" lon="12.142844204553624"><ele>319.0</ele><time>2026-05-02T16:39:57Z</time></trkpt><trkpt lat="43.24567701530186" lon="12.142830857038385"><ele>319.0</ele><time>2026-05-02T16:39:58Z</time></trkpt><trkpt lat="43.245591407065255" lon="12.142813475139594"><ele>319.0</ele><time>2026-05-02T16:39:59Z</time></trkpt><trkpt lat="43.24550786124501" lon="12.142803945608739"><ele>319.0</ele><time>2026-05-02T16:40:00Z</time></trkpt><trkpt lat="43.24543441097609" lon="12.142779984679294"><ele>319.0</ele><time>2026-05-02T16:40:01Z</time></trkpt><trkpt lat="43.24534767471306" lon="12.142762357419306"><ele>320.2</ele><time>2026-05-02T16:40:02Z</time></trkpt><trkpt lat="43.24526139912514" lon="12.14274537266965"><ele>321.4</ele><time>2026-05-02T16:40:03Z</time></trkpt><trkpt lat="43.24516682232564" lon="12.142730700948135"><ele>322.6</ele><time>2026-05-02T16:40:04Z</time></trkpt><trkpt lat="43.24508258848299" lon="12.14267594496973"><ele>323.8</ele><time>2026-05-02T16:40:05Z</time></trkpt><trkpt lat="43.24500325080622" lon="12.142613598239354"><ele>325.0</ele><time>2026-05-02T16:40:06Z</time></trkpt><trkpt lat="43.24491815159593" lon="12.142548326461283"><ele>325.0</ele><time>2026-05-02T16:40:07Z</time></trkpt><trkpt lat="43.24484076002056" lon="12.142491352445486"><ele>325.0</ele><time>2026-05-02T16:40:08Z</time></trkpt><trkpt lat="43.24476956714386" lon="12.14244178864121"><ele>325.0</ele><time>2026-05-02T16:40:09Z</time></trkpt><trkpt lat="43.24469494248443" lon="12.142413819720927"><ele>325.0</ele><time>2026-05-02T16:40:10Z</time></trkpt><trkpt lat="43.24462509681997" lon="12.142355432624989"><ele>325.0</ele><time>2026-05-02T16:40:11Z</time></trkpt><trkpt lat="43.244557840782036" lon="12.142315503726264"><ele>325.0</ele><time>2026-05-02T16:40:12Z</time></trkpt><trkpt lat="43.24448496589723" lon="12.142262757177143"><ele>326.66666666666663</ele><time>2026-05-02T16:40:13Z</time></trkpt><trkpt lat="43.24440960749604" lon="12.14221126170971"><ele>328.3333333333333</ele><time>2026-05-02T16:40:14Z</time></trkpt><trkpt lat="43.244324841151446" lon="12.142170452806393"><ele>330.0</ele><time>2026-05-02T16:40:15Z</time></trkpt><trkpt lat="43.24423574060651" lon="12.142142731322744"><ele>331.6666666666667</ele><time>2026-05-02T16:40:16Z</time></trkpt><trkpt lat="43.244145029449356" lon="12.142126910491253"><ele>333.33333333333337</ele><time>2026-05-02T16:40:17Z</time></trkpt><trkpt lat="43.24407371036129" lon="12.142120044273321"><ele>335.0</ele><time>2026-05-02T16:40:18Z</time></trkpt><trkpt lat="43.24400094606909" lon="12.142129493133783"><ele>337.6</ele><time>2026-05-02T16:40:19Z</time></trkpt><trkpt lat="43.24392425560738" lon="12.14214079658436"><ele>340.2</ele><time>2026-05-02T16:40:20Z</time></trkpt><trkpt lat="43.24383227236092" lon="12.142122699527771"><ele>342.79999999999995</ele><time>2026-05-02T16:40:21Z</time></trkpt><trkpt lat="43.24374611629944" lon="12.14213042794907"><ele>345.4</ele><time>2026-05-02T16:40:22Z</time></trkpt><trkpt lat="43.24364989252506" lon="12.142161347063091"><ele>348.0</ele><time>2026-05-02T16:40:23Z</time></trkpt><trkpt lat="43.243553073518065" lon="12.142166106168284"><ele>348.0</ele><time>2026-05-02T16:40:24Z</time></trkpt><trkpt lat="43.24345328817964" lon="12.142171825336233"><ele>348.0</ele><time>2026-05-02T16:40:25Z</time></trkpt><trkpt lat="43.243341435257285" lon="12.142181057079206"><ele>348.0</ele><time>2026-05-02T16:40:26Z</time></trkpt><trkpt lat="43.243240411503606" lon="12.142171842085796"><ele>348.0</ele><time>2026-05-02T16:40:27Z</time></trkpt><trkpt lat="43.243166367327234" lon="12.142154918130359"><ele>348.0</ele><time>2026-05-02T16:40:28Z</time></trkpt><trkpt lat="43.24306187809618" lon="12.142162408079933"><ele>348.0</ele><time>2026-05-02T16:40:30Z</time></trkpt><trkpt lat="43.24315438204894" lon="12.1421416087956"><ele>348.0</ele><time>2026-05-02T16:40:37Z</time></trkpt><trkpt lat="43.24323254493525" lon="12.142187821422905"><ele>348.0</ele><time>2026-05-02T16:40:39Z</time></trkpt><trkpt lat="43.24328159817166" lon="12.14206410313772"><ele>348.0</ele><time>2026-05-02T16:40:43Z</time></trkpt><trkpt lat="43.2433066353224" lon="12.141972830754115"><ele>348.0</ele><time>2026-05-02T16:40:44Z</time></trkpt><trkpt lat="43.24329538347012" lon="12.141830676541385"><ele>348.0</ele><time>2026-05-02T16:40:46Z</time></trkpt><trkpt lat="43.24330317783333" lon="12.141579728326715"><ele>348.0</ele><time>2026-05-02T16:40:49Z</time></trkpt><trkpt lat="43.24330225337509" lon="12.141492501438487"><ele>348.0</ele><time>2026-05-02T16:40:51Z</time></trkpt><trkpt lat="43.24330130048522" lon="12.141401213563721"><ele>348.0</ele><time>2026-05-02T16:40:57Z</time></trkpt><trkpt lat="43.24324978196613" lon="12.141259881875081"><ele>348.0</ele><time>2026-05-02T16:40:59Z</time></trkpt><trkpt lat="43.24316919579876" lon="12.141126728487745"><ele>348.8333333333333</ele><time>2026-05-02T16:41:01Z</time></trkpt><trkpt lat="43.243131774461446" lon="12.141054887663365"><ele>349.6666666666667</ele><time>2026-05-02T16:41:02Z</time></trkpt><trkpt lat="43.243093496280615" lon="12.140985483982979"><ele>350.5</ele><time>2026-05-02T16:41:03Z</time></trkpt><trkpt lat="43.243022138370016" lon="12.14087622784865"><ele>351.33333333333337</ele><time>2026-05-02T16:41:05Z</time></trkpt><trkpt lat="43.242980979883285" lon="12.14073859544767"><ele>352.1666666666667</ele><time>2026-05-02T16:41:07Z</time></trkpt><trkpt lat="43.242956022660074" lon="12.140648164545823"><ele>353.0</ele><time>2026-05-02T16:41:09Z</time></trkpt><trkpt lat="43.242903422553155" lon="12.140533057833384"><ele>358.33333333333337</ele><time>2026-05-02T16:41:11Z</time></trkpt><trkpt lat="43.242879844755635" lon="12.140450763091554"><ele>363.6666666666667</ele><time>2026-05-02T16:41:13Z</time></trkpt><trkpt lat="43.24284738626673" lon="12.140313872308077"><ele>369.0</ele><time>2026-05-02T16:41:16Z</time></trkpt><trkpt lat="43.242904094043986" lon="12.14023631080739"><ele>374.33333333333337</ele><time>2026-05-02T16:41:19Z</time></trkpt><trkpt lat="43.24301403258485" lon="12.140226273600389"><ele>379.6666666666667</ele><time>2026-05-02T16:41:21Z</time></trkpt><trkpt lat="43.24309755968953" lon="12.140194851569252"><ele>385.0</ele><time>2026-05-02T16:41:23Z</time></trkpt><trkpt lat="43.243120246380236" lon="12.140100632765133"><ele>385.00000000000006</ele><time>2026-05-02T16:41:27Z</time></trkpt><trkpt lat="43.24308924605179" lon="12.139993498475143"><ele>385.0</ele><time>2026-05-02T16:41:30Z</time></trkpt><trkpt lat="43.24304971471998" lon="12.139919093273853"><ele>385.0</ele><time>2026-05-02T16:41:41Z</time></trkpt><trkpt lat="43.2430661352324" lon="12.13982166962312"><ele>385.0</ele><time>2026-05-02T16:41:44Z</time></trkpt><trkpt lat="43.24310936043889" lon="12.13972409430682"><ele>385.00000000000006</ele><time>2026-05-02T16:41:46Z</time></trkpt><trkpt lat="43.24320943354596" lon="12.139732074957182"><ele>385.0</ele><time>2026-05-02T16:41:48Z</time></trkpt><trkpt lat="43.24327162752837" lon="12.13969110718841"><ele>385.6666666666667</ele><time>2026-05-02T16:41:51Z</time></trkpt><trkpt lat="43.24333600814193" lon="12.139652516994065"><ele>386.33333333333337</ele><time>2026-05-02T16:41:53Z</time></trkpt><trkpt lat="43.243408161429414" lon="12.139631701070252"><ele>387.0</ele><time>2026-05-02T16:41:55Z</time></trkpt><trkpt lat="43.24345917115381" lon="12.139566727599743"><ele>387.66666666666663</ele><time>2026-05-02T16:41:57Z</time></trkpt><trkpt lat="43.24353033269194" lon="12.1394779912163"><ele>388.3333333333333</ele><time>2026-05-02T16:42:00Z</time></trkpt><trkpt lat="43.24357814092441" lon="12.139403093905381"><ele>389.0</ele><time>2026-05-02T16:42:02Z</time></trkpt><trkpt lat="43.24363352271601" lon="12.1393056394618"><ele>388.99999999999994</ele><time>2026-05-02T16:42:04Z</time></trkpt><trkpt lat="43.243702816999786" lon="12.139233852351213"><ele>389.0</ele><time>2026-05-02T16:42:06Z</time></trkpt><trkpt lat="43.24376199028558" lon="12.139162893418133"><ele>389.0</ele><time>2026-05-02T16:42:09Z</time></trkpt><trkpt lat="43.243803848599875" lon="12.139088438025242"><ele>389.0</ele><time>2026-05-02T16:42:11Z</time></trkpt><trkpt lat="43.2438667172241" lon="12.13898534704355"><ele>388.99999999999994</ele><time>2026-05-02T16:42:13Z</time></trkpt><trkpt lat="43.24390970109018" lon="12.138915232627298"><ele>389.0</ele><time>2026-05-02T16:42:15Z</time></trkpt><trkpt lat="43.24394623405706" lon="12.138838253258182"><ele>391.49999999999994</ele><time>2026-05-02T16:42:17Z</time></trkpt><trkpt lat="43.243984005439856" lon="12.138730620357638"><ele>394.0</ele><time>2026-05-02T16:42:20Z</time></trkpt><trkpt lat="43.24401012589397" lon="12.13862467740464"><ele>396.5</ele><time>2026-05-02T16:42:22Z</time></trkpt><trkpt lat="43.24402788627442" lon="12.138531476685145"><ele>399.0</ele><time>2026-05-02T16:42:24Z</time></trkpt><trkpt lat="43.24403539061624" lon="12.138419908127357"><ele>401.49999999999994</ele><time>2026-05-02T16:42:27Z</time></trkpt><trkpt lat="43.244042803942875" lon="12.138333441992375"><ele>404.0</ele><time>2026-05-02T16:42:29Z</time></trkpt><trkpt lat="43.24405113801258" lon="12.138218510356678"><ele>404.0</ele><time>2026-05-02T16:42:32Z</time></trkpt><trkpt lat="43.24408809855748" lon="12.138130008814457"><ele>404.0</ele><time>2026-05-02T16:42:35Z</time></trkpt><trkpt lat="43.244145608336986" lon="12.13808906091165"><ele>404.0</ele><time>2026-05-02T16:42:44Z</time></trkpt><trkpt lat="43.244191511877425" lon="12.138160077532609"><ele>404.0</ele><time>2026-05-02T16:42:53Z</time></trkpt><trkpt lat="43.244239683028475" lon="12.138241539199127"><ele>404.0</ele><time>2026-05-02T16:42:56Z</time></trkpt><trkpt lat="43.24428965157087" lon="12.138294709777718"><ele>404.0</ele><time>2026-05-02T16:42:58Z</time></trkpt><trkpt lat="43.24434677808143" lon="12.138346567519648"><ele>404.0</ele><time>2026-05-02T16:43:00Z</time></trkpt><trkpt lat="43.24441337192466" lon="12.13843875799329"><ele>404.0</ele><time>2026-05-02T16:43:03Z</time></trkpt><trkpt lat="43.24444390935329" lon="12.138538145823125"><ele>404.0</ele><time>2026-05-02T16:43:07Z</time></trkpt><trkpt lat="43.24449885290388" lon="12.138617887566248"><ele>404.0</ele><time>2026-05-02T16:43:10Z</time></trkpt><trkpt lat="43.24456026294706" lon="12.138694094012918"><ele>404.0</ele><time>2026-05-02T16:43:13Z</time></trkpt><trkpt lat="43.244604904669536" lon="12.138763825473067"><ele>404.0</ele><time>2026-05-02T16:43:15Z</time></trkpt><trkpt lat="43.24465485746761" lon="12.138832601375926"><ele>404.0</ele><time>2026-05-02T16:43:18Z</time></trkpt><trkpt lat="43.244714258521796" lon="12.138861954006916"><ele>404.0</ele><time>2026-05-02T16:43:31Z</time></trkpt><trkpt lat="43.24465475524895" lon="12.138819657132284"><ele>404.0</ele><time>2026-05-02T16:45:11Z</time></trkpt><trkpt lat="43.24460264224076" lon="12.138741676724377"><ele>404.0</ele><time>2026-05-02T16:45:14Z</time></trkpt><trkpt lat="43.24456061045205" lon="12.138674379477663"><ele>404.0</ele><time>2026-05-02T16:45:16Z</time></trkpt><trkpt lat="43.24451241655713" lon="12.138618619280331"><ele>404.0</ele><time>2026-05-02T16:45:18Z</time></trkpt><trkpt lat="43.244465034529135" lon="12.138543613636855"><ele>404.0</ele><time>2026-05-02T16:45:21Z</time></trkpt><trkpt lat="43.244426278322834" lon="12.138469731424424"><ele>404.0</ele><time>2026-05-02T16:45:24Z</time></trkpt><trkpt lat="43.2443990999407" lon="12.13838383763708"><ele>404.0</ele><time>2026-05-02T16:45:27Z</time></trkpt><trkpt lat="43.244336294707615" lon="12.138318162263968"><ele>404.0</ele><time>2026-05-02T16:45:30Z</time></trkpt><trkpt lat="43.2442779088926" lon="12.13828456770584"><ele>404.0</ele><time>2026-05-02T16:45:32Z</time></trkpt><trkpt lat="43.24423424318566" lon="12.138214823932945"><ele>404.0</ele><time>2026-05-02T16:45:34Z</time></trkpt><trkpt lat="43.244180240884596" lon="12.138156601504441"><ele>404.0</ele><time>2026-05-02T16:45:37Z</time></trkpt><trkpt lat="43.24414426901568" lon="12.138065167226276"><ele>404.0</ele><time>2026-05-02T16:45:40Z</time></trkpt><trkpt lat="43.24407469004301" lon="12.138102076667572"><ele>404.0</ele><time>2026-05-02T16:45:43Z</time></trkpt><trkpt lat="43.244048653029566" lon="12.138192605428834"><ele>404.0</ele><time>2026-05-02T16:45:45Z</time></trkpt><trkpt lat="43.24405587384175" lon="12.138282080965366"><ele>403.99999999999994</ele><time>2026-05-02T16:45:47Z</time></trkpt><trkpt lat="43.24404326081519" lon="12.1383977689326"><ele>404.0</ele><time>2026-05-02T16:45:50Z</time></trkpt><trkpt lat="43.244039271293765" lon="12.138487530003728"><ele>404.0</ele><time>2026-05-02T16:45:52Z</time></trkpt><trkpt lat="43.24402920558158" lon="12.13857653590825"><ele>404.0</ele><time>2026-05-02T16:45:54Z</time></trkpt><trkpt lat="43.24400781620201" lon="12.138675531529136"><ele>403.99999999999994</ele><time>2026-05-02T16:45:56Z</time></trkpt><trkpt lat="43.24398121645245" lon="12.138766748213378"><ele>404.0</ele><time>2026-05-02T16:45:58Z</time></trkpt><trkpt lat="43.24393638262533" lon="12.138874959366923"><ele>405.8333333333333</ele><time>2026-05-02T16:46:01Z</time></trkpt><trkpt lat="43.243884690213704" lon="12.138966864640597"><ele>407.66666666666663</ele><time>2026-05-02T16:46:03Z</time></trkpt><trkpt lat="43.24382740799679" lon="12.139064981718516"><ele>409.5</ele><time>2026-05-02T16:46:05Z</time></trkpt><trkpt lat="43.243773458095575" lon="12.13915632273958"><ele>411.33333333333337</ele><time>2026-05-02T16:46:07Z</time></trkpt><trkpt lat="43.24372041416684" lon="12.139225212188418"><ele>413.1666666666667</ele><time>2026-05-02T16:46:09Z</time></trkpt><trkpt lat="43.2436411817968" lon="12.13930744910841"><ele>415.0</ele><time>2026-05-02T16:46:12Z</time></trkpt><trkpt lat="43.24359175912625" lon="12.139369473919226"><ele>411.2857142857143</ele><time>2026-05-02T16:46:14Z</time></trkpt><trkpt lat="43.24354106785925" lon="12.139447804320035"><ele>407.57142857142856</ele><time>2026-05-02T16:46:19Z</time></trkpt><trkpt lat="43.24349144255949" lon="12.139512284097947"><ele>403.8571428571429</ele><time>2026-05-02T16:46:23Z</time></trkpt><trkpt lat="43.243439023661956" lon="12.139580744159158"><ele>400.1428571428571</ele><time>2026-05-02T16:46:26Z</time></trkpt><trkpt lat="43.24338122881019" lon="12.139624531963188"><ele>396.4285714285714</ele><time>2026-05-02T16:46:29Z</time></trkpt><trkpt lat="43.24331150779825" lon="12.139645547069904"><ele>392.7142857142857</ele><time>2026-05-02T16:46:31Z</time></trkpt><trkpt lat="43.24323466450794" lon="12.139670438931102"><ele>389.0</ele><time>2026-05-02T16:46:34Z</time></trkpt><trkpt lat="43.24314997163585" lon="12.139720039225395"><ele>388.3333333333333</ele><time>2026-05-02T16:46:37Z</time></trkpt><trkpt lat="43.243067488993866" lon="12.139758289137253"><ele>387.66666666666663</ele><time>2026-05-02T16:46:40Z</time></trkpt><trkpt lat="43.2430497659199" lon="12.139859396916895"><ele>387.0</ele><time>2026-05-02T16:46:43Z</time></trkpt><trkpt lat="43.24305380221745" lon="12.139984308788437"><ele>386.33333333333337</ele><time>2026-05-02T16:46:46Z</time></trkpt><trkpt lat="43.24309875793279" lon="12.140054590666473"><ele>385.6666666666667</ele><time>2026-05-02T16:46:48.999Z</time></trkpt><trkpt lat="43.243138330191165" lon="12.140150852951038"><ele>385.0</ele><time>2026-05-02T16:46:51.999Z</time></trkpt><trkpt lat="43.243075278052544" lon="12.140207456212138"><ele>385.0</ele><time>2026-05-02T16:46:54.999Z</time></trkpt><trkpt lat="43.242974768333795" lon="12.140226888911743"><ele>385.0</ele><time>2026-05-02T16:46:58.999Z</time></trkpt><trkpt lat="43.24287121176827" lon="12.140239492864804"><ele>385.0</ele><time>2026-05-02T16:47:00.999Z</time></trkpt><trkpt lat="43.242853712150044" lon="12.140375633555806"><ele>385.0</ele><time>2026-05-02T16:47:04Z</time></trkpt><trkpt lat="43.242877647152376" lon="12.14047158089325"><ele>385.0</ele><time>2026-05-02T16:47:06Z</time></trkpt><trkpt lat="43.24291666226968" lon="12.140553253696078"><ele>385.0</ele><time>2026-05-02T16:47:08Z</time></trkpt><trkpt lat="43.24296533701182" lon="12.140670110065221"><ele>385.0</ele><time>2026-05-02T16:47:10Z</time></trkpt><trkpt lat="43.24300648705281" lon="12.140784715519215"><ele>385.0</ele><time>2026-05-02T16:47:12Z</time></trkpt><trkpt lat="43.243042290879366" lon="12.140906029273298"><ele>385.0</ele><time>2026-05-02T16:47:14Z</time></trkpt><trkpt lat="43.243106803916504" lon="12.141031840917353"><ele>385.0</ele><time>2026-05-02T16:47:16Z</time></trkpt><trkpt lat="43.24316955749891" lon="12.141130317006573"><ele>379.6666666666667</ele><time>2026-05-02T16:47:18Z</time></trkpt><trkpt lat="43.243228618816595" lon="12.141243453056454"><ele>374.33333333333337</ele><time>2026-05-02T16:47:20Z</time></trkpt><trkpt lat="43.24326788771695" lon="12.141315007022733"><ele>369.0</ele><time>2026-05-02T16:47:22Z</time></trkpt><trkpt lat="43.24328211950379" lon="12.141399228786998"><ele>363.6666666666667</ele><time>2026-05-02T16:47:24Z</time></trkpt><trkpt lat="43.243309047525905" lon="12.141483313959089"><ele>358.33333333333337</ele><time>2026-05-02T16:47:27Z</time></trkpt><trkpt lat="43.24327923261219" lon="12.14157854925207"><ele>353.0</ele><time>2026-05-02T16:47:30Z</time></trkpt><trkpt lat="43.243288525220635" lon="12.14170178291285"><ele>352.1666666666667</ele><time>2026-05-02T16:47:33Z</time></trkpt><trkpt lat="43.243288942438674" lon="12.141795346942182"><ele>351.33333333333337</ele><time>2026-05-02T16:47:35Z</time></trkpt><trkpt lat="43.24327890114722" lon="12.14192820007683"><ele>350.5</ele><time>2026-05-02T16:47:37Z</time></trkpt><trkpt lat="43.24326403305118" lon="12.142015500427659"><ele>349.6666666666667</ele><time>2026-05-02T16:47:39Z</time></trkpt><trkpt lat="43.243235374698166" lon="12.142103405483418"><ele>348.8333333333333</ele><time>2026-05-02T16:47:41Z</time></trkpt><trkpt lat="43.243176307379564" lon="12.14215957381902"><ele>348.0</ele><time>2026-05-02T16:47:44Z</time></trkpt><trkpt lat="43.243090306487986" lon="12.142152728114525"><ele>349.8333333333333</ele><time>2026-05-02T16:47:46Z</time></trkpt><trkpt lat="43.243026616747734" lon="12.142165318140515"><ele>351.6666666666667</ele><time>2026-05-02T16:47:47Z</time></trkpt><trkpt lat="43.242958105284096" lon="12.142180224278645"><ele>353.5</ele><time>2026-05-02T16:47:48Z</time></trkpt><trkpt lat="43.242834280856904" lon="12.142173010113494"><ele>355.33333333333337</ele><time>2026-05-02T16:47:50Z</time></trkpt><trkpt lat="43.24275942029363" lon="12.142161431260941"><ele>357.1666666666667</ele><time>2026-05-02T16:47:51Z</time></trkpt><trkpt lat="43.242689619890626" lon="12.142141840861019"><ele>359.0</ele><time>2026-05-02T16:47:52Z</time></trkpt><trkpt lat="43.24258415542941" lon="12.142137574248292"><ele>359.0</ele><time>2026-05-02T16:47:54Z</time></trkpt><trkpt lat="43.24249060779788" lon="12.142169148083484"><ele>359.0</ele><time>2026-05-02T16:47:56Z</time></trkpt><trkpt lat="43.242441078466385" lon="12.142264453297427"><ele>359.0</ele><time>2026-05-02T16:47:58Z</time></trkpt><trkpt lat="43.24239485497418" lon="12.142330167048799"><ele>359.0</ele><time>2026-05-02T16:47:59Z</time></trkpt><trkpt lat="43.242312666291745" lon="12.142352096023755"><ele>359.0</ele><time>2026-05-02T16:48:00Z</time></trkpt><trkpt lat="43.242244299083254" lon="12.142398334271496"><ele>359.0</ele><time>2026-05-02T16:48:01Z</time></trkpt><trkpt lat="43.24216433571762" lon="12.142463265109443"><ele>359.6666666666667</ele><time>2026-05-02T16:48:02Z</time></trkpt><trkpt lat="43.242053410146916" lon="12.142575899572003"><ele>360.33333333333337</ele><time>2026-05-02T16:48:03Z</time></trkpt><trkpt lat="43.241973352713764" lon="12.14263595142113"><ele>361.0</ele><time>2026-05-02T16:48:04Z</time></trkpt><trkpt lat="43.24191105237091" lon="12.142688568005473"><ele>361.6666666666667</ele><time>2026-05-02T16:48:05Z</time></trkpt><trkpt lat="43.241843919103395" lon="12.142716298205508"><ele>362.3333333333333</ele><time>2026-05-02T16:48:06Z</time></trkpt><trkpt lat="43.241785055823385" lon="12.142759868767738"><ele>363.0</ele><time>2026-05-02T16:48:07Z</time></trkpt><trkpt lat="43.241721512901385" lon="12.14280126784345"><ele>363.0</ele><time>2026-05-02T16:48:08Z</time></trkpt><trkpt lat="43.24166277662105" lon="12.142845308677918"><ele>363.0</ele><time>2026-05-02T16:48:09Z</time></trkpt><trkpt lat="43.24158052705173" lon="12.142873660783032"><ele>363.0</ele><time>2026-05-02T16:48:10Z</time></trkpt><trkpt lat="43.24150420620357" lon="12.142891964709085"><ele>363.0</ele><time>2026-05-02T16:48:11Z</time></trkpt><trkpt lat="43.24139806299625" lon="12.142878095542887"><ele>363.0</ele><time>2026-05-02T16:48:13Z</time></trkpt><trkpt lat="43.24134999611856" lon="12.14278909288627"><ele>363.0</ele><time>2026-05-02T16:48:14Z</time></trkpt><trkpt lat="43.241301391545356" lon="12.142702968047569"><ele>363.8333333333333</ele><time>2026-05-02T16:48:15Z</time></trkpt><trkpt lat="43.241257359298764" lon="12.142637672219495"><ele>364.6666666666667</ele><time>2026-05-02T16:48:16Z</time></trkpt><trkpt lat="43.241139642535096" lon="12.142580706576421"><ele>365.5</ele><time>2026-05-02T16:48:18Z</time></trkpt><trkpt lat="43.241072668736216" lon="12.142577901410998"><ele>366.33333333333337</ele><time>2026-05-02T16:48:19Z</time></trkpt><trkpt lat="43.24098494239746" lon="12.142597165310736"><ele>367.1666666666667</ele><time>2026-05-02T16:48:20Z</time></trkpt><trkpt lat="43.240894308937214" lon="12.142602860996224"><ele>368.0</ele><time>2026-05-02T16:48:21Z</time></trkpt><trkpt lat="43.24082188888" lon="12.142587215559969"><ele>368.0</ele><time>2026-05-02T16:48:22Z</time></trkpt><trkpt lat="43.24075833586014" lon="12.142534518126931"><ele>368.0</ele><time>2026-05-02T16:48:23Z</time></trkpt><trkpt lat="43.240717867164534" lon="12.142466652572406"><ele>368.0</ele><time>2026-05-02T16:48:24Z</time></trkpt><trkpt lat="43.24069128581751" lon="12.142348692995004"><ele>368.0</ele><time>2026-05-02T16:48:26Z</time></trkpt><trkpt lat="43.24062532740527" lon="12.142325132672784"><ele>368.0</ele><time>2026-05-02T16:48:28Z</time></trkpt><trkpt lat="43.24055758297305" lon="12.142383412196962"><ele>368.0</ele><time>2026-05-02T16:48:29Z</time></trkpt><trkpt lat="43.2404964700999" lon="12.142421726213474"><ele>368.0</ele><time>2026-05-02T16:48:30Z</time></trkpt><trkpt lat="43.240441984845056" lon="12.142475559310292"><ele>372.4</ele><time>2026-05-02T16:48:31Z</time></trkpt><trkpt lat="43.24037556079097" lon="12.142545481681934"><ele>376.79999999999995</ele><time>2026-05-02T16:48:32Z</time></trkpt><trkpt lat="43.24033534687042" lon="12.142615549623637"><ele>381.2</ele><time>2026-05-02T16:48:33Z</time></trkpt><trkpt lat="43.24029938070789" lon="12.142758427533032"><ele>385.6</ele><time>2026-05-02T16:48:35Z</time></trkpt><trkpt lat="43.24029570663905" lon="12.142896428660697"><ele>390.0</ele><time>2026-05-02T16:48:37Z</time></trkpt><trkpt lat="43.24043711373381" lon="12.14293312842982"><ele>390.0</ele><time>2026-05-02T16:48:39Z</time></trkpt><trkpt lat="43.24052305190159" lon="12.142963127209299"><ele>390.0</ele><time>2026-05-02T16:48:41Z</time></trkpt><trkpt lat="43.24053578168653" lon="12.143082101355278"><ele>390.0</ele><time>2026-05-02T16:48:42.999Z</time></trkpt><trkpt lat="43.24043138994687" lon="12.143145832980451"><ele>390.0</ele><time>2026-05-02T16:48:44.999Z</time></trkpt><trkpt lat="43.2403614146359" lon="12.143148060746162"><ele>390.0</ele><time>2026-05-02T16:48:45.999Z</time></trkpt><trkpt lat="43.24031675415466" lon="12.143267466413235"><ele>391.8</ele><time>2026-05-02T16:48:48.999Z</time></trkpt><trkpt lat="43.240292874950036" lon="12.143357547017239"><ele>393.6</ele><time>2026-05-02T16:48:49.999Z</time></trkpt><trkpt lat="43.24031350951102" lon="12.143497157427637"><ele>395.4</ele><time>2026-05-02T16:48:50.999Z</time></trkpt><trkpt lat="43.24032344588579" lon="12.14362735124713"><ele>397.2</ele><time>2026-05-02T16:48:52.999Z</time></trkpt><trkpt lat="43.240217339946234" lon="12.143674347012844"><ele>399.0</ele><time>2026-05-02T16:48:54.999Z</time></trkpt><trkpt lat="43.240140640009834" lon="12.143652689981609"><ele>399.0</ele><time>2026-05-02T16:48:55.999Z</time></trkpt><trkpt lat="43.24006788517083" lon="12.143639885768877"><ele>399.0</ele><time>2026-05-02T16:48:56.999Z</time></trkpt><trkpt lat="43.23995125169382" lon="12.143691534720723"><ele>399.0</ele><time>2026-05-02T16:48:58.999Z</time></trkpt><trkpt lat="43.239884052959994" lon="12.143679120564572"><ele>399.0</ele><time>2026-05-02T16:48:59.999Z</time></trkpt><trkpt lat="43.23981799973869" lon="12.143686316567116"><ele>399.0</ele><time>2026-05-02T16:49:00.999Z</time></trkpt><trkpt lat="43.23975494388567" lon="12.143676968771878"><ele>399.0</ele><time>2026-05-02T16:49:01.999Z</time></trkpt><trkpt lat="43.23968154929" lon="12.143686592189503"><ele>403.6666666666667</ele><time>2026-05-02T16:49:02.999Z</time></trkpt><trkpt lat="43.23960437890041" lon="12.143652092209404"><ele>408.33333333333337</ele><time>2026-05-02T16:49:03.999Z</time></trkpt><trkpt lat="43.239534358611934" lon="12.143635046210257"><ele>413.0</ele><time>2026-05-02T16:49:04.999Z</time></trkpt><trkpt lat="43.239461438915406" lon="12.143637091686804"><ele>417.6666666666667</ele><time>2026-05-02T16:49:05.999Z</time></trkpt><trkpt lat="43.23938825410334" lon="12.143652015595794"><ele>422.33333333333337</ele><time>2026-05-02T16:49:06.999Z</time></trkpt><trkpt lat="43.239315815822884" lon="12.143685139368838"><ele>427.0</ele><time>2026-05-02T16:49:08Z</time></trkpt><trkpt lat="43.239226447656115" lon="12.143767087490628"><ele>427.00000000000006</ele><time>2026-05-02T16:49:10Z</time></trkpt><trkpt lat="43.239208953009" lon="12.143871052709686"><ele>427.0</ele><time>2026-05-02T16:49:11Z</time></trkpt><trkpt lat="43.239159786483015" lon="12.14395106182312"><ele>427.0</ele><time>2026-05-02T16:49:12Z</time></trkpt><trkpt lat="43.239056634532886" lon="12.144058917093114"><ele>427.0</ele><time>2026-05-02T16:49:14Z</time></trkpt><trkpt lat="43.23900680115699" lon="12.144114525122847"><ele>427.00000000000006</ele><time>2026-05-02T16:49:15Z</time></trkpt><trkpt lat="43.23893841187918" lon="12.1441126413613"><ele>427.0</ele><time>2026-05-02T16:49:16Z</time></trkpt><trkpt lat="43.23885881461834" lon="12.144126715437288"><ele>430.6666666666667</ele><time>2026-05-02T16:49:17Z</time></trkpt><trkpt lat="43.2387403159639" lon="12.144167844812674"><ele>434.33333333333337</ele><time>2026-05-02T16:49:19Z</time></trkpt><trkpt lat="43.23866405401577" lon="12.14422842726141"><ele>438.0</ele><time>2026-05-02T16:49:21Z</time></trkpt><trkpt lat="43.23860451023835" lon="12.144275740163312"><ele>441.66666666666663</ele><time>2026-05-02T16:49:24Z</time></trkpt><trkpt lat="43.2385597034496" lon="12.144358773841246"><ele>445.3333333333333</ele><time>2026-05-02T16:49:26Z</time></trkpt><trkpt lat="43.23849157838512" lon="12.144433154877161"><ele>449.0</ele><time>2026-05-02T16:49:29Z</time></trkpt><trkpt lat="43.2384135809377" lon="12.144399833454635"><ele>448.99999999999994</ele><time>2026-05-02T16:49:30Z</time></trkpt><trkpt lat="43.23837149773975" lon="12.144471519892214"><ele>449.0</ele><time>2026-05-02T16:49:33Z</time></trkpt><trkpt lat="43.23834758786921" lon="12.144608458838597"><ele>449.0</ele><time>2026-05-02T16:49:36Z</time></trkpt><trkpt lat="43.23833003599661" lon="12.144717320685917"><ele>449.0</ele><time>2026-05-02T16:49:38Z</time></trkpt><trkpt lat="43.2382997591628" lon="12.144799971551405"><ele>448.99999999999994</ele><time>2026-05-02T16:49:39Z</time></trkpt><trkpt lat="43.238257968213006" lon="12.144875196887844"><ele>449.0</ele><time>2026-05-02T16:49:41Z</time></trkpt><trkpt lat="43.238224766276744" lon="12.144966283130096"><ele>449.2</ele><time>2026-05-02T16:50:22Z</time></trkpt><trkpt lat="43.23821473147567" lon="12.145056477225948"><ele>449.4</ele><time>2026-05-02T16:50:24Z</time></trkpt><trkpt lat="43.23825580223338" lon="12.145195266636026"><ele>449.6</ele><time>2026-05-02T16:50:26Z</time></trkpt><trkpt lat="43.23831068320378" lon="12.145303620362794"><ele>449.8</ele><time>2026-05-02T16:50:28Z</time></trkpt><trkpt lat="43.23836487285189" lon="12.145444091555145"><ele>450.0</ele><time>2026-05-02T16:50:30Z</time></trkpt><trkpt lat="43.238408530053576" lon="12.145513961865786"><ele>450.0</ele><time>2026-05-02T16:50:31Z</time></trkpt><trkpt lat="43.23845179635532" lon="12.145587548337936"><ele>450.0</ele><time>2026-05-02T16:50:32Z</time></trkpt><trkpt lat="43.23851654029703" lon="12.14569766885435"><ele>450.0</ele><time>2026-05-02T16:50:34Z</time></trkpt><trkpt lat="43.23855014347725" lon="12.145781141193416"><ele>450.0</ele><time>2026-05-02T16:50:38Z</time></trkpt><trkpt lat="43.238590348067966" lon="12.145886031032614"><ele>450.0</ele><time>2026-05-02T16:50:44Z</time></trkpt><trkpt lat="43.23864815056021" lon="12.146022748692763"><ele>450.0</ele><time>2026-05-02T16:50:46.999Z</time></trkpt><trkpt lat="43.238683092479846" lon="12.1461099940286"><ele>451.8</ele><time>2026-05-02T16:50:47.999Z</time></trkpt><trkpt lat="43.23871759611657" lon="12.146251776035687"><ele>453.6</ele><time>2026-05-02T16:50:49.999Z</time></trkpt><trkpt lat="43.23874220401974" lon="12.146406421777698"><ele>455.4</ele><time>2026-05-02T16:50:51.999Z</time></trkpt><trkpt lat="43.238795684295866" lon="12.146490362751628"><ele>457.2</ele><time>2026-05-02T16:50:53.999Z</time></trkpt><trkpt lat="43.238839430629035" lon="12.146559356833958"><ele>459.0</ele><time>2026-05-02T16:50:54.999Z</time></trkpt><trkpt lat="43.23888249663016" lon="12.146656202854857"><ele>458.0</ele><time>2026-05-02T16:50:55.999Z</time></trkpt><trkpt lat="43.23889768122683" lon="12.146741565320013"><ele>457.0</ele><time>2026-05-02T16:50:56.999Z</time></trkpt><trkpt lat="43.23894924974835" lon="12.146835411048896"><ele>456.0</ele><time>2026-05-02T16:50:58.999Z</time></trkpt><trkpt lat="43.238988119148914" lon="12.146919641778553"><ele>455.0</ele><time>2026-05-02T16:51:00.999Z</time></trkpt><trkpt lat="43.23898468577685" lon="12.147037309365848"><ele>454.0</ele><time>2026-05-02T16:51:02.999Z</time></trkpt><trkpt lat="43.239036245600666" lon="12.147188259596339"><ele>453.0</ele><time>2026-05-02T16:51:04.999Z</time></trkpt><trkpt lat="43.2390646474092" lon="12.14732903760729"><ele>455.4</ele><time>2026-05-02T16:51:06.999Z</time></trkpt><trkpt lat="43.23909857690902" lon="12.14745172705759"><ele>457.79999999999995</ele><time>2026-05-02T16:51:08.999Z</time></trkpt><trkpt lat="43.239186522791556" lon="12.14751764879382"><ele>460.2</ele><time>2026-05-02T16:51:10.999Z</time></trkpt><trkpt lat="43.23924383258271" lon="12.147598878277764"><ele>462.6</ele><time>2026-05-02T16:51:13Z</time></trkpt><trkpt lat="43.239329344217936" lon="12.147629106413474"><ele>465.0</ele><time>2026-05-02T16:51:15Z</time></trkpt><trkpt lat="43.239381214949525" lon="12.147751212392599"><ele>465.0</ele><time>2026-05-02T16:51:17Z</time></trkpt><trkpt lat="43.23932743178671" lon="12.147888087760345"><ele>465.0</ele><time>2026-05-02T16:51:19Z</time></trkpt><trkpt lat="43.23935036522617" lon="12.147988832886892"><ele>465.0</ele><time>2026-05-02T16:51:21Z</time></trkpt><trkpt lat="43.239426014238475" lon="12.14812530407847"><ele>465.0</ele><time>2026-05-02T16:51:23Z</time></trkpt><trkpt lat="43.2394429762452" lon="12.14829885312574"><ele>465.0</ele><time>2026-05-02T16:51:25Z</time></trkpt><trkpt lat="43.239444257808714" lon="12.148399935452387"><ele>467.6</ele><time>2026-05-02T16:51:26Z</time></trkpt><trkpt lat="43.23944183773648" lon="12.14848940578244"><ele>470.2</ele><time>2026-05-02T16:51:27Z</time></trkpt><trkpt lat="43.23948218563704" lon="12.148624763345031"><ele>472.79999999999995</ele><time>2026-05-02T16:51:29Z</time></trkpt><trkpt lat="43.23957116880329" lon="12.14868733874239"><ele>475.4</ele><time>2026-05-02T16:51:31Z</time></trkpt><trkpt lat="43.23970028242593" lon="12.148673351612072"><ele>478.0</ele><time>2026-05-02T16:51:33Z</time></trkpt><trkpt lat="43.239789776562226" lon="12.148683483426852"><ele>477.59999999999997</ele><time>2026-05-02T16:51:34Z</time></trkpt><trkpt lat="43.239885522381826" lon="12.148676926584988"><ele>477.19999999999993</ele><time>2026-05-02T16:51:35Z</time></trkpt><trkpt lat="43.239966986098366" lon="12.148662236507066"><ele>476.8</ele><time>2026-05-02T16:51:36Z</time></trkpt><trkpt lat="43.24006629093206" lon="12.14867074092332"><ele>476.4</ele><time>2026-05-02T16:51:38Z</time></trkpt><trkpt lat="43.24015327406031" lon="12.148737908417022"><ele>476.0</ele><time>2026-05-02T16:51:40Z</time></trkpt><trkpt lat="43.24016097364088" lon="12.148852790101007"><ele>476.0</ele><time>2026-05-02T16:51:42Z</time></trkpt><trkpt lat="43.240071355456166" lon="12.14896898169476"><ele>476.0</ele><time>2026-05-02T16:51:44Z</time></trkpt><trkpt lat="43.23998362660318" lon="12.149068604635927"><ele>476.0</ele><time>2026-05-02T16:51:46Z</time></trkpt><trkpt lat="43.23993261593299" lon="12.149139432775767"><ele>476.0</ele><time>2026-05-02T16:51:47Z</time></trkpt><trkpt lat="43.239843187494344" lon="12.149284785398294"><ele>476.0</ele><time>2026-05-02T16:51:49Z</time></trkpt><trkpt lat="43.239797480445745" lon="12.149380343626653"><ele>479.4</ele><time>2026-05-02T16:51:50Z</time></trkpt><trkpt lat="43.2397451801398" lon="12.149485569323042"><ele>482.8</ele><time>2026-05-02T16:51:52Z</time></trkpt><trkpt lat="43.23966850747883" lon="12.14957897767008"><ele>486.19999999999993</ele><time>2026-05-02T16:51:54Z</time></trkpt><trkpt lat="43.23957290958346" lon="12.149664776143476"><ele>489.59999999999997</ele><time>2026-05-02T16:51:56Z</time></trkpt><trkpt lat="43.23947991235392" lon="12.149729822313667"><ele>493.0</ele><time>2026-05-02T16:51:58Z</time></trkpt><trkpt lat="43.23939103602087" lon="12.149785858826926"><ele>493.00000000000006</ele><time>2026-05-02T16:52:00Z</time></trkpt><trkpt lat="43.23931631477896" lon="12.149805315541274"><ele>493.0</ele><time>2026-05-02T16:52:01Z</time></trkpt><trkpt lat="43.239217314112594" lon="12.149808795515767"><ele>493.0</ele><time>2026-05-02T16:52:03Z</time></trkpt><trkpt lat="43.23913707352676" lon="12.149884919159154"><ele>493.0</ele><time>2026-05-02T16:52:06Z</time></trkpt><trkpt lat="43.23911804292597" lon="12.149974864559583"><ele>493.00000000000006</ele><time>2026-05-02T16:52:08Z</time></trkpt><trkpt lat="43.239038598728314" lon="12.15004427369085"><ele>493.0</ele><time>2026-05-02T16:52:11Z</time></trkpt><trkpt lat="43.238990265523036" lon="12.150138551835068"><ele>496.83333333333337</ele><time>2026-05-02T16:52:13Z</time></trkpt><trkpt lat="43.238905686388705" lon="12.150217041565917"><ele>500.6666666666667</ele><time>2026-05-02T16:52:15Z</time></trkpt><trkpt lat="43.238849902266814" lon="12.150278542257757"><ele>504.5</ele><time>2026-05-02T16:52:17Z</time></trkpt><trkpt lat="43.238770996387714" lon="12.15029956691109"><ele>508.33333333333337</ele><time>2026-05-02T16:52:19Z</time></trkpt><trkpt lat="43.238680910904215" lon="12.150322350217001"><ele>512.1666666666666</ele><time>2026-05-02T16:52:21Z</time></trkpt><trkpt lat="43.23858813916014" lon="12.150341869288127"><ele>516.0</ele><time>2026-05-02T16:52:23Z</time></trkpt><trkpt lat="43.238498387065306" lon="12.150333963585283"><ele>516.0</ele><time>2026-05-02T16:52:25Z</time></trkpt><trkpt lat="43.23843511860946" lon="12.150356084953522"><ele>516.0</ele><time>2026-05-02T16:52:27Z</time></trkpt><trkpt lat="43.238344151756074" lon="12.150394224190176"><ele>516.0</ele><time>2026-05-02T16:52:29Z</time></trkpt><trkpt lat="43.2382608233394" lon="12.150398450146415"><ele>516.0</ele><time>2026-05-02T16:52:31Z</time></trkpt><trkpt lat="43.238184764337646" lon="12.15043293153892"><ele>516.0</ele><time>2026-05-02T16:52:33Z</time></trkpt><trkpt lat="43.23806987023238" lon="12.150433852346817"><ele>516.0</ele><time>2026-05-02T16:52:35Z</time></trkpt><trkpt lat="43.23796578283716" lon="12.150435773127285"><ele>519.4</ele><time>2026-05-02T16:52:37Z</time></trkpt><trkpt lat="43.23785411672606" lon="12.150435088370935"><ele>522.8</ele><time>2026-05-02T16:52:39Z</time></trkpt><trkpt lat="43.23777429770357" lon="12.150408497178502"><ele>526.1999999999999</ele><time>2026-05-02T16:52:41Z</time></trkpt><trkpt lat="43.237670555164165" lon="12.150367037732952"><ele>529.6</ele><time>2026-05-02T16:52:42.999Z</time></trkpt><trkpt lat="43.23756427055778" lon="12.150352559393173"><ele>533.0</ele><time>2026-05-02T16:52:44.999Z</time></trkpt><trkpt lat="43.23749146849775" lon="12.150384991838589"><ele>533.0</ele><time>2026-05-02T16:52:46.999Z</time></trkpt><trkpt lat="43.23739685129826" lon="12.150397421553572"><ele>533.0</ele><time>2026-05-02T16:52:48.999Z</time></trkpt><trkpt lat="43.237322542408265" lon="12.15038205497802"><ele>533.0</ele><time>2026-05-02T16:52:50.999Z</time></trkpt><trkpt lat="43.23724017065725" lon="12.150433833050078"><ele>533.0</ele><time>2026-05-02T16:52:52.999Z</time></trkpt><trkpt lat="43.2371385993649" lon="12.150424169011707"><ele>533.0</ele><time>2026-05-02T16:52:55.999Z</time></trkpt><trkpt lat="43.237064782925835" lon="12.15049244392175"><ele>537.1666666666666</ele><time>2026-05-02T16:52:57.999Z</time></trkpt><trkpt lat="43.23698874553226" lon="12.15050132688402"><ele>541.3333333333333</ele><time>2026-05-02T16:52:59.999Z</time></trkpt><trkpt lat="43.236916584198376" lon="12.150546055567373"><ele>545.5</ele><time>2026-05-02T16:53:03.999Z</time></trkpt><trkpt lat="43.236828778490484" lon="12.150546735736677"><ele>549.6666666666666</ele><time>2026-05-02T16:53:05.999Z</time></trkpt><trkpt lat="43.236753926432655" lon="12.150520451027488"><ele>553.8333333333334</ele><time>2026-05-02T16:53:07.999Z</time></trkpt><trkpt lat="43.23665203572437" lon="12.150507401416633"><ele>558.0</ele><time>2026-05-02T16:53:09.999Z</time></trkpt><trkpt lat="43.23655683518597" lon="12.150433825517363"><ele>562.8</ele><time>2026-05-02T16:53:11.999Z</time></trkpt><trkpt lat="43.23643820879114" lon="12.150397093526301"><ele>567.5999999999999</ele><time>2026-05-02T16:53:13.999Z</time></trkpt><trkpt lat="43.23637398288029" lon="12.150385841310367"><ele>572.4000000000001</ele><time>2026-05-02T16:53:14.999Z</time></trkpt><trkpt lat="43.23625811186727" lon="12.150382937020586"><ele>577.2</ele><time>2026-05-02T16:53:16.999Z</time></trkpt><trkpt lat="43.23614975230716" lon="12.150389383978117"><ele>582.0</ele><time>2026-05-02T16:53:19Z</time></trkpt><trkpt lat="43.23606768632982" lon="12.15044817184748"><ele>582.0</ele><time>2026-05-02T16:53:21Z</time></trkpt><trkpt lat="43.23597377980642" lon="12.150469850686306"><ele>582.0</ele><time>2026-05-02T16:53:23Z</time></trkpt><trkpt lat="43.23587380933127" lon="12.150398409702143"><ele>582.0</ele><time>2026-05-02T16:53:25Z</time></trkpt><trkpt lat="43.235816651846406" lon="12.150346860331226"><ele>582.0</ele><time>2026-05-02T16:53:26Z</time></trkpt><trkpt lat="43.23571114113082" lon="12.15031080313803"><ele>582.0</ele><time>2026-05-02T16:53:28Z</time></trkpt><trkpt lat="43.23564866472168" lon="12.150325586461864"><ele>582.0</ele><time>2026-05-02T16:53:29Z</time></trkpt><trkpt lat="43.23554025608239" lon="12.150308115181254"><ele>586.8000000000001</ele><time>2026-05-02T16:53:31Z</time></trkpt><trkpt lat="43.23548943767951" lon="12.150212385339886"><ele>591.6</ele><time>2026-05-02T16:53:33Z</time></trkpt><trkpt lat="43.235431526925794" lon="12.150095778961372"><ele>596.4000000000001</ele><time>2026-05-02T16:53:35Z</time></trkpt><trkpt lat="43.235369068568396" lon="12.149988101662728"><ele>601.2</ele><time>2026-05-02T16:53:37Z</time></trkpt><trkpt lat="43.2352628147593" lon="12.14999337632786"><ele>606.0</ele><time>2026-05-02T16:53:39Z</time></trkpt><trkpt lat="43.235143490970806" lon="12.149921366265474"><ele>606.0</ele><time>2026-05-02T16:53:41Z</time></trkpt><trkpt lat="43.23508518022564" lon="12.149877079432787"><ele>606.0</ele><time>2026-05-02T16:53:42Z</time></trkpt><trkpt lat="43.235017547167" lon="12.149805502670366"><ele>606.0</ele><time>2026-05-02T16:53:43Z</time></trkpt><trkpt lat="43.234969967455974" lon="12.149748451338139"><ele>606.0</ele><time>2026-05-02T16:53:44Z</time></trkpt><trkpt lat="43.234894319736505" lon="12.149695903963678"><ele>606.0</ele><time>2026-05-02T16:53:46Z</time></trkpt><trkpt lat="43.23482730953509" lon="12.149682068626948"><ele>606.0</ele><time>2026-05-02T16:53:47Z</time></trkpt><trkpt lat="43.2347462313449" lon="12.149670722794081"><ele>606.0</ele><time>2026-05-02T16:53:48Z</time></trkpt><trkpt lat="43.23468331943371" lon="12.149663626566852"><ele>606.8</ele><time>2026-05-02T16:53:49Z</time></trkpt><trkpt lat="43.23461469309269" lon="12.14965322416541"><ele>607.6</ele><time>2026-05-02T16:53:50Z</time></trkpt><trkpt lat="43.23447131156412" lon="12.149606005434372"><ele>608.4</ele><time>2026-05-02T16:53:52Z</time></trkpt><trkpt lat="43.23439164182974" lon="12.149576010668659"><ele>609.2</ele><time>2026-05-02T16:53:53Z</time></trkpt><trkpt lat="43.23432840468409" lon="12.14955645525894"><ele>610.0</ele><time>2026-05-02T16:53:54Z</time></trkpt><trkpt lat="43.23422573343175" lon="12.149556059470413"><ele>610.0</ele><time>2026-05-02T16:53:56Z</time></trkpt><trkpt lat="43.23416435125545" lon="12.149587494536185"><ele>610.0</ele><time>2026-05-02T16:53:57Z</time></trkpt><trkpt lat="43.234087265305874" lon="12.149613446293184"><ele>610.0</ele><time>2026-05-02T16:53:58Z</time></trkpt><trkpt lat="43.234020218595816" lon="12.149618589193295"><ele>610.0</ele><time>2026-05-02T16:53:59Z</time></trkpt><trkpt lat="43.23394681869856" lon="12.149611772982356"><ele>610.0</ele><time>2026-05-02T16:54:00Z</time></trkpt><trkpt lat="43.23383325132288" lon="12.149654404587052"><ele>610.0</ele><time>2026-05-02T16:54:02Z</time></trkpt><trkpt lat="43.23374736181726" lon="12.149594430844449"><ele>612.1666666666667</ele><time>2026-05-02T16:54:03Z</time></trkpt><trkpt lat="43.233663390387974" lon="12.149654182409543"><ele>614.3333333333334</ele><time>2026-05-02T16:54:05Z</time></trkpt><trkpt lat="43.23360089550362" lon="12.149684398464254"><ele>616.5</ele><time>2026-05-02T16:54:06Z</time></trkpt><trkpt lat="43.233510791019555" lon="12.149660341261061"><ele>618.6666666666666</ele><time>2026-05-02T16:54:08Z</time></trkpt><trkpt lat="43.2334460588837" lon="12.14962211545599"><ele>620.8333333333333</ele><time>2026-05-02T16:54:09Z</time></trkpt><trkpt lat="43.23338145905573" lon="12.149595657476073"><ele>623.0</ele><time>2026-05-02T16:54:10Z</time></trkpt><trkpt lat="43.23331728624152" lon="12.149615427279919"><ele>623.0</ele><time>2026-05-02T16:54:11Z</time></trkpt><trkpt lat="43.23327860838756" lon="12.149706660103261"><ele>623.0</ele><time>2026-05-02T16:54:12Z</time></trkpt><trkpt lat="43.23321579657744" lon="12.14981710325897"><ele>623.0</ele><time>2026-05-02T16:54:14Z</time></trkpt><trkpt lat="43.233133903999885" lon="12.149866495795688"><ele>623.0</ele><time>2026-05-02T16:54:16Z</time></trkpt><trkpt lat="43.2330427053109" lon="12.149839427396328"><ele>623.0</ele><time>2026-05-02T16:54:18Z</time></trkpt><trkpt lat="43.23296481390308" lon="12.149787224070826"><ele>623.0</ele><time>2026-05-02T16:54:43.999Z</time></trkpt><trkpt lat="43.232891609098694" lon="12.149838964625072"><ele>627.0</ele><time>2026-05-02T16:54:45.999Z</time></trkpt><trkpt lat="43.23282310527821" lon="12.14996180352649"><ele>631.0</ele><time>2026-05-02T16:54:47.999Z</time></trkpt><trkpt lat="43.232760729434546" lon="12.149858969670342"><ele>635.0</ele><time>2026-05-02T16:54:49.999Z</time></trkpt><trkpt lat="43.23264177658982" lon="12.149766497589878"><ele>639.0</ele><time>2026-05-02T16:54:51.999Z</time></trkpt><trkpt lat="43.232578797569325" lon="12.149664245225615"><ele>643.0</ele><time>2026-05-02T16:54:52.999Z</time></trkpt><trkpt lat="43.23250398034803" lon="12.149617801333271"><ele>643.0</ele><time>2026-05-02T16:54:53.999Z</time></trkpt><trkpt lat="43.2324491745158" lon="12.149555139791804"><ele>643.0</ele><time>2026-05-02T16:54:54.999Z</time></trkpt><trkpt lat="43.232372067423334" lon="12.14949259294554"><ele>643.0</ele><time>2026-05-02T16:54:55.999Z</time></trkpt><trkpt lat="43.23227594389848" lon="12.14942299253484"><ele>643.0</ele><time>2026-05-02T16:54:56.999Z</time></trkpt><trkpt lat="43.23219447960233" lon="12.149399011998153"><ele>643.0</ele><time>2026-05-02T16:54:57.999Z</time></trkpt><trkpt lat="43.23211657215742" lon="12.149423399096444"><ele>643.0</ele><time>2026-05-02T16:54:59.999Z</time></trkpt><trkpt lat="43.23206313938778" lon="12.149510321638713"><ele>646.3333333333334</ele><time>2026-05-02T16:55:01.999Z</time></trkpt><trkpt lat="43.23208529505571" lon="12.14962504172092"><ele>649.6666666666667</ele><time>2026-05-02T16:55:02.999Z</time></trkpt><trkpt lat="43.232112025638536" lon="12.149709111602856"><ele>653.0</ele><time>2026-05-02T16:55:03.999Z</time></trkpt><trkpt lat="43.23214378642572" lon="12.14980674661032"><ele>656.3333333333334</ele><time>2026-05-02T16:55:04.999Z</time></trkpt><trkpt lat="43.23216415691734" lon="12.149901284870523"><ele>659.6666666666666</ele><time>2026-05-02T16:55:05.999Z</time></trkpt><trkpt lat="43.2321393083356" lon="12.150062166928256"><ele>663.0</ele><time>2026-05-02T16:55:07.999Z</time></trkpt><trkpt lat="43.23209655980536" lon="12.1501505170401"><ele>665.0</ele><time>2026-05-02T16:55:08.999Z</time></trkpt><trkpt lat="43.23205372041245" lon="12.150229303891194"><ele>667.0</ele><time>2026-05-02T16:55:09.999Z</time></trkpt><trkpt lat="43.232010520510386" lon="12.150321563522967"><ele>669.0</ele><time>2026-05-02T16:55:10.999Z</time></trkpt><trkpt lat="43.23194293212275" lon="12.150408881853146"><ele>671.0</ele><time>2026-05-02T16:55:11.999Z</time></trkpt><trkpt lat="43.23187571332579" lon="12.150488567178769"><ele>673.0</ele><time>2026-05-02T16:55:12.999Z</time></trkpt><trkpt lat="43.2318213125613" lon="12.150559790960102"><ele>675.0</ele><time>2026-05-02T16:55:13.999Z</time></trkpt><trkpt lat="43.231772353710625" lon="12.150643934740192"><ele>675.1666666666666</ele><time>2026-05-02T16:55:14.999Z</time></trkpt><trkpt lat="43.23172998995452" lon="12.150739552826165"><ele>675.3333333333334</ele><time>2026-05-02T16:55:15.999Z</time></trkpt><trkpt lat="43.231687646546746" lon="12.150845967473543"><ele>675.5</ele><time>2026-05-02T16:55:16.999Z</time></trkpt><trkpt lat="43.23162549839781" lon="12.150926064958082"><ele>675.6666666666667</ele><time>2026-05-02T16:55:17.999Z</time></trkpt><trkpt lat="43.23157139621708" lon="12.151022051477508"><ele>675.8333333333334</ele><time>2026-05-02T16:55:18.999Z</time></trkpt><trkpt lat="43.23151759761419" lon="12.151106350126183"><ele>676.0</ele><time>2026-05-02T16:55:19.999Z</time></trkpt><trkpt lat="43.231456082629315" lon="12.151184089753578"><ele>678.5999999999999</ele><time>2026-05-02T16:55:20.999Z</time></trkpt><trkpt lat="43.23137851813901" lon="12.151259460841791"><ele>681.2</ele><time>2026-05-02T16:55:21.999Z</time></trkpt><trkpt lat="43.231295095849724" lon="12.151329658200696"><ele>683.8</ele><time>2026-05-02T16:55:22.999Z</time></trkpt><trkpt lat="43.23120679244561" lon="12.151396280712333"><ele>686.4000000000001</ele><time>2026-05-02T16:55:23.999Z</time></trkpt><trkpt lat="43.231121087402315" lon="12.151476202464085"><ele>689.0</ele><time>2026-05-02T16:55:25Z</time></trkpt><trkpt lat="43.23103355584954" lon="12.151525721483996"><ele>685.6</ele><time>2026-05-02T16:55:26Z</time></trkpt><trkpt lat="43.23093689977366" lon="12.151586849134503"><ele>682.2</ele><time>2026-05-02T16:55:27Z</time></trkpt><trkpt lat="43.23084369839707" lon="12.151651191528746"><ele>678.8000000000001</ele><time>2026-05-02T16:55:28Z</time></trkpt><trkpt lat="43.230759224641766" lon="12.15171475702911"><ele>675.4000000000001</ele><time>2026-05-02T16:55:29Z</time></trkpt><trkpt lat="43.23069532765088" lon="12.15176514743875"><ele>672.0</ele><time>2026-05-02T16:55:30Z</time></trkpt><trkpt lat="43.23061964992143" lon="12.151802078554919"><ele>673.2</ele><time>2026-05-02T16:55:32Z</time></trkpt><trkpt lat="43.23061730379787" lon="12.151703235979799"><ele>674.4000000000001</ele><time>2026-05-02T16:55:36Z</time></trkpt><trkpt lat="43.23057346199493" lon="12.151536199061278"><ele>675.5999999999999</ele><time>2026-05-02T16:55:38Z</time></trkpt><trkpt lat="43.23055888335103" lon="12.151431014253184"><ele>676.8</ele><time>2026-05-02T16:55:39Z</time></trkpt><trkpt lat="43.23055591930774" lon="12.151270919308951"><ele>678.0</ele><time>2026-05-02T16:55:41Z</time></trkpt><trkpt lat="43.23061655858009" lon="12.151210144339146"><ele>679.8333333333334</ele><time>2026-05-02T16:55:42Z</time></trkpt><trkpt lat="43.23068542719508" lon="12.151146498588838"><ele>681.6666666666666</ele><time>2026-05-02T16:55:44Z</time></trkpt><trkpt lat="43.23075651309081" lon="12.151135866791842"><ele>683.5</ele><time>2026-05-02T16:55:45Z</time></trkpt><trkpt lat="43.23084664703622" lon="12.151120196546003"><ele>685.3333333333333</ele><time>2026-05-02T16:55:46Z</time></trkpt><trkpt lat="43.23092885873664" lon="12.151093777528688"><ele>687.1666666666666</ele><time>2026-05-02T16:55:47Z</time></trkpt><trkpt lat="43.231012380804174" lon="12.151056835850692"><ele>689.0</ele><time>2026-05-02T16:55:48Z</time></trkpt><trkpt lat="43.23109290670331" lon="12.150991054900835"><ele>689.0</ele><time>2026-05-02T16:55:49Z</time></trkpt><trkpt lat="43.23113770673251" lon="12.150904653935761"><ele>689.0</ele><time>2026-05-02T16:55:50Z</time></trkpt><trkpt lat="43.231198286997596" lon="12.150746929680608"><ele>689.0</ele><time>2026-05-02T16:55:52Z</time></trkpt><trkpt lat="43.23118433322575" lon="12.150636464529581"><ele>689.0</ele><time>2026-05-02T16:55:53Z</time></trkpt><trkpt lat="43.231125223075296" lon="12.150445874216993"><ele>689.0</ele><time>2026-05-02T16:55:55Z</time></trkpt><trkpt lat="43.23107007156906" lon="12.150335841290676"><ele>688.4000000000001</ele><time>2026-05-02T16:55:56Z</time></trkpt><trkpt lat="43.23099407730956" lon="12.150221994471448"><ele>687.8</ele><time>2026-05-02T16:55:57Z</time></trkpt><trkpt lat="43.23093922506285" lon="12.150145333841724"><ele>687.2</ele><time>2026-05-02T16:55:58Z</time></trkpt><trkpt lat="43.23089289477791" lon="12.150084465052247"><ele>686.5999999999999</ele><time>2026-05-02T16:55:59Z</time></trkpt><trkpt lat="43.23083778939502" lon="12.149960759044891"><ele>686.0</ele><time>2026-05-02T16:56:01Z</time></trkpt><trkpt lat="43.23079079960954" lon="12.149823207555908"><ele>686.0</ele><time>2026-05-02T16:56:03Z</time></trkpt><trkpt lat="43.23073266379215" lon="12.14967421476116"><ele>686.0</ele><time>2026-05-02T16:56:05Z</time></trkpt><trkpt lat="43.23071351622908" lon="12.149591204906812"><ele>686.0</ele><time>2026-05-02T16:56:06Z</time></trkpt><trkpt lat="43.23066323156907" lon="12.14953844635059"><ele>686.0</ele><time>2026-05-02T16:56:07Z</time></trkpt><trkpt lat="43.23059327527908" lon="12.149421871946142"><ele>686.0</ele><time>2026-05-02T16:56:09Z</time></trkpt><trkpt lat="43.23054570264326" lon="12.149294973780416"><ele>687.0</ele><time>2026-05-02T16:56:11Z</time></trkpt><trkpt lat="43.23047605550193" lon="12.14918656641815"><ele>688.0</ele><time>2026-05-02T16:56:13Z</time></trkpt><trkpt lat="43.23044729035424" lon="12.149064651235419"><ele>689.0</ele><time>2026-05-02T16:56:14Z</time></trkpt><trkpt lat="43.23040036744088" lon="12.148930786323733"><ele>690.0</ele><time>2026-05-02T16:56:15Z</time></trkpt><trkpt lat="43.23036180202027" lon="12.148820765752198"><ele>691.0</ele><time>2026-05-02T16:56:16Z</time></trkpt><trkpt lat="43.23032278453693" lon="12.148716852924714"><ele>691.0</ele><time>2026-05-02T16:56:17Z</time></trkpt><trkpt lat="43.23026114366052" lon="12.148613842997703"><ele>691.0</ele><time>2026-05-02T16:56:18Z</time></trkpt><trkpt lat="43.230211516458844" lon="12.14850032333595"><ele>691.0</ele><time>2026-05-02T16:56:19Z</time></trkpt><trkpt lat="43.230161103164136" lon="12.148373932788317"><ele>691.0</ele><time>2026-05-02T16:56:20Z</time></trkpt><trkpt lat="43.23011433945256" lon="12.148246582820489"><ele>691.0</ele><time>2026-05-02T16:56:21Z</time></trkpt><trkpt lat="43.230061963182315" lon="12.14809947030378"><ele>691.8</ele><time>2026-05-02T16:56:22Z</time></trkpt><trkpt lat="43.23001061825725" lon="12.14797336893885"><ele>692.5999999999999</ele><time>2026-05-02T16:56:23Z</time></trkpt><trkpt lat="43.22995907718204" lon="12.147857448281924"><ele>693.4</ele><time>2026-05-02T16:56:24Z</time></trkpt><trkpt lat="43.22991927400867" lon="12.147753546947957"><ele>694.2</ele><time>2026-05-02T16:56:25Z</time></trkpt><trkpt lat="43.22989094308691" lon="12.147634197209316"><ele>695.0</ele><time>2026-05-02T16:56:26Z</time></trkpt><trkpt lat="43.229862589796" lon="12.147537902947077"><ele>695.0</ele><time>2026-05-02T16:56:27Z</time></trkpt><trkpt lat="43.229831197941714" lon="12.147454725456946"><ele>695.0</ele><time>2026-05-02T16:56:28Z</time></trkpt><trkpt lat="43.22979702892487" lon="12.147271970842997"><ele>695.0</ele><time>2026-05-02T16:56:30Z</time></trkpt><trkpt lat="43.2297765170329" lon="12.147157666425132"><ele>695.0</ele><time>2026-05-02T16:56:31Z</time></trkpt><trkpt lat="43.229745815577274" lon="12.147015270452806"><ele>695.0</ele><time>2026-05-02T16:56:33Z</time></trkpt><trkpt lat="43.229723296656616" lon="12.146925938145527"><ele>695.1666666666666</ele><time>2026-05-02T16:56:34Z</time></trkpt><trkpt lat="43.22972220068317" lon="12.146809010970953"><ele>695.3333333333333</ele><time>2026-05-02T16:56:35Z</time></trkpt><trkpt lat="43.22972047416031" lon="12.146721166715118"><ele>695.5</ele><time>2026-05-02T16:56:36Z</time></trkpt><trkpt lat="43.22966945323908" lon="12.146571030483551"><ele>695.6666666666666</ele><time>2026-05-02T16:56:38Z</time></trkpt><trkpt lat="43.22963406966891" lon="12.146473481749183"><ele>695.8333333333334</ele><time>2026-05-02T16:56:39Z</time></trkpt><trkpt lat="43.22961081513282" lon="12.146364299384677"><ele>696.0</ele><time>2026-05-02T16:56:40Z</time></trkpt><trkpt lat="43.22959371670704" lon="12.146257306517015"><ele>696.0</ele><time>2026-05-02T16:56:41Z</time></trkpt><trkpt lat="43.22959917626511" lon="12.146165495998815"><ele>696.0</ele><time>2026-05-02T16:56:42Z</time></trkpt><trkpt lat="43.229578194316055" lon="12.145994152295245"><ele>696.0</ele><time>2026-05-02T16:56:44Z</time></trkpt><trkpt lat="43.2295863869556" lon="12.145809310539276"><ele>696.0</ele><time>2026-05-02T16:56:46Z</time></trkpt><trkpt lat="43.22958410314739" lon="12.14570841961356"><ele>696.0</ele><time>2026-05-02T16:56:46.999Z</time></trkpt><trkpt lat="43.22956832710804" lon="12.145579430907468"><ele>695.6666666666666</ele><time>2026-05-02T16:56:47.999Z</time></trkpt><trkpt lat="43.22956207602525" lon="12.145475599308288"><ele>695.3333333333334</ele><time>2026-05-02T16:56:48.999Z</time></trkpt><trkpt lat="43.22957043576423" lon="12.145367624283109"><ele>695.0</ele><time>2026-05-02T16:56:49.999Z</time></trkpt><trkpt lat="43.229561533826036" lon="12.145251058191"><ele>694.6666666666667</ele><time>2026-05-02T16:56:50.999Z</time></trkpt><trkpt lat="43.22954254972112" lon="12.145143877268332"><ele>694.3333333333334</ele><time>2026-05-02T16:56:51.999Z</time></trkpt><trkpt lat="43.229541250118686" lon="12.145053027968483"><ele>694.0</ele><time>2026-05-02T16:56:52.999Z</time></trkpt><trkpt lat="43.22951111134232" lon="12.144899496119711"><ele>691.6</ele><time>2026-05-02T16:56:54.999Z</time></trkpt><trkpt lat="43.22948332056469" lon="12.144776374713304"><ele>689.2</ele><time>2026-05-02T16:56:56.999Z</time></trkpt><trkpt lat="43.229534497946595" lon="12.144642339553439"><ele>686.8000000000001</ele><time>2026-05-02T16:56:58.999Z</time></trkpt><trkpt lat="43.22954823690324" lon="12.144517715492698"><ele>684.4000000000001</ele><time>2026-05-02T16:57:00.999Z</time></trkpt><trkpt lat="43.22956785219161" lon="12.144417878005605"><ele>682.0</ele><time>2026-05-02T16:57:02.999Z</time></trkpt><trkpt lat="43.229583241347804" lon="12.144284629217715"><ele>682.0</ele><time>2026-05-02T16:57:04.999Z</time></trkpt><trkpt lat="43.229586867129846" lon="12.144187499194134"><ele>682.0</ele><time>2026-05-02T16:57:07.999Z</time></trkpt><trkpt lat="43.22957343347907" lon="12.14409132590798"><ele>682.0</ele><time>2026-05-02T16:57:10.999Z</time></trkpt><trkpt lat="43.229520269507624" lon="12.144021639597753"><ele>682.0</ele><time>2026-05-02T16:57:12.999Z</time></trkpt><trkpt lat="43.22949636003005" lon="12.143926558024457"><ele>682.0</ele><time>2026-05-02T16:57:14.999Z</time></trkpt><trkpt lat="43.229498110986114" lon="12.143830570279569"><ele>682.0</ele><time>2026-05-02T16:57:16.999Z</time></trkpt><trkpt lat="43.22954635515613" lon="12.143745327559495"><ele>682.0</ele><time>2026-05-02T16:57:18.999Z</time></trkpt><trkpt lat="43.2295787216581" lon="12.14358797740377"><ele>681.0</ele><time>2026-05-02T16:57:20.999Z</time></trkpt><trkpt lat="43.22961573946623" lon="12.143501439284025"><ele>680.0</ele><time>2026-05-02T16:57:21.999Z</time></trkpt><trkpt lat="43.22964559982446" lon="12.143388343515237"><ele>679.0</ele><time>2026-05-02T16:57:22.999Z</time></trkpt><trkpt lat="43.2296721405501" lon="12.14329944449997"><ele>678.0</ele><time>2026-05-02T16:57:23.999Z</time></trkpt><trkpt lat="43.22973444777992" lon="12.1431676104595"><ele>677.0</ele><time>2026-05-02T16:57:25.999Z</time></trkpt><trkpt lat="43.22977522686547" lon="12.143089446849295"><ele>676.0</ele><time>2026-05-02T16:57:26.999Z</time></trkpt><trkpt lat="43.22982700940426" lon="12.142992532247645"><ele>676.0</ele><time>2026-05-02T16:57:27.999Z</time></trkpt><trkpt lat="43.229876090997216" lon="12.14289375439544"><ele>676.0</ele><time>2026-05-02T16:57:28.999Z</time></trkpt><trkpt lat="43.229903951552565" lon="12.14279479588752"><ele>676.0</ele><time>2026-05-02T16:57:29.999Z</time></trkpt><trkpt lat="43.22989792736861" lon="12.142682544226636"><ele>676.0</ele><time>2026-05-02T16:57:31Z</time></trkpt><trkpt lat="43.22992292898146" lon="12.142596644161939"><ele>676.0</ele><time>2026-05-02T16:57:32Z</time></trkpt><trkpt lat="43.22994908227282" lon="12.142455407002085"><ele>676.0</ele><time>2026-05-02T16:57:34Z</time></trkpt><trkpt lat="43.22998645458586" lon="12.142322480221152"><ele>677.1666666666667</ele><time>2026-05-02T16:57:36Z</time></trkpt><trkpt lat="43.23004912341182" lon="12.14219396040693"><ele>678.3333333333334</ele><time>2026-05-02T16:57:38Z</time></trkpt><trkpt lat="43.230089862559154" lon="12.142095975916503"><ele>679.5</ele><time>2026-05-02T16:57:40Z</time></trkpt><trkpt lat="43.2301401510392" lon="12.141948370621352"><ele>680.6666666666666</ele><time>2026-05-02T16:57:42Z</time></trkpt><trkpt lat="43.230159674931805" lon="12.141858707487533"><ele>681.8333333333333</ele><time>2026-05-02T16:57:43Z</time></trkpt><trkpt lat="43.230172675517295" lon="12.141770091905908"><ele>683.0</ele><time>2026-05-02T16:57:44Z</time></trkpt><trkpt lat="43.23019960499883" lon="12.141580551700974"><ele>684.8</ele><time>2026-05-02T16:57:46Z</time></trkpt><trkpt lat="43.230224125543955" lon="12.141419836188964"><ele>686.5999999999999</ele><time>2026-05-02T16:57:48Z</time></trkpt><trkpt lat="43.23024773599975" lon="12.141318223692101"><ele>688.4000000000001</ele><time>2026-05-02T16:57:49Z</time></trkpt><trkpt lat="43.230297179079855" lon="12.14120175332401"><ele>690.2</ele><time>2026-05-02T16:57:51Z</time></trkpt><trkpt lat="43.23030786992869" lon="12.14107239514124"><ele>692.0</ele><time>2026-05-02T16:57:53Z</time></trkpt><trkpt lat="43.23036826669646" lon="12.140957210314022"><ele>692.0</ele><time>2026-05-02T16:57:55Z</time></trkpt><trkpt lat="43.23039945941217" lon="12.140866030976177"><ele>692.0</ele><time>2026-05-02T16:57:57Z</time></trkpt><trkpt lat="43.230419338499786" lon="12.1407464273766"><ele>692.0</ele><time>2026-05-02T16:58:00Z</time></trkpt><trkpt lat="43.23042743254366" lon="12.140608022650023"><ele>692.0</ele><time>2026-05-02T16:58:02Z</time></trkpt><trkpt lat="43.23040644142628" lon="12.140488414910607"><ele>692.0</ele><time>2026-05-02T16:58:04Z</time></trkpt><trkpt lat="43.23038387568821" lon="12.140377126742585"><ele>692.0</ele><time>2026-05-02T16:58:06Z</time></trkpt><trkpt lat="43.2303471924933" lon="12.140264623916451"><ele>695.2</ele><time>2026-05-02T16:58:08Z</time></trkpt><trkpt lat="43.23029635211225" lon="12.140145394084175"><ele>698.4000000000001</ele><time>2026-05-02T16:58:10Z</time></trkpt><trkpt lat="43.230235516479816" lon="12.140022619583503"><ele>701.5999999999999</ele><time>2026-05-02T16:58:12Z</time></trkpt><trkpt lat="43.2301769461603" lon="12.139890221484173"><ele>704.8</ele><time>2026-05-02T16:58:14Z</time></trkpt><trkpt lat="43.23014098968953" lon="12.139802913863518"><ele>708.0</ele><time>2026-05-02T16:58:15Z</time></trkpt><trkpt lat="43.230094401035785" lon="12.139689381969358"><ele>708.0</ele><time>2026-05-02T16:58:16Z</time></trkpt><trkpt lat="43.23005136670952" lon="12.139586678852625"><ele>708.0</ele><time>2026-05-02T16:58:17Z</time></trkpt><trkpt lat="43.230014640148106" lon="12.13950181885997"><ele>708.0</ele><time>2026-05-02T16:58:18Z</time></trkpt><trkpt lat="43.22996888709842" lon="12.1394312329188"><ele>708.0</ele><time>2026-05-02T16:58:19Z</time></trkpt><trkpt lat="43.22989800689517" lon="12.139292591325768"><ele>708.0</ele><time>2026-05-02T16:58:21Z</time></trkpt><trkpt lat="43.22984784421999" lon="12.139215665575035"><ele>708.0</ele><time>2026-05-02T16:58:22Z</time></trkpt><trkpt lat="43.22978514027444" lon="12.139171116152506"><ele>708.4</ele><time>2026-05-02T16:58:23Z</time></trkpt><trkpt lat="43.229706106942395" lon="12.139102058236297"><ele>708.8</ele><time>2026-05-02T16:58:25Z</time></trkpt><trkpt lat="43.22965238783835" lon="12.13895142471886"><ele>709.2</ele><time>2026-05-02T16:58:27Z</time></trkpt><trkpt lat="43.22960932783244" lon="12.138859868091506"><ele>709.6</ele><time>2026-05-02T16:58:28Z</time></trkpt><trkpt lat="43.22957622346164" lon="12.138783765789482"><ele>710.0</ele><time>2026-05-02T16:58:29Z</time></trkpt><trkpt lat="43.22952541920848" lon="12.138635203043956"><ele>710.0</ele><time>2026-05-02T16:58:31Z</time></trkpt><trkpt lat="43.22948519228608" lon="12.138478804798345"><ele>710.0</ele><time>2026-05-02T16:58:33Z</time></trkpt><trkpt lat="43.22945413408535" lon="12.138326523700089"><ele>710.0</ele><time>2026-05-02T16:58:35Z</time></trkpt><trkpt lat="43.22944883653593" lon="12.138197069393366"><ele>710.0</ele><time>2026-05-02T16:58:37Z</time></trkpt><trkpt lat="43.2294550811727" lon="12.13803259496105"><ele>710.0</ele><time>2026-05-02T16:58:39Z</time></trkpt><trkpt lat="43.22947635935656" lon="12.137944174137367"><ele>710.0</ele><time>2026-05-02T16:58:40Z</time></trkpt><trkpt lat="43.22949096348279" lon="12.137851843659128"><ele>710.0</ele><time>2026-05-02T16:58:41Z</time></trkpt><trkpt lat="43.22952073546995" lon="12.137690827933644"><ele>710.0</ele><time>2026-05-02T16:58:43Z</time></trkpt><trkpt lat="43.22954161789216" lon="12.13759199847278"><ele>710.0</ele><time>2026-05-02T16:58:44Z</time></trkpt><trkpt lat="43.2295651632822" lon="12.137499288517693"><ele>710.0</ele><time>2026-05-02T16:58:45Z</time></trkpt><trkpt lat="43.22960634335921" lon="12.13734306103993"><ele>712.3333333333333</ele><time>2026-05-02T16:58:47Z</time></trkpt><trkpt lat="43.229618207644094" lon="12.137191240407837"><ele>714.6666666666666</ele><time>2026-05-02T16:58:49Z</time></trkpt><trkpt lat="43.229644464946794" lon="12.13709591980151"><ele>717.0</ele><time>2026-05-02T16:58:50Z</time></trkpt><trkpt lat="43.229649844162196" lon="12.137000054596895"><ele>719.3333333333334</ele><time>2026-05-02T16:58:51Z</time></trkpt><trkpt lat="43.22965887205476" lon="12.136864888059186"><ele>721.6666666666667</ele><time>2026-05-02T16:58:52.999Z</time></trkpt><trkpt lat="43.22966557739175" lon="12.136777618932555"><ele>724.0</ele><time>2026-05-02T16:58:53.999Z</time></trkpt><trkpt lat="43.229661226418216" lon="12.136680920492529"><ele>724.0</ele><time>2026-05-02T16:58:54.999Z</time></trkpt><trkpt lat="43.22968639050568" lon="12.136601171810511"><ele>724.0</ele><time>2026-05-02T16:58:55.999Z</time></trkpt><trkpt lat="43.22972374187663" lon="12.136514200078206"><ele>724.0</ele><time>2026-05-02T16:58:56.999Z</time></trkpt><trkpt lat="43.22976737973844" lon="12.13641343650156"><ele>724.0</ele><time>2026-05-02T16:58:57.999Z</time></trkpt><trkpt lat="43.229816141909396" lon="12.1363120584839"><ele>724.0</ele><time>2026-05-02T16:58:58.999Z</time></trkpt><trkpt lat="43.229875871049764" lon="12.136233604389764"><ele>724.0</ele><time>2026-05-02T16:58:59.999Z</time></trkpt><trkpt lat="43.22992475869314" lon="12.136143709728715"><ele>722.3333333333334</ele><time>2026-05-02T16:59:00.999Z</time></trkpt><trkpt lat="43.2299811806224" lon="12.13608115382949"><ele>720.6666666666667</ele><time>2026-05-02T16:59:01.999Z</time></trkpt><trkpt lat="43.23004470153991" lon="12.136043769497812"><ele>719.0</ele><time>2026-05-02T16:59:02.999Z</time></trkpt><trkpt lat="43.23013636524708" lon="12.135970268099484"><ele>717.3333333333334</ele><time>2026-05-02T16:59:04.999Z</time></trkpt><trkpt lat="43.23021394118496" lon="12.135928665863482"><ele>715.6666666666666</ele><time>2026-05-02T16:59:06.999Z</time></trkpt><trkpt lat="43.23030129919022" lon="12.135876301039751"><ele>714.0</ele><time>2026-05-02T16:59:08.999Z</time></trkpt><trkpt lat="43.23036831521998" lon="12.135858688840225"><ele>714.0</ele><time>2026-05-02T16:59:09.999Z</time></trkpt><trkpt lat="43.23043048165556" lon="12.135828847625241"><ele>714.0</ele><time>2026-05-02T16:59:10.999Z</time></trkpt><trkpt lat="43.23048886043284" lon="12.135790689493803"><ele>714.0</ele><time>2026-05-02T16:59:11.999Z</time></trkpt><trkpt lat="43.230548010466876" lon="12.135744089114235"><ele>714.0</ele><time>2026-05-02T16:59:12.999Z</time></trkpt><trkpt lat="43.23060974558372" lon="12.135708110910624"><ele>714.0</ele><time>2026-05-02T16:59:13.999Z</time></trkpt><trkpt lat="43.23067496913729" lon="12.135681240087887"><ele>714.0</ele><time>2026-05-02T16:59:14.999Z</time></trkpt><trkpt lat="43.23073994267098" lon="12.135662491058627"><ele>714.0</ele><time>2026-05-02T16:59:15.999Z</time></trkpt><trkpt lat="43.23080686686701" lon="12.135655241431255"><ele>715.0</ele><time>2026-05-02T16:59:16.999Z</time></trkpt><trkpt lat="43.23091470853562" lon="12.135578203055974"><ele>716.0</ele><time>2026-05-02T16:59:18.999Z</time></trkpt><trkpt lat="43.23098052132337" lon="12.135548669533286"><ele>717.0</ele><time>2026-05-02T16:59:19.999Z</time></trkpt><trkpt lat="43.231033901922906" lon="12.135467279183363"><ele>718.0</ele><time>2026-05-02T16:59:20.999Z</time></trkpt><trkpt lat="43.2310680731578" lon="12.135358582925695"><ele>719.0</ele><time>2026-05-02T16:59:21.999Z</time></trkpt><trkpt lat="43.23108463604863" lon="12.135256655338837"><ele>720.0</ele><time>2026-05-02T16:59:22.999Z</time></trkpt><trkpt lat="43.23109439659494" lon="12.13514962561884"><ele>720.0</ele><time>2026-05-02T16:59:23.999Z</time></trkpt><trkpt lat="43.231100336545055" lon="12.135035949638402"><ele>720.0</ele><time>2026-05-02T16:59:24.999Z</time></trkpt><trkpt lat="43.231103079531415" lon="12.134935689519356"><ele>720.0</ele><time>2026-05-02T16:59:25.999Z</time></trkpt><trkpt lat="43.23110387170374" lon="12.134825650270857"><ele>720.0</ele><time>2026-05-02T16:59:26.999Z</time></trkpt><trkpt lat="43.231102599242774" lon="12.134713447903637"><ele>720.0</ele><time>2026-05-02T16:59:27.999Z</time></trkpt><trkpt lat="43.231099292421334" lon="12.134592846623674"><ele>720.0</ele><time>2026-05-02T16:59:28.999Z</time></trkpt><trkpt lat="43.231096424361226" lon="12.134479411369107"><ele>720.8333333333334</ele><time>2026-05-02T16:59:29.999Z</time></trkpt><trkpt lat="43.23108976001233" lon="12.134362964718301"><ele>721.6666666666666</ele><time>2026-05-02T16:59:30.999Z</time></trkpt><trkpt lat="43.23108927697337" lon="12.134270682760842"><ele>722.5</ele><time>2026-05-02T16:59:31.999Z</time></trkpt><trkpt lat="43.23106323717806" lon="12.134172233556152"><ele>723.3333333333333</ele><time>2026-05-02T16:59:32.999Z</time></trkpt><trkpt lat="43.231052440555246" lon="12.13406993218009"><ele>724.1666666666666</ele><time>2026-05-02T16:59:33.999Z</time></trkpt><trkpt lat="43.23103837609871" lon="12.133950599733495"><ele>725.0</ele><time>2026-05-02T16:59:34.999Z</time></trkpt><trkpt lat="43.23102504955674" lon="12.133855771187955"><ele>725.0</ele><time>2026-05-02T16:59:35.999Z</time></trkpt><trkpt lat="43.23100424074393" lon="12.133692201324104"><ele>725.0</ele><time>2026-05-02T16:59:38Z</time></trkpt><trkpt lat="43.23100039749963" lon="12.133543905328647"><ele>725.0</ele><time>2026-05-02T16:59:39Z</time></trkpt><trkpt lat="43.23098896537832" lon="12.133424972692255"><ele>725.0</ele><time>2026-05-02T16:59:40Z</time></trkpt><trkpt lat="43.230979771357305" lon="12.133315147954931"><ele>725.0</ele><time>2026-05-02T16:59:41Z</time></trkpt><trkpt lat="43.23097352210337" lon="12.13320842138623"><ele>724.8</ele><time>2026-05-02T16:59:42Z</time></trkpt><trkpt lat="43.23097832562982" lon="12.133034878945118"><ele>724.6</ele><time>2026-05-02T16:59:44Z</time></trkpt><trkpt lat="43.23098074331232" lon="12.132929634706946"><ele>724.4000000000001</ele><time>2026-05-02T16:59:45Z</time></trkpt><trkpt lat="43.231023911543026" lon="12.132817211134016"><ele>724.2</ele><time>2026-05-02T16:59:46Z</time></trkpt><trkpt lat="43.23105783361462" lon="12.132717877872075"><ele>724.0</ele><time>2026-05-02T16:59:47Z</time></trkpt><trkpt lat="43.231110815427826" lon="12.13257587853148"><ele>724.0</ele><time>2026-05-02T16:59:49Z</time></trkpt><trkpt lat="43.23116204687821" lon="12.132440305412258"><ele>724.0</ele><time>2026-05-02T16:59:51Z</time></trkpt><trkpt lat="43.23118385326674" lon="12.132349320282774"><ele>724.0</ele><time>2026-05-02T16:59:52Z</time></trkpt><trkpt lat="43.231218972160875" lon="12.13227030340038"><ele>724.0</ele><time>2026-05-02T16:59:53Z</time></trkpt><trkpt lat="43.231247551292206" lon="12.13218892666757"><ele>724.0</ele><time>2026-05-02T16:59:54Z</time></trkpt><trkpt lat="43.23125522864227" lon="12.132092075033283"><ele>724.0</ele><time>2026-05-02T16:59:55Z</time></trkpt><trkpt lat="43.23124419261573" lon="12.1319900263059"><ele>723.3333333333334</ele><time>2026-05-02T16:59:56Z</time></trkpt><trkpt lat="43.23122323096825" lon="12.131883932851286"><ele>722.6666666666667</ele><time>2026-05-02T16:59:57Z</time></trkpt><trkpt lat="43.23120175790971" lon="12.131780606593148"><ele>722.0</ele><time>2026-05-02T16:59:58Z</time></trkpt><trkpt lat="43.23117915436341" lon="12.131675004100916"><ele>721.3333333333334</ele><time>2026-05-02T16:59:59Z</time></trkpt><trkpt lat="43.231154170421696" lon="12.131566440769914"><ele>720.6666666666666</ele><time>2026-05-02T17:00:00Z</time></trkpt><trkpt lat="43.23112720746267" lon="12.13144927773227"><ele>720.0</ele><time>2026-05-02T17:00:01Z</time></trkpt><trkpt lat="43.23110239875437" lon="12.131341475590594"><ele>721.3333333333334</ele><time>2026-05-02T17:00:02Z</time></trkpt><trkpt lat="43.2310749308581" lon="12.13123777210579"><ele>722.6666666666666</ele><time>2026-05-02T17:00:03Z</time></trkpt><trkpt lat="43.23103633387026" lon="12.131136886416755"><ele>724.0</ele><time>2026-05-02T17:00:04Z</time></trkpt><trkpt lat="43.23098504389378" lon="12.131030858566781"><ele>725.3333333333333</ele><time>2026-05-02T17:00:05Z</time></trkpt><trkpt lat="43.230936157135844" lon="12.130931069074892"><ele>726.6666666666666</ele><time>2026-05-02T17:00:06Z</time></trkpt><trkpt lat="43.23088996303037" lon="12.1308258923686"><ele>728.0</ele><time>2026-05-02T17:00:07Z</time></trkpt><trkpt lat="43.23085390824785" lon="12.130719939783356"><ele>728.0</ele><time>2026-05-02T17:00:08Z</time></trkpt><trkpt lat="43.2308282887565" lon="12.130614928024452"><ele>728.0</ele><time>2026-05-02T17:00:09Z</time></trkpt><trkpt lat="43.23080602870068" lon="12.13052611133275"><ele>728.0</ele><time>2026-05-02T17:00:10Z</time></trkpt><trkpt lat="43.230779643280215" lon="12.130351891452003"><ele>728.0</ele><time>2026-05-02T17:00:12Z</time></trkpt><trkpt lat="43.23078410982777" lon="12.130192684136361"><ele>728.0</ele><time>2026-05-02T17:00:14Z</time></trkpt><trkpt lat="43.23079722708629" lon="12.130099216551416"><ele>728.0</ele><time>2026-05-02T17:00:15Z</time></trkpt><trkpt lat="43.23082053594877" lon="12.129994175339151"><ele>728.0</ele><time>2026-05-02T17:00:16Z</time></trkpt><trkpt lat="43.230846354912714" lon="12.129897665074337"><ele>728.0</ele><time>2026-05-02T17:00:17Z</time></trkpt><trkpt lat="43.23087881053317" lon="12.129793391504064"><ele>728.0</ele><time>2026-05-02T17:00:18Z</time></trkpt><trkpt lat="43.23090903536518" lon="12.129700301584117"><ele>728.0</ele><time>2026-05-02T17:00:19Z</time></trkpt><trkpt lat="43.230943544815155" lon="12.129604846991507"><ele>728.0</ele><time>2026-05-02T17:00:20Z</time></trkpt><trkpt lat="43.230987485316" lon="12.129502312656768"><ele>725.0</ele><time>2026-05-02T17:00:21Z</time></trkpt><trkpt lat="43.231028362232045" lon="12.12942656521576"><ele>722.0</ele><time>2026-05-02T17:00:22Z</time></trkpt><trkpt lat="43.23107962346782" lon="12.129335187629648"><ele>719.0</ele><time>2026-05-02T17:00:23Z</time></trkpt><trkpt lat="43.23113587606625" lon="12.129246264769218"><ele>716.0</ele><time>2026-05-02T17:00:24Z</time></trkpt><trkpt lat="43.23119468555789" lon="12.129161618084812"><ele>713.0</ele><time>2026-05-02T17:00:25Z</time></trkpt><trkpt lat="43.23125846232719" lon="12.129074722374034"><ele>710.0</ele><time>2026-05-02T17:00:26Z</time></trkpt><trkpt lat="43.231301252612745" lon="12.128985673849279"><ele>711.5</ele><time>2026-05-02T17:00:27Z</time></trkpt><trkpt lat="43.231354001071594" lon="12.128915155643828"><ele>713.0</ele><time>2026-05-02T17:00:28Z</time></trkpt><trkpt lat="43.23140317654953" lon="12.128846991352354"><ele>714.5</ele><time>2026-05-02T17:00:29Z</time></trkpt><trkpt lat="43.23148670210181" lon="12.12876271835004"><ele>716.0</ele><time>2026-05-02T17:00:31Z</time></trkpt><trkpt lat="43.23153890706978" lon="12.128694649499852"><ele>717.5</ele><time>2026-05-02T17:00:33Z</time></trkpt><trkpt lat="43.23159229997327" lon="12.128619612401849"><ele>719.0</ele><time>2026-05-02T17:00:36Z</time></trkpt><trkpt lat="43.23162882819673" lon="12.128532851165295"><ele>719.0</ele><time>2026-05-02T17:01:20.999Z</time></trkpt><trkpt lat="43.23165798430237" lon="12.128379079204734"><ele>719.0</ele><time>2026-05-02T17:01:22.999Z</time></trkpt><trkpt lat="43.23167459454863" lon="12.128277687037627"><ele>719.0</ele><time>2026-05-02T17:01:23.999Z</time></trkpt><trkpt lat="43.23165028353716" lon="12.128180464564343"><ele>719.0</ele><time>2026-05-02T17:01:24.999Z</time></trkpt><trkpt lat="43.23158414299145" lon="12.12807033068841"><ele>719.0</ele><time>2026-05-02T17:01:25.999Z</time></trkpt><trkpt lat="43.23153136557283" lon="12.127974406167771"><ele>719.5</ele><time>2026-05-02T17:01:26.999Z</time></trkpt><trkpt lat="43.23148350022462" lon="12.12788752250509"><ele>720.0</ele><time>2026-05-02T17:01:27.999Z</time></trkpt><trkpt lat="43.23143709456697" lon="12.127790947093102"><ele>720.5</ele><time>2026-05-02T17:01:28.999Z</time></trkpt><trkpt lat="43.231397010174334" lon="12.127706375854217"><ele>721.0</ele><time>2026-05-02T17:01:29.999Z</time></trkpt><trkpt lat="43.23135650488563" lon="12.127613882258927"><ele>721.5</ele><time>2026-05-02T17:01:30.999Z</time></trkpt><trkpt lat="43.231317931356266" lon="12.127514930314762"><ele>722.0</ele><time>2026-05-02T17:01:31.999Z</time></trkpt><trkpt lat="43.23127894028673" lon="12.127400276790516"><ele>715.6666666666666</ele><time>2026-05-02T17:01:32.999Z</time></trkpt><trkpt lat="43.231254009737675" lon="12.127279807830039"><ele>709.3333333333333</ele><time>2026-05-02T17:01:33.999Z</time></trkpt><trkpt lat="43.231245295644406" lon="12.12717788349883"><ele>703.0</ele><time>2026-05-02T17:01:34.999Z</time></trkpt><trkpt lat="43.231238006270054" lon="12.127048305251673"><ele>696.6666666666666</ele><time>2026-05-02T17:01:35.999Z</time></trkpt><trkpt lat="43.23123398045314" lon="12.126921177929916"><ele>690.3333333333334</ele><time>2026-05-02T17:01:36.999Z</time></trkpt><trkpt lat="43.23123275024732" lon="12.126808667848207"><ele>684.0</ele><time>2026-05-02T17:01:37.999Z</time></trkpt><trkpt lat="43.23124002225048" lon="12.12672095706684"><ele>684.0</ele><time>2026-05-02T17:01:38.999Z</time></trkpt><trkpt lat="43.23127137308417" lon="12.12659433075107"><ele>684.0</ele><time>2026-05-02T17:01:40.999Z</time></trkpt><trkpt lat="43.2313297397902" lon="12.126481086683238"><ele>684.0</ele><time>2026-05-02T17:01:43Z</time></trkpt><trkpt lat="43.23138642030269" lon="12.126424557067235"><ele>684.0</ele><time>2026-05-02T17:01:44Z</time></trkpt><trkpt lat="43.23142437703426" lon="12.12635120588768"><ele>684.0</ele><time>2026-05-02T17:01:45Z</time></trkpt><trkpt lat="43.231438593106304" lon="12.12625680613848"><ele>684.0</ele><time>2026-05-02T17:01:46Z</time></trkpt><trkpt lat="43.23143104025285" lon="12.126151770235806"><ele>681.8000000000001</ele><time>2026-05-02T17:01:47Z</time></trkpt><trkpt lat="43.23140041475328" lon="12.12603686905895"><ele>679.6</ele><time>2026-05-02T17:01:48Z</time></trkpt><trkpt lat="43.23139497284795" lon="12.12590872272133"><ele>677.4</ele><time>2026-05-02T17:01:49Z</time></trkpt><trkpt lat="43.23139108093662" lon="12.125818607194585"><ele>675.2</ele><time>2026-05-02T17:01:50Z</time></trkpt><trkpt lat="43.23141172626642" lon="12.12564601923905"><ele>673.0</ele><time>2026-05-02T17:01:52Z</time></trkpt><trkpt lat="43.23145023947144" lon="12.125532710382426"><ele>679.2</ele><time>2026-05-02T17:01:53Z</time></trkpt><trkpt lat="43.23148134701718" lon="12.125404034115167"><ele>685.4</ele><time>2026-05-02T17:01:54Z</time></trkpt><trkpt lat="43.23152703246557" lon="12.125277327796397"><ele>691.6</ele><time>2026-05-02T17:01:55Z</time></trkpt><trkpt lat="43.23156254193332" lon="12.125150234189684"><ele>697.8000000000001</ele><time>2026-05-02T17:01:56Z</time></trkpt><trkpt lat="43.23160560844226" lon="12.125031868492187"><ele>704.0</ele><time>2026-05-02T17:01:57Z</time></trkpt><trkpt lat="43.23164682109965" lon="12.124940017281668"><ele>703.0</ele><time>2026-05-02T17:01:58Z</time></trkpt><trkpt lat="43.23169140890686" lon="12.12483723490231"><ele>702.0</ele><time>2026-05-02T17:01:59Z</time></trkpt><trkpt lat="43.23173705192809" lon="12.124658031456406"><ele>701.0</ele><time>2026-05-02T17:02:01Z</time></trkpt><trkpt lat="43.2317366449673" lon="12.124506861101388"><ele>700.0</ele><time>2026-05-02T17:02:02Z</time></trkpt><trkpt lat="43.2317575974072" lon="12.124366236398822"><ele>699.0</ele><time>2026-05-02T17:02:03Z</time></trkpt><trkpt lat="43.23177215921634" lon="12.124232807935236"><ele>699.0</ele><time>2026-05-02T17:02:04Z</time></trkpt><trkpt lat="43.231778667607124" lon="12.124112308772226"><ele>699.0</ele><time>2026-05-02T17:02:05Z</time></trkpt><trkpt lat="43.23178202830938" lon="12.124009723831259"><ele>699.0</ele><time>2026-05-02T17:02:06Z</time></trkpt><trkpt lat="43.23179594250332" lon="12.123922311814761"><ele>699.0</ele><time>2026-05-02T17:02:10Z</time></trkpt><trkpt lat="43.23169854216711" lon="12.123853933134939"><ele>699.0</ele><time>2026-05-02T17:02:11Z</time></trkpt><trkpt lat="43.23164003631899" lon="12.123815346296135"><ele>699.0</ele><time>2026-05-02T17:02:12Z</time></trkpt><trkpt lat="43.231569617912136" lon="12.123773202552938"><ele>700.5714285714286</ele><time>2026-05-02T17:02:13Z</time></trkpt><trkpt lat="43.231502720955845" lon="12.123737550133631"><ele>702.1428571428572</ele><time>2026-05-02T17:02:14Z</time></trkpt><trkpt lat="43.2314299060826" lon="12.123700128587087"><ele>703.7142857142858</ele><time>2026-05-02T17:02:15Z</time></trkpt><trkpt lat="43.23136634960332" lon="12.12366940960951"><ele>705.2857142857142</ele><time>2026-05-02T17:02:16Z</time></trkpt><trkpt lat="43.23129297973274" lon="12.123637432277889"><ele>706.8571428571429</ele><time>2026-05-02T17:02:17Z</time></trkpt><trkpt lat="43.23122070279347" lon="12.123609168441709"><ele>708.4285714285714</ele><time>2026-05-02T17:02:18Z</time></trkpt><trkpt lat="43.23114891416275" lon="12.123584314933417"><ele>710.0</ele><time>2026-05-02T17:02:19Z</time></trkpt><trkpt lat="43.231069597438804" lon="12.123559918346851"><ele>706.1666666666666</ele><time>2026-05-02T17:02:20Z</time></trkpt><trkpt lat="43.230994921345165" lon="12.123556785582261"><ele>702.3333333333333</ele><time>2026-05-02T17:02:21Z</time></trkpt><trkpt lat="43.23091651734684" lon="12.12353940162429"><ele>698.5</ele><time>2026-05-02T17:02:22Z</time></trkpt><trkpt lat="43.230831313407144" lon="12.123530313828418"><ele>694.6666666666666</ele><time>2026-05-02T17:02:23Z</time></trkpt><trkpt lat="43.23071307030678" lon="12.123473805408965"><ele>690.8333333333334</ele><time>2026-05-02T17:02:25Z</time></trkpt><trkpt lat="43.23066032679856" lon="12.123410951210918"><ele>687.0</ele><time>2026-05-02T17:02:26Z</time></trkpt><trkpt lat="43.23062531239305" lon="12.123326684184681"><ele>683.5</ele><time>2026-05-02T17:02:27Z</time></trkpt><trkpt lat="43.230579380813104" lon="12.123231946180079"><ele>680.0</ele><time>2026-05-02T17:02:28Z</time></trkpt><trkpt lat="43.23053944670933" lon="12.123133949107189"><ele>676.5</ele><time>2026-05-02T17:02:29Z</time></trkpt><trkpt lat="43.23052981116219" lon="12.123038538511008"><ele>673.0</ele><time>2026-05-02T17:02:30Z</time></trkpt><trkpt lat="43.23048423936525" lon="12.122937631705819"><ele>669.5</ele><time>2026-05-02T17:02:31Z</time></trkpt><trkpt lat="43.23045582233581" lon="12.122841262647238"><ele>666.0</ele><time>2026-05-02T17:02:32Z</time></trkpt><trkpt lat="43.230424364028075" lon="12.122765480420536"><ele>666.0</ele><time>2026-05-02T17:02:33Z</time></trkpt><trkpt lat="43.23038576521064" lon="12.122676446929466"><ele>666.0</ele><time>2026-05-02T17:02:34Z</time></trkpt><trkpt lat="43.23034933508977" lon="12.122587363444529"><ele>666.0</ele><time>2026-05-02T17:02:35Z</time></trkpt><trkpt lat="43.23030994364146" lon="12.122494944782344"><ele>666.0</ele><time>2026-05-02T17:02:35.999Z</time></trkpt><trkpt lat="43.23026859026278" lon="12.12240907692298"><ele>666.0</ele><time>2026-05-02T17:02:36.999Z</time></trkpt><trkpt lat="43.23025154851153" lon="12.122311852913025"><ele>666.0</ele><time>2026-05-02T17:02:37.999Z</time></trkpt><trkpt lat="43.23022570411054" lon="12.12222188826817"><ele>666.0</ele><time>2026-05-02T17:02:38.999Z</time></trkpt><trkpt lat="43.23018493153837" lon="12.122120880415263"><ele>666.5999999999999</ele><time>2026-05-02T17:02:39.999Z</time></trkpt><trkpt lat="43.23016491680266" lon="12.12199193729305"><ele>667.2</ele><time>2026-05-02T17:02:40.999Z</time></trkpt><trkpt lat="43.23014757966444" lon="12.121861754910148"><ele>667.8</ele><time>2026-05-02T17:02:41.999Z</time></trkpt><trkpt lat="43.230133670848765" lon="12.121711874452032"><ele>668.4000000000001</ele><time>2026-05-02T17:02:42.999Z</time></trkpt><trkpt lat="43.230131589777855" lon="12.121560985522613"><ele>669.0</ele><time>2026-05-02T17:02:43.999Z</time></trkpt><trkpt lat="43.230134088609375" lon="12.1214217294053"><ele>669.6666666666666</ele><time>2026-05-02T17:02:44.999Z</time></trkpt><trkpt lat="43.23013628718907" lon="12.121300404249572"><ele>670.3333333333334</ele><time>2026-05-02T17:02:45.999Z</time></trkpt><trkpt lat="43.230126925788085" lon="12.121202311083131"><ele>671.0</ele><time>2026-05-02T17:02:46.999Z</time></trkpt><trkpt lat="43.23008863627614" lon="12.121117946659687"><ele>671.6666666666667</ele><time>2026-05-02T17:02:47.999Z</time></trkpt><trkpt lat="43.23002937540908" lon="12.120997507441858"><ele>672.3333333333334</ele><time>2026-05-02T17:02:48.999Z</time></trkpt><trkpt lat="43.22999677565766" lon="12.120857946783262"><ele>673.0</ele><time>2026-05-02T17:02:49.999Z</time></trkpt><trkpt lat="43.22994971183382" lon="12.120739004491973"><ele>672.2857142857143</ele><time>2026-05-02T17:02:50.999Z</time></trkpt><trkpt lat="43.22992503803464" lon="12.120656340798293"><ele>671.5714285714286</ele><time>2026-05-02T17:02:51.999Z</time></trkpt><trkpt lat="43.22990915256297" lon="12.120569275152882"><ele>670.8571428571429</ele><time>2026-05-02T17:02:52.999Z</time></trkpt><trkpt lat="43.22989077636913" lon="12.120470284763293"><ele>670.1428571428571</ele><time>2026-05-02T17:02:53.999Z</time></trkpt><trkpt lat="43.22990645816109" lon="12.12036438707654"><ele>669.4285714285714</ele><time>2026-05-02T17:02:54.999Z</time></trkpt><trkpt lat="43.22992665476227" lon="12.120264849508017"><ele>668.7142857142857</ele><time>2026-05-02T17:02:55.999Z</time></trkpt><trkpt lat="43.229949505387296" lon="12.12018062387349"><ele>668.0</ele><time>2026-05-02T17:02:56.999Z</time></trkpt><trkpt lat="43.229992951199954" lon="12.12008136283879"><ele>668.0</ele><time>2026-05-02T17:02:57.999Z</time></trkpt><trkpt lat="43.2300615544254" lon="12.119970654527474"><ele>668.0</ele><time>2026-05-02T17:02:58.999Z</time></trkpt><trkpt lat="43.230133896199916" lon="12.119872815329527"><ele>668.0</ele><time>2026-05-02T17:02:59.999Z</time></trkpt><trkpt lat="43.23020433763655" lon="12.119761196746996"><ele>668.0</ele><time>2026-05-02T17:03:00.999Z</time></trkpt><trkpt lat="43.23026825443065" lon="12.119650610651002"><ele>668.0</ele><time>2026-05-02T17:03:01.999Z</time></trkpt><trkpt lat="43.23032900290015" lon="12.119536754050728"><ele>667.1666666666666</ele><time>2026-05-02T17:03:02.999Z</time></trkpt><trkpt lat="43.23039481411527" lon="12.119429128715044"><ele>666.3333333333333</ele><time>2026-05-02T17:03:03.999Z</time></trkpt><trkpt lat="43.230460482901954" lon="12.119338035851742"><ele>665.5</ele><time>2026-05-02T17:03:04.999Z</time></trkpt><trkpt lat="43.23052850323002" lon="12.119263536397904"><ele>664.6666666666666</ele><time>2026-05-02T17:03:05.999Z</time></trkpt><trkpt lat="43.23059676336991" lon="12.119199080741442"><ele>663.8333333333334</ele><time>2026-05-02T17:03:06.999Z</time></trkpt><trkpt lat="43.23066382997875" lon="12.119130099655482"><ele>663.0</ele><time>2026-05-02T17:03:07.999Z</time></trkpt><trkpt lat="43.23072821474635" lon="12.11904124852557"><ele>663.0</ele><time>2026-05-02T17:03:08.999Z</time></trkpt><trkpt lat="43.230780472616715" lon="12.11893846168572"><ele>663.0</ele><time>2026-05-02T17:03:09.999Z</time></trkpt><trkpt lat="43.23082329279136" lon="12.118824282210815"><ele>663.0</ele><time>2026-05-02T17:03:10.999Z</time></trkpt><trkpt lat="43.230850956300436" lon="12.118716399744125"><ele>663.0</ele><time>2026-05-02T17:03:11.999Z</time></trkpt><trkpt lat="43.23086889006597" lon="12.118601673015382"><ele>663.0</ele><time>2026-05-02T17:03:12.999Z</time></trkpt><trkpt lat="43.23088266430986" lon="12.118500320018574"><ele>663.0</ele><time>2026-05-02T17:03:13.999Z</time></trkpt><trkpt lat="43.23089756171172" lon="12.118412376695398"><ele>663.0</ele><time>2026-05-02T17:03:14.999Z</time></trkpt><trkpt lat="43.23094456305036" lon="12.11827103649304"><ele>663.0</ele><time>2026-05-02T17:03:16.999Z</time></trkpt><trkpt lat="43.23100217956135" lon="12.118160830230975"><ele>663.0</ele><time>2026-05-02T17:03:18.999Z</time></trkpt><trkpt lat="43.23106688577286" lon="12.11811468235886"><ele>663.0</ele><time>2026-05-02T17:03:19.999Z</time></trkpt><trkpt lat="43.23112654658077" lon="12.118023839780273"><ele>663.0</ele><time>2026-05-02T17:03:20.999Z</time></trkpt><trkpt lat="43.23110792326789" lon="12.117829844878907"><ele>660.8333333333334</ele><time>2026-05-02T17:03:21.999Z</time></trkpt><trkpt lat="43.231160966032995" lon="12.117740545958128"><ele>658.6666666666666</ele><time>2026-05-02T17:03:22.999Z</time></trkpt><trkpt lat="43.23120912141938" lon="12.117649498849737"><ele>656.5</ele><time>2026-05-02T17:03:23.999Z</time></trkpt><trkpt lat="43.231248410347106" lon="12.117561097801508"><ele>654.3333333333333</ele><time>2026-05-02T17:03:24.999Z</time></trkpt><trkpt lat="43.231281434266066" lon="12.117477037147346"><ele>652.1666666666666</ele><time>2026-05-02T17:03:25.999Z</time></trkpt><trkpt lat="43.231306520376435" lon="12.11738539231285"><ele>650.0</ele><time>2026-05-02T17:03:27.999Z</time></trkpt><trkpt lat="43.23135595210707" lon="12.117455150202936"><ele>650.0</ele><time>2026-05-02T17:03:31.999Z</time></trkpt><trkpt lat="43.23129645428248" lon="12.11755322391109"><ele>650.0</ele><time>2026-05-02T17:03:33.999Z</time></trkpt><trkpt lat="43.23121788662492" lon="12.117625927585607"><ele>650.0</ele><time>2026-05-02T17:03:34.999Z</time></trkpt><trkpt lat="43.2311496357106" lon="12.117712763989653"><ele>650.0</ele><time>2026-05-02T17:03:35.999Z</time></trkpt><trkpt lat="43.23106777637665" lon="12.117875008430618"><ele>650.0</ele><time>2026-05-02T17:03:37.999Z</time></trkpt><trkpt lat="43.23103104479048" lon="12.117964475345195"><ele>650.0</ele><time>2026-05-02T17:03:38.999Z</time></trkpt><trkpt lat="43.23098973906303" lon="12.118053389242998"><ele>650.0</ele><time>2026-05-02T17:03:39.999Z</time></trkpt><trkpt lat="43.2309520550267" lon="12.118132889939448"><ele>650.0</ele><time>2026-05-02T17:03:40.999Z</time></trkpt><trkpt lat="43.23091085943375" lon="12.118256855996316"><ele>650.0</ele><time>2026-05-02T17:03:42.999Z</time></trkpt><trkpt lat="43.23089940079269" lon="12.118344931019836"><ele>650.0</ele><time>2026-05-02T17:03:43.999Z</time></trkpt><trkpt lat="43.23088133119453" lon="12.118452053796913"><ele>650.0</ele><time>2026-05-02T17:03:44.999Z</time></trkpt><trkpt lat="43.23086231711864" lon="12.118561300004721"><ele>651.2857142857142</ele><time>2026-05-02T17:03:45.999Z</time></trkpt><trkpt lat="43.230840582641015" lon="12.118660606205575"><ele>652.5714285714287</ele><time>2026-05-02T17:03:46.999Z</time></trkpt><trkpt lat="43.230821229446995" lon="12.118753253020591"><ele>653.8571428571429</ele><time>2026-05-02T17:03:47.999Z</time></trkpt><trkpt lat="43.23080191783635" lon="12.118839765485076"><ele>655.1428571428571</ele><time>2026-05-02T17:03:49Z</time></trkpt><trkpt lat="43.23077220347299" lon="12.118925348415399"><ele>656.4285714285713</ele><time>2026-05-02T17:03:50Z</time></trkpt><trkpt lat="43.230734228475576" lon="12.118998360361214"><ele>657.7142857142858</ele><time>2026-05-02T17:03:51Z</time></trkpt><trkpt lat="43.230688921236265" lon="12.119062766294421"><ele>659.0</ele><time>2026-05-02T17:03:52Z</time></trkpt><trkpt lat="43.23063784326533" lon="12.119134325632013"><ele>659.0</ele><time>2026-05-02T17:03:53Z</time></trkpt><trkpt lat="43.23058462794712" lon="12.11919544558861"><ele>659.0</ele><time>2026-05-02T17:03:54Z</time></trkpt><trkpt lat="43.23053023808332" lon="12.119251298729766"><ele>659.0</ele><time>2026-05-02T17:03:55Z</time></trkpt><trkpt lat="43.230468286374744" lon="12.119309541003053"><ele>659.0</ele><time>2026-05-02T17:03:56Z</time></trkpt><trkpt lat="43.23040178377055" lon="12.119374434758775"><ele>659.0</ele><time>2026-05-02T17:03:57Z</time></trkpt><trkpt lat="43.23033436833417" lon="12.119469295484343"><ele>659.0</ele><time>2026-05-02T17:03:58Z</time></trkpt><trkpt lat="43.230273612737214" lon="12.119581028768689"><ele>659.0</ele><time>2026-05-02T17:03:59Z</time></trkpt><trkpt lat="43.23020956024279" lon="12.11971223366016"><ele>659.0</ele><time>2026-05-02T17:04:00Z</time></trkpt><trkpt lat="43.23015329791698" lon="12.119820660199204"><ele>659.0</ele><time>2026-05-02T17:04:01Z</time></trkpt><trkpt lat="43.23009674666147" lon="12.119910168705509"><ele>659.0</ele><time>2026-05-02T17:04:02Z</time></trkpt><trkpt lat="43.23004493383462" lon="12.119982932091892"><ele>659.0</ele><time>2026-05-02T17:04:03Z</time></trkpt><trkpt lat="43.22999740992016" lon="12.12005427219406"><ele>659.0</ele><time>2026-05-02T17:04:04Z</time></trkpt><trkpt lat="43.22995217461127" lon="12.120139450487969"><ele>660.2857142857143</ele><time>2026-05-02T17:04:05Z</time></trkpt><trkpt lat="43.22991809148874" lon="12.120237627706228"><ele>661.5714285714286</ele><time>2026-05-02T17:04:06Z</time></trkpt><trkpt lat="43.229896763602035" lon="12.120349323326646"><ele>662.8571428571429</ele><time>2026-05-02T17:04:07Z</time></trkpt><trkpt lat="43.22987042451822" lon="12.120433646513556"><ele>664.1428571428571</ele><time>2026-05-02T17:04:08Z</time></trkpt><trkpt lat="43.22987034967471" lon="12.120526652003504"><ele>665.4285714285714</ele><time>2026-05-02T17:04:09Z</time></trkpt><trkpt lat="43.22988889685304" lon="12.120615710201088"><ele>666.7142857142857</ele><time>2026-05-02T17:04:10Z</time></trkpt><trkpt lat="43.2299071942502" lon="12.120701375170496"><ele>668.0</ele><time>2026-05-02T17:04:11Z</time></trkpt><trkpt lat="43.22997564697189" lon="12.120870745325544"><ele>669.0</ele><time>2026-05-02T17:04:13Z</time></trkpt><trkpt lat="43.23002568705645" lon="12.12099025145812"><ele>670.0</ele><time>2026-05-02T17:04:14Z</time></trkpt><trkpt lat="43.23005483541054" lon="12.121124921310216"><ele>671.0</ele><time>2026-05-02T17:04:15Z</time></trkpt><trkpt lat="43.23009298115551" lon="12.121246511102035"><ele>672.0</ele><time>2026-05-02T17:04:16Z</time></trkpt><trkpt lat="43.230114725569145" lon="12.121365537553801"><ele>673.0</ele><time>2026-05-02T17:04:17Z</time></trkpt><trkpt lat="43.230100049665175" lon="12.121481988577361"><ele>672.0</ele><time>2026-05-02T17:04:18Z</time></trkpt><trkpt lat="43.23010181689816" lon="12.121661429299115"><ele>671.0</ele><time>2026-05-02T17:04:19Z</time></trkpt><trkpt lat="43.23012963205504" lon="12.121848020164668"><ele>670.0</ele><time>2026-05-02T17:04:20Z</time></trkpt><trkpt lat="43.23015026715208" lon="12.121990521803088"><ele>669.0</ele><time>2026-05-02T17:04:21Z</time></trkpt><trkpt lat="43.230177973916646" lon="12.122108713183158"><ele>669.0</ele><time>2026-05-02T17:04:22Z</time></trkpt><trkpt lat="43.23020164887672" lon="12.122228226987238"><ele>669.0</ele><time>2026-05-02T17:04:23Z</time></trkpt><trkpt lat="43.23023154458513" lon="12.1223409096212"><ele>669.0</ele><time>2026-05-02T17:04:24Z</time></trkpt><trkpt lat="43.23026444307021" lon="12.122422412370483"><ele>669.0</ele><time>2026-05-02T17:04:25Z</time></trkpt><trkpt lat="43.230316271678916" lon="12.122575880399056"><ele>669.0</ele><time>2026-05-02T17:04:27Z</time></trkpt><trkpt lat="43.23035630927192" lon="12.122666104836297"><ele>669.0</ele><time>2026-05-02T17:04:28Z</time></trkpt><trkpt lat="43.23039495690667" lon="12.122759601748008"><ele>668.5</ele><time>2026-05-02T17:04:29Z</time></trkpt><trkpt lat="43.23043387651475" lon="12.122858716996518"><ele>668.0</ele><time>2026-05-02T17:04:30Z</time></trkpt><trkpt lat="43.2304732407666" lon="12.122969611649456"><ele>667.5</ele><time>2026-05-02T17:04:31Z</time></trkpt><trkpt lat="43.230501807562746" lon="12.123065744220368"><ele>667.0</ele><time>2026-05-02T17:04:32Z</time></trkpt><trkpt lat="43.230533020127595" lon="12.123175863346074"><ele>666.5</ele><time>2026-05-02T17:04:33Z</time></trkpt><trkpt lat="43.230566218101494" lon="12.123269213501036"><ele>666.0</ele><time>2026-05-02T17:04:34Z</time></trkpt><trkpt lat="43.230625508258456" lon="12.123415366362412"><ele>670.1999999999999</ele><time>2026-05-02T17:04:36Z</time></trkpt><trkpt lat="43.23072025075162" lon="12.123531382230297"><ele>674.4</ele><time>2026-05-02T17:04:37.999Z</time></trkpt><trkpt lat="43.23078261075048" lon="12.12356005751093"><ele>678.6</ele><time>2026-05-02T17:04:38.999Z</time></trkpt><trkpt lat="43.23086976286495" lon="12.123548910756721"><ele>682.8</ele><time>2026-05-02T17:04:39.999Z</time></trkpt><trkpt lat="43.230950472992006" lon="12.123575743897169"><ele>687.0</ele><time>2026-05-02T17:04:40.999Z</time></trkpt><trkpt lat="43.231038986687054" lon="12.123578723920103"><ele>687.0</ele><time>2026-05-02T17:04:41.999Z</time></trkpt><trkpt lat="43.23111796362379" lon="12.123610476564776"><ele>687.0</ele><time>2026-05-02T17:04:42.999Z</time></trkpt><trkpt lat="43.23117845603705" lon="12.123643747463484"><ele>687.0</ele><time>2026-05-02T17:04:43.999Z</time></trkpt><trkpt lat="43.23130471705022" lon="12.123696549508741"><ele>687.0</ele><time>2026-05-02T17:04:45.999Z</time></trkpt><trkpt lat="43.23139854390522" lon="12.12373304652851"><ele>687.0</ele><time>2026-05-02T17:04:46.999Z</time></trkpt><trkpt lat="43.23147532542394" lon="12.12376757087073"><ele>691.6</ele><time>2026-05-02T17:04:47.999Z</time></trkpt><trkpt lat="43.231562212825224" lon="12.123802631252094"><ele>696.2</ele><time>2026-05-02T17:04:49.999Z</time></trkpt><trkpt lat="43.23167061358914" lon="12.123884553203743"><ele>700.8</ele><time>2026-05-02T17:04:51.999Z</time></trkpt><trkpt lat="43.23175919256274" lon="12.12394513536926"><ele>705.4</ele><time>2026-05-02T17:04:53.999Z</time></trkpt><trkpt lat="43.2318099223545" lon="12.123831721864098"><ele>710.0</ele><time>2026-05-02T17:04:56.999Z</time></trkpt><trkpt lat="43.231833505911204" lon="12.123594068211476"><ele>710.0</ele><time>2026-05-02T17:04:58.999Z</time></trkpt><trkpt lat="43.231829518454276" lon="12.123493780010461"><ele>710.0</ele><time>2026-05-02T17:04:59.999Z</time></trkpt><trkpt lat="43.23176151969344" lon="12.123392949865664"><ele>710.0</ele><time>2026-05-02T17:05:01.999Z</time></trkpt><trkpt lat="43.23171121417505" lon="12.12333798593107"><ele>710.0</ele><time>2026-05-02T17:05:02.999Z</time></trkpt><trkpt lat="43.23163863615446" lon="12.123308767977226"><ele>710.0</ele><time>2026-05-02T17:05:03.999Z</time></trkpt><trkpt lat="43.2315531239998" lon="12.123277534347672"><ele>710.0</ele><time>2026-05-02T17:05:04.999Z</time></trkpt><trkpt lat="43.23149329976923" lon="12.12324622700469"><ele>706.8</ele><time>2026-05-02T17:05:05.999Z</time></trkpt><trkpt lat="43.23142421433597" lon="12.123198602805024"><ele>703.6</ele><time>2026-05-02T17:05:06.999Z</time></trkpt><trkpt lat="43.231351165940474" lon="12.123114949966773"><ele>700.4000000000001</ele><time>2026-05-02T17:05:08.999Z</time></trkpt><trkpt lat="43.231305663185104" lon="12.122991142269472"><ele>697.2</ele><time>2026-05-02T17:05:10.999Z</time></trkpt><trkpt lat="43.23125792574411" lon="12.122875766336056"><ele>694.0</ele><time>2026-05-02T17:05:12.999Z</time></trkpt><trkpt lat="43.23143462501513" lon="12.122902457277695"><ele>697.6666666666667</ele><time>2026-05-02T17:05:18.999Z</time></trkpt><trkpt lat="43.23150414572269" lon="12.122895169619454"><ele>701.3333333333334</ele><time>2026-05-02T17:05:19.999Z</time></trkpt><trkpt lat="43.231585695027746" lon="12.122866870684465"><ele>705.0</ele><time>2026-05-02T17:05:20.999Z</time></trkpt><trkpt lat="43.23165532100779" lon="12.122862340884904"><ele>708.6666666666666</ele><time>2026-05-02T17:05:21.999Z</time></trkpt><trkpt lat="43.23176087094248" lon="12.122812442657894"><ele>712.3333333333333</ele><time>2026-05-02T17:05:22.999Z</time></trkpt><trkpt lat="43.23183086386483" lon="12.122778649234984"><ele>716.0</ele><time>2026-05-02T17:05:23.999Z</time></trkpt><trkpt lat="43.23192642733553" lon="12.122686563237863"><ele>716.0</ele><time>2026-05-02T17:05:25.999Z</time></trkpt><trkpt lat="43.23193949013682" lon="12.122543105261725"><ele>716.0</ele><time>2026-05-02T17:05:27.999Z</time></trkpt><trkpt lat="43.23192308018718" lon="12.122445965884134"><ele>716.0</ele><time>2026-05-02T17:05:28.999Z</time></trkpt><trkpt lat="43.23189627619686" lon="12.122338638153625"><ele>716.0</ele><time>2026-05-02T17:05:29.999Z</time></trkpt><trkpt lat="43.231859731961" lon="12.122180548692324"><ele>716.0</ele><time>2026-05-02T17:05:30.999Z</time></trkpt><trkpt lat="43.23185260767694" lon="12.122064101867862"><ele>716.3333333333333</ele><time>2026-05-02T17:05:31.999Z</time></trkpt><trkpt lat="43.231828763316386" lon="12.121938685018632"><ele>716.6666666666666</ele><time>2026-05-02T17:05:32.999Z</time></trkpt><trkpt lat="43.231806003758834" lon="12.121818973094106"><ele>717.0</ele><time>2026-05-02T17:05:33.999Z</time></trkpt><trkpt lat="43.231769454273056" lon="12.12169539295023"><ele>717.3333333333334</ele><time>2026-05-02T17:05:34.999Z</time></trkpt><trkpt lat="43.23174869984124" lon="12.121576672551486"><ele>717.6666666666667</ele><time>2026-05-02T17:05:35.999Z</time></trkpt><trkpt lat="43.2317357851565" lon="12.121471531082406"><ele>718.0</ele><time>2026-05-02T17:05:36.999Z</time></trkpt><trkpt lat="43.23172052043115" lon="12.121383058903367"><ele>718.0</ele><time>2026-05-02T17:05:37.999Z</time></trkpt><trkpt lat="43.23170906461152" lon="12.12129671018473"><ele>718.0</ele><time>2026-05-02T17:05:38.999Z</time></trkpt><trkpt lat="43.23168912996677" lon="12.12115150849135"><ele>718.0</ele><time>2026-05-02T17:05:40.999Z</time></trkpt><trkpt lat="43.231686201679935" lon="12.12101953480388"><ele>718.0</ele><time>2026-05-02T17:05:42.999Z</time></trkpt><trkpt lat="43.231679840263986" lon="12.120903140102968"><ele>718.0</ele><time>2026-05-02T17:05:44.999Z</time></trkpt><trkpt lat="43.2316956407661" lon="12.1207911821032"><ele>718.0</ele><time>2026-05-02T17:05:46.999Z</time></trkpt><trkpt lat="43.23170700107218" lon="12.120703099303553"><ele>715.5999999999999</ele><time>2026-05-02T17:05:48.999Z</time></trkpt><trkpt lat="43.231771419023026" lon="12.120611494920121"><ele>713.1999999999999</ele><time>2026-05-02T17:05:50.999Z</time></trkpt><trkpt lat="43.23186633369887" lon="12.120533695764825"><ele>710.8</ele><time>2026-05-02T17:05:52.999Z</time></trkpt><trkpt lat="43.23197943388592" lon="12.120480731512949"><ele>708.4</ele><time>2026-05-02T17:05:55Z</time></trkpt><trkpt lat="43.23208927100681" lon="12.120512486849496"><ele>706.0</ele><time>2026-05-02T17:05:57Z</time></trkpt><trkpt lat="43.23216755910443" lon="12.120522779361277"><ele>706.0</ele><time>2026-05-02T17:05:58Z</time></trkpt><trkpt lat="43.23225477353333" lon="12.120525600691636"><ele>706.0</ele><time>2026-05-02T17:05:59Z</time></trkpt><trkpt lat="43.23234458387075" lon="12.120543221295875"><ele>706.0</ele><time>2026-05-02T17:06:00Z</time></trkpt><trkpt lat="43.232422645111285" lon="12.120557433125814"><ele>706.0</ele><time>2026-05-02T17:06:01Z</time></trkpt><trkpt lat="43.23254350394303" lon="12.120588227674137"><ele>706.0</ele><time>2026-05-02T17:06:03Z</time></trkpt><trkpt lat="43.232657874066426" lon="12.120609411395751"><ele>708.3333333333334</ele><time>2026-05-02T17:06:05Z</time></trkpt><trkpt lat="43.23272965968203" lon="12.12061991634279"><ele>710.6666666666667</ele><time>2026-05-02T17:06:06Z</time></trkpt><trkpt lat="43.232794671686314" lon="12.120629288482373"><ele>713.0</ele><time>2026-05-02T17:06:07Z</time></trkpt><trkpt lat="43.232880566943116" lon="12.120640523033742"><ele>715.3333333333334</ele><time>2026-05-02T17:06:08Z</time></trkpt><trkpt lat="43.23295677678626" lon="12.12064910093295"><ele>717.6666666666666</ele><time>2026-05-02T17:06:09Z</time></trkpt><trkpt lat="43.23302372935575" lon="12.120660472177205"><ele>720.0</ele><time>2026-05-02T17:06:10Z</time></trkpt><trkpt lat="43.23313587038063" lon="12.120683277937045"><ele>722.8333333333334</ele><time>2026-05-02T17:06:12Z</time></trkpt><trkpt lat="43.233253019047204" lon="12.120686251715476"><ele>725.6666666666666</ele><time>2026-05-02T17:06:14Z</time></trkpt><trkpt lat="43.23335022166867" lon="12.120621178643741"><ele>728.5</ele><time>2026-05-02T17:06:16Z</time></trkpt><trkpt lat="43.233408992370954" lon="12.120575973582818"><ele>731.3333333333333</ele><time>2026-05-02T17:06:17Z</time></trkpt><trkpt lat="43.233468541519294" lon="12.120523072097996"><ele>734.1666666666666</ele><time>2026-05-02T17:06:18Z</time></trkpt><trkpt lat="43.233530023326615" lon="12.120466323610982"><ele>737.0</ele><time>2026-05-02T17:06:19Z</time></trkpt><trkpt lat="43.233587000085045" lon="12.120408918956281"><ele>737.0</ele><time>2026-05-02T17:06:20Z</time></trkpt><trkpt lat="43.23365712439799" lon="12.12033746534928"><ele>737.0</ele><time>2026-05-02T17:06:21Z</time></trkpt><trkpt lat="43.233721715488215" lon="12.120269145629102"><ele>737.0</ele><time>2026-05-02T17:06:22Z</time></trkpt><trkpt lat="43.23382159866756" lon="12.120166059023841"><ele>737.0</ele><time>2026-05-02T17:06:24Z</time></trkpt><trkpt lat="43.23392283355363" lon="12.120068333162589"><ele>737.0</ele><time>2026-05-02T17:06:26Z</time></trkpt><trkpt lat="43.23399290418131" lon="12.120002141743178"><ele>738.5</ele><time>2026-05-02T17:06:27Z</time></trkpt><trkpt lat="43.23406557554061" lon="12.119952034302182"><ele>740.0</ele><time>2026-05-02T17:06:28Z</time></trkpt><trkpt lat="43.23412795635928" lon="12.11992694945856"><ele>741.5</ele><time>2026-05-02T17:06:29Z</time></trkpt><trkpt lat="43.23424138085955" lon="12.119911334140092"><ele>743.0</ele><time>2026-05-02T17:06:31Z</time></trkpt><trkpt lat="43.23430413274515" lon="12.119918437596967"><ele>744.5</ele><time>2026-05-02T17:06:32Z</time></trkpt><trkpt lat="43.234378116752765" lon="12.119941573969365"><ele>746.0</ele><time>2026-05-02T17:06:33Z</time></trkpt><trkpt lat="43.23444800618613" lon="12.119978356909417"><ele>746.0</ele><time>2026-05-02T17:06:34Z</time></trkpt><trkpt lat="43.23454332724513" lon="12.120032511486265"><ele>746.0</ele><time>2026-05-02T17:06:35Z</time></trkpt><trkpt lat="43.234639081932116" lon="12.120072900516682"><ele>746.0</ele><time>2026-05-02T17:06:36Z</time></trkpt><trkpt lat="43.234709991118194" lon="12.120095822750534"><ele>746.0</ele><time>2026-05-02T17:06:37Z</time></trkpt><trkpt lat="43.234847220761495" lon="12.120100249458586"><ele>746.0</ele><time>2026-05-02T17:06:39Z</time></trkpt><trkpt lat="43.23492806007106" lon="12.120046899165299"><ele>747.8333333333333</ele><time>2026-05-02T17:06:40Z</time></trkpt><trkpt lat="43.23500088461821" lon="12.119991427486601"><ele>749.6666666666666</ele><time>2026-05-02T17:06:41Z</time></trkpt><trkpt lat="43.235071491597274" lon="12.11995353384607"><ele>751.5</ele><time>2026-05-02T17:06:42Z</time></trkpt><trkpt lat="43.23519536190567" lon="12.119937172490985"><ele>753.3333333333334</ele><time>2026-05-02T17:06:43.999Z</time></trkpt><trkpt lat="43.235265365395435" lon="12.11995148719224"><ele>755.1666666666667</ele><time>2026-05-02T17:06:44.999Z</time></trkpt><trkpt lat="43.23534659435416" lon="12.119983944355205"><ele>757.0</ele><time>2026-05-02T17:06:45.999Z</time></trkpt><trkpt lat="43.23544111979571" lon="12.120029353055106"><ele>757.0</ele><time>2026-05-02T17:06:46.999Z</time></trkpt><trkpt lat="43.23554526683191" lon="12.120066037372352"><ele>757.0</ele><time>2026-05-02T17:06:47.999Z</time></trkpt><trkpt lat="43.23564365081812" lon="12.120116984772295"><ele>757.0</ele><time>2026-05-02T17:06:48.999Z</time></trkpt><trkpt lat="43.235746210914776" lon="12.12016150160567"><ele>757.0</ele><time>2026-05-02T17:06:49.999Z</time></trkpt><trkpt lat="43.2358354860131" lon="12.120223781381078"><ele>757.0</ele><time>2026-05-02T17:06:50.999Z</time></trkpt><trkpt lat="43.23592781512884" lon="12.120284592143625"><ele>758.5</ele><time>2026-05-02T17:06:51.999Z</time></trkpt><trkpt lat="43.23601847839684" lon="12.12036363023896"><ele>760.0</ele><time>2026-05-02T17:06:52.999Z</time></trkpt><trkpt lat="43.236136811233855" lon="12.12036548325985"><ele>761.5</ele><time>2026-05-02T17:06:53.999Z</time></trkpt><trkpt lat="43.23625781828131" lon="12.120380969525906"><ele>763.0</ele><time>2026-05-02T17:06:54.999Z</time></trkpt><trkpt lat="43.23636441662889" lon="12.12038895677808"><ele>762.0</ele><time>2026-05-02T17:06:55.999Z</time></trkpt><trkpt lat="43.236476520537295" lon="12.120400712698682"><ele>761.0</ele><time>2026-05-02T17:06:56.999Z</time></trkpt><trkpt lat="43.236593289339986" lon="12.120396477369306"><ele>760.0</ele><time>2026-05-02T17:06:57.999Z</time></trkpt><trkpt lat="43.23669759102301" lon="12.120388736938128"><ele>759.0</ele><time>2026-05-02T17:06:58.999Z</time></trkpt><trkpt lat="43.23679221178359" lon="12.120383235419146"><ele>758.0</ele><time>2026-05-02T17:06:59.999Z</time></trkpt><trkpt lat="43.23688048061106" lon="12.120391931921828"><ele>758.0</ele><time>2026-05-02T17:07:00.999Z</time></trkpt><trkpt lat="43.236957796004944" lon="12.120431215368138"><ele>758.0</ele><time>2026-05-02T17:07:01.999Z</time></trkpt><trkpt lat="43.237044679136886" lon="12.120480433534425"><ele>758.0</ele><time>2026-05-02T17:07:03.999Z</time></trkpt><trkpt lat="43.237079641869464" lon="12.120553078186408"><ele>758.0</ele><time>2026-05-02T17:07:09.999Z</time></trkpt><trkpt lat="43.23714597726699" lon="12.120555720826285"><ele>758.0</ele><time>2026-05-02T17:07:10.999Z</time></trkpt><trkpt lat="43.237231538441684" lon="12.12054524767611"><ele>758.0</ele><time>2026-05-02T17:07:11.999Z</time></trkpt><trkpt lat="43.23733881033491" lon="12.12026492802867"><ele>757.6666666666666</ele><time>2026-05-02T17:07:12.999Z</time></trkpt><trkpt lat="43.237389850285055" lon="12.120187825568012"><ele>757.3333333333333</ele><time>2026-05-02T17:07:13.999Z</time></trkpt><trkpt lat="43.237431239466346" lon="12.120081083220823"><ele>757.0</ele><time>2026-05-02T17:07:14.999Z</time></trkpt><trkpt lat="43.23746978776841" lon="12.119981466244452"><ele>756.6666666666666</ele><time>2026-05-02T17:07:15.999Z</time></trkpt><trkpt lat="43.2375183376248" lon="12.11990160603917"><ele>756.3333333333334</ele><time>2026-05-02T17:07:16.999Z</time></trkpt><trkpt lat="43.23758848320449" lon="12.119784283830489"><ele>756.0</ele><time>2026-05-02T17:07:18.999Z</time></trkpt><trkpt lat="43.237631163326796" lon="12.11971516876011"><ele>756.0</ele><time>2026-05-02T17:07:19.999Z</time></trkpt><trkpt lat="43.23768010955168" lon="12.119638681693958"><ele>756.0</ele><time>2026-05-02T17:07:20.999Z</time></trkpt><trkpt lat="43.23773781330421" lon="12.119540925526785"><ele>756.0</ele><time>2026-05-02T17:07:21.999Z</time></trkpt><trkpt lat="43.237793327978395" lon="12.119446209590313"><ele>756.0</ele><time>2026-05-02T17:07:22.999Z</time></trkpt><trkpt lat="43.23784531228893" lon="12.11937093129708"><ele>756.0</ele><time>2026-05-02T17:07:23.999Z</time></trkpt><trkpt lat="43.237894590274166" lon="12.119308212415234"><ele>756.0</ele><time>2026-05-02T17:07:24.999Z</time></trkpt><trkpt lat="43.23795811989482" lon="12.11924334930631"><ele>756.0</ele><time>2026-05-02T17:07:26.999Z</time></trkpt><trkpt lat="43.23800609708776" lon="12.11918607498783"><ele>756.0</ele><time>2026-05-02T17:07:27.999Z</time></trkpt><trkpt lat="43.23807873850105" lon="12.119084854848158"><ele>756.0</ele><time>2026-05-02T17:07:29.999Z</time></trkpt><trkpt lat="43.23813595935071" lon="12.118946513530597"><ele>756.0</ele><time>2026-05-02T17:07:31.999Z</time></trkpt><trkpt lat="43.23818450536696" lon="12.11886080856646"><ele>756.0</ele><time>2026-05-02T17:07:32.999Z</time></trkpt><trkpt lat="43.23824811831549" lon="12.118775272135458"><ele>757.3333333333334</ele><time>2026-05-02T17:07:33.999Z</time></trkpt><trkpt lat="43.23830336714599" lon="12.118695013242307"><ele>758.6666666666666</ele><time>2026-05-02T17:07:34.999Z</time></trkpt><trkpt lat="43.23835786668076" lon="12.11860958264019"><ele>760.0</ele><time>2026-05-02T17:07:35.999Z</time></trkpt><trkpt lat="43.238419366440304" lon="12.118502765422232"><ele>761.3333333333333</ele><time>2026-05-02T17:07:36.999Z</time></trkpt><trkpt lat="43.23847800512042" lon="12.1183921253212"><ele>762.6666666666666</ele><time>2026-05-02T17:07:37.999Z</time></trkpt><trkpt lat="43.23852880119059" lon="12.118306625476647"><ele>764.0</ele><time>2026-05-02T17:07:38.999Z</time></trkpt><trkpt lat="43.238583975351006" lon="12.118228509492774"><ele>765.0</ele><time>2026-05-02T17:07:39.999Z</time></trkpt><trkpt lat="43.23863099124536" lon="12.118145185131132"><ele>766.0</ele><time>2026-05-02T17:07:40.999Z</time></trkpt><trkpt lat="43.23867792368977" lon="12.118040322435006"><ele>767.0</ele><time>2026-05-02T17:07:41.999Z</time></trkpt><trkpt lat="43.2387238829012" lon="12.117939982289977"><ele>768.0</ele><time>2026-05-02T17:07:42.999Z</time></trkpt><trkpt lat="43.238769646147524" lon="12.11786093063348"><ele>769.0000000000001</ele><time>2026-05-02T17:07:43.999Z</time></trkpt><trkpt lat="43.238827303772645" lon="12.117777388873668"><ele>770.0</ele><time>2026-05-02T17:07:45.999Z</time></trkpt><trkpt lat="43.23888026933984" lon="12.11770658580526"><ele>770.0</ele><time>2026-05-02T17:07:47.999Z</time></trkpt><trkpt lat="43.238949221799984" lon="12.117605970653463"><ele>770.0</ele><time>2026-05-02T17:07:49.999Z</time></trkpt><trkpt lat="43.239020407799416" lon="12.117490906840112"><ele>770.0</ele><time>2026-05-02T17:07:51.999Z</time></trkpt><trkpt lat="43.23908606916025" lon="12.117359780381822"><ele>770.0</ele><time>2026-05-02T17:07:53.999Z</time></trkpt><trkpt lat="43.239139256207565" lon="12.117265986305892"><ele>770.0</ele><time>2026-05-02T17:07:55.999Z</time></trkpt><trkpt lat="43.23921790820158" lon="12.117174052784131"><ele>768.3333333333334</ele><time>2026-05-02T17:08:01Z</time></trkpt><trkpt lat="43.239271674633095" lon="12.117128613045386"><ele>766.6666666666667</ele><time>2026-05-02T17:08:03Z</time></trkpt><trkpt lat="43.23936308108595" lon="12.117068758142867"><ele>765.0</ele><time>2026-05-02T17:08:05Z</time></trkpt><trkpt lat="43.239415607806706" lon="12.117018930591303"><ele>763.3333333333334</ele><time>2026-05-02T17:08:06Z</time></trkpt><trkpt lat="43.239480576964894" lon="12.116941957640112"><ele>761.6666666666667</ele><time>2026-05-02T17:08:08Z</time></trkpt><trkpt lat="43.23953602200289" lon="12.11685980546167"><ele>760.0</ele><time>2026-05-02T17:08:10Z</time></trkpt><trkpt lat="43.23959071083979" lon="12.116782651139935"><ele>760.0</ele><time>2026-05-02T17:08:12Z</time></trkpt><trkpt lat="43.23964516469943" lon="12.116695279536696"><ele>760.0</ele><time>2026-05-02T17:08:14Z</time></trkpt><trkpt lat="43.239676106866455" lon="12.116572907695561"><ele>760.0</ele><time>2026-05-02T17:08:16Z</time></trkpt><trkpt lat="43.23969514022169" lon="12.11645139239126"><ele>760.0</ele><time>2026-05-02T17:08:18Z</time></trkpt><trkpt lat="43.23971847958782" lon="12.116344044441991"><ele>760.0</ele><time>2026-05-02T17:08:20Z</time></trkpt><trkpt lat="43.23973885559073" lon="12.116244737401347"><ele>760.0</ele><time>2026-05-02T17:08:23Z</time></trkpt><trkpt lat="43.239737969182784" lon="12.116129366878972"><ele>759.1428571428571</ele><time>2026-05-02T17:08:27Z</time></trkpt><trkpt lat="43.23976705743463" lon="12.116044177277658"><ele>758.2857142857143</ele><time>2026-05-02T17:08:29Z</time></trkpt><trkpt lat="43.23979826363513" lon="12.115925924179376"><ele>757.4285714285713</ele><time>2026-05-02T17:08:33Z</time></trkpt><trkpt lat="43.239819645660816" lon="12.11583774571764"><ele>756.5714285714286</ele><time>2026-05-02T17:08:35Z</time></trkpt><trkpt lat="43.23982081731507" lon="12.115746410947803"><ele>755.7142857142857</ele><time>2026-05-02T17:08:36.999Z</time></trkpt><trkpt lat="43.23985218299598" lon="12.11567116172741"><ele>754.8571428571428</ele><time>2026-05-02T17:08:38.999Z</time></trkpt><trkpt lat="43.2399215694753" lon="12.115612092286627"><ele>754.0</ele><time>2026-05-02T17:08:41.999Z</time></trkpt><trkpt lat="43.23998042995282" lon="12.115564946865888"><ele>752.3333333333334</ele><time>2026-05-02T17:08:43.999Z</time></trkpt><trkpt lat="43.24003358883853" lon="12.115487180624235"><ele>750.6666666666667</ele><time>2026-05-02T17:08:46.999Z</time></trkpt><trkpt lat="43.24007771388679" lon="12.115395458422455"><ele>749.0</ele><time>2026-05-02T17:08:49.999Z</time></trkpt><trkpt lat="43.24010056300076" lon="12.11531098919843"><ele>747.3333333333334</ele><time>2026-05-02T17:08:52.999Z</time></trkpt><trkpt lat="43.24013221550584" lon="12.115210818848015"><ele>745.6666666666666</ele><time>2026-05-02T17:08:55.999Z</time></trkpt><trkpt lat="43.24014352089657" lon="12.115085746812136"><ele>744.0</ele><time>2026-05-02T17:08:59.999Z</time></trkpt><trkpt lat="43.24014451682503" lon="12.114993127896552"><ele>744.0000000000001</ele><time>2026-05-02T17:09:02.999Z</time></trkpt><trkpt lat="43.24016485498543" lon="12.114908388494008"><ele>744.0</ele><time>2026-05-02T17:09:31.999Z</time></trkpt><trkpt lat="43.240182125847156" lon="12.114808822442257"><ele>744.0</ele><time>2026-05-02T17:09:36.999Z</time></trkpt><trkpt lat="43.240215724446806" lon="12.114708155630284"><ele>744.0</ele><time>2026-05-02T17:09:41.999Z</time></trkpt><trkpt lat="43.240214676403035" lon="12.114612082229426"><ele>744.0</ele><time>2026-05-02T17:09:44.999Z</time></trkpt><trkpt lat="43.24021324304165" lon="12.114504611885536"><ele>744.0000000000001</ele><time>2026-05-02T17:09:47.999Z</time></trkpt><trkpt lat="43.240223463023646" lon="12.1144110472472"><ele>744.0</ele><time>2026-05-02T17:09:49.999Z</time></trkpt><trkpt lat="43.24021276991196" lon="12.114296501398057"><ele>742.0</ele><time>2026-05-02T17:09:53.999Z</time></trkpt><trkpt lat="43.24017382644971" lon="12.11418822320248"><ele>740.0</ele><time>2026-05-02T17:09:56.999Z</time></trkpt><trkpt lat="43.24013484488318" lon="12.114077143721428"><ele>738.0</ele><time>2026-05-02T17:09:59.999Z</time></trkpt><trkpt lat="43.24011572375516" lon="12.113975992429273"><ele>736.0</ele><time>2026-05-02T17:10:02.999Z</time></trkpt><trkpt lat="43.2401259907514" lon="12.113872744829031"><ele>734.0</ele><time>2026-05-02T17:10:06Z</time></trkpt><trkpt lat="43.24013824136078" lon="12.113768703988656"><ele>732.0</ele><time>2026-05-02T17:10:08Z</time></trkpt><trkpt lat="43.24017164121397" lon="12.113672845554143"><ele>729.5</ele><time>2026-05-02T17:10:11Z</time></trkpt><trkpt lat="43.24023314606313" lon="12.113592040448996"><ele>727.0</ele><time>2026-05-02T17:10:19Z</time></trkpt><trkpt lat="43.2402587698906" lon="12.113485549984869"><ele>724.5</ele><time>2026-05-02T17:10:22Z</time></trkpt><trkpt lat="43.24027881346723" lon="12.113397045828842"><ele>722.0</ele><time>2026-05-02T17:10:24Z</time></trkpt><trkpt lat="43.2403010165614" lon="12.113311838064307"><ele>719.5</ele><time>2026-05-02T17:10:26Z</time></trkpt><trkpt lat="43.24033085044778" lon="12.11319577806494"><ele>717.0</ele><time>2026-05-02T17:10:29Z</time></trkpt><trkpt lat="43.240364122258164" lon="12.113106428513765"><ele>715.5</ele><time>2026-05-02T17:10:33Z</time></trkpt><trkpt lat="43.24038535582089" lon="12.113014257307887"><ele>714.0</ele><time>2026-05-02T17:10:36Z</time></trkpt><trkpt lat="43.24040438336209" lon="12.11292032462225"><ele>712.5</ele><time>2026-05-02T17:10:38Z</time></trkpt><trkpt lat="43.240442564656874" lon="12.112810533410302"><ele>711.0</ele><time>2026-05-02T17:10:41Z</time></trkpt><trkpt lat="43.24046354804093" lon="12.11271061564206"><ele>709.5</ele><time>2026-05-02T17:10:45Z</time></trkpt><trkpt lat="43.24051724218424" lon="12.112639784917796"><ele>708.0</ele><time>2026-05-02T17:10:48Z</time></trkpt><trkpt lat="43.24057843655214" lon="12.112559085227415"><ele>708.0</ele><time>2026-05-02T17:10:50.999Z</time></trkpt><trkpt lat="43.24061417836688" lon="12.112478553376292"><ele>708.0</ele><time>2026-05-02T17:11:04.999Z</time></trkpt><trkpt lat="43.24053768990804" lon="12.112341751941608"><ele>708.0</ele><time>2026-05-02T17:11:07.999Z</time></trkpt><trkpt lat="43.24045698433785" lon="12.112254459915583"><ele>708.0</ele><time>2026-05-02T17:11:09.999Z</time></trkpt><trkpt lat="43.240397834418715" lon="12.112187007460406"><ele>708.0</ele><time>2026-05-02T17:11:12.999Z</time></trkpt><trkpt lat="43.24032566454784" lon="12.112090894700893"><ele>706.0</ele><time>2026-05-02T17:11:14.999Z</time></trkpt><trkpt lat="43.24023855404838" lon="12.111997331101"><ele>704.0</ele><time>2026-05-02T17:11:16.999Z</time></trkpt><trkpt lat="43.24014776655774" lon="12.11192919815071"><ele>702.0</ele><time>2026-05-02T17:11:18.999Z</time></trkpt><trkpt lat="43.2400909902522" lon="12.111886331014121"><ele>700.0</ele><time>2026-05-02T17:11:19.999Z</time></trkpt><trkpt lat="43.23998880408562" lon="12.111844342676449"><ele>698.0</ele><time>2026-05-02T17:11:21.999Z</time></trkpt><trkpt lat="43.239877333977496" lon="12.11182969718529"><ele>698.0</ele><time>2026-05-02T17:11:23.999Z</time></trkpt><trkpt lat="43.23981349861527" lon="12.111819941995728"><ele>698.0</ele><time>2026-05-02T17:11:24.999Z</time></trkpt><trkpt lat="43.23974426779079" lon="12.11182329235122"><ele>698.0</ele><time>2026-05-02T17:11:25.999Z</time></trkpt><trkpt lat="43.239623612633274" lon="12.111879092712583"><ele>698.0</ele><time>2026-05-02T17:11:27.999Z</time></trkpt><trkpt lat="43.23956211812092" lon="12.111930701955881"><ele>698.0</ele><time>2026-05-02T17:11:28.999Z</time></trkpt><trkpt lat="43.2395044770839" lon="12.111997978356127"><ele>698.0</ele><time>2026-05-02T17:11:29.999Z</time></trkpt><trkpt lat="43.239449655576664" lon="12.11206289328023"><ele>696.5999999999999</ele><time>2026-05-02T17:11:30.999Z</time></trkpt><trkpt lat="43.239390972038535" lon="12.112107999272668"><ele>695.1999999999999</ele><time>2026-05-02T17:11:31.999Z</time></trkpt><trkpt lat="43.23927308176591" lon="12.11217762321672"><ele>693.8</ele><time>2026-05-02T17:11:33.999Z</time></trkpt><trkpt lat="43.239197325706876" lon="12.11217250513794"><ele>692.4</ele><time>2026-05-02T17:11:34.999Z</time></trkpt><trkpt lat="43.23907585045878" lon="12.112103536344017"><ele>691.0</ele><time>2026-05-02T17:11:36.999Z</time></trkpt><trkpt lat="43.23900048279928" lon="12.112047950673812"><ele>690.6666666666667</ele><time>2026-05-02T17:11:37.999Z</time></trkpt><trkpt lat="43.23893449748856" lon="12.111996937249739"><ele>690.3333333333334</ele><time>2026-05-02T17:11:38.999Z</time></trkpt><trkpt lat="43.23886193344448" lon="12.111946031312174"><ele>690.0</ele><time>2026-05-02T17:11:39.999Z</time></trkpt><trkpt lat="43.238789207893454" lon="12.111911708909778"><ele>689.6666666666666</ele><time>2026-05-02T17:11:40.999Z</time></trkpt><trkpt lat="43.238706164578346" lon="12.111885424241676"><ele>689.3333333333333</ele><time>2026-05-02T17:11:41.999Z</time></trkpt><trkpt lat="43.238588889699194" lon="12.111884070356567"><ele>689.0</ele><time>2026-05-02T17:11:43.999Z</time></trkpt><trkpt lat="43.2384902819896" lon="12.111952894048645"><ele>689.0</ele><time>2026-05-02T17:11:45.999Z</time></trkpt><trkpt lat="43.238444035020756" lon="12.112023391486343"><ele>689.0</ele><time>2026-05-02T17:11:46.999Z</time></trkpt><trkpt lat="43.23837395755174" lon="12.112138666259803"><ele>689.0</ele><time>2026-05-02T17:11:48.999Z</time></trkpt><trkpt lat="43.238272448223945" lon="12.11209156542918"><ele>689.0</ele><time>2026-05-02T17:11:50.999Z</time></trkpt><trkpt lat="43.2381854045365" lon="12.111965928796147"><ele>689.0</ele><time>2026-05-02T17:11:52.999Z</time></trkpt><trkpt lat="43.23812562081845" lon="12.111921359022741"><ele>688.5</ele><time>2026-05-02T17:11:53.999Z</time></trkpt><trkpt lat="43.23805338042277" lon="12.111844911810767"><ele>688.0</ele><time>2026-05-02T17:11:55.999Z</time></trkpt><trkpt lat="43.237994005218724" lon="12.11173214648646"><ele>687.5</ele><time>2026-05-02T17:11:57.999Z</time></trkpt><trkpt lat="43.23794616840537" lon="12.11166330354383"><ele>687.0</ele><time>2026-05-02T17:11:58.999Z</time></trkpt><trkpt lat="43.237899435244174" lon="12.111604047984502"><ele>686.5</ele><time>2026-05-02T17:11:59.999Z</time></trkpt><trkpt lat="43.23780074769944" lon="12.111517389358221"><ele>686.0</ele><time>2026-05-02T17:12:01.999Z</time></trkpt><trkpt lat="43.237738905790415" lon="12.111487839217226"><ele>684.5</ele><time>2026-05-02T17:12:02.999Z</time></trkpt><trkpt lat="43.23766519657031" lon="12.111450333061397"><ele>683.0</ele><time>2026-05-02T17:12:03.999Z</time></trkpt><trkpt lat="43.23759840769531" lon="12.11142557376197"><ele>681.5</ele><time>2026-05-02T17:12:04.999Z</time></trkpt><trkpt lat="43.23753147848374" lon="12.111414070665086"><ele>680.0</ele><time>2026-05-02T17:12:05.999Z</time></trkpt><trkpt lat="43.23746779081434" lon="12.111347322874494"><ele>678.5</ele><time>2026-05-02T17:12:07.999Z</time></trkpt><trkpt lat="43.23741052122489" lon="12.111241693356558"><ele>677.0</ele><time>2026-05-02T17:12:09.999Z</time></trkpt><trkpt lat="43.23732899705666" lon="12.111208047230054"><ele>674.75</ele><time>2026-05-02T17:12:12Z</time></trkpt><trkpt lat="43.2372520176736" lon="12.11123623980155"><ele>672.5</ele><time>2026-05-02T17:12:14Z</time></trkpt><trkpt lat="43.23717680988321" lon="12.111339745935933"><ele>670.25</ele><time>2026-05-02T17:12:16Z</time></trkpt><trkpt lat="43.237082723023335" lon="12.111457878416596"><ele>668.0</ele><time>2026-05-02T17:12:18Z</time></trkpt><trkpt lat="43.237010506862674" lon="12.111628020716925"><ele>668.0</ele><time>2026-05-02T17:12:20Z</time></trkpt><trkpt lat="43.23697100402287" lon="12.111747646565528"><ele>668.0</ele><time>2026-05-02T17:12:21Z</time></trkpt><trkpt lat="43.236935956651884" lon="12.111863637907234"><ele>668.0</ele><time>2026-05-02T17:12:22Z</time></trkpt><trkpt lat="43.23690651974399" lon="12.111961702544479"><ele>668.0</ele><time>2026-05-02T17:12:23Z</time></trkpt><trkpt lat="43.23688552236621" lon="12.112060963084186"><ele>668.0</ele><time>2026-05-02T17:12:24Z</time></trkpt><trkpt lat="43.236875157483304" lon="12.11215901253784"><ele>668.0</ele><time>2026-05-02T17:12:25Z</time></trkpt><trkpt lat="43.23687322273387" lon="12.112247439966326"><ele>668.0</ele><time>2026-05-02T17:12:26Z</time></trkpt><trkpt lat="43.23688490627374" lon="12.112348159012363"><ele>668.0</ele><time>2026-05-02T17:12:27Z</time></trkpt><trkpt lat="43.23688927678892" lon="12.112454490507345"><ele>668.0</ele><time>2026-05-02T17:12:28Z</time></trkpt><trkpt lat="43.23690840414963" lon="12.112558224118663"><ele>668.0</ele><time>2026-05-02T17:12:29Z</time></trkpt><trkpt lat="43.23688667702249" lon="12.112673959802823"><ele>668.0</ele><time>2026-05-02T17:12:31Z</time></trkpt><trkpt lat="43.23680175791192" lon="12.11268932126032"><ele>668.0</ele><time>2026-05-02T17:12:33Z</time></trkpt><trkpt lat="43.23673897069858" lon="12.112659655521753"><ele>668.2</ele><time>2026-05-02T17:12:34Z</time></trkpt><trkpt lat="43.236668063451596" lon="12.112587523522286"><ele>668.4</ele><time>2026-05-02T17:12:35Z</time></trkpt><trkpt lat="43.2365932343035" lon="12.112505080888182"><ele>668.6</ele><time>2026-05-02T17:12:36Z</time></trkpt><trkpt lat="43.236497333944534" lon="12.112440257374077"><ele>668.8000000000001</ele><time>2026-05-02T17:12:38Z</time></trkpt><trkpt lat="43.23637990913396" lon="12.11248440179332"><ele>669.0</ele><time>2026-05-02T17:12:39.999Z</time></trkpt><trkpt lat="43.23629904123241" lon="12.112544010045765"><ele>669.0</ele><time>2026-05-02T17:12:40.999Z</time></trkpt><trkpt lat="43.23622766123777" lon="12.112588907528213"><ele>669.0</ele><time>2026-05-02T17:12:41.999Z</time></trkpt><trkpt lat="43.23616192633616" lon="12.112614810134975"><ele>669.0</ele><time>2026-05-02T17:12:42.999Z</time></trkpt><trkpt lat="43.23604602928094" lon="12.112611263801313"><ele>669.0</ele><time>2026-05-02T17:12:44.999Z</time></trkpt><trkpt lat="43.23600609224705" lon="12.112543899232831"><ele>669.0</ele><time>2026-05-02T17:12:45.999Z</time></trkpt><trkpt lat="43.23590448217925" lon="12.112488411254972"><ele>669.0</ele><time>2026-05-02T17:12:47.999Z</time></trkpt><trkpt lat="43.23581863309746" lon="12.112469235337361"><ele>669.0</ele><time>2026-05-02T17:12:49.999Z</time></trkpt><trkpt lat="43.23573559696009" lon="12.112508749958451"><ele>669.0</ele><time>2026-05-02T17:12:51.999Z</time></trkpt><trkpt lat="43.23567629515074" lon="12.112643966069449"><ele>669.0</ele><time>2026-05-02T17:12:53.999Z</time></trkpt><trkpt lat="43.2356661305353" lon="12.112779853095608"><ele>669.0</ele><time>2026-05-02T17:12:55.999Z</time></trkpt><trkpt lat="43.235684174267774" lon="12.112874633771474"><ele>669.0</ele><time>2026-05-02T17:12:56.999Z</time></trkpt><trkpt lat="43.235717947356314" lon="12.112967118732563"><ele>669.0</ele><time>2026-05-02T17:12:57.999Z</time></trkpt><trkpt lat="43.23575607780826" lon="12.113060966629288"><ele>669.0</ele><time>2026-05-02T17:12:58.999Z</time></trkpt><trkpt lat="43.23578819380048" lon="12.113162715502401"><ele>669.0</ele><time>2026-05-02T17:12:59.999Z</time></trkpt><trkpt lat="43.235827107655844" lon="12.113253863907515"><ele>669.0</ele><time>2026-05-02T17:13:00.999Z</time></trkpt><trkpt lat="43.23586849203908" lon="12.113356223174051"><ele>669.0</ele><time>2026-05-02T17:13:01.999Z</time></trkpt><trkpt lat="43.23590935764477" lon="12.113473585660104"><ele>669.0</ele><time>2026-05-02T17:13:02.999Z</time></trkpt><trkpt lat="43.235941422003634" lon="12.113591780843624"><ele>669.0</ele><time>2026-05-02T17:13:03.999Z</time></trkpt><trkpt lat="43.235962188957195" lon="12.113689136934614"><ele>669.8000000000001</ele><time>2026-05-02T17:13:04.999Z</time></trkpt><trkpt lat="43.23597373260196" lon="12.113779346019632"><ele>670.6</ele><time>2026-05-02T17:13:05.999Z</time></trkpt><trkpt lat="43.2359898322342" lon="12.113912931497387"><ele>671.4</ele><time>2026-05-02T17:13:07.999Z</time></trkpt><trkpt lat="43.23599863138275" lon="12.114033749930183"><ele>672.2</ele><time>2026-05-02T17:13:10.999Z</time></trkpt><trkpt lat="43.23594196486265" lon="12.114152986728762"><ele>673.0</ele><time>2026-05-02T17:13:12.999Z</time></trkpt><trkpt lat="43.23590248239468" lon="12.114312353847676"><ele>673.4</ele><time>2026-05-02T17:13:14.999Z</time></trkpt><trkpt lat="43.235853965320324" lon="12.114452972822713"><ele>673.8</ele><time>2026-05-02T17:13:16.999Z</time></trkpt><trkpt lat="43.2357983953722" lon="12.114579591469086"><ele>674.2</ele><time>2026-05-02T17:13:18.999Z</time></trkpt><trkpt lat="43.235740318262174" lon="12.114641499968114"><ele>674.6</ele><time>2026-05-02T17:13:19.999Z</time></trkpt><trkpt lat="43.23566642844256" lon="12.114709153589281"><ele>675.0</ele><time>2026-05-02T17:13:21.999Z</time></trkpt><trkpt lat="43.23560669874348" lon="12.114847674146903"><ele>673.1666666666666</ele><time>2026-05-02T17:13:23.999Z</time></trkpt><trkpt lat="43.235580131374405" lon="12.114943720973852"><ele>671.3333333333334</ele><time>2026-05-02T17:13:24.999Z</time></trkpt><trkpt lat="43.2355507693722" lon="12.11505411349878"><ele>669.5</ele><time>2026-05-02T17:13:25.999Z</time></trkpt><trkpt lat="43.235524627903786" lon="12.115157964827656"><ele>667.6666666666667</ele><time>2026-05-02T17:13:26.999Z</time></trkpt><trkpt lat="43.23549584198263" lon="12.115254399733741"><ele>665.8333333333334</ele><time>2026-05-02T17:13:27.999Z</time></trkpt><trkpt lat="43.23547362565794" lon="12.115354228776917"><ele>664.0</ele><time>2026-05-02T17:13:28.999Z</time></trkpt><trkpt lat="43.2354271887312" lon="12.115417295695607"><ele>664.0</ele><time>2026-05-02T17:13:29.999Z</time></trkpt><trkpt lat="43.23536288062365" lon="12.115467131573608"><ele>664.0</ele><time>2026-05-02T17:13:30.999Z</time></trkpt><trkpt lat="43.235280071714634" lon="12.115502007791102"><ele>664.0</ele><time>2026-05-02T17:13:31.999Z</time></trkpt><trkpt lat="43.2351912034892" lon="12.11550079488205"><ele>664.0</ele><time>2026-05-02T17:13:32.999Z</time></trkpt><trkpt lat="43.23510053325342" lon="12.115503521735324"><ele>664.0</ele><time>2026-05-02T17:13:33.999Z</time></trkpt><trkpt lat="43.235009373877624" lon="12.115518675223262"><ele>664.0</ele><time>2026-05-02T17:13:34.999Z</time></trkpt><trkpt lat="43.23492095772546" lon="12.115542015118956"><ele>664.0</ele><time>2026-05-02T17:13:35.999Z</time></trkpt><trkpt lat="43.23484042807232" lon="12.115549244128575"><ele>664.0</ele><time>2026-05-02T17:13:36.999Z</time></trkpt><trkpt lat="43.234756395447455" lon="12.115544330404271"><ele>664.0</ele><time>2026-05-02T17:13:37.999Z</time></trkpt><trkpt lat="43.23466323264587" lon="12.115548708868626"><ele>664.0</ele><time>2026-05-02T17:13:38.999Z</time></trkpt><trkpt lat="43.2345571483506" lon="12.115553815571548"><ele>664.0</ele><time>2026-05-02T17:13:39.999Z</time></trkpt><trkpt lat="43.234466326615255" lon="12.115564487825008"><ele>663.8333333333334</ele><time>2026-05-02T17:13:40.999Z</time></trkpt><trkpt lat="43.23439119490396" lon="12.11558414168346"><ele>663.6666666666667</ele><time>2026-05-02T17:13:41.999Z</time></trkpt><trkpt lat="43.23433536208865" lon="12.115631172028987"><ele>663.5</ele><time>2026-05-02T17:13:42.999Z</time></trkpt><trkpt lat="43.234284592467986" lon="12.115687202213321"><ele>663.3333333333334</ele><time>2026-05-02T17:13:43.999Z</time></trkpt><trkpt lat="43.234239142259725" lon="12.115764044532975"><ele>663.1666666666666</ele><time>2026-05-02T17:13:44.999Z</time></trkpt><trkpt lat="43.23417503045627" lon="12.115824688042508"><ele>663.0</ele><time>2026-05-02T17:13:45.999Z</time></trkpt><trkpt lat="43.234127668761474" lon="12.115945016882124"><ele>661.0</ele><time>2026-05-02T17:13:46.999Z</time></trkpt><trkpt lat="43.23409234060667" lon="12.116084224201774"><ele>659.0</ele><time>2026-05-02T17:13:47.999Z</time></trkpt><trkpt lat="43.23404524247931" lon="12.116196101554289"><ele>657.0</ele><time>2026-05-02T17:13:48.999Z</time></trkpt><trkpt lat="43.23400212390362" lon="12.116300088681552"><ele>655.0</ele><time>2026-05-02T17:13:49.999Z</time></trkpt><trkpt lat="43.233965979803834" lon="12.116401793742645"><ele>653.0</ele><time>2026-05-02T17:13:50.999Z</time></trkpt><trkpt lat="43.233911443998785" lon="12.116493823553323"><ele>655.6666666666666</ele><time>2026-05-02T17:13:51.999Z</time></trkpt><trkpt lat="43.233874471484214" lon="12.116596032879873"><ele>658.3333333333333</ele><time>2026-05-02T17:13:52.999Z</time></trkpt><trkpt lat="43.233839277759955" lon="12.116697316460614"><ele>661.0</ele><time>2026-05-02T17:13:53.999Z</time></trkpt><trkpt lat="43.23380852975337" lon="12.116777070154157"><ele>663.6666666666666</ele><time>2026-05-02T17:13:54.999Z</time></trkpt><trkpt lat="43.23373095604173" lon="12.116902407333441"><ele>666.3333333333334</ele><time>2026-05-02T17:13:56.999Z</time></trkpt><trkpt lat="43.23365716163585" lon="12.116927165909551"><ele>669.0</ele><time>2026-05-02T17:13:57.999Z</time></trkpt><trkpt lat="43.23357731480538" lon="12.116902175595776"><ele>669.0</ele><time>2026-05-02T17:13:58.999Z</time></trkpt><trkpt lat="43.233501915911944" lon="12.116927191282937"><ele>669.0</ele><time>2026-05-02T17:13:59.999Z</time></trkpt><trkpt lat="43.23342054178966" lon="12.116968870798743"><ele>669.0</ele><time>2026-05-02T17:14:00.999Z</time></trkpt><trkpt lat="43.23333849656349" lon="12.117035259498751"><ele>669.0</ele><time>2026-05-02T17:14:01.999Z</time></trkpt><trkpt lat="43.233253920860356" lon="12.117115034845154"><ele>669.0</ele><time>2026-05-02T17:14:02.999Z</time></trkpt><trkpt lat="43.23317793189399" lon="12.117177281434081"><ele>665.5</ele><time>2026-05-02T17:14:03.999Z</time></trkpt><trkpt lat="43.233114252684956" lon="12.117241463416422"><ele>662.0</ele><time>2026-05-02T17:14:04.999Z</time></trkpt><trkpt lat="43.232107872405116" lon="12.118208706125857"><ele>665.8</ele><time>2026-05-02T17:14:26.001Z</time></trkpt><trkpt lat="43.23202178187358" lon="12.118329503452632"><ele>669.6</ele><time>2026-05-02T17:14:28.001Z</time></trkpt><trkpt lat="43.23200985869652" lon="12.11848595295547"><ele>673.4</ele><time>2026-05-02T17:14:30.001Z</time></trkpt><trkpt lat="43.23203390516932" lon="12.118573870703226"><ele>677.1999999999999</ele><time>2026-05-02T17:14:31.001Z</time></trkpt><trkpt lat="43.23207364655698" lon="12.11873947857482"><ele>681.0</ele><time>2026-05-02T17:14:33.001Z</time></trkpt><trkpt lat="43.232085119887444" lon="12.118937171234498"><ele>681.0</ele><time>2026-05-02T17:14:35.001Z</time></trkpt><trkpt lat="43.2320737121976" lon="12.119045297981703"><ele>681.0</ele><time>2026-05-02T17:14:36.001Z</time></trkpt><trkpt lat="43.232070080578026" lon="12.119147105938884"><ele>681.0</ele><time>2026-05-02T17:14:37.001Z</time></trkpt><trkpt lat="43.232068882930065" lon="12.11924873826998"><ele>681.0</ele><time>2026-05-02T17:14:38.001Z</time></trkpt><trkpt lat="43.232072903688454" lon="12.119342162191273"><ele>681.0</ele><time>2026-05-02T17:14:39.001Z</time></trkpt><trkpt lat="43.232088466973885" lon="12.119442631654021"><ele>681.0</ele><time>2026-05-02T17:14:40.001Z</time></trkpt><trkpt lat="43.23209898943686" lon="12.119550180543166"><ele>683.1999999999999</ele><time>2026-05-02T17:14:41.001Z</time></trkpt><trkpt lat="43.23211005947108" lon="12.119648302463482"><ele>685.4</ele><time>2026-05-02T17:14:42Z</time></trkpt><trkpt lat="43.23212810325002" lon="12.119804305339844"><ele>687.6</ele><time>2026-05-02T17:14:44Z</time></trkpt><trkpt lat="43.23209133458454" lon="12.11987547877848"><ele>689.8</ele><time>2026-05-02T17:14:46Z</time></trkpt><trkpt lat="43.23199102224162" lon="12.119916365551429"><ele>692.0</ele><time>2026-05-02T17:14:48Z</time></trkpt><trkpt lat="43.231884124905655" lon="12.119892961340694"><ele>692.0</ele><time>2026-05-02T17:14:50Z</time></trkpt><trkpt lat="43.23181405158424" lon="12.119878768381128"><ele>692.0</ele><time>2026-05-02T17:14:51Z</time></trkpt><trkpt lat="43.23174507949923" lon="12.11986694825823"><ele>692.0</ele><time>2026-05-02T17:14:52Z</time></trkpt><trkpt lat="43.23166860566602" lon="12.119869737906324"><ele>692.0</ele><time>2026-05-02T17:14:53Z</time></trkpt><trkpt lat="43.23158757388852" lon="12.119896343933332"><ele>692.0</ele><time>2026-05-02T17:14:54Z</time></trkpt><trkpt lat="43.231507001042004" lon="12.119945992641691"><ele>692.0</ele><time>2026-05-02T17:14:55Z</time></trkpt><trkpt lat="43.231431825683956" lon="12.120014413477826"><ele>691.6666666666666</ele><time>2026-05-02T17:14:56Z</time></trkpt><trkpt lat="43.23136292967962" lon="12.120098729211106"><ele>691.3333333333333</ele><time>2026-05-02T17:14:57Z</time></trkpt><trkpt lat="43.23130228562277" lon="12.12019735775228"><ele>691.0</ele><time>2026-05-02T17:14:58Z</time></trkpt><trkpt lat="43.23124745379756" lon="12.120296605967711"><ele>690.6666666666666</ele><time>2026-05-02T17:14:59Z</time></trkpt><trkpt lat="43.23120213672941" lon="12.120386827432826"><ele>690.3333333333334</ele><time>2026-05-02T17:15:00Z</time></trkpt><trkpt lat="43.23116498543985" lon="12.120476352444157"><ele>690.0</ele><time>2026-05-02T17:15:01Z</time></trkpt><trkpt lat="43.231140877816536" lon="12.12056875740177"><ele>690.0</ele><time>2026-05-02T17:15:02Z</time></trkpt><trkpt lat="43.231132098136825" lon="12.120667154453596"><ele>690.0</ele><time>2026-05-02T17:15:03Z</time></trkpt><trkpt lat="43.23112897177371" lon="12.120780365768166"><ele>690.0</ele><time>2026-05-02T17:15:04Z</time></trkpt><trkpt lat="43.23112904343339" lon="12.12090162199846"><ele>690.0</ele><time>2026-05-02T17:15:05Z</time></trkpt><trkpt lat="43.23112759924395" lon="12.121013219398064"><ele>690.0</ele><time>2026-05-02T17:15:06Z</time></trkpt><trkpt lat="43.231125055601375" lon="12.121125069260557"><ele>690.0</ele><time>2026-05-02T17:15:07Z</time></trkpt><trkpt lat="43.23112438778471" lon="12.121241220806532"><ele>691.4</ele><time>2026-05-02T17:15:08Z</time></trkpt><trkpt lat="43.23112403694651" lon="12.121366528447101"><ele>692.8</ele><time>2026-05-02T17:15:09Z</time></trkpt><trkpt lat="43.23112707109702" lon="12.121500065355571"><ele>694.2</ele><time>2026-05-02T17:15:10Z</time></trkpt><trkpt lat="43.23112605564447" lon="12.12163636715739"><ele>695.6</ele><time>2026-05-02T17:15:11Z</time></trkpt><trkpt lat="43.23112174187597" lon="12.121770945403464"><ele>697.0</ele><time>2026-05-02T17:15:12Z</time></trkpt><trkpt lat="43.23111571090058" lon="12.121909063909825"><ele>697.0</ele><time>2026-05-02T17:15:13Z</time></trkpt><trkpt lat="43.23111150662766" lon="12.122036859369514"><ele>697.0</ele><time>2026-05-02T17:15:14Z</time></trkpt><trkpt lat="43.23111223904962" lon="12.122156771629637"><ele>697.0</ele><time>2026-05-02T17:15:15Z</time></trkpt><trkpt lat="43.23111589059341" lon="12.1222718898324"><ele>697.0</ele><time>2026-05-02T17:15:16Z</time></trkpt><trkpt lat="43.23112657319636" lon="12.122399687030978"><ele>697.0</ele><time>2026-05-02T17:15:17Z</time></trkpt><trkpt lat="43.231141893965656" lon="12.122521117431267"><ele>697.0</ele><time>2026-05-02T17:15:18Z</time></trkpt><trkpt lat="43.23116718907179" lon="12.122636420838575"><ele>696.4000000000001</ele><time>2026-05-02T17:15:19Z</time></trkpt><trkpt lat="43.23119557228305" lon="12.122737349614416"><ele>695.8000000000001</ele><time>2026-05-02T17:15:20Z</time></trkpt><trkpt lat="43.23122455583802" lon="12.122824450868624"><ele>695.2</ele><time>2026-05-02T17:15:21Z</time></trkpt><trkpt lat="43.23128006981886" lon="12.122970687987742"><ele>694.6</ele><time>2026-05-02T17:15:23Z</time></trkpt><trkpt lat="43.23132736679493" lon="12.123126094499149"><ele>694.0</ele><time>2026-05-02T17:15:25Z</time></trkpt><trkpt lat="43.23143797151751" lon="12.12324356392388"><ele>696.6666666666667</ele><time>2026-05-02T17:15:27Z</time></trkpt><trkpt lat="43.23150860790538" lon="12.123281286475034"><ele>699.3333333333334</ele><time>2026-05-02T17:15:28Z</time></trkpt><trkpt lat="43.23158109537822" lon="12.123319338174502"><ele>702.0</ele><time>2026-05-02T17:15:29Z</time></trkpt><trkpt lat="43.23165453299014" lon="12.123351935141315"><ele>704.6666666666666</ele><time>2026-05-02T17:15:30Z</time></trkpt><trkpt lat="43.23172501640084" lon="12.123382565584764"><ele>707.3333333333333</ele><time>2026-05-02T17:15:31Z</time></trkpt><trkpt lat="43.23179630178638" lon="12.123497168063551"><ele>710.0</ele><time>2026-05-02T17:15:33Z</time></trkpt><trkpt lat="43.23179891572466" lon="12.12360131540631"><ele>710.0</ele><time>2026-05-02T17:15:34Z</time></trkpt><trkpt lat="43.231788398451705" lon="12.123708555712374"><ele>710.0</ele><time>2026-05-02T17:15:35Z</time></trkpt><trkpt lat="43.23177221276441" lon="12.123820979060534"><ele>710.0</ele><time>2026-05-02T17:15:36Z</time></trkpt><trkpt lat="43.231754075527064" lon="12.123910386687811"><ele>710.0</ele><time>2026-05-02T17:15:37Z</time></trkpt><trkpt lat="43.231747351383056" lon="12.12401849840252"><ele>710.0</ele><time>2026-05-02T17:15:38Z</time></trkpt><trkpt lat="43.23174758059374" lon="12.1241154129603"><ele>710.0</ele><time>2026-05-02T17:15:39Z</time></trkpt><trkpt lat="43.23173838761646" lon="12.124203045548832"><ele>710.0</ele><time>2026-05-02T17:15:40Z</time></trkpt><trkpt lat="43.231732257427915" lon="12.124290778280725"><ele>709.0</ele><time>2026-05-02T17:15:41Z</time></trkpt><trkpt lat="43.23171617462398" lon="12.124452069315396"><ele>708.0</ele><time>2026-05-02T17:15:43Z</time></trkpt><trkpt lat="43.231711599419036" lon="12.124570990448664"><ele>707.0</ele><time>2026-05-02T17:15:44Z</time></trkpt><trkpt lat="43.23171436805458" lon="12.124677800802207"><ele>706.0</ele><time>2026-05-02T17:15:45Z</time></trkpt><trkpt lat="43.231698417212016" lon="12.124766975026567"><ele>705.0</ele><time>2026-05-02T17:15:46Z</time></trkpt><trkpt lat="43.23166537074445" lon="12.124846457918007"><ele>704.0</ele><time>2026-05-02T17:15:47Z</time></trkpt><trkpt lat="43.23161542729478" lon="12.124943179321324"><ele>704.0</ele><time>2026-05-02T17:15:48Z</time></trkpt><trkpt lat="43.23157392585765" lon="12.125021713825575"><ele>704.0</ele><time>2026-05-02T17:15:49Z</time></trkpt><trkpt lat="43.231541377398656" lon="12.125104011238976"><ele>704.0</ele><time>2026-05-02T17:15:50Z</time></trkpt><trkpt lat="43.23151830602269" lon="12.125190692009896"><ele>704.0</ele><time>2026-05-02T17:15:51Z</time></trkpt><trkpt lat="43.23149587997772" lon="12.125281842294468"><ele>704.0</ele><time>2026-05-02T17:15:52Z</time></trkpt><trkpt lat="43.231466946628885" lon="12.125384343640173"><ele>704.0</ele><time>2026-05-02T17:15:53Z</time></trkpt><trkpt lat="43.23143869244349" lon="12.125463576994695"><ele>704.0</ele><time>2026-05-02T17:15:54Z</time></trkpt><trkpt lat="43.231401029486015" lon="12.125559053890255"><ele>697.8000000000001</ele><time>2026-05-02T17:15:55Z</time></trkpt><trkpt lat="43.23134672677428" lon="12.125694400694481"><ele>691.6</ele><time>2026-05-02T17:15:57Z</time></trkpt><trkpt lat="43.23135506103753" lon="12.125859594709905"><ele>685.4</ele><time>2026-05-02T17:15:59Z</time></trkpt><trkpt lat="43.231389411596744" lon="12.126019550328575"><ele>679.2</ele><time>2026-05-02T17:16:01Z</time></trkpt><trkpt lat="43.231403014552484" lon="12.126129892731287"><ele>673.0</ele><time>2026-05-02T17:16:02Z</time></trkpt><trkpt lat="43.23141017148492" lon="12.126224793530127"><ele>673.0</ele><time>2026-05-02T17:16:03Z</time></trkpt><trkpt lat="43.23140145788712" lon="12.126316504471385"><ele>673.0</ele><time>2026-05-02T17:16:04Z</time></trkpt><trkpt lat="43.23133950519016" lon="12.126443663198168"><ele>673.0</ele><time>2026-05-02T17:16:06Z</time></trkpt><trkpt lat="43.231239839429094" lon="12.126566793183605"><ele>673.0</ele><time>2026-05-02T17:16:08Z</time></trkpt><trkpt lat="43.23119389032736" lon="12.126719803432115"><ele>673.0</ele><time>2026-05-02T17:16:10Z</time></trkpt><trkpt lat="43.23119140633854" lon="12.126806297090399"><ele>674.8333333333334</ele><time>2026-05-02T17:16:11Z</time></trkpt><trkpt lat="43.23119947185303" lon="12.126907035655316"><ele>676.6666666666667</ele><time>2026-05-02T17:16:12Z</time></trkpt><trkpt lat="43.23120954471126" lon="12.127033240124437"><ele>678.5</ele><time>2026-05-02T17:16:13Z</time></trkpt><trkpt lat="43.23121338572702" lon="12.127151993771458"><ele>680.3333333333334</ele><time>2026-05-02T17:16:14Z</time></trkpt><trkpt lat="43.231216281560876" lon="12.127251006416593"><ele>682.1666666666666</ele><time>2026-05-02T17:16:15Z</time></trkpt><trkpt lat="43.23123626156669" lon="12.127342970044129"><ele>684.0</ele><time>2026-05-02T17:16:16Z</time></trkpt><trkpt lat="43.23126523032387" lon="12.12746230353853"><ele>685.5</ele><time>2026-05-02T17:16:17Z</time></trkpt><trkpt lat="43.231302550425596" lon="12.127562704228636"><ele>687.0</ele><time>2026-05-02T17:16:18Z</time></trkpt><trkpt lat="43.23134506145403" lon="12.127671800934886"><ele>688.5</ele><time>2026-05-02T17:16:19Z</time></trkpt><trkpt lat="43.231389096113105" lon="12.127779968710948"><ele>690.0</ele><time>2026-05-02T17:16:20Z</time></trkpt><trkpt lat="43.231439058171176" lon="12.127888124872568"><ele>691.5</ele><time>2026-05-02T17:16:21Z</time></trkpt><trkpt lat="43.23149820430458" lon="12.127985627152551"><ele>693.0</ele><time>2026-05-02T17:16:22Z</time></trkpt><trkpt lat="43.23154337346588" lon="12.128078935994711"><ele>693.3333333333334</ele><time>2026-05-02T17:16:23Z</time></trkpt><trkpt lat="43.231594144118915" lon="12.12816685941027"><ele>693.6666666666666</ele><time>2026-05-02T17:16:24.001Z</time></trkpt><trkpt lat="43.23163309298138" lon="12.128244268620506"><ele>694.0</ele><time>2026-05-02T17:16:25.001Z</time></trkpt><trkpt lat="43.23166105945339" lon="12.128328533573304"><ele>694.3333333333333</ele><time>2026-05-02T17:16:26.001Z</time></trkpt><trkpt lat="43.23161017875249" lon="12.128488749922544"><ele>694.6666666666666</ele><time>2026-05-02T17:16:28.001Z</time></trkpt><trkpt lat="43.23154515738792" lon="12.128598123789951"><ele>695.0</ele><time>2026-05-02T17:16:30.001Z</time></trkpt><trkpt lat="43.23146498171125" lon="12.12869341735893"><ele>695.0</ele><time>2026-05-02T17:16:32.001Z</time></trkpt><trkpt lat="43.231411180262185" lon="12.128762182628181"><ele>695.0</ele><time>2026-05-02T17:16:33Z</time></trkpt><trkpt lat="43.2313515479032" lon="12.12883348783779"><ele>695.0</ele><time>2026-05-02T17:16:34Z</time></trkpt><trkpt lat="43.231279261444634" lon="12.128913110792947"><ele>695.0</ele><time>2026-05-02T17:16:35Z</time></trkpt><trkpt lat="43.23120227538658" lon="12.129005155916056"><ele>695.0</ele><time>2026-05-02T17:16:36Z</time></trkpt><trkpt lat="43.231148554840814" lon="12.129128407809594"><ele>697.5</ele><time>2026-05-02T17:16:37Z</time></trkpt><trkpt lat="43.23108874311673" lon="12.129215347308687"><ele>700.0</ele><time>2026-05-02T17:16:38Z</time></trkpt><trkpt lat="43.23103811422558" lon="12.129295599243223"><ele>702.5</ele><time>2026-05-02T17:16:39Z</time></trkpt><trkpt lat="43.230998484969" lon="12.129366896833622"><ele>705.0</ele><time>2026-05-02T17:16:40Z</time></trkpt><trkpt lat="43.23095745189711" lon="12.129445162076648"><ele>707.5</ele><time>2026-05-02T17:16:41Z</time></trkpt><trkpt lat="43.230917336508526" lon="12.129531167429644"><ele>710.0</ele><time>2026-05-02T17:16:42Z</time></trkpt><trkpt lat="43.23087722766235" lon="12.12963361604653"><ele>710.0</ele><time>2026-05-02T17:16:43Z</time></trkpt><trkpt lat="43.23084740749496" lon="12.12972178182157"><ele>710.0</ele><time>2026-05-02T17:16:44Z</time></trkpt><trkpt lat="43.23081463143835" lon="12.12979905410849"><ele>710.0</ele><time>2026-05-02T17:16:45Z</time></trkpt><trkpt lat="43.230786427095644" lon="12.129887504789918"><ele>710.0</ele><time>2026-05-02T17:16:46Z</time></trkpt><trkpt lat="43.23075252776555" lon="12.129993476958823"><ele>710.0</ele><time>2026-05-02T17:16:47Z</time></trkpt><trkpt lat="43.23074346088863" lon="12.130106635854958"><ele>710.0</ele><time>2026-05-02T17:16:48Z</time></trkpt><trkpt lat="43.230727250651775" lon="12.130218605373233"><ele>713.0</ele><time>2026-05-02T17:16:49Z</time></trkpt><trkpt lat="43.23072772574121" lon="12.13031801675332"><ele>716.0</ele><time>2026-05-02T17:16:50Z</time></trkpt><trkpt lat="43.23072696202223" lon="12.130435955301252"><ele>719.0</ele><time>2026-05-02T17:16:51Z</time></trkpt><trkpt lat="43.23076361841792" lon="12.13054148781219"><ele>722.0</ele><time>2026-05-02T17:16:52Z</time></trkpt><trkpt lat="43.23081339573747" lon="12.130636715949628"><ele>725.0</ele><time>2026-05-02T17:16:53Z</time></trkpt><trkpt lat="43.23083383143817" lon="12.130768530988755"><ele>728.0</ele><time>2026-05-02T17:16:54Z</time></trkpt><trkpt lat="43.23087920939721" lon="12.130889614278052"><ele>728.0</ele><time>2026-05-02T17:16:55Z</time></trkpt><trkpt lat="43.23093112914146" lon="12.131002625450254"><ele>728.0</ele><time>2026-05-02T17:16:56Z</time></trkpt><trkpt lat="43.230991986534555" lon="12.13108823812768"><ele>728.0</ele><time>2026-05-02T17:16:57Z</time></trkpt><trkpt lat="43.231030505735845" lon="12.131185818114899"><ele>728.0</ele><time>2026-05-02T17:16:58Z</time></trkpt><trkpt lat="43.231063880285966" lon="12.13128462944075"><ele>728.0</ele><time>2026-05-02T17:16:59Z</time></trkpt><trkpt lat="43.23108678122955" lon="12.131384940342823"><ele>728.0</ele><time>2026-05-02T17:17:00Z</time></trkpt><trkpt lat="43.23110371948833" lon="12.131472666944902"><ele>726.4</ele><time>2026-05-02T17:17:01Z</time></trkpt><trkpt lat="43.231125214622644" lon="12.131567451406623"><ele>724.8</ele><time>2026-05-02T17:17:02Z</time></trkpt><trkpt lat="43.23114304331654" lon="12.131652107315716"><ele>723.2</ele><time>2026-05-02T17:17:03Z</time></trkpt><trkpt lat="43.2311793816306" lon="12.13177251478512"><ele>721.6</ele><time>2026-05-02T17:17:05Z</time></trkpt><trkpt lat="43.231204692670296" lon="12.131924763831103"><ele>720.0</ele><time>2026-05-02T17:17:09Z</time></trkpt><trkpt lat="43.2312291629003" lon="12.132080599196234"><ele>720.0</ele><time>2026-05-02T17:17:11Z</time></trkpt><trkpt lat="43.231218652747096" lon="12.13219923983863"><ele>720.0</ele><time>2026-05-02T17:17:13Z</time></trkpt><trkpt lat="43.23120245013639" lon="12.13230604151102"><ele>720.0</ele><time>2026-05-02T17:17:15Z</time></trkpt><trkpt lat="43.231249309270005" lon="12.132375295095708"><ele>720.0</ele><time>2026-05-02T17:17:17Z</time></trkpt><trkpt lat="43.23130551082961" lon="12.132446054133863"><ele>720.0</ele><time>2026-05-02T17:17:19Z</time></trkpt><trkpt lat="43.23141051569109" lon="12.132522354223282"><ele>720.0</ele><time>2026-05-02T17:17:21Z</time></trkpt><trkpt lat="43.2314642026256" lon="12.132567579276499"><ele>720.6</ele><time>2026-05-02T17:17:22Z</time></trkpt><trkpt lat="43.231528027904886" lon="12.132607505018344"><ele>721.2</ele><time>2026-05-02T17:17:23Z</time></trkpt><trkpt lat="43.23164953687797" lon="12.132631733348434"><ele>721.8</ele><time>2026-05-02T17:17:25Z</time></trkpt><trkpt lat="43.23171505968656" lon="12.132619876491159"><ele>722.4</ele><time>2026-05-02T17:17:26Z</time></trkpt><trkpt lat="43.23182832149855" lon="12.132575688596077"><ele>723.0</ele><time>2026-05-02T17:17:28Z</time></trkpt><trkpt lat="43.23192469228261" lon="12.1325073029581"><ele>723.0</ele><time>2026-05-02T17:17:30Z</time></trkpt><trkpt lat="43.2320314544602" lon="12.132440989378104"><ele>723.0</ele><time>2026-05-02T17:17:32Z</time></trkpt><trkpt lat="43.23215069125453" lon="12.13237936020358"><ele>723.0</ele><time>2026-05-02T17:17:34Z</time></trkpt><trkpt lat="43.232206961794176" lon="12.132328825998938"><ele>723.0</ele><time>2026-05-02T17:17:35Z</time></trkpt><trkpt lat="43.2322775898399" lon="12.132292557928597"><ele>723.0</ele><time>2026-05-02T17:17:36Z</time></trkpt><trkpt lat="43.23235365909263" lon="12.132265433751659"><ele>723.8333333333334</ele><time>2026-05-02T17:17:37Z</time></trkpt><trkpt lat="43.23243827684265" lon="12.132278622025988"><ele>724.6666666666666</ele><time>2026-05-02T17:17:38Z</time></trkpt><trkpt lat="43.23252904854646" lon="12.132281930146577"><ele>725.5</ele><time>2026-05-02T17:17:39Z</time></trkpt><trkpt lat="43.232612566291195" lon="12.132288611953248"><ele>726.3333333333333</ele><time>2026-05-02T17:17:40Z</time></trkpt><trkpt lat="43.232694146305555" lon="12.132274888898126"><ele>727.1666666666666</ele><time>2026-05-02T17:17:41Z</time></trkpt><trkpt lat="43.232762318752556" lon="12.1322846908269"><ele>728.0</ele><time>2026-05-02T17:17:42Z</time></trkpt><trkpt lat="43.23283213432246" lon="12.132290965568838"><ele>728.0</ele><time>2026-05-02T17:17:43Z</time></trkpt><trkpt lat="43.23289621976559" lon="12.132292438963868"><ele>728.0</ele><time>2026-05-02T17:17:44Z</time></trkpt><trkpt lat="43.23296159268258" lon="12.132292780590078"><ele>728.0</ele><time>2026-05-02T17:17:45Z</time></trkpt><trkpt lat="43.233076822165216" lon="12.1322653026374"><ele>728.0</ele><time>2026-05-02T17:17:47Z</time></trkpt><trkpt lat="43.233133122531996" lon="12.132224533914219"><ele>728.0</ele><time>2026-05-02T17:17:48Z</time></trkpt><trkpt lat="43.233185932662806" lon="12.132170736501216"><ele>728.0</ele><time>2026-05-02T17:17:49Z</time></trkpt><trkpt lat="43.23325708666125" lon="12.132059536593099"><ele>726.1666666666666</ele><time>2026-05-02T17:17:51Z</time></trkpt><trkpt lat="43.23331934308519" lon="12.131911692027037"><ele>724.3333333333333</ele><time>2026-05-02T17:17:53Z</time></trkpt><trkpt lat="43.23334289620007" lon="12.131816011952024"><ele>722.5</ele><time>2026-05-02T17:17:54Z</time></trkpt><trkpt lat="43.233359079955804" lon="12.131724123062833"><ele>720.6666666666666</ele><time>2026-05-02T17:17:55Z</time></trkpt><trkpt lat="43.23339591625006" lon="12.131651859888809"><ele>718.8333333333334</ele><time>2026-05-02T17:17:57Z</time></trkpt><trkpt lat="43.23347278107551" lon="12.13157361138055"><ele>717.0</ele><time>2026-05-02T17:18:00Z</time></trkpt><trkpt lat="43.23353008267402" lon="12.131629857813966"><ele>717.0</ele><time>2026-05-02T17:18:01Z</time></trkpt><trkpt lat="43.233625399136905" lon="12.131691667338306"><ele>717.0</ele><time>2026-05-02T17:18:03Z</time></trkpt><trkpt lat="43.23370024884784" lon="12.131753962954573"><ele>717.0</ele><time>2026-05-02T17:18:05Z</time></trkpt><trkpt lat="43.23375026951788" lon="12.131820771019894"><ele>717.0</ele><time>2026-05-02T17:18:07Z</time></trkpt><trkpt lat="43.23383017228021" lon="12.13187247544325"><ele>717.0</ele><time>2026-05-02T17:18:09Z</time></trkpt><trkpt lat="43.23389231403827" lon="12.131905390428281"><ele>717.0</ele><time>2026-05-02T17:18:11Z</time></trkpt><trkpt lat="43.233963635783965" lon="12.131968064464456"><ele>716.2</ele><time>2026-05-02T17:18:29Z</time></trkpt><trkpt lat="43.23405260436818" lon="12.13206092938342"><ele>715.4000000000001</ele><time>2026-05-02T17:18:31Z</time></trkpt><trkpt lat="43.23414947809368" lon="12.132139683023878"><ele>714.5999999999999</ele><time>2026-05-02T17:18:33Z</time></trkpt><trkpt lat="43.23423669883215" lon="12.132190150057621"><ele>713.8</ele><time>2026-05-02T17:18:35Z</time></trkpt><trkpt lat="43.23430257630209" lon="12.132197624123695"><ele>713.0</ele><time>2026-05-02T17:18:37Z</time></trkpt><trkpt lat="43.23423108900577" lon="12.132195057010401"><ele>713.0</ele><time>2026-05-02T17:18:54Z</time></trkpt><trkpt lat="43.23411197994004" lon="12.13213802488069"><ele>713.0</ele><time>2026-05-02T17:18:56Z</time></trkpt><trkpt lat="43.234046026112544" lon="12.13207274790816"><ele>713.0</ele><time>2026-05-02T17:18:57Z</time></trkpt><trkpt lat="43.23398984764962" lon="12.131999332177099"><ele>713.0</ele><time>2026-05-02T17:18:58Z</time></trkpt><trkpt lat="43.23393213356813" lon="12.131934652105564"><ele>713.0</ele><time>2026-05-02T17:18:59Z</time></trkpt><trkpt lat="43.23385606443729" lon="12.13188258885998"><ele>713.0</ele><time>2026-05-02T17:19:00Z</time></trkpt><trkpt lat="43.23377993315515" lon="12.13182293124263"><ele>713.8</ele><time>2026-05-02T17:19:01Z</time></trkpt><trkpt lat="43.23370366832728" lon="12.131752712891856"><ele>714.5999999999999</ele><time>2026-05-02T17:19:02Z</time></trkpt><trkpt lat="43.23363411664775" lon="12.131686241437365"><ele>715.4000000000001</ele><time>2026-05-02T17:19:03Z</time></trkpt><trkpt lat="43.2335596589365" lon="12.13163750301495"><ele>716.2</ele><time>2026-05-02T17:19:04Z</time></trkpt><trkpt lat="43.23345663045692" lon="12.13157608458134"><ele>717.0</ele><time>2026-05-02T17:19:06Z</time></trkpt><trkpt lat="43.23338520808609" lon="12.131627283176998"><ele>717.0</ele><time>2026-05-02T17:19:08Z</time></trkpt><trkpt lat="43.23336202536812" lon="12.131709868813036"><ele>717.0</ele><time>2026-05-02T17:19:09Z</time></trkpt><trkpt lat="43.23334382458465" lon="12.13181133213422"><ele>717.0</ele><time>2026-05-02T17:19:10Z</time></trkpt><trkpt lat="43.23331831536183" lon="12.13191299982267"><ele>717.0</ele><time>2026-05-02T17:19:11Z</time></trkpt><trkpt lat="43.23329122915511" lon="12.131991139355833"><ele>717.0</ele><time>2026-05-02T17:19:12Z</time></trkpt><trkpt lat="43.23324295359053" lon="12.13207647583582"><ele>717.0</ele><time>2026-05-02T17:19:13Z</time></trkpt><trkpt lat="43.23319086021624" lon="12.13214497519571"><ele>717.0</ele><time>2026-05-02T17:19:14Z</time></trkpt><trkpt lat="43.23310792307431" lon="12.132223201257814"><ele>718.8333333333334</ele><time>2026-05-02T17:19:16Z</time></trkpt><trkpt lat="43.2330456597142" lon="12.132256222126708"><ele>720.6666666666666</ele><time>2026-05-02T17:19:17Z</time></trkpt><trkpt lat="43.232969090623556" lon="12.132276133446824"><ele>722.5</ele><time>2026-05-02T17:19:18Z</time></trkpt><trkpt lat="43.23287617203405" lon="12.132282418450414"><ele>724.3333333333333</ele><time>2026-05-02T17:19:19Z</time></trkpt><trkpt lat="43.2327808904359" lon="12.132271138240881"><ele>726.1666666666666</ele><time>2026-05-02T17:19:20Z</time></trkpt><trkpt lat="43.23268478073666" lon="12.132256429031797"><ele>728.0</ele><time>2026-05-02T17:19:21Z</time></trkpt><trkpt lat="43.2325772797002" lon="12.132245890154083"><ele>728.0</ele><time>2026-05-02T17:19:22Z</time></trkpt><trkpt lat="43.2324832651152" lon="12.132237195692724"><ele>728.0</ele><time>2026-05-02T17:19:23Z</time></trkpt><trkpt lat="43.23240398930031" lon="12.13223416185263"><ele>728.0</ele><time>2026-05-02T17:19:24Z</time></trkpt><trkpt lat="43.232317169291996" lon="12.132250559153455"><ele>728.0</ele><time>2026-05-02T17:19:25Z</time></trkpt><trkpt lat="43.23222473903083" lon="12.132287130205698"><ele>728.0</ele><time>2026-05-02T17:19:26Z</time></trkpt><trkpt lat="43.23214538613483" lon="12.132338258907385"><ele>728.0</ele><time>2026-05-02T17:19:27Z</time></trkpt><trkpt lat="43.23208063748887" lon="12.132389402243886"><ele>727.1666666666666</ele><time>2026-05-02T17:19:28Z</time></trkpt><trkpt lat="43.23202035004736" lon="12.132433101295877"><ele>726.3333333333333</ele><time>2026-05-02T17:19:29Z</time></trkpt><trkpt lat="43.23194398466601" lon="12.132465397469772"><ele>725.5</ele><time>2026-05-02T17:19:30Z</time></trkpt><trkpt lat="43.23186266337481" lon="12.132541158490897"><ele>724.6666666666666</ele><time>2026-05-02T17:19:31Z</time></trkpt><trkpt lat="43.231767102694086" lon="12.132574025642153"><ele>723.8333333333334</ele><time>2026-05-02T17:19:32Z</time></trkpt><trkpt lat="43.23168948518963" lon="12.132593585395485"><ele>723.0</ele><time>2026-05-02T17:19:33Z</time></trkpt><trkpt lat="43.2316136451568" lon="12.132597429106843"><ele>723.0</ele><time>2026-05-02T17:19:34Z</time></trkpt><trkpt lat="43.23152673972297" lon="12.132604723928196"><ele>723.0</ele><time>2026-05-02T17:19:35Z</time></trkpt><trkpt lat="43.231457349839225" lon="12.132532530886738"><ele>723.0</ele><time>2026-05-02T17:19:36Z</time></trkpt><trkpt lat="43.2313849380733" lon="12.132470340491867"><ele>723.0</ele><time>2026-05-02T17:19:37Z</time></trkpt><trkpt lat="43.23132162615551" lon="12.13240530317223"><ele>723.0</ele><time>2026-05-02T17:19:38Z</time></trkpt><trkpt lat="43.23122959728613" lon="12.132292097033181"><ele>723.2</ele><time>2026-05-02T17:19:40Z</time></trkpt><trkpt lat="43.23115375941193" lon="12.13229821419944"><ele>723.4</ele><time>2026-05-02T17:19:41Z</time></trkpt><trkpt lat="43.23108184237091" lon="12.132323886870974"><ele>723.6</ele><time>2026-05-02T17:19:42Z</time></trkpt><trkpt lat="43.231002918871006" lon="12.132458122839012"><ele>723.8000000000001</ele><time>2026-05-02T17:19:43Z</time></trkpt><trkpt lat="43.230931708191044" lon="12.13251816687437"><ele>724.0</ele><time>2026-05-02T17:19:44Z</time></trkpt><trkpt lat="43.23080887696624" lon="12.132577777795898"><ele>724.0</ele><time>2026-05-02T17:19:46Z</time></trkpt><trkpt lat="43.23074369708808" lon="12.132587737605679"><ele>724.0</ele><time>2026-05-02T17:19:47Z</time></trkpt><trkpt lat="43.230673663079585" lon="12.132601366547096"><ele>724.0</ele><time>2026-05-02T17:19:48Z</time></trkpt><trkpt lat="43.23054199999753" lon="12.132618930603186"><ele>724.0</ele><time>2026-05-02T17:19:50Z</time></trkpt><trkpt lat="43.230477720583025" lon="12.13263449664297"><ele>724.0</ele><time>2026-05-02T17:19:51Z</time></trkpt><trkpt lat="43.23036912181847" lon="12.13268708326344"><ele>724.0</ele><time>2026-05-02T17:19:53Z</time></trkpt><trkpt lat="43.23027916712673" lon="12.132696501399813"><ele>724.3333333333334</ele><time>2026-05-02T17:19:55Z</time></trkpt><trkpt lat="43.23021217922737" lon="12.13274222448604"><ele>724.6666666666667</ele><time>2026-05-02T17:19:57Z</time></trkpt><trkpt lat="43.23013420628615" lon="12.13276642441754"><ele>725.0</ele><time>2026-05-02T17:19:58Z</time></trkpt><trkpt lat="43.23005939062646" lon="12.132789693573368"><ele>725.3333333333334</ele><time>2026-05-02T17:19:59Z</time></trkpt><trkpt lat="43.22998199855252" lon="12.132833584085102"><ele>725.6666666666666</ele><time>2026-05-02T17:20:00Z</time></trkpt><trkpt lat="43.22991880817873" lon="12.132871983215365"><ele>726.0</ele><time>2026-05-02T17:20:01Z</time></trkpt><trkpt lat="43.22983740759645" lon="12.132901436714288"><ele>723.1666666666666</ele><time>2026-05-02T17:20:02Z</time></trkpt><trkpt lat="43.22976388069387" lon="12.13294419067534"><ele>720.3333333333334</ele><time>2026-05-02T17:20:03Z</time></trkpt><trkpt lat="43.22969879494355" lon="12.132995725186865"><ele>717.5</ele><time>2026-05-02T17:20:04Z</time></trkpt><trkpt lat="43.22963046038654" lon="12.1330210163013"><ele>714.6666666666667</ele><time>2026-05-02T17:20:05Z</time></trkpt><trkpt lat="43.229505691023135" lon="12.133101260348738"><ele>711.8333333333334</ele><time>2026-05-02T17:20:07Z</time></trkpt><trkpt lat="43.22942639738496" lon="12.133143548350835"><ele>709.0</ele><time>2026-05-02T17:20:08Z</time></trkpt><trkpt lat="43.22935011167674" lon="12.13319030936077"><ele>708.1666666666667</ele><time>2026-05-02T17:20:09Z</time></trkpt><trkpt lat="43.229282302469834" lon="12.133233848991328"><ele>707.3333333333334</ele><time>2026-05-02T17:20:10Z</time></trkpt><trkpt lat="43.22915039298563" lon="12.133284055635011"><ele>706.5</ele><time>2026-05-02T17:20:11Z</time></trkpt><trkpt lat="43.22908703140005" lon="12.133339732071118"><ele>705.6666666666666</ele><time>2026-05-02T17:20:12Z</time></trkpt><trkpt lat="43.229016949981556" lon="12.133396248601851"><ele>704.8333333333333</ele><time>2026-05-02T17:20:13Z</time></trkpt><trkpt lat="43.228951270134814" lon="12.133451055522757"><ele>704.0</ele><time>2026-05-02T17:20:14Z</time></trkpt><trkpt lat="43.22889398922802" lon="12.133501422054621"><ele>704.0</ele><time>2026-05-02T17:20:15Z</time></trkpt><trkpt lat="43.228825519976176" lon="12.133562887323553"><ele>704.0</ele><time>2026-05-02T17:20:16Z</time></trkpt><trkpt lat="43.22875105228602" lon="12.133632211399398"><ele>704.0</ele><time>2026-05-02T17:20:17Z</time></trkpt><trkpt lat="43.22866303927276" lon="12.133716918576834"><ele>704.0</ele><time>2026-05-02T17:20:18Z</time></trkpt><trkpt lat="43.228600481417914" lon="12.133777678451173"><ele>704.0</ele><time>2026-05-02T17:20:19Z</time></trkpt><trkpt lat="43.22852938454039" lon="12.133846732635623"><ele>704.0</ele><time>2026-05-02T17:20:20Z</time></trkpt><trkpt lat="43.228449336280846" lon="12.133920514602103"><ele>704.0</ele><time>2026-05-02T17:20:21Z</time></trkpt><trkpt lat="43.22838215082925" lon="12.133987218101398"><ele>704.0</ele><time>2026-05-02T17:20:22Z</time></trkpt><trkpt lat="43.22831456836071" lon="12.134058026938485"><ele>704.0</ele><time>2026-05-02T17:20:23Z</time></trkpt><trkpt lat="43.22824700277726" lon="12.134140532724023"><ele>704.0</ele><time>2026-05-02T17:20:24Z</time></trkpt><trkpt lat="43.22819243510311" lon="12.134225707194148"><ele>704.0</ele><time>2026-05-02T17:20:25Z</time></trkpt><trkpt lat="43.22813486560336" lon="12.134291444668806"><ele>704.0</ele><time>2026-05-02T17:20:26Z</time></trkpt><trkpt lat="43.22807894594068" lon="12.134366248682777"><ele>703.8571428571429</ele><time>2026-05-02T17:20:27Z</time></trkpt><trkpt lat="43.228021947852014" lon="12.134436704602088"><ele>703.7142857142857</ele><time>2026-05-02T17:20:28Z</time></trkpt><trkpt lat="43.22796481003664" lon="12.134504540555772"><ele>703.5714285714286</ele><time>2026-05-02T17:20:29Z</time></trkpt><trkpt lat="43.22792069454674" lon="12.134589620396149"><ele>703.4285714285714</ele><time>2026-05-02T17:20:30Z</time></trkpt><trkpt lat="43.227880204294294" lon="12.134670396238977"><ele>703.2857142857143</ele><time>2026-05-02T17:20:31Z</time></trkpt><trkpt lat="43.227844184623066" lon="12.13474941172608"><ele>703.1428571428571</ele><time>2026-05-02T17:20:32Z</time></trkpt><trkpt lat="43.22780525960807" lon="12.134837966175516"><ele>703.0</ele><time>2026-05-02T17:20:33Z</time></trkpt><trkpt lat="43.22776272083786" lon="12.134940001190222"><ele>703.0</ele><time>2026-05-02T17:20:34Z</time></trkpt><trkpt lat="43.22772233039065" lon="12.135044220586305"><ele>703.0</ele><time>2026-05-02T17:20:35Z</time></trkpt><trkpt lat="43.22767192448125" lon="12.135137579954682"><ele>703.0</ele><time>2026-05-02T17:20:36Z</time></trkpt><trkpt lat="43.22764145034673" lon="12.135241428964184"><ele>703.0</ele><time>2026-05-02T17:20:37Z</time></trkpt><trkpt lat="43.22760991571519" lon="12.13534273203409"><ele>703.0</ele><time>2026-05-02T17:20:38Z</time></trkpt><trkpt lat="43.227602957765725" lon="12.135450565313619"><ele>703.0</ele><time>2026-05-02T17:20:39Z</time></trkpt><trkpt lat="43.2275844791653" lon="12.135544972628628"><ele>703.0</ele><time>2026-05-02T17:20:40Z</time></trkpt><trkpt lat="43.22758308311573" lon="12.135670127479221"><ele>703.0</ele><time>2026-05-02T17:20:42Z</time></trkpt><trkpt lat="43.227589348648" lon="12.135811225263657"><ele>703.0</ele><time>2026-05-02T17:20:44Z</time></trkpt><trkpt lat="43.227594574773114" lon="12.136002218242501"><ele>703.0</ele><time>2026-05-02T17:20:46Z</time></trkpt><trkpt lat="43.22753141719212" lon="12.136107015106981"><ele>703.0</ele><time>2026-05-02T17:20:48Z</time></trkpt><trkpt lat="43.22744687363688" lon="12.136041293563059"><ele>704.1428571428571</ele><time>2026-05-02T17:20:50Z</time></trkpt><trkpt lat="43.22738855956388" lon="12.136006199246538"><ele>705.2857142857143</ele><time>2026-05-02T17:20:51Z</time></trkpt><trkpt lat="43.22732563930435" lon="12.135979844855974"><ele>706.4285714285714</ele><time>2026-05-02T17:20:52Z</time></trkpt><trkpt lat="43.2272498861588" lon="12.135976119225258"><ele>707.5714285714286</ele><time>2026-05-02T17:20:53Z</time></trkpt><trkpt lat="43.22717898719013" lon="12.135949068555533"><ele>708.7142857142857</ele><time>2026-05-02T17:20:54Z</time></trkpt><trkpt lat="43.227106247793216" lon="12.135935938737594"><ele>709.8571428571429</ele><time>2026-05-02T17:20:55Z</time></trkpt><trkpt lat="43.22703392203058" lon="12.135925489621112"><ele>711.0</ele><time>2026-05-02T17:20:56Z</time></trkpt><trkpt lat="43.226964513178686" lon="12.135915461908557"><ele>707.6666666666666</ele><time>2026-05-02T17:20:57Z</time></trkpt><trkpt lat="43.22690016778569" lon="12.13590684298063"><ele>704.3333333333334</ele><time>2026-05-02T17:20:58Z</time></trkpt><trkpt lat="43.22683553264737" lon="12.135901213113472"><ele>701.0</ele><time>2026-05-02T17:20:59Z</time></trkpt><trkpt lat="43.22672418423146" lon="12.135909428596964"><ele>697.6666666666667</ele><time>2026-05-02T17:21:01Z</time></trkpt><trkpt lat="43.22663073767241" lon="12.135883221853769"><ele>694.3333333333334</ele><time>2026-05-02T17:21:04Z</time></trkpt><trkpt lat="43.22653036500441" lon="12.135845621186423"><ele>691.0</ele><time>2026-05-02T17:21:06Z</time></trkpt><trkpt lat="43.22643136074916" lon="12.1357945084954"><ele>688.6666666666667</ele><time>2026-05-02T17:21:08Z</time></trkpt><trkpt lat="43.226361033092466" lon="12.135739038428587"><ele>686.3333333333334</ele><time>2026-05-02T17:21:11Z</time></trkpt><trkpt lat="43.226272261851456" lon="12.135697487806105"><ele>684.0</ele><time>2026-05-02T17:21:13Z</time></trkpt><trkpt lat="43.22619857478843" lon="12.135664719323199"><ele>681.6666666666666</ele><time>2026-05-02T17:21:16Z</time></trkpt><trkpt lat="43.22612619062804" lon="12.13561111565922"><ele>679.3333333333333</ele><time>2026-05-02T17:21:18Z</time></trkpt><trkpt lat="43.22604420549806" lon="12.135572119998539"><ele>677.0</ele><time>2026-05-02T17:21:20Z</time></trkpt><trkpt lat="43.22596199247159" lon="12.135551576349908"><ele>674.8333333333333</ele><time>2026-05-02T17:21:22Z</time></trkpt><trkpt lat="43.225870414911014" lon="12.135589743085246"><ele>672.6666666666666</ele><time>2026-05-02T17:21:24Z</time></trkpt><trkpt lat="43.225807767106616" lon="12.135602610548624"><ele>670.5</ele><time>2026-05-02T17:21:25Z</time></trkpt><trkpt lat="43.22575261371703" lon="12.135531801484106"><ele>668.3333333333334</ele><time>2026-05-02T17:21:27Z</time></trkpt><trkpt lat="43.225688376463026" lon="12.135516358598181"><ele>666.1666666666667</ele><time>2026-05-02T17:21:30Z</time></trkpt><trkpt lat="43.225655454936955" lon="12.135635660524537"><ele>664.0</ele><time>2026-05-02T17:21:32Z</time></trkpt><trkpt lat="43.22558968199916" lon="12.13573212115376"><ele>663.8000000000001</ele><time>2026-05-02T17:21:34Z</time></trkpt><trkpt lat="43.225531472876646" lon="12.135840109534271"><ele>663.6</ele><time>2026-05-02T17:21:36Z</time></trkpt><trkpt lat="43.225523440492296" lon="12.13593135115823"><ele>663.4</ele><time>2026-05-02T17:21:37Z</time></trkpt><trkpt lat="43.225502150959834" lon="12.136013241483145"><ele>663.2</ele><time>2026-05-02T17:21:38Z</time></trkpt><trkpt lat="43.22538976232665" lon="12.13609577546113"><ele>663.0</ele><time>2026-05-02T17:21:40Z</time></trkpt><trkpt lat="43.22529605735726" lon="12.136169725679407"><ele>663.0</ele><time>2026-05-02T17:21:42Z</time></trkpt><trkpt lat="43.22525040521821" lon="12.136236827727194"><ele>663.0</ele><time>2026-05-02T17:21:43Z</time></trkpt><trkpt lat="43.225180743558916" lon="12.136354314991353"><ele>663.0</ele><time>2026-05-02T17:21:45Z</time></trkpt><trkpt lat="43.22509864748025" lon="12.13645083020314"><ele>663.0</ele><time>2026-05-02T17:21:47Z</time></trkpt><trkpt lat="43.22506131278639" lon="12.136520662348286"><ele>663.0</ele><time>2026-05-02T17:21:48Z</time></trkpt><trkpt lat="43.224955656434496" lon="12.136613817080885"><ele>663.4285714285713</ele><time>2026-05-02T17:21:50Z</time></trkpt><trkpt lat="43.224932156852894" lon="12.136699358630016"><ele>663.8571428571429</ele><time>2026-05-02T17:21:51Z</time></trkpt><trkpt lat="43.22490726605065" lon="12.136809593595991"><ele>664.2857142857142</ele><time>2026-05-02T17:21:52Z</time></trkpt><trkpt lat="43.224890192817384" lon="12.136900459844064"><ele>664.7142857142857</ele><time>2026-05-02T17:21:53Z</time></trkpt><trkpt lat="43.22486397805139" lon="12.13698977089184"><ele>665.1428571428571</ele><time>2026-05-02T17:21:54Z</time></trkpt><trkpt lat="43.22482051657559" lon="12.137065760352586"><ele>665.5714285714286</ele><time>2026-05-02T17:21:55Z</time></trkpt><trkpt lat="43.224765753928146" lon="12.137129290388195"><ele>666.0</ele><time>2026-05-02T17:21:56Z</time></trkpt><trkpt lat="43.22468740278084" lon="12.137154915418575"><ele>663.8</ele><time>2026-05-02T17:21:57Z</time></trkpt><trkpt lat="43.224570556829526" lon="12.137178410441326"><ele>661.5999999999999</ele><time>2026-05-02T17:21:59Z</time></trkpt><trkpt lat="43.22450169676577" lon="12.137193317180243"><ele>659.4</ele><time>2026-05-02T17:22:00Z</time></trkpt><trkpt lat="43.22436115410828" lon="12.137230692789085"><ele>657.2</ele><time>2026-05-02T17:22:02Z</time></trkpt><trkpt lat="43.22428952982098" lon="12.137226397439512"><ele>655.0</ele><time>2026-05-02T17:22:03Z</time></trkpt><trkpt lat="43.224163199280625" lon="12.13722091819646"><ele>655.0</ele><time>2026-05-02T17:22:05Z</time></trkpt><trkpt lat="43.22408248155237" lon="12.137212895016074"><ele>655.0</ele><time>2026-05-02T17:22:06Z</time></trkpt><trkpt lat="43.22396443628474" lon="12.13719881064468"><ele>655.0</ele><time>2026-05-02T17:22:08Z</time></trkpt><trkpt lat="43.22389910995513" lon="12.137188915623527"><ele>655.0</ele><time>2026-05-02T17:22:09Z</time></trkpt><trkpt lat="43.22380632406226" lon="12.137156932856099"><ele>655.0</ele><time>2026-05-02T17:22:11Z</time></trkpt><trkpt lat="43.22367362727915" lon="12.137002130654365"><ele>651.3333333333334</ele><time>2026-05-02T17:22:13Z</time></trkpt><trkpt lat="43.22357080828813" lon="12.136994423358011"><ele>647.6666666666666</ele><time>2026-05-02T17:22:14Z</time></trkpt><trkpt lat="43.223437767923365" lon="12.137086323064416"><ele>644.0</ele><time>2026-05-02T17:22:15Z</time></trkpt><trkpt lat="43.223395709636065" lon="12.13738400540323"><ele>644.1666666666666</ele><time>2026-05-02T17:22:16Z</time></trkpt><trkpt lat="43.223402627001164" lon="12.137471510184247"><ele>644.3333333333333</ele><time>2026-05-02T17:22:17Z</time></trkpt><trkpt lat="43.22342304986226" lon="12.137572415937218"><ele>644.5</ele><time>2026-05-02T17:22:19Z</time></trkpt><trkpt lat="43.22339702647778" lon="12.137704263689704"><ele>644.6666666666666</ele><time>2026-05-02T17:22:21Z</time></trkpt><trkpt lat="43.22335724517894" lon="12.137778962565992"><ele>644.8333333333334</ele><time>2026-05-02T17:22:22Z</time></trkpt><trkpt lat="43.22334137087599" lon="12.137943418459587"><ele>645.0</ele><time>2026-05-02T17:22:24Z</time></trkpt><trkpt lat="43.22330104145356" lon="12.138023481409476"><ele>645.0</ele><time>2026-05-02T17:22:25Z</time></trkpt><trkpt lat="43.22328000188652" lon="12.138123837435947"><ele>645.0</ele><time>2026-05-02T17:22:26Z</time></trkpt><trkpt lat="43.22326694513507" lon="12.13821801951332"><ele>645.0</ele><time>2026-05-02T17:22:27Z</time></trkpt><trkpt lat="43.2232529423499" lon="12.138319025957365"><ele>645.0</ele><time>2026-05-02T17:22:28Z</time></trkpt><trkpt lat="43.22323414505952" lon="12.138419518500971"><ele>645.0</ele><time>2026-05-02T17:22:29Z</time></trkpt><trkpt lat="43.223213594653345" lon="12.13852734772635"><ele>645.0</ele><time>2026-05-02T17:22:30Z</time></trkpt><trkpt lat="43.2231921365128" lon="12.138624760386259"><ele>644.0</ele><time>2026-05-02T17:22:31Z</time></trkpt><trkpt lat="43.22316566030129" lon="12.138734718639066"><ele>643.0</ele><time>2026-05-02T17:22:32Z</time></trkpt><trkpt lat="43.223120219709884" lon="12.138860502618142"><ele>642.0</ele><time>2026-05-02T17:22:33Z</time></trkpt><trkpt lat="43.223072187111775" lon="12.138960432552283"><ele>641.0</ele><time>2026-05-02T17:22:34Z</time></trkpt><trkpt lat="43.223021457575186" lon="12.139055834091645"><ele>640.0</ele><time>2026-05-02T17:22:35Z</time></trkpt><trkpt lat="43.222957883602795" lon="12.139144538955208"><ele>638.6666666666667</ele><time>2026-05-02T17:22:36Z</time></trkpt><trkpt lat="43.222902484171804" lon="12.13921559081138"><ele>637.3333333333334</ele><time>2026-05-02T17:22:37Z</time></trkpt><trkpt lat="43.22285150309698" lon="12.139284747338147"><ele>636.0</ele><time>2026-05-02T17:22:38Z</time></trkpt><trkpt lat="43.22279443936273" lon="12.139340082864996"><ele>634.6666666666666</ele><time>2026-05-02T17:22:39Z</time></trkpt><trkpt lat="43.222737373155574" lon="12.139392041893817"><ele>633.3333333333333</ele><time>2026-05-02T17:22:40Z</time></trkpt><trkpt lat="43.22268537439445" lon="12.139469429744231"><ele>632.0</ele><time>2026-05-02T17:22:41Z</time></trkpt><trkpt lat="43.22260002750961" lon="12.139580502204833"><ele>632.0</ele><time>2026-05-02T17:22:43Z</time></trkpt><trkpt lat="43.22255420914093" lon="12.139642430592803"><ele>632.0</ele><time>2026-05-02T17:22:44Z</time></trkpt><trkpt lat="43.222515360685975" lon="12.139712046382998"><ele>632.0</ele><time>2026-05-02T17:22:45Z</time></trkpt><trkpt lat="43.222471856351056" lon="12.139776372986782"><ele>632.0</ele><time>2026-05-02T17:22:46Z</time></trkpt><trkpt lat="43.22238595000869" lon="12.13988254166284"><ele>632.0</ele><time>2026-05-02T17:22:48Z</time></trkpt><trkpt lat="43.222357954606025" lon="12.140054706979361"><ele>632.0</ele><time>2026-05-02T17:22:50Z</time></trkpt><trkpt lat="43.222348576786445" lon="12.140150377186052"><ele>632.0</ele><time>2026-05-02T17:22:51Z</time></trkpt><trkpt lat="43.22234631304564" lon="12.140244583764666"><ele>632.0</ele><time>2026-05-02T17:22:52Z</time></trkpt><trkpt lat="43.22234259964899" lon="12.140337079232276"><ele>632.0</ele><time>2026-05-02T17:22:53Z</time></trkpt><trkpt lat="43.222352001075535" lon="12.140426997706772"><ele>632.0</ele><time>2026-05-02T17:22:54Z</time></trkpt><trkpt lat="43.222326500976386" lon="12.140602936332348"><ele>632.0</ele><time>2026-05-02T17:22:56Z</time></trkpt><trkpt lat="43.22230274150652" lon="12.140685493187185"><ele>632.0</ele><time>2026-05-02T17:22:57Z</time></trkpt><trkpt lat="43.22228909448491" lon="12.14084604398442"><ele>631.0</ele><time>2026-05-02T17:22:59Z</time></trkpt><trkpt lat="43.22226322537403" lon="12.140929484757491"><ele>630.0</ele><time>2026-05-02T17:23:00Z</time></trkpt><trkpt lat="43.22222928665511" lon="12.14101663232959"><ele>629.0</ele><time>2026-05-02T17:23:01Z</time></trkpt><trkpt lat="43.22217841493878" lon="12.141090189511758"><ele>628.0</ele><time>2026-05-02T17:23:02Z</time></trkpt><trkpt lat="43.222099012754924" lon="12.141188300267363"><ele>627.0</ele><time>2026-05-02T17:23:03Z</time></trkpt><trkpt lat="43.222031855264845" lon="12.141279364440791"><ele>626.0</ele><time>2026-05-02T17:23:04Z</time></trkpt><trkpt lat="43.221959654886994" lon="12.141393429848433"><ele>626.0</ele><time>2026-05-02T17:23:06Z</time></trkpt><trkpt lat="43.22189536236" lon="12.14140259043174"><ele>626.0</ele><time>2026-05-02T17:23:10Z</time></trkpt><trkpt lat="43.22183270893777" lon="12.141515391626335"><ele>626.0</ele><time>2026-05-02T17:23:12Z</time></trkpt><trkpt lat="43.221757883149735" lon="12.141602560542486"><ele>626.0</ele><time>2026-05-02T17:23:13Z</time></trkpt><trkpt lat="43.221679492063004" lon="12.141654911136664"><ele>626.0</ele><time>2026-05-02T17:23:14Z</time></trkpt><trkpt lat="43.22158040616036" lon="12.141749776083419"><ele>626.4</ele><time>2026-05-02T17:23:16Z</time></trkpt><trkpt lat="43.22148350359822" lon="12.141834522462977"><ele>626.8</ele><time>2026-05-02T17:23:18Z</time></trkpt><trkpt lat="43.22138358795976" lon="12.141887341612692"><ele>627.1999999999999</ele><time>2026-05-02T17:23:20Z</time></trkpt><trkpt lat="43.22131592856291" lon="12.141912617731037"><ele>627.6</ele><time>2026-05-02T17:23:22Z</time></trkpt><trkpt lat="43.22126383034176" lon="12.14202648112824"><ele>628.0</ele><time>2026-05-02T17:23:24Z</time></trkpt><trkpt lat="43.22116222677978" lon="12.142093155894617"><ele>627.3333333333334</ele><time>2026-05-02T17:23:26Z</time></trkpt><trkpt lat="43.22104442644956" lon="12.142170717222847"><ele>626.6666666666667</ele><time>2026-05-02T17:23:28Z</time></trkpt><trkpt lat="43.22095890875405" lon="12.1421778446501"><ele>626.0</ele><time>2026-05-02T17:23:29Z</time></trkpt><trkpt lat="43.22089106319635" lon="12.142196597166805"><ele>625.3333333333334</ele><time>2026-05-02T17:23:30Z</time></trkpt><trkpt lat="43.22082958424644" lon="12.142221954796357"><ele>624.6666666666666</ele><time>2026-05-02T17:23:31Z</time></trkpt><trkpt lat="43.220757782988166" lon="12.142258525737052"><ele>624.0</ele><time>2026-05-02T17:23:32Z</time></trkpt><trkpt lat="43.22064923046457" lon="12.142339295097466"><ele>621.8333333333334</ele><time>2026-05-02T17:23:34Z</time></trkpt><trkpt lat="43.220599191645064" lon="12.142395393309778"><ele>619.6666666666666</ele><time>2026-05-02T17:23:35Z</time></trkpt><trkpt lat="43.220502687918206" lon="12.14252151620599"><ele>617.5</ele><time>2026-05-02T17:23:37Z</time></trkpt><trkpt lat="43.22044778946129" lon="12.14257745718123"><ele>615.3333333333333</ele><time>2026-05-02T17:23:38Z</time></trkpt><trkpt lat="43.22038150857369" lon="12.142613337539512"><ele>613.1666666666666</ele><time>2026-05-02T17:23:39Z</time></trkpt><trkpt lat="43.22028780872978" lon="12.142659275209262"><ele>611.0</ele><time>2026-05-02T17:23:41Z</time></trkpt><trkpt lat="43.22031872745759" lon="12.14256760891943"><ele>611.0</ele><time>2026-05-02T17:23:47Z</time></trkpt><trkpt lat="43.22040189520879" lon="12.142590726073044"><ele>611.0</ele><time>2026-05-02T17:23:49Z</time></trkpt><trkpt lat="43.22046880846707" lon="12.142554323165182"><ele>611.0</ele><time>2026-05-02T17:23:51Z</time></trkpt><trkpt lat="43.22052518337634" lon="12.142601684243804"><ele>611.0</ele><time>2026-05-02T17:23:53Z</time></trkpt><trkpt lat="43.22054927308156" lon="12.14273221426925"><ele>611.0</ele><time>2026-05-02T17:23:55Z</time></trkpt><trkpt lat="43.220565444160684" lon="12.142895998185486"><ele>611.0</ele><time>2026-05-02T17:23:57Z</time></trkpt><trkpt lat="43.220573932700354" lon="12.143059587853134"><ele>611.0</ele><time>2026-05-02T17:23:59Z</time></trkpt><trkpt lat="43.22062960764337" lon="12.143191053958954"><ele>611.0</ele><time>2026-05-02T17:24:01Z</time></trkpt><trkpt lat="43.220691007570856" lon="12.143253551580418"><ele>611.0</ele><time>2026-05-02T17:24:02Z</time></trkpt><trkpt lat="43.22074811324005" lon="12.143313477581568"><ele>611.0</ele><time>2026-05-02T17:24:03Z</time></trkpt><trkpt lat="43.22083763928919" lon="12.14341141162662"><ele>611.0</ele><time>2026-05-02T17:24:05Z</time></trkpt><trkpt lat="43.22090255864432" lon="12.143496781308288"><ele>611.1666666666666</ele><time>2026-05-02T17:24:07Z</time></trkpt><trkpt lat="43.22099178633534" lon="12.14355518828386"><ele>611.3333333333333</ele><time>2026-05-02T17:24:09Z</time></trkpt><trkpt lat="43.22108661845155" lon="12.143578790428377"><ele>611.5</ele><time>2026-05-02T17:24:11Z</time></trkpt><trkpt lat="43.2211666126875" lon="12.143597604092788"><ele>611.6666666666666</ele><time>2026-05-02T17:24:13Z</time></trkpt><trkpt lat="43.221250168136585" lon="12.143618471170486"><ele>611.8333333333334</ele><time>2026-05-02T17:24:15Z</time></trkpt><trkpt lat="43.22132221260841" lon="12.143628193457795"><ele>612.0</ele><time>2026-05-02T17:24:17Z</time></trkpt><trkpt lat="43.22138901992585" lon="12.143652763357982"><ele>612.0</ele><time>2026-05-02T17:24:19Z</time></trkpt><trkpt lat="43.2214756669078" lon="12.14366846111031"><ele>612.0</ele><time>2026-05-02T17:24:21Z</time></trkpt><trkpt lat="43.221565432668875" lon="12.143682546826875"><ele>612.0</ele><time>2026-05-02T17:24:23Z</time></trkpt><trkpt lat="43.22166623186068" lon="12.143701247568691"><ele>612.0</ele><time>2026-05-02T17:24:25Z</time></trkpt><trkpt lat="43.22173719823031" lon="12.143716597610727"><ele>612.0</ele><time>2026-05-02T17:24:26Z</time></trkpt><trkpt lat="43.2218260823727" lon="12.143749919290945"><ele>612.0</ele><time>2026-05-02T17:24:28Z</time></trkpt><trkpt lat="43.22191990783478" lon="12.143797986681875"><ele>612.1666666666666</ele><time>2026-05-02T17:24:31Z</time></trkpt><trkpt lat="43.22200219192762" lon="12.1438044256828"><ele>612.3333333333334</ele><time>2026-05-02T17:24:33Z</time></trkpt><trkpt lat="43.22207170319342" lon="12.143754019321209"><ele>612.5</ele><time>2026-05-02T17:24:35Z</time></trkpt><trkpt lat="43.2221301674873" lon="12.143697646595449"><ele>612.6666666666667</ele><time>2026-05-02T17:24:37Z</time></trkpt><trkpt lat="43.222182132014204" lon="12.143642791394697"><ele>612.8333333333334</ele><time>2026-05-02T17:24:39Z</time></trkpt><trkpt lat="43.222253198152345" lon="12.143596533358695"><ele>613.0</ele><time>2026-05-02T17:24:42Z</time></trkpt><trkpt lat="43.22230270595666" lon="12.143519460723171"><ele>613.5</ele><time>2026-05-02T17:24:44Z</time></trkpt><trkpt lat="43.22236642406542" lon="12.143408610067905"><ele>614.0</ele><time>2026-05-02T17:24:46Z</time></trkpt><trkpt lat="43.222416067706504" lon="12.1433183874393"><ele>614.5</ele><time>2026-05-02T17:24:49Z</time></trkpt><trkpt lat="43.22246815928589" lon="12.143244045100083"><ele>615.0</ele><time>2026-05-02T17:24:52Z</time></trkpt><trkpt lat="43.2225124825618" lon="12.14314758777944"><ele>615.5</ele><time>2026-05-02T17:24:55Z</time></trkpt><trkpt lat="43.22259285023186" lon="12.143106856010549"><ele>616.0</ele><time>2026-05-02T17:24:59Z</time></trkpt><trkpt lat="43.22265717732186" lon="12.14314552046103"><ele>616.0</ele><time>2026-05-02T17:25:01Z</time></trkpt><trkpt lat="43.222726018800095" lon="12.143172660104865"><ele>616.0</ele><time>2026-05-02T17:25:03Z</time></trkpt><trkpt lat="43.2228066198741" lon="12.143188903187905"><ele>616.0</ele><time>2026-05-02T17:25:05Z</time></trkpt><trkpt lat="43.22287559597036" lon="12.143221848452471"><ele>616.0</ele><time>2026-05-02T17:25:07Z</time></trkpt><trkpt lat="43.22295079078366" lon="12.143243022594733"><ele>616.0</ele><time>2026-05-02T17:25:09Z</time></trkpt><trkpt lat="43.22302550507844" lon="12.143274863591893"><ele>616.0</ele><time>2026-05-02T17:25:11Z</time></trkpt><trkpt lat="43.22308967879411" lon="12.143298782719778"><ele>616.0</ele><time>2026-05-02T17:25:13Z</time></trkpt><trkpt lat="43.22316451589616" lon="12.143279995246006"><ele>612.0</ele><time>2026-05-02T17:25:15Z</time></trkpt><trkpt lat="43.223242647174445" lon="12.143224230140351"><ele>608.0</ele><time>2026-05-02T17:25:17Z</time></trkpt><trkpt lat="43.22331845803798" lon="12.143180055534165"><ele>604.0</ele><time>2026-05-02T17:25:19Z</time></trkpt><trkpt lat="43.223381457787454" lon="12.143164144308534"><ele>600.0</ele><time>2026-05-02T17:25:21Z</time></trkpt><trkpt lat="43.223447088756586" lon="12.14311491108239"><ele>596.0</ele><time>2026-05-02T17:25:23Z</time></trkpt><trkpt lat="43.223522604332324" lon="12.143056008966248"><ele>592.0</ele><time>2026-05-02T17:25:27Z</time></trkpt><trkpt lat="43.22359711509683" lon="12.143023943835983"><ele>592.0</ele><time>2026-05-02T17:25:29Z</time></trkpt><trkpt lat="43.223669820994765" lon="12.142982013290352"><ele>592.0</ele><time>2026-05-02T17:25:31Z</time></trkpt><trkpt lat="43.223735606543855" lon="12.142936030711821"><ele>592.0</ele><time>2026-05-02T17:25:33Z</time></trkpt><trkpt lat="43.22382779677611" lon="12.142847128241531"><ele>592.0</ele><time>2026-05-02T17:25:35Z</time></trkpt><trkpt lat="43.22388919239928" lon="12.142737996307757"><ele>592.0</ele><time>2026-05-02T17:25:37Z</time></trkpt><trkpt lat="43.223950293878744" lon="12.142618450003438"><ele>591.6666666666667</ele><time>2026-05-02T17:25:39Z</time></trkpt><trkpt lat="43.22402657687034" lon="12.142579725690997"><ele>591.3333333333334</ele><time>2026-05-02T17:25:41Z</time></trkpt><trkpt lat="43.22410208164857" lon="12.142568120268647"><ele>591.0</ele><time>2026-05-02T17:25:43Z</time></trkpt><trkpt lat="43.224195194850495" lon="12.142522294342525"><ele>590.6666666666666</ele><time>2026-05-02T17:25:45Z</time></trkpt><trkpt lat="43.22425442667394" lon="12.142481996142717"><ele>590.3333333333333</ele><time>2026-05-02T17:25:46Z</time></trkpt><trkpt lat="43.22435530867477" lon="12.142397910572058"><ele>590.0</ele><time>2026-05-02T17:25:48Z</time></trkpt><trkpt lat="43.22444212108061" lon="12.14231956888856"><ele>590.0</ele><time>2026-05-02T17:25:50Z</time></trkpt><trkpt lat="43.22452320998481" lon="12.14226282628676"><ele>590.0</ele><time>2026-05-02T17:25:53Z</time></trkpt><trkpt lat="43.22462343875065" lon="12.14219446751802"><ele>590.0</ele><time>2026-05-02T17:25:56Z</time></trkpt><trkpt lat="43.224681617573346" lon="12.142157464752335"><ele>590.0</ele><time>2026-05-02T17:25:57Z</time></trkpt><trkpt lat="43.22475546067535" lon="12.142144894529176"><ele>590.0</ele><time>2026-05-02T17:25:59Z</time></trkpt><trkpt lat="43.22471795144907" lon="12.142232321297955"><ele>590.0</ele><time>2026-05-02T17:26:02Z</time></trkpt><trkpt lat="43.224634911748524" lon="12.142332943203073"><ele>584.0</ele><time>2026-05-02T17:26:05Z</time></trkpt><trkpt lat="43.22458145591242" lon="12.142416825449386"><ele>578.0</ele><time>2026-05-02T17:26:07Z</time></trkpt><trkpt lat="43.22452122340748" lon="12.142520861461033"><ele>572.0</ele><time>2026-05-02T17:26:09Z</time></trkpt><trkpt lat="43.22444324118179" lon="12.14262360461175"><ele>566.0</ele><time>2026-05-02T17:26:11Z</time></trkpt><trkpt lat="43.224339363111795" lon="12.142698006175735"><ele>560.0</ele><time>2026-05-02T17:26:13Z</time></trkpt><trkpt lat="43.22425727467646" lon="12.142744061629648"><ele>560.0</ele><time>2026-05-02T17:26:18Z</time></trkpt><trkpt lat="43.22417699426285" lon="12.142750552263323"><ele>560.0</ele><time>2026-05-02T17:26:20Z</time></trkpt><trkpt lat="43.22411333510819" lon="12.142819127735427"><ele>560.0</ele><time>2026-05-02T17:26:22Z</time></trkpt><trkpt lat="43.22409136277673" lon="12.142984323325312"><ele>560.0</ele><time>2026-05-02T17:26:24Z</time></trkpt><trkpt lat="43.22404038648374" lon="12.143074828471415"><ele>560.0</ele><time>2026-05-02T17:26:25Z</time></trkpt><trkpt lat="43.22398428892506" lon="12.143148797246212"><ele>560.0</ele><time>2026-05-02T17:26:26Z</time></trkpt><trkpt lat="43.223926172619805" lon="12.14321471903268"><ele>560.6666666666666</ele><time>2026-05-02T17:26:27Z</time></trkpt><trkpt lat="43.223831502337895" lon="12.143317942803979"><ele>561.3333333333333</ele><time>2026-05-02T17:26:29Z</time></trkpt><trkpt lat="43.223769990237294" lon="12.143385199227003"><ele>562.0</ele><time>2026-05-02T17:26:30Z</time></trkpt><trkpt lat="43.22370844187985" lon="12.143435511885283"><ele>562.6666666666666</ele><time>2026-05-02T17:26:31Z</time></trkpt><trkpt lat="43.22365274943716" lon="12.143484808701198"><ele>563.3333333333334</ele><time>2026-05-02T17:26:32Z</time></trkpt><trkpt lat="43.22359533416652" lon="12.143532960547354"><ele>564.0</ele><time>2026-05-02T17:26:33Z</time></trkpt><trkpt lat="43.22352131571111" lon="12.143595611706104"><ele>564.0</ele><time>2026-05-02T17:26:35Z</time></trkpt><trkpt lat="43.22344589953046" lon="12.143665710786475"><ele>564.0</ele><time>2026-05-02T17:26:36Z</time></trkpt><trkpt lat="43.223377403482" lon="12.14372980611889"><ele>564.0</ele><time>2026-05-02T17:26:37Z</time></trkpt><trkpt lat="43.223312489299516" lon="12.143770141213068"><ele>564.0</ele><time>2026-05-02T17:26:38Z</time></trkpt><trkpt lat="43.22319365165017" lon="12.143770424410228"><ele>564.0</ele><time>2026-05-02T17:26:40Z</time></trkpt><trkpt lat="43.22312785213094" lon="12.143761157094447"><ele>564.0</ele><time>2026-05-02T17:26:41Z</time></trkpt><trkpt lat="43.223035157358126" lon="12.143700756758859"><ele>565.6666666666666</ele><time>2026-05-02T17:26:43Z</time></trkpt><trkpt lat="43.22295336670927" lon="12.143659029371223"><ele>567.3333333333334</ele><time>2026-05-02T17:26:45Z</time></trkpt><trkpt lat="43.22287358647994" lon="12.14366923908926"><ele>569.0</ele><time>2026-05-02T17:26:47Z</time></trkpt><trkpt lat="43.222851597511905" lon="12.143797740414719"><ele>570.6666666666667</ele><time>2026-05-02T17:26:49Z</time></trkpt><trkpt lat="43.22283023490681" lon="12.143903012276377"><ele>572.3333333333334</ele><time>2026-05-02T17:26:50Z</time></trkpt><trkpt lat="43.222815906856674" lon="12.143988901979368"><ele>574.0</ele><time>2026-05-02T17:26:51Z</time></trkpt><trkpt lat="43.22277817110948" lon="12.14407586291476"><ele>574.0</ele><time>2026-05-02T17:26:52Z</time></trkpt><trkpt lat="43.2227312603551" lon="12.14414977363544"><ele>574.0</ele><time>2026-05-02T17:26:53Z</time></trkpt><trkpt lat="43.22271060793839" lon="12.144323815741863"><ele>574.0</ele><time>2026-05-02T17:26:55Z</time></trkpt><trkpt lat="43.2227139303983" lon="12.144486027559122"><ele>574.0</ele><time>2026-05-02T17:26:57Z</time></trkpt><trkpt lat="43.22268121694757" lon="12.144632403457294"><ele>574.0</ele><time>2026-05-02T17:26:59Z</time></trkpt><trkpt lat="43.22261766203767" lon="12.14477892927617"><ele>574.0</ele><time>2026-05-02T17:27:01Z</time></trkpt><trkpt lat="43.22255286076271" lon="12.144854165483661"><ele>574.0</ele><time>2026-05-02T17:27:02Z</time></trkpt><trkpt lat="43.22248812584433" lon="12.144894004375931"><ele>574.0</ele><time>2026-05-02T17:27:03Z</time></trkpt><trkpt lat="43.22242186577825" lon="12.144926419032153"><ele>574.0</ele><time>2026-05-02T17:27:04Z</time></trkpt><trkpt lat="43.22233789185322" lon="12.144958803947157"><ele>574.0</ele><time>2026-05-02T17:27:05Z</time></trkpt><trkpt lat="43.222260329441795" lon="12.144967223949507"><ele>574.0</ele><time>2026-05-02T17:27:06Z</time></trkpt><trkpt lat="43.22218887102992" lon="12.1449923149974"><ele>571.0</ele><time>2026-05-02T17:27:07Z</time></trkpt><trkpt lat="43.22207886745076" lon="12.145031809616224"><ele>568.0</ele><time>2026-05-02T17:27:09Z</time></trkpt><trkpt lat="43.22201659452507" lon="12.14505699212603"><ele>565.0</ele><time>2026-05-02T17:27:10Z</time></trkpt><trkpt lat="43.22193967576845" lon="12.145073160975693"><ele>562.0</ele><time>2026-05-02T17:27:11Z</time></trkpt><trkpt lat="43.221858751781525" lon="12.14507082695785"><ele>559.0</ele><time>2026-05-02T17:27:12Z</time></trkpt><trkpt lat="43.22179140774176" lon="12.145026247240375"><ele>556.0</ele><time>2026-05-02T17:27:13Z</time></trkpt><trkpt lat="43.22171972996771" lon="12.144972215708616"><ele>556.0</ele><time>2026-05-02T17:27:14Z</time></trkpt><trkpt lat="43.22166047566264" lon="12.1449341454033"><ele>556.0</ele><time>2026-05-02T17:27:15Z</time></trkpt><trkpt lat="43.221592318641186" lon="12.144908019699422"><ele>556.0</ele><time>2026-05-02T17:27:16Z</time></trkpt><trkpt lat="43.22147620597302" lon="12.144916871209636"><ele>556.0</ele><time>2026-05-02T17:27:18Z</time></trkpt><trkpt lat="43.2213533345391" lon="12.144906915418462"><ele>556.0</ele><time>2026-05-02T17:27:20Z</time></trkpt><trkpt lat="43.22129034951461" lon="12.14495020270373"><ele>556.0</ele><time>2026-05-02T17:27:23Z</time></trkpt><trkpt lat="43.22129134029195" lon="12.145079377451042"><ele>555.6666666666667</ele><time>2026-05-02T17:27:25Z</time></trkpt><trkpt lat="43.2213001660602" lon="12.145183009176677"><ele>555.3333333333334</ele><time>2026-05-02T17:27:26Z</time></trkpt><trkpt lat="43.22128738489915" lon="12.145298201947424"><ele>555.0</ele><time>2026-05-02T17:27:27Z</time></trkpt><trkpt lat="43.2212670012746" lon="12.145431884481619"><ele>554.6666666666666</ele><time>2026-05-02T17:27:28Z</time></trkpt><trkpt lat="43.22124491132118" lon="12.145545383429772"><ele>554.3333333333333</ele><time>2026-05-02T17:27:29Z</time></trkpt><trkpt lat="43.22121519595155" lon="12.14562535962856"><ele>554.0</ele><time>2026-05-02T17:27:30Z</time></trkpt><trkpt lat="43.221133844720306" lon="12.145779020877557"><ele>554.0</ele><time>2026-05-02T17:27:32Z</time></trkpt><trkpt lat="43.22107575931502" lon="12.145860705008834"><ele>554.0</ele><time>2026-05-02T17:27:33Z</time></trkpt><trkpt lat="43.22100968367743" lon="12.145904140760834"><ele>554.0</ele><time>2026-05-02T17:27:34Z</time></trkpt><trkpt lat="43.220915800039606" lon="12.145913767555033"><ele>554.0</ele><time>2026-05-02T17:27:35Z</time></trkpt><trkpt lat="43.22084029114194" lon="12.145920802621893"><ele>554.0</ele><time>2026-05-02T17:27:36Z</time></trkpt><trkpt lat="43.2207741787803" lon="12.145920164253239"><ele>554.0</ele><time>2026-05-02T17:27:38Z</time></trkpt><trkpt lat="43.22069084741265" lon="12.145932734060489"><ele>554.0</ele><time>2026-05-02T17:27:41Z</time></trkpt><trkpt lat="43.22068232701706" lon="12.14606468985622"><ele>554.0</ele><time>2026-05-02T17:27:43Z</time></trkpt><trkpt lat="43.22073469394476" lon="12.146196167663785"><ele>554.0</ele><time>2026-05-02T17:27:45Z</time></trkpt><trkpt lat="43.2207507141373" lon="12.146287792906543"><ele>554.0</ele><time>2026-05-02T17:27:46Z</time></trkpt><trkpt lat="43.22075661339266" lon="12.146396882479008"><ele>554.0</ele><time>2026-05-02T17:27:47Z</time></trkpt><trkpt lat="43.22074729575673" lon="12.146504029629563"><ele>554.0</ele><time>2026-05-02T17:27:48Z</time></trkpt><trkpt lat="43.220722424132745" lon="12.146630952012089"><ele>554.2</ele><time>2026-05-02T17:27:50Z</time></trkpt><trkpt lat="43.22067383310227" lon="12.146703639967793"><ele>554.4</ele><time>2026-05-02T17:27:53Z</time></trkpt><trkpt lat="43.220596242610284" lon="12.146759145165023"><ele>554.6</ele><time>2026-05-02T17:27:56Z</time></trkpt><trkpt lat="43.220489074738225" lon="12.146768188524577"><ele>554.8</ele><time>2026-05-02T17:27:58Z</time></trkpt><trkpt lat="43.220416815145136" lon="12.14676326734422"><ele>555.0</ele><time>2026-05-02T17:27:59Z</time></trkpt><trkpt lat="43.22028450564571" lon="12.146770463008536"><ele>555.0</ele><time>2026-05-02T17:28:01Z</time></trkpt><trkpt lat="43.22019323867949" lon="12.146788382432929"><ele>555.0</ele><time>2026-05-02T17:28:03Z</time></trkpt><trkpt lat="43.220083994506524" lon="12.146864005169107"><ele>555.0</ele><time>2026-05-02T17:28:05Z</time></trkpt><trkpt lat="43.21999085645784" lon="12.146958706866684"><ele>555.0</ele><time>2026-05-02T17:28:07Z</time></trkpt><trkpt lat="43.219875869564795" lon="12.147014774172021"><ele>552.8333333333334</ele><time>2026-05-02T17:28:09Z</time></trkpt><trkpt lat="43.219794919331726" lon="12.14707923000131"><ele>550.6666666666666</ele><time>2026-05-02T17:28:10Z</time></trkpt><trkpt lat="43.219710107472196" lon="12.147158357755389"><ele>548.5</ele><time>2026-05-02T17:28:11Z</time></trkpt><trkpt lat="43.219635419555765" lon="12.147224053114739"><ele>546.3333333333333</ele><time>2026-05-02T17:28:12Z</time></trkpt><trkpt lat="43.21957174828194" lon="12.147290487410464"><ele>544.1666666666666</ele><time>2026-05-02T17:28:13Z</time></trkpt><trkpt lat="43.21950553653476" lon="12.147343624492057"><ele>542.0</ele><time>2026-05-02T17:28:14Z</time></trkpt><trkpt lat="43.21943188474661" lon="12.147397850454194"><ele>542.0</ele><time>2026-05-02T17:28:15Z</time></trkpt><trkpt lat="43.219361255228" lon="12.147437941406542"><ele>542.0</ele><time>2026-05-02T17:28:16Z</time></trkpt><trkpt lat="43.21928620353306" lon="12.147480706620888"><ele>542.0</ele><time>2026-05-02T17:28:17Z</time></trkpt><trkpt lat="43.21922022303183" lon="12.14749552553626"><ele>542.0</ele><time>2026-05-02T17:28:18Z</time></trkpt><trkpt lat="43.21915407758219" lon="12.1475122923908"><ele>542.0</ele><time>2026-05-02T17:28:19Z</time></trkpt><trkpt lat="43.219058043096815" lon="12.147511725527998"><ele>542.0</ele><time>2026-05-02T17:28:21Z</time></trkpt><trkpt lat="43.21893976871051" lon="12.147502929504608"><ele>542.0</ele><time>2026-05-02T17:28:23Z</time></trkpt><trkpt lat="43.21887061034746" lon="12.147471591676412"><ele>542.0</ele><time>2026-05-02T17:28:24Z</time></trkpt><trkpt lat="43.218799670411805" lon="12.147433866702055"><ele>542.0</ele><time>2026-05-02T17:28:25Z</time></trkpt><trkpt lat="43.21873026080959" lon="12.14741609096884"><ele>542.0</ele><time>2026-05-02T17:28:26Z</time></trkpt><trkpt lat="43.2186492794027" lon="12.147443292004064"><ele>542.0</ele><time>2026-05-02T17:28:27Z</time></trkpt><trkpt lat="43.21854808901122" lon="12.147405482273289"><ele>542.0</ele><time>2026-05-02T17:28:29Z</time></trkpt><trkpt lat="43.21848284439791" lon="12.14734149138271"><ele>548.3333333333333</ele><time>2026-05-02T17:28:30Z</time></trkpt><trkpt lat="43.21840214267538" lon="12.147268624519914"><ele>554.6666666666666</ele><time>2026-05-02T17:28:31Z</time></trkpt><trkpt lat="43.21833482731008" lon="12.147233225111759"><ele>561.0</ele><time>2026-05-02T17:28:32Z</time></trkpt><trkpt lat="43.21826221343595" lon="12.147218616018394"><ele>567.3333333333334</ele><time>2026-05-02T17:28:33Z</time></trkpt><trkpt lat="43.21818075873577" lon="12.147199381736897"><ele>573.6666666666667</ele><time>2026-05-02T17:28:34Z</time></trkpt><trkpt lat="43.21808867089482" lon="12.147184116789152"><ele>580.0</ele><time>2026-05-02T17:28:35Z</time></trkpt><trkpt lat="43.21802077793087" lon="12.147173331314182"><ele>580.6</ele><time>2026-05-02T17:28:36Z</time></trkpt><trkpt lat="43.21789649058387" lon="12.14718785621363"><ele>581.2</ele><time>2026-05-02T17:28:38Z</time></trkpt><trkpt lat="43.217826306341706" lon="12.14723359583577"><ele>581.8</ele><time>2026-05-02T17:28:39Z</time></trkpt><trkpt lat="43.217724910096486" lon="12.147214410746415"><ele>582.4</ele><time>2026-05-02T17:28:41Z</time></trkpt><trkpt lat="43.2176492717104" lon="12.147181354732028"><ele>583.0</ele><time>2026-05-02T17:28:42Z</time></trkpt><trkpt lat="43.2175559409204" lon="12.147154303126436"><ele>583.0</ele><time>2026-05-02T17:28:43Z</time></trkpt><trkpt lat="43.21749026020819" lon="12.147149650941875"><ele>583.0</ele><time>2026-05-02T17:28:44Z</time></trkpt><trkpt lat="43.21739062905775" lon="12.14713631057722"><ele>583.0</ele><time>2026-05-02T17:28:46Z</time></trkpt><trkpt lat="43.217330874486485" lon="12.14709632642127"><ele>583.0</ele><time>2026-05-02T17:28:47Z</time></trkpt><trkpt lat="43.21722680192117" lon="12.147044393547665"><ele>583.0</ele><time>2026-05-02T17:28:49Z</time></trkpt><trkpt lat="43.21713903581951" lon="12.147060212878449"><ele>583.0</ele><time>2026-05-02T17:28:51Z</time></trkpt><trkpt lat="43.217093373836995" lon="12.147130245902549"><ele>584.1666666666667</ele><time>2026-05-02T17:28:52Z</time></trkpt><trkpt lat="43.21704537544664" lon="12.147227223154948"><ele>585.3333333333334</ele><time>2026-05-02T17:28:53Z</time></trkpt><trkpt lat="43.21699392802239" lon="12.14730741603524"><ele>586.5</ele><time>2026-05-02T17:28:54Z</time></trkpt><trkpt lat="43.216940440866864" lon="12.147374835484294"><ele>587.6666666666666</ele><time>2026-05-02T17:28:55Z</time></trkpt><trkpt lat="43.21688173083477" lon="12.147420145558263"><ele>588.8333333333333</ele><time>2026-05-02T17:28:56Z</time></trkpt><trkpt lat="43.216801888775244" lon="12.147462284227336"><ele>590.0</ele><time>2026-05-02T17:28:57Z</time></trkpt><trkpt lat="43.21671573097589" lon="12.147500155039058"><ele>590.1666666666666</ele><time>2026-05-02T17:28:58Z</time></trkpt><trkpt lat="43.21664886679901" lon="12.147526517076065"><ele>590.3333333333333</ele><time>2026-05-02T17:28:59Z</time></trkpt><trkpt lat="43.2165508514172" lon="12.14752854181064"><ele>590.5</ele><time>2026-05-02T17:29:01Z</time></trkpt><trkpt lat="43.216483297649745" lon="12.147492518159256"><ele>590.6666666666666</ele><time>2026-05-02T17:29:04Z</time></trkpt><trkpt lat="43.21642269700879" lon="12.147383264772301"><ele>590.8333333333334</ele><time>2026-05-02T17:29:06Z</time></trkpt><trkpt lat="43.21635774893756" lon="12.147314550992942"><ele>591.0</ele><time>2026-05-02T17:29:08Z</time></trkpt><trkpt lat="43.21631224629803" lon="12.147247524673718"><ele>591.0</ele><time>2026-05-02T17:29:09Z</time></trkpt><trkpt lat="43.216222077979054" lon="12.147153382567124"><ele>591.0</ele><time>2026-05-02T17:29:11Z</time></trkpt><trkpt lat="43.21616236521335" lon="12.14712344971856"><ele>591.0</ele><time>2026-05-02T17:29:12Z</time></trkpt><trkpt lat="43.21609837943651" lon="12.147077412430988"><ele>591.0</ele><time>2026-05-02T17:29:13Z</time></trkpt><trkpt lat="43.21600795548565" lon="12.147039111057826"><ele>591.0</ele><time>2026-05-02T17:29:15Z</time></trkpt><trkpt lat="43.215923613809046" lon="12.147119391862496"><ele>591.0</ele><time>2026-05-02T17:29:17Z</time></trkpt><trkpt lat="43.21586245011556" lon="12.147180042057206"><ele>591.0</ele><time>2026-05-02T17:29:18Z</time></trkpt><trkpt lat="43.21580228291972" lon="12.147219817083625"><ele>591.0</ele><time>2026-05-02T17:29:19Z</time></trkpt><trkpt lat="43.215727186302196" lon="12.14725349403635"><ele>591.0</ele><time>2026-05-02T17:29:20Z</time></trkpt><trkpt lat="43.21564653231012" lon="12.147290128817144"><ele>591.0</ele><time>2026-05-02T17:29:21Z</time></trkpt><trkpt lat="43.21557524757954" lon="12.147302743667158"><ele>591.0</ele><time>2026-05-02T17:29:22Z</time></trkpt><trkpt lat="43.21547277760851" lon="12.147309379533406"><ele>591.0</ele><time>2026-05-02T17:29:24Z</time></trkpt><trkpt lat="43.215359028855914" lon="12.147396577418112"><ele>589.4</ele><time>2026-05-02T17:29:26Z</time></trkpt><trkpt lat="43.21528223851092" lon="12.147509858967886"><ele>587.8</ele><time>2026-05-02T17:29:28Z</time></trkpt><trkpt lat="43.21521955543351" lon="12.147567776366495"><ele>586.1999999999999</ele><time>2026-05-02T17:29:29Z</time></trkpt><trkpt lat="43.215159493458884" lon="12.147601634582104"><ele>584.6</ele><time>2026-05-02T17:29:30Z</time></trkpt><trkpt lat="43.215040929224294" lon="12.147651468728117"><ele>583.0</ele><time>2026-05-02T17:29:32Z</time></trkpt><trkpt lat="43.21496837407649" lon="12.147663452748235"><ele>583.0</ele><time>2026-05-02T17:29:33Z</time></trkpt><trkpt lat="43.21488695521249" lon="12.147658104894878"><ele>583.0</ele><time>2026-05-02T17:29:34Z</time></trkpt><trkpt lat="43.21480775223358" lon="12.147641029973064"><ele>583.0</ele><time>2026-05-02T17:29:35Z</time></trkpt><trkpt lat="43.214718011042095" lon="12.147622938982817"><ele>583.0</ele><time>2026-05-02T17:29:36Z</time></trkpt><trkpt lat="43.21462889826298" lon="12.147601011485744"><ele>583.0</ele><time>2026-05-02T17:29:37Z</time></trkpt><trkpt lat="43.21456061897434" lon="12.147567628436072"><ele>583.0</ele><time>2026-05-02T17:29:40Z</time></trkpt><trkpt lat="43.214492429153246" lon="12.147543770219796"><ele>582.4</ele><time>2026-05-02T17:29:42Z</time></trkpt><trkpt lat="43.214394450436124" lon="12.14748625011213"><ele>581.8</ele><time>2026-05-02T17:29:44Z</time></trkpt><trkpt lat="43.214327846998366" lon="12.14745451931968"><ele>581.2</ele><time>2026-05-02T17:29:45Z</time></trkpt><trkpt lat="43.21425121773047" lon="12.147428981272084"><ele>580.6</ele><time>2026-05-02T17:29:46Z</time></trkpt><trkpt lat="43.21412232771252" lon="12.147368646575233"><ele>580.0</ele><time>2026-05-02T17:29:48Z</time></trkpt><trkpt lat="43.21403778684999" lon="12.147304887883585"><ele>582.0</ele><time>2026-05-02T17:29:49Z</time></trkpt><trkpt lat="43.21396348048732" lon="12.14725881938245"><ele>584.0</ele><time>2026-05-02T17:29:50Z</time></trkpt><trkpt lat="43.2138957450517" lon="12.147226859503125"><ele>586.0</ele><time>2026-05-02T17:29:51Z</time></trkpt><trkpt lat="43.21375069057779" lon="12.14718280911792"><ele>588.0</ele><time>2026-05-02T17:29:53Z</time></trkpt><trkpt lat="43.21369612892019" lon="12.147135676027668"><ele>590.0</ele><time>2026-05-02T17:29:54Z</time></trkpt><trkpt lat="43.21358639351504" lon="12.14705553298478"><ele>590.0</ele><time>2026-05-02T17:29:56Z</time></trkpt><trkpt lat="43.213501077561254" lon="12.147011887057307"><ele>590.0</ele><time>2026-05-02T17:29:57Z</time></trkpt><trkpt lat="43.2134043813242" lon="12.146961266408395"><ele>590.0</ele><time>2026-05-02T17:29:58Z</time></trkpt><trkpt lat="43.21332775036707" lon="12.146913570140025"><ele>590.0</ele><time>2026-05-02T17:29:59Z</time></trkpt><trkpt lat="43.213268580982174" lon="12.146876733179978"><ele>590.0</ele><time>2026-05-02T17:30:00Z</time></trkpt><trkpt lat="43.21319124327666" lon="12.146834185898625"><ele>590.0</ele><time>2026-05-02T17:30:01Z</time></trkpt><trkpt lat="43.213113437543186" lon="12.146786916539162"><ele>589.1666666666666</ele><time>2026-05-02T17:30:02Z</time></trkpt><trkpt lat="43.21303763145839" lon="12.146730622837802"><ele>588.3333333333333</ele><time>2026-05-02T17:30:03Z</time></trkpt><trkpt lat="43.21297389378431" lon="12.146686474447064"><ele>587.5</ele><time>2026-05-02T17:30:04Z</time></trkpt><trkpt lat="43.212892922348516" lon="12.146590983743828"><ele>586.6666666666666</ele><time>2026-05-02T17:30:06Z</time></trkpt><trkpt lat="43.21282891097058" lon="12.146546023438614"><ele>585.8333333333334</ele><time>2026-05-02T17:30:07Z</time></trkpt><trkpt lat="43.21273853143891" lon="12.146498919037645"><ele>585.0</ele><time>2026-05-02T17:30:08Z</time></trkpt><trkpt lat="43.21266538782843" lon="12.146453202921474"><ele>585.6</ele><time>2026-05-02T17:30:09Z</time></trkpt><trkpt lat="43.21259558865939" lon="12.146418813731254"><ele>586.2</ele><time>2026-05-02T17:30:10Z</time></trkpt><trkpt lat="43.21252418132218" lon="12.146391501935652"><ele>586.8</ele><time>2026-05-02T17:30:11Z</time></trkpt><trkpt lat="43.21242898903041" lon="12.146137229641036"><ele>587.4</ele><time>2026-05-02T17:30:13Z</time></trkpt><trkpt lat="43.212359213643595" lon="12.146128446138729"><ele>588.0</ele><time>2026-05-02T17:30:16Z</time></trkpt><trkpt lat="43.21227515974683" lon="12.14612942572308"><ele>588.0</ele><time>2026-05-02T17:30:18Z</time></trkpt><trkpt lat="43.21219569576935" lon="12.146132835097507"><ele>588.0</ele><time>2026-05-02T17:30:20Z</time></trkpt><trkpt lat="43.212131711126936" lon="12.146305721516493"><ele>588.0</ele><time>2026-05-02T17:30:22Z</time></trkpt><trkpt lat="43.21207440637302" lon="12.146364356654152"><ele>588.0</ele><time>2026-05-02T17:30:25Z</time></trkpt><trkpt lat="43.21199325730589" lon="12.14638269380293"><ele>588.0</ele><time>2026-05-02T17:30:28Z</time></trkpt><trkpt lat="43.21192566626026" lon="12.146387491158627"><ele>588.0</ele><time>2026-05-02T17:30:30Z</time></trkpt><trkpt lat="43.21199802827759" lon="12.146313691601518"><ele>588.0</ele><time>2026-05-02T17:30:36Z</time></trkpt><trkpt lat="43.212070838035565" lon="12.146359410324983"><ele>588.0</ele><time>2026-05-02T17:30:38Z</time></trkpt><trkpt lat="43.21213601781982" lon="12.146309347360468"><ele>588.0</ele><time>2026-05-02T17:30:42Z</time></trkpt><trkpt lat="43.212213364538904" lon="12.146246076100935"><ele>588.0</ele><time>2026-05-02T17:31:31Z</time></trkpt><trkpt lat="43.212270438121436" lon="12.146192977843171"><ele>588.0</ele><time>2026-05-02T17:31:33Z</time></trkpt><trkpt lat="43.21218739054548" lon="12.146201517271889"><ele>588.0</ele><time>2026-05-02T17:31:39Z</time></trkpt><trkpt lat="43.21212183797553" lon="12.14630321839363"><ele>588.0</ele><time>2026-05-02T17:31:41Z</time></trkpt><trkpt lat="43.212065443871005" lon="12.146355468312366"><ele>588.0</ele><time>2026-05-02T17:31:42Z</time></trkpt><trkpt lat="43.211992255572056" lon="12.146385049008398"><ele>588.0</ele><time>2026-05-02T17:31:43Z</time></trkpt><trkpt lat="43.21192298440088" lon="12.146396611452012"><ele>588.0</ele><time>2026-05-02T17:31:44Z</time></trkpt><trkpt lat="43.21184788454346" lon="12.146405505094561"><ele>588.0</ele><time>2026-05-02T17:31:45Z</time></trkpt><trkpt lat="43.211782999862926" lon="12.146412193331813"><ele>588.0</ele><time>2026-05-02T17:31:46Z</time></trkpt><trkpt lat="43.211716013396156" lon="12.146416510358417"><ele>588.0</ele><time>2026-05-02T17:31:47Z</time></trkpt><trkpt lat="43.211655455856835" lon="12.146391310857275"><ele>588.0</ele><time>2026-05-02T17:31:51Z</time></trkpt><trkpt lat="43.21166311287369" lon="12.146157028185586"><ele>588.0</ele><time>2026-05-02T17:31:54Z</time></trkpt><trkpt lat="43.21163840086475" lon="12.145950206130534"><ele>588.0</ele><time>2026-05-02T17:31:56Z</time></trkpt><trkpt lat="43.21163132936978" lon="12.145809191215184"><ele>588.0</ele><time>2026-05-02T17:31:57Z</time></trkpt><trkpt lat="43.21160965009173" lon="12.145684239496017"><ele>588.0</ele><time>2026-05-02T17:31:58Z</time></trkpt><trkpt lat="43.21160710095511" lon="12.145501001763883"><ele>588.0</ele><time>2026-05-02T17:32:00Z</time></trkpt><trkpt lat="43.21159579207167" lon="12.14539645766188"><ele>588.0</ele><time>2026-05-02T17:32:01Z</time></trkpt><trkpt lat="43.21160211226459" lon="12.145309004593969"><ele>588.0</ele><time>2026-05-02T17:32:02Z</time></trkpt><trkpt lat="43.211663130551884" lon="12.145175771598465"><ele>588.0</ele><time>2026-05-02T17:32:04Z</time></trkpt><trkpt lat="43.211718296621505" lon="12.14511212728179"><ele>588.0</ele><time>2026-05-02T17:32:05Z</time></trkpt><trkpt lat="43.211804677882874" lon="12.145056671495466"><ele>588.0</ele><time>2026-05-02T17:32:06Z</time></trkpt><trkpt lat="43.21188157212746" lon="12.145011000955618"><ele>588.0</ele><time>2026-05-02T17:32:07Z</time></trkpt><trkpt lat="43.21195159345802" lon="12.144947828268547"><ele>588.0</ele><time>2026-05-02T17:32:08Z</time></trkpt><trkpt lat="43.21200319536477" lon="12.144888160698374"><ele>588.0</ele><time>2026-05-02T17:32:09Z</time></trkpt><trkpt lat="43.212050910511394" lon="12.144811559871767"><ele>588.0</ele><time>2026-05-02T17:32:10Z</time></trkpt><trkpt lat="43.212098788294284" lon="12.14473144416392"><ele>586.4</ele><time>2026-05-02T17:32:11Z</time></trkpt><trkpt lat="43.212183166757086" lon="12.144622983076502"><ele>584.8</ele><time>2026-05-02T17:32:13Z</time></trkpt><trkpt lat="43.21226956093961" lon="12.14456054221181"><ele>583.2</ele><time>2026-05-02T17:32:15Z</time></trkpt><trkpt lat="43.21236682963579" lon="12.144534234102604"><ele>581.6</ele><time>2026-05-02T17:32:17Z</time></trkpt><trkpt lat="43.21246390503331" lon="12.144504292708435"><ele>580.0</ele><time>2026-05-02T17:32:19Z</time></trkpt><trkpt lat="43.212532476801385" lon="12.144473516636483"><ele>580.0</ele><time>2026-05-02T17:32:24Z</time></trkpt><trkpt lat="43.21259837526993" lon="12.144490477235529"><ele>580.0</ele><time>2026-05-02T17:32:35Z</time></trkpt><trkpt lat="43.21253062880922" lon="12.144495721791793"><ele>580.0</ele><time>2026-05-02T17:32:55Z</time></trkpt><trkpt lat="43.21245791827763" lon="12.144534570381438"><ele>580.0</ele><time>2026-05-02T17:32:57Z</time></trkpt><trkpt lat="43.21239258736105" lon="12.14453949724363"><ele>580.0</ele><time>2026-05-02T17:32:58Z</time></trkpt><trkpt lat="43.212322121958756" lon="12.144551353707094"><ele>580.0</ele><time>2026-05-02T17:32:59Z</time></trkpt><trkpt lat="43.212260966399974" lon="12.144576454226774"><ele>580.0</ele><time>2026-05-02T17:33:00Z</time></trkpt><trkpt lat="43.21215592182108" lon="12.14469204527578"><ele>580.0</ele><time>2026-05-02T17:33:02Z</time></trkpt><trkpt lat="43.212089952821856" lon="12.144771934798404"><ele>580.0</ele><time>2026-05-02T17:33:03Z</time></trkpt><trkpt lat="43.212028143782405" lon="12.144847457236315"><ele>580.0</ele><time>2026-05-02T17:33:04Z</time></trkpt><trkpt lat="43.21196775139771" lon="12.144933388777678"><ele>580.0</ele><time>2026-05-02T17:33:05Z</time></trkpt><trkpt lat="43.21190446326803" lon="12.144990943548583"><ele>580.0</ele><time>2026-05-02T17:33:06Z</time></trkpt><trkpt lat="43.211845697436054" lon="12.145041760934694"><ele>580.0</ele><time>2026-05-02T17:33:07Z</time></trkpt><trkpt lat="43.21178055834215" lon="12.145084521653065"><ele>581.6</ele><time>2026-05-02T17:33:08Z</time></trkpt><trkpt lat="43.2117189056925" lon="12.145127554080483"><ele>583.2</ele><time>2026-05-02T17:33:09Z</time></trkpt><trkpt lat="43.2116608426848" lon="12.145196113722033"><ele>584.8</ele><time>2026-05-02T17:33:10Z</time></trkpt><trkpt lat="43.211612792212335" lon="12.145271743881516"><ele>586.4</ele><time>2026-05-02T17:33:11Z</time></trkpt><trkpt lat="43.21159507493434" lon="12.145415654361255"><ele>588.0</ele><time>2026-05-02T17:33:13Z</time></trkpt><trkpt lat="43.21160040647416" lon="12.145613127498487"><ele>588.0</ele><time>2026-05-02T17:33:15Z</time></trkpt><trkpt lat="43.21162130203486" lon="12.145725162670027"><ele>588.0</ele><time>2026-05-02T17:33:16Z</time></trkpt><trkpt lat="43.211633876711424" lon="12.14585211010226"><ele>588.0</ele><time>2026-05-02T17:33:17Z</time></trkpt><trkpt lat="43.21163742352281" lon="12.145975553972988"><ele>588.0</ele><time>2026-05-02T17:33:18Z</time></trkpt><trkpt lat="43.21164861896735" lon="12.146100953692125"><ele>588.0</ele><time>2026-05-02T17:33:19Z</time></trkpt><trkpt lat="43.2116605118834" lon="12.146205174871174"><ele>588.0</ele><time>2026-05-02T17:33:20Z</time></trkpt><trkpt lat="43.21168534004391" lon="12.146345395474158"><ele>588.0</ele><time>2026-05-02T17:33:22Z</time></trkpt><trkpt lat="43.21162038343318" lon="12.146428625163141"><ele>588.0</ele><time>2026-05-02T17:33:25Z</time></trkpt><trkpt lat="43.21155463898683" lon="12.146427502836842"><ele>588.0</ele><time>2026-05-02T17:33:26Z</time></trkpt><trkpt lat="43.21146572853179" lon="12.146422908350617"><ele>588.0</ele><time>2026-05-02T17:33:27Z</time></trkpt><trkpt lat="43.211364882799835" lon="12.146438847813785"><ele>588.0</ele><time>2026-05-02T17:33:28Z</time></trkpt><trkpt lat="43.21127135869274" lon="12.146469846853442"><ele>588.0</ele><time>2026-05-02T17:33:29Z</time></trkpt><trkpt lat="43.21117769072642" lon="12.146493047704755"><ele>586.8</ele><time>2026-05-02T17:33:30Z</time></trkpt><trkpt lat="43.21107853677054" lon="12.146504157044987"><ele>585.5999999999999</ele><time>2026-05-02T17:33:31Z</time></trkpt><trkpt lat="43.210979018922465" lon="12.146512796195003"><ele>584.4000000000001</ele><time>2026-05-02T17:33:32Z</time></trkpt><trkpt lat="43.210879609066524" lon="12.14651511239946"><ele>583.2</ele><time>2026-05-02T17:33:33Z</time></trkpt><trkpt lat="43.2107764203673" lon="12.146504469164931"><ele>582.0</ele><time>2026-05-02T17:33:34Z</time></trkpt><trkpt lat="43.210668679073635" lon="12.146492960703338"><ele>581.2</ele><time>2026-05-02T17:33:35Z</time></trkpt><trkpt lat="43.21056558312031" lon="12.146477303659717"><ele>580.4000000000001</ele><time>2026-05-02T17:33:36Z</time></trkpt><trkpt lat="43.21046475796628" lon="12.14646700355634"><ele>579.5999999999999</ele><time>2026-05-02T17:33:37Z</time></trkpt><trkpt lat="43.210366070203364" lon="12.14646009008252"><ele>578.8</ele><time>2026-05-02T17:33:38Z</time></trkpt><trkpt lat="43.21027196688239" lon="12.146448789522053"><ele>578.0</ele><time>2026-05-02T17:33:39Z</time></trkpt><trkpt lat="43.21019089516912" lon="12.146429693160051"><ele>578.0</ele><time>2026-05-02T17:33:40Z</time></trkpt><trkpt lat="43.21011296731369" lon="12.146424539236898"><ele>578.0</ele><time>2026-05-02T17:33:41Z</time></trkpt><trkpt lat="43.21004047588343" lon="12.146427992900996"><ele>578.0</ele><time>2026-05-02T17:33:42Z</time></trkpt><trkpt lat="43.20997359100341" lon="12.146431840298238"><ele>578.0</ele><time>2026-05-02T17:33:43Z</time></trkpt><trkpt lat="43.20990986980493" lon="12.146422359547056"><ele>578.0</ele><time>2026-05-02T17:33:44Z</time></trkpt><trkpt lat="43.209843551520564" lon="12.146410748651425"><ele>578.0</ele><time>2026-05-02T17:33:45Z</time></trkpt><trkpt lat="43.209761590255766" lon="12.146414465096415"><ele>578.0</ele><time>2026-05-02T17:33:46Z</time></trkpt><trkpt lat="43.2096642882585" lon="12.146436266389268"><ele>577.0</ele><time>2026-05-02T17:33:47Z</time></trkpt><trkpt lat="43.20957215888731" lon="12.146452988058055"><ele>576.0</ele><time>2026-05-02T17:33:48Z</time></trkpt><trkpt lat="43.209482375154586" lon="12.146451632092404"><ele>575.0</ele><time>2026-05-02T17:33:49Z</time></trkpt><trkpt lat="43.20940178202991" lon="12.146453730778893"><ele>574.0</ele><time>2026-05-02T17:33:50Z</time></trkpt><trkpt lat="43.20931835468855" lon="12.146479270425688"><ele>573.0</ele><time>2026-05-02T17:33:51Z</time></trkpt><trkpt lat="43.20924378482707" lon="12.146505095477197"><ele>572.0</ele><time>2026-05-02T17:33:52Z</time></trkpt><trkpt lat="43.209169366261975" lon="12.146524133237591"><ele>572.1666666666666</ele><time>2026-05-02T17:33:53Z</time></trkpt><trkpt lat="43.20909539427888" lon="12.146552715638183"><ele>572.3333333333333</ele><time>2026-05-02T17:33:54Z</time></trkpt><trkpt lat="43.20902437226729" lon="12.146573856652976"><ele>572.5</ele><time>2026-05-02T17:33:55Z</time></trkpt><trkpt lat="43.208951115775974" lon="12.146601418314921"><ele>572.6666666666666</ele><time>2026-05-02T17:33:56Z</time></trkpt><trkpt lat="43.20887952439199" lon="12.146625200585413"><ele>572.8333333333334</ele><time>2026-05-02T17:33:57Z</time></trkpt><trkpt lat="43.20880725701914" lon="12.146649426769153"><ele>573.0</ele><time>2026-05-02T17:33:58Z</time></trkpt><trkpt lat="43.2087316493061" lon="12.146673463416416"><ele>571.0</ele><time>2026-05-02T17:33:59Z</time></trkpt><trkpt lat="43.20865632819305" lon="12.14669510342213"><ele>569.0</ele><time>2026-05-02T17:34:00Z</time></trkpt><trkpt lat="43.208579972814796" lon="12.146720176271932"><ele>567.0</ele><time>2026-05-02T17:34:01Z</time></trkpt><trkpt lat="43.208509474107345" lon="12.14675407905748"><ele>565.0</ele><time>2026-05-02T17:34:02Z</time></trkpt><trkpt lat="43.20843469962591" lon="12.146782926676492"><ele>563.0</ele><time>2026-05-02T17:34:03Z</time></trkpt><trkpt lat="43.20835015676257" lon="12.146802896657173"><ele>561.0</ele><time>2026-05-02T17:34:04Z</time></trkpt><trkpt lat="43.20827358373675" lon="12.14681424473585"><ele>561.0</ele><time>2026-05-02T17:34:05Z</time></trkpt><trkpt lat="43.208188874173835" lon="12.146817440382037"><ele>561.0</ele><time>2026-05-02T17:34:06Z</time></trkpt><trkpt lat="43.20810016328465" lon="12.146775288741912"><ele>561.0</ele><time>2026-05-02T17:34:07Z</time></trkpt><trkpt lat="43.208002965840805" lon="12.146764538279031"><ele>561.0</ele><time>2026-05-02T17:34:08Z</time></trkpt><trkpt lat="43.20790611014324" lon="12.146726420699974"><ele>561.0</ele><time>2026-05-02T17:34:09Z</time></trkpt><trkpt lat="43.20781152138737" lon="12.146673313207083"><ele>558.8</ele><time>2026-05-02T17:34:10Z</time></trkpt><trkpt lat="43.20771451075378" lon="12.146616539159956"><ele>556.6</ele><time>2026-05-02T17:34:11Z</time></trkpt><trkpt lat="43.20761337555766" lon="12.146564635539496"><ele>554.4</ele><time>2026-05-02T17:34:12Z</time></trkpt><trkpt lat="43.2075087400804" lon="12.146510465603138"><ele>552.2</ele><time>2026-05-02T17:34:13Z</time></trkpt><trkpt lat="43.20740374997565" lon="12.146458885956907"><ele>550.0</ele><time>2026-05-02T17:34:14Z</time></trkpt><trkpt lat="43.20730151646637" lon="12.146404436008686"><ele>546.6</ele><time>2026-05-02T17:34:15Z</time></trkpt><trkpt lat="43.20720582879827" lon="12.146342078953266"><ele>543.2</ele><time>2026-05-02T17:34:16Z</time></trkpt><trkpt lat="43.20710970641331" lon="12.146290962868857"><ele>539.8</ele><time>2026-05-02T17:34:17Z</time></trkpt><trkpt lat="43.207006564176886" lon="12.146231278861684"><ele>536.4</ele><time>2026-05-02T17:34:18Z</time></trkpt><trkpt lat="43.20690388207643" lon="12.146165718089005"><ele>533.0</ele><time>2026-05-02T17:34:19Z</time></trkpt><trkpt lat="43.20680496435508" lon="12.146095243579689"><ele>533.0</ele><time>2026-05-02T17:34:20Z</time></trkpt><trkpt lat="43.206700774598296" lon="12.146016912280476"><ele>533.0</ele><time>2026-05-02T17:34:21Z</time></trkpt><trkpt lat="43.206604807323146" lon="12.145928588243827"><ele>533.0</ele><time>2026-05-02T17:34:22Z</time></trkpt><trkpt lat="43.206515472713065" lon="12.145843492619154"><ele>533.0</ele><time>2026-05-02T17:34:23Z</time></trkpt><trkpt lat="43.20643587427056" lon="12.145771725962701"><ele>533.0</ele><time>2026-05-02T17:34:24Z</time></trkpt><trkpt lat="43.20636051140849" lon="12.145699136744474"><ele>529.0</ele><time>2026-05-02T17:34:25Z</time></trkpt><trkpt lat="43.2062665919532" lon="12.145665986623266"><ele>525.0</ele><time>2026-05-02T17:34:26Z</time></trkpt><trkpt lat="43.206160392184316" lon="12.14563679598073"><ele>521.0</ele><time>2026-05-02T17:34:27Z</time></trkpt><trkpt lat="43.20605222987543" lon="12.14562245215627"><ele>517.0</ele><time>2026-05-02T17:34:28Z</time></trkpt><trkpt lat="43.2059440492523" lon="12.14560914115912"><ele>513.0</ele><time>2026-05-02T17:34:29Z</time></trkpt><trkpt lat="43.20583951413536" lon="12.145590518660333"><ele>513.0</ele><time>2026-05-02T17:34:30Z</time></trkpt><trkpt lat="43.205739309091165" lon="12.145584688942394"><ele>513.0</ele><time>2026-05-02T17:34:31Z</time></trkpt><trkpt lat="43.20564607953037" lon="12.145579514122689"><ele>513.0</ele><time>2026-05-02T17:34:32Z</time></trkpt><trkpt lat="43.205553198785296" lon="12.145572384797175"><ele>513.0</ele><time>2026-05-02T17:34:33Z</time></trkpt><trkpt lat="43.20546490815552" lon="12.145562648225793"><ele>513.0</ele><time>2026-05-02T17:34:34Z</time></trkpt><trkpt lat="43.20537764880198" lon="12.145555671267926"><ele>512.0</ele><time>2026-05-02T17:34:35Z</time></trkpt><trkpt lat="43.20529344732147" lon="12.145557429362238"><ele>511.0</ele><time>2026-05-02T17:34:36Z</time></trkpt><trkpt lat="43.20521947050941" lon="12.145561195353247"><ele>510.0</ele><time>2026-05-02T17:34:37Z</time></trkpt><trkpt lat="43.205145097896214" lon="12.145568616464054"><ele>509.0</ele><time>2026-05-02T17:34:38Z</time></trkpt><trkpt lat="43.20506514095306" lon="12.145573425857785"><ele>508.0</ele><time>2026-05-02T17:34:39Z</time></trkpt><trkpt lat="43.20498919206521" lon="12.14558260891115"><ele>507.0</ele><time>2026-05-02T17:34:40Z</time></trkpt><trkpt lat="43.204918534986014" lon="12.145595089371735"><ele>507.0</ele><time>2026-05-02T17:34:41Z</time></trkpt><trkpt lat="43.204851477733584" lon="12.145608595359633"><ele>507.0</ele><time>2026-05-02T17:34:42Z</time></trkpt><trkpt lat="43.20478809702939" lon="12.145625554856384"><ele>507.0</ele><time>2026-05-02T17:34:43Z</time></trkpt><trkpt lat="43.204721812558816" lon="12.14564868840144"><ele>507.0</ele><time>2026-05-02T17:34:44Z</time></trkpt><trkpt lat="43.204649833719245" lon="12.145662641296514"><ele>507.0</ele><time>2026-05-02T17:34:45Z</time></trkpt><trkpt lat="43.204572214690465" lon="12.14566786450952"><ele>507.0</ele><time>2026-05-02T17:34:46Z</time></trkpt><trkpt lat="43.20449669212927" lon="12.145652385685553"><ele>507.0</ele><time>2026-05-02T17:34:47Z</time></trkpt><trkpt lat="43.2044339549725" lon="12.145629733819392"><ele>507.0</ele><time>2026-05-02T17:34:48Z</time></trkpt><trkpt lat="43.20430494511663" lon="12.145582549641214"><ele>507.00000000000006</ele><time>2026-05-02T17:34:50Z</time></trkpt><trkpt lat="43.20417916281405" lon="12.145623204397111"><ele>507.00000000000006</ele><time>2026-05-02T17:34:52Z</time></trkpt><trkpt lat="43.204084104118735" lon="12.14570563990578"><ele>507.0</ele><time>2026-05-02T17:34:54Z</time></trkpt><trkpt lat="43.204041800613766" lon="12.14577721384512"><ele>507.0</ele><time>2026-05-02T17:34:55Z</time></trkpt><trkpt lat="43.20398200230362" lon="12.145876618178734"><ele>510.40000000000003</ele><time>2026-05-02T17:34:56Z</time></trkpt><trkpt lat="43.20390401264254" lon="12.145964494085948"><ele>513.8000000000001</ele><time>2026-05-02T17:34:57Z</time></trkpt><trkpt lat="43.20385354601657" lon="12.14608603891762"><ele>517.2</ele><time>2026-05-02T17:34:58Z</time></trkpt><trkpt lat="43.20380038420387" lon="12.146180572552408"><ele>520.6</ele><time>2026-05-02T17:34:59Z</time></trkpt><trkpt lat="43.20375552505452" lon="12.146281221325069"><ele>524.0</ele><time>2026-05-02T17:35:00Z</time></trkpt><trkpt lat="43.2037198861559" lon="12.146394806384805"><ele>524.0</ele><time>2026-05-02T17:35:01Z</time></trkpt><trkpt lat="43.203682041238906" lon="12.146530712858231"><ele>524.0</ele><time>2026-05-02T17:35:02Z</time></trkpt><trkpt lat="43.20364148468028" lon="12.14666220888762"><ele>524.0</ele><time>2026-05-02T17:35:03Z</time></trkpt><trkpt lat="43.20360314106746" lon="12.146762706620226"><ele>524.0</ele><time>2026-05-02T17:35:04Z</time></trkpt><trkpt lat="43.20357636742224" lon="12.146857481863073"><ele>524.0</ele><time>2026-05-02T17:35:05Z</time></trkpt><trkpt lat="43.20353055812778" lon="12.146956500996929"><ele>524.0</ele><time>2026-05-02T17:35:06Z</time></trkpt><trkpt lat="43.203471721879716" lon="12.147036972196304"><ele>524.0</ele><time>2026-05-02T17:35:07Z</time></trkpt><trkpt lat="43.203397994998014" lon="12.14708676428989"><ele>524.0</ele><time>2026-05-02T17:35:08Z</time></trkpt><trkpt lat="43.203314048426286" lon="12.14711649826549"><ele>524.0</ele><time>2026-05-02T17:35:09Z</time></trkpt><trkpt lat="43.203199614248526" lon="12.147167013213505"><ele>524.0</ele><time>2026-05-02T17:35:10Z</time></trkpt><trkpt lat="43.203087354687526" lon="12.147220414454148"><ele>524.0</ele><time>2026-05-02T17:35:11Z</time></trkpt><trkpt lat="43.20299681096677" lon="12.147272307424851"><ele>524.0</ele><time>2026-05-02T17:35:12Z</time></trkpt><trkpt lat="43.202925730452925" lon="12.14732210969533"><ele>524.0</ele><time>2026-05-02T17:35:13Z</time></trkpt><trkpt lat="43.202861866990716" lon="12.147399778283214"><ele>524.0</ele><time>2026-05-02T17:35:14Z</time></trkpt><trkpt lat="43.20279774562059" lon="12.147492554901788"><ele>524.0</ele><time>2026-05-02T17:35:15Z</time></trkpt><trkpt lat="43.202733622233126" lon="12.14759922674995"><ele>524.75</ele><time>2026-05-02T17:35:16Z</time></trkpt><trkpt lat="43.20266809196898" lon="12.147720378949165"><ele>525.5</ele><time>2026-05-02T17:35:17Z</time></trkpt><trkpt lat="43.20259355873542" lon="12.14785476306533"><ele>526.25</ele><time>2026-05-02T17:35:18Z</time></trkpt><trkpt lat="43.20250939046032" lon="12.14798465661531"><ele>527.0</ele><time>2026-05-02T17:35:19Z</time></trkpt><trkpt lat="43.20242019172179" lon="12.148135484281168"><ele>527.75</ele><time>2026-05-02T17:35:20Z</time></trkpt><trkpt lat="43.20233238059752" lon="12.148274052645315"><ele>528.5</ele><time>2026-05-02T17:35:21Z</time></trkpt><trkpt lat="43.202241723431456" lon="12.148415278783059"><ele>529.25</ele><time>2026-05-02T17:35:22Z</time></trkpt><trkpt lat="43.20214177353104" lon="12.148569691608463"><ele>530.0</ele><time>2026-05-02T17:35:23Z</time></trkpt><trkpt lat="43.20203640634425" lon="12.148728227356576"><ele>530.0</ele><time>2026-05-02T17:35:24Z</time></trkpt><trkpt lat="43.20193520754716" lon="12.14887281951867"><ele>530.0</ele><time>2026-05-02T17:35:25Z</time></trkpt><trkpt lat="43.20184897010559" lon="12.148977774526584"><ele>530.0</ele><time>2026-05-02T17:35:26Z</time></trkpt><trkpt lat="43.2017796738254" lon="12.149065974449643"><ele>530.0</ele><time>2026-05-02T17:35:27Z</time></trkpt><trkpt lat="43.201728943510105" lon="12.149134202135656"><ele>530.0</ele><time>2026-05-02T17:35:28Z</time></trkpt><trkpt lat="43.20169631046185" lon="12.149211335284546"><ele>532.0</ele><time>2026-05-02T17:35:29Z</time></trkpt><trkpt lat="43.20167239167511" lon="12.149307403094822"><ele>534.0</ele><time>2026-05-02T17:35:30Z</time></trkpt><trkpt lat="43.20164465459332" lon="12.149409541301877"><ele>536.0</ele><time>2026-05-02T17:35:31Z</time></trkpt><trkpt lat="43.20161388347165" lon="12.149537777458264"><ele>538.0</ele><time>2026-05-02T17:35:32Z</time></trkpt><trkpt lat="43.201583064420085" lon="12.149662390329059"><ele>540.0</ele><time>2026-05-02T17:35:33Z</time></trkpt><trkpt lat="43.20155938798155" lon="12.149789877803967"><ele>542.0</ele><time>2026-05-02T17:35:34Z</time></trkpt><trkpt lat="43.20154161508513" lon="12.149928255314421"><ele>542.6</ele><time>2026-05-02T17:35:35Z</time></trkpt><trkpt lat="43.20152604874573" lon="12.150072573281955"><ele>543.2</ele><time>2026-05-02T17:35:36Z</time></trkpt><trkpt lat="43.20151022085628" lon="12.15022149858109"><ele>543.8</ele><time>2026-05-02T17:35:37Z</time></trkpt><trkpt lat="43.20149225870791" lon="12.150362865731855"><ele>544.4</ele><time>2026-05-02T17:35:38Z</time></trkpt><trkpt lat="43.20147653790193" lon="12.150504034547605"><ele>545.0</ele><time>2026-05-02T17:35:39Z</time></trkpt><trkpt lat="43.20146039841953" lon="12.150625779535627"><ele>542.6</ele><time>2026-05-02T17:35:40Z</time></trkpt><trkpt lat="43.201439506840856" lon="12.150731506649716"><ele>540.2</ele><time>2026-05-02T17:35:41Z</time></trkpt><trkpt lat="43.20141199464972" lon="12.15083206945413"><ele>537.8</ele><time>2026-05-02T17:35:42Z</time></trkpt><trkpt lat="43.201352891417294" lon="12.15094510140328"><ele>535.4</ele><time>2026-05-02T17:35:44Z</time></trkpt><trkpt lat="43.20128424562576" lon="12.151059134219803"><ele>533.0</ele><time>2026-05-02T17:35:56Z</time></trkpt><trkpt lat="43.20131294744516" lon="12.151186376432191"><ele>533.0</ele><time>2026-05-02T17:35:57Z</time></trkpt><trkpt lat="43.201231935233864" lon="12.151385321821438"><ele>533.0</ele><time>2026-05-02T17:35:59Z</time></trkpt><trkpt lat="43.201178065182575" lon="12.151525617619269"><ele>533.0</ele><time>2026-05-02T17:36:00Z</time></trkpt><trkpt lat="43.20112116160258" lon="12.151654012667855"><ele>533.0</ele><time>2026-05-02T17:36:01Z</time></trkpt><trkpt lat="43.20107408867522" lon="12.151750444228657"><ele>535.5</ele><time>2026-05-02T17:36:02Z</time></trkpt><trkpt lat="43.20102367003954" lon="12.151826715635002"><ele>538.0</ele><time>2026-05-02T17:36:03Z</time></trkpt><trkpt lat="43.20097157613538" lon="12.151904535444134"><ele>540.5</ele><time>2026-05-02T17:36:04Z</time></trkpt><trkpt lat="43.20093350935076" lon="12.15199727890175"><ele>543.0</ele><time>2026-05-02T17:36:05Z</time></trkpt><trkpt lat="43.20088989599301" lon="12.15210654566155"><ele>545.5</ele><time>2026-05-02T17:36:06Z</time></trkpt><trkpt lat="43.20085477859713" lon="12.152189734831374"><ele>548.0</ele><time>2026-05-02T17:36:07Z</time></trkpt><trkpt lat="43.20081854284285" lon="12.152371802206456"><ele>550.1666666666666</ele><time>2026-05-02T17:36:09Z</time></trkpt><trkpt lat="43.20080848948438" lon="12.152459057179437"><ele>552.3333333333333</ele><time>2026-05-02T17:36:10Z</time></trkpt><trkpt lat="43.20081904496498" lon="12.152559109299908"><ele>554.5</ele><time>2026-05-02T17:36:11Z</time></trkpt><trkpt lat="43.2008359584925" lon="12.152666282833614"><ele>556.6666666666666</ele><time>2026-05-02T17:36:12Z</time></trkpt><trkpt lat="43.20087104518037" lon="12.152777439291206"><ele>558.8333333333334</ele><time>2026-05-02T17:36:13Z</time></trkpt><trkpt lat="43.200902512716915" lon="12.152892385797204"><ele>561.0</ele><time>2026-05-02T17:36:14Z</time></trkpt><trkpt lat="43.2009403018464" lon="12.15300843719561"><ele>561.0</ele><time>2026-05-02T17:36:15Z</time></trkpt><trkpt lat="43.20099126640025" lon="12.153149517448647"><ele>561.0</ele><time>2026-05-02T17:36:16Z</time></trkpt><trkpt lat="43.20102607983253" lon="12.153284205643967"><ele>561.0</ele><time>2026-05-02T17:36:17Z</time></trkpt><trkpt lat="43.20105164031865" lon="12.153438416220189"><ele>561.0</ele><time>2026-05-02T17:36:18Z</time></trkpt><trkpt lat="43.201039149333596" lon="12.153584226035179"><ele>561.0</ele><time>2026-05-02T17:36:19Z</time></trkpt><trkpt lat="43.201055171987775" lon="12.153720847719162"><ele>562.2</ele><time>2026-05-02T17:36:20Z</time></trkpt><trkpt lat="43.20104794111297" lon="12.153834007570566"><ele>563.4000000000001</ele><time>2026-05-02T17:36:21Z</time></trkpt><trkpt lat="43.201051712852106" lon="12.153923426665434"><ele>564.6</ele><time>2026-05-02T17:36:22Z</time></trkpt><trkpt lat="43.201055847351704" lon="12.154048085539845"><ele>565.8000000000001</ele><time>2026-05-02T17:36:25Z</time></trkpt><trkpt lat="43.201058875393514" lon="12.154244060737028"><ele>567.0</ele><time>2026-05-02T17:36:27Z</time></trkpt><trkpt lat="43.20107499023047" lon="12.154363701685885"><ele>567.0</ele><time>2026-05-02T17:36:28Z</time></trkpt><trkpt lat="43.20110150979543" lon="12.154458952891984"><ele>567.0</ele><time>2026-05-02T17:36:29Z</time></trkpt><trkpt lat="43.20112598348485" lon="12.154557001700404"><ele>567.0</ele><time>2026-05-02T17:36:30Z</time></trkpt><trkpt lat="43.20119261067692" lon="12.154693550082598"><ele>567.0</ele><time>2026-05-02T17:36:32Z</time></trkpt><trkpt lat="43.20126164559689" lon="12.154763315087346"><ele>567.0</ele><time>2026-05-02T17:36:33Z</time></trkpt><trkpt lat="43.20133473925074" lon="12.15483557614726"><ele>567.0</ele><time>2026-05-02T17:36:34Z</time></trkpt><trkpt lat="43.20140206885089" lon="12.154918025362392"><ele>566.3333333333334</ele><time>2026-05-02T17:36:35Z</time></trkpt><trkpt lat="43.201481147620356" lon="12.154967612447043"><ele>565.6666666666666</ele><time>2026-05-02T17:36:36Z</time></trkpt><trkpt lat="43.20153783577451" lon="12.155039622309248"><ele>565.0</ele><time>2026-05-02T17:36:37Z</time></trkpt><trkpt lat="43.20157575804214" lon="12.155124862679578"><ele>564.3333333333333</ele><time>2026-05-02T17:36:38Z</time></trkpt><trkpt lat="43.20161667674367" lon="12.155202980051738"><ele>563.6666666666666</ele><time>2026-05-02T17:36:39Z</time></trkpt><trkpt lat="43.20165982539346" lon="12.155275320526817"><ele>563.0</ele><time>2026-05-02T17:36:40Z</time></trkpt><trkpt lat="43.201702810470096" lon="12.155387994415733"><ele>563.0</ele><time>2026-05-02T17:36:41Z</time></trkpt><trkpt lat="43.20174844512677" lon="12.155503913253865"><ele>563.0</ele><time>2026-05-02T17:36:42Z</time></trkpt><trkpt lat="43.201790735152926" lon="12.155604070868762"><ele>563.0</ele><time>2026-05-02T17:36:43Z</time></trkpt><trkpt lat="43.2018279542722" lon="12.155691969636438"><ele>563.0</ele><time>2026-05-02T17:36:44Z</time></trkpt><trkpt lat="43.20186317785025" lon="12.15577214131635"><ele>563.0</ele><time>2026-05-02T17:36:45Z</time></trkpt><trkpt lat="43.201914905441726" lon="12.15592389953753"><ele>563.0</ele><time>2026-05-02T17:36:47Z</time></trkpt><trkpt lat="43.20202799702326" lon="12.1560231774091"><ele>563.0</ele><time>2026-05-02T17:36:49Z</time></trkpt><trkpt lat="43.202093963453066" lon="12.15605678878857"><ele>563.0</ele><time>2026-05-02T17:36:50Z</time></trkpt><trkpt lat="43.202151573315426" lon="12.156094606190619"><ele>563.0</ele><time>2026-05-02T17:36:51Z</time></trkpt><trkpt lat="43.20225576985944" lon="12.15618717303078"><ele>563.0</ele><time>2026-05-02T17:36:53Z</time></trkpt><trkpt lat="43.20231345743456" lon="12.156227791572398"><ele>563.0</ele><time>2026-05-02T17:36:54Z</time></trkpt><trkpt lat="43.20237104582773" lon="12.156268340230985"><ele>563.0</ele><time>2026-05-02T17:36:55Z</time></trkpt><trkpt lat="43.202428952100966" lon="12.156309263785655"><ele>562.1666666666666</ele><time>2026-05-02T17:36:56Z</time></trkpt><trkpt lat="43.20248535886533" lon="12.156349311863123"><ele>561.3333333333333</ele><time>2026-05-02T17:36:57Z</time></trkpt><trkpt lat="43.20254153496394" lon="12.15638918889358"><ele>560.5</ele><time>2026-05-02T17:36:58Z</time></trkpt><trkpt lat="43.20262064900241" lon="12.156454725618664"><ele>559.6666666666666</ele><time>2026-05-02T17:37:00Z</time></trkpt><trkpt lat="43.20268151187551" lon="12.15652730103958"><ele>558.8333333333334</ele><time>2026-05-02T17:37:02Z</time></trkpt><trkpt lat="43.2027058073105" lon="12.15662529686732"><ele>558.0</ele><time>2026-05-02T17:37:04Z</time></trkpt><trkpt lat="43.20264009418478" lon="12.156742663818871"><ele>556.6</ele><time>2026-05-02T17:37:06Z</time></trkpt><trkpt lat="43.20255840552697" lon="12.15682815220676"><ele>555.1999999999999</ele><time>2026-05-02T17:37:08Z</time></trkpt><trkpt lat="43.202450080689744" lon="12.156900168689008"><ele>553.8</ele><time>2026-05-02T17:37:10Z</time></trkpt><trkpt lat="43.20234894582742" lon="12.156973365918375"><ele>552.4</ele><time>2026-05-02T17:37:12Z</time></trkpt><trkpt lat="43.20227753897499" lon="12.157081676524546"><ele>551.0</ele><time>2026-05-02T17:37:14Z</time></trkpt><trkpt lat="43.20224172446651" lon="12.157204086103327"><ele>551.0</ele><time>2026-05-02T17:37:16Z</time></trkpt><trkpt lat="43.202274431509224" lon="12.157337456854455"><ele>551.0</ele><time>2026-05-02T17:37:18Z</time></trkpt><trkpt lat="43.202337989440586" lon="12.157490031440487"><ele>551.0</ele><time>2026-05-02T17:37:20Z</time></trkpt><trkpt lat="43.20236889115265" lon="12.157580039704149"><ele>551.0</ele><time>2026-05-02T17:37:21Z</time></trkpt><trkpt lat="43.20240410720441" lon="12.157675384108295"><ele>551.0</ele><time>2026-05-02T17:37:22Z</time></trkpt><trkpt lat="43.20243545876755" lon="12.157766995029373"><ele>549.3333333333333</ele><time>2026-05-02T17:37:23Z</time></trkpt><trkpt lat="43.20246554894128" lon="12.15785277827329"><ele>547.6666666666666</ele><time>2026-05-02T17:37:24Z</time></trkpt><trkpt lat="43.20248741134004" lon="12.157935635646815"><ele>546.0</ele><time>2026-05-02T17:37:25Z</time></trkpt><trkpt lat="43.20251256388222" lon="12.158018677750803"><ele>544.3333333333334</ele><time>2026-05-02T17:37:26Z</time></trkpt><trkpt lat="43.202566844211795" lon="12.158164433705396"><ele>542.6666666666667</ele><time>2026-05-02T17:37:28Z</time></trkpt><trkpt lat="43.20260034801167" lon="12.15825123438699"><ele>541.0</ele><time>2026-05-02T17:37:29Z</time></trkpt><trkpt lat="43.20263315067269" lon="12.158330097198137"><ele>540.1666666666667</ele><time>2026-05-02T17:37:30Z</time></trkpt><trkpt lat="43.20266817626685" lon="12.15840599881293"><ele>539.3333333333334</ele><time>2026-05-02T17:37:31Z</time></trkpt><trkpt lat="43.202734870257025" lon="12.158548052282223"><ele>538.5</ele><time>2026-05-02T17:37:33Z</time></trkpt><trkpt lat="43.202763522757905" lon="12.158628919509091"><ele>537.6666666666666</ele><time>2026-05-02T17:37:34Z</time></trkpt><trkpt lat="43.20278701693742" lon="12.158718019251198"><ele>536.8333333333333</ele><time>2026-05-02T17:37:35Z</time></trkpt><trkpt lat="43.20280698066157" lon="12.158815381742187"><ele>536.0</ele><time>2026-05-02T17:37:36Z</time></trkpt><trkpt lat="43.202814420929315" lon="12.158907736279938"><ele>536.0</ele><time>2026-05-02T17:37:37Z</time></trkpt><trkpt lat="43.20281449571212" lon="12.158999183145536"><ele>536.0</ele><time>2026-05-02T17:37:38Z</time></trkpt><trkpt lat="43.20280386943788" lon="12.159158493891692"><ele>536.0</ele><time>2026-05-02T17:37:40Z</time></trkpt><trkpt lat="43.20278598380488" lon="12.159249926689087"><ele>536.0</ele><time>2026-05-02T17:37:42Z</time></trkpt><trkpt lat="43.2027727582719" lon="12.159338094845664"><ele>536.0</ele><time>2026-05-02T17:37:46Z</time></trkpt><trkpt lat="43.202861682690546" lon="12.159444349891851"><ele>536.0</ele><time>2026-05-02T17:37:47Z</time></trkpt><trkpt lat="43.20285518943551" lon="12.159545256011123"><ele>534.8333333333333</ele><time>2026-05-02T17:37:48Z</time></trkpt><trkpt lat="43.20286648559298" lon="12.159651720805531"><ele>533.6666666666666</ele><time>2026-05-02T17:37:49Z</time></trkpt><trkpt lat="43.2028822465921" lon="12.159772251975454"><ele>532.5</ele><time>2026-05-02T17:37:50Z</time></trkpt><trkpt lat="43.20290562600479" lon="12.159874979262982"><ele>531.3333333333334</ele><time>2026-05-02T17:37:51Z</time></trkpt><trkpt lat="43.20293221291047" lon="12.160001501279421"><ele>530.1666666666667</ele><time>2026-05-02T17:37:52Z</time></trkpt><trkpt lat="43.20295390312264" lon="12.16011014616047"><ele>529.0</ele><time>2026-05-02T17:37:53Z</time></trkpt><trkpt lat="43.20297675400369" lon="12.160217610553689"><ele>528.8333333333334</ele><time>2026-05-02T17:37:54Z</time></trkpt><trkpt lat="43.2030028333925" lon="12.160326534917422"><ele>528.6666666666667</ele><time>2026-05-02T17:37:55Z</time></trkpt><trkpt lat="43.20301606025475" lon="12.160435111260176"><ele>528.5</ele><time>2026-05-02T17:37:56Z</time></trkpt><trkpt lat="43.20301787844904" lon="12.160543143002887"><ele>528.3333333333334</ele><time>2026-05-02T17:37:57Z</time></trkpt><trkpt lat="43.203007220008466" lon="12.160644259138342"><ele>528.1666666666666</ele><time>2026-05-02T17:37:58Z</time></trkpt><trkpt lat="43.203029665630766" lon="12.16073717491557"><ele>528.0</ele><time>2026-05-02T17:37:59Z</time></trkpt><trkpt lat="43.20308994050816" lon="12.160810511772766"><ele>528.8</ele><time>2026-05-02T17:38:00Z</time></trkpt><trkpt lat="43.20319823766826" lon="12.160825497677536"><ele>529.5999999999999</ele><time>2026-05-02T17:38:02Z</time></trkpt><trkpt lat="43.20333520059313" lon="12.160870427093258"><ele>530.4000000000001</ele><time>2026-05-02T17:38:04Z</time></trkpt><trkpt lat="43.20342961873731" lon="12.160897968972415"><ele>531.2</ele><time>2026-05-02T17:38:05Z</time></trkpt><trkpt lat="43.203510917835075" lon="12.160916374501783"><ele>532.0</ele><time>2026-05-02T17:38:06Z</time></trkpt><trkpt lat="43.20358466625809" lon="12.160932128403624"><ele>532.0</ele><time>2026-05-02T17:38:07Z</time></trkpt><trkpt lat="43.20366378878622" lon="12.160946652634742"><ele>532.0</ele><time>2026-05-02T17:38:08Z</time></trkpt><trkpt lat="43.203736965144536" lon="12.16099621992018"><ele>532.0</ele><time>2026-05-02T17:38:09Z</time></trkpt><trkpt lat="43.203817567172166" lon="12.161037518401569"><ele>532.0</ele><time>2026-05-02T17:38:10Z</time></trkpt><trkpt lat="43.20387890689665" lon="12.16110530882118"><ele>532.0</ele><time>2026-05-02T17:38:11Z</time></trkpt><trkpt lat="43.20395097728624" lon="12.161207614962992"><ele>532.0</ele><time>2026-05-02T17:38:12Z</time></trkpt><trkpt lat="43.20403673134653" lon="12.161275375934595"><ele>532.5</ele><time>2026-05-02T17:38:13Z</time></trkpt><trkpt lat="43.204098200050375" lon="12.161336957759943"><ele>533.0</ele><time>2026-05-02T17:38:14Z</time></trkpt><trkpt lat="43.20415978768583" lon="12.161383778799799"><ele>533.5</ele><time>2026-05-02T17:38:15Z</time></trkpt><trkpt lat="43.20422863016707" lon="12.161467726825942"><ele>534.0</ele><time>2026-05-02T17:38:16Z</time></trkpt><trkpt lat="43.204318887458825" lon="12.161547381189912"><ele>534.5</ele><time>2026-05-02T17:38:17Z</time></trkpt><trkpt lat="43.204408769777196" lon="12.161603125062216"><ele>535.0</ele><time>2026-05-02T17:38:18Z</time></trkpt><trkpt lat="43.20448489431262" lon="12.161693886382247"><ele>535.0</ele><time>2026-05-02T17:38:19Z</time></trkpt><trkpt lat="43.204569388738754" lon="12.161769600576582"><ele>535.0</ele><time>2026-05-02T17:38:20Z</time></trkpt><trkpt lat="43.204661448673704" lon="12.161852644380996"><ele>535.0</ele><time>2026-05-02T17:38:21Z</time></trkpt><trkpt lat="43.204745239241966" lon="12.161928863947743"><ele>535.0</ele><time>2026-05-02T17:38:22Z</time></trkpt><trkpt lat="43.204818479241936" lon="12.161995941786763"><ele>535.0</ele><time>2026-05-02T17:38:23Z</time></trkpt><trkpt lat="43.20488788236568" lon="12.16205950529416"><ele>535.0</ele><time>2026-05-02T17:38:24Z</time></trkpt><trkpt lat="43.20496249996792" lon="12.16212784481205"><ele>535.0</ele><time>2026-05-02T17:38:25Z</time></trkpt><trkpt lat="43.20505315970392" lon="12.162210876662838"><ele>535.0</ele><time>2026-05-02T17:38:26Z</time></trkpt><trkpt lat="43.20514168645957" lon="12.162291954960734"><ele>535.0</ele><time>2026-05-02T17:38:27Z</time></trkpt><trkpt lat="43.20522691234873" lon="12.16236799073805"><ele>535.0</ele><time>2026-05-02T17:38:28Z</time></trkpt><trkpt lat="43.20530144846057" lon="12.162427727661862"><ele>535.0</ele><time>2026-05-02T17:38:29Z</time></trkpt><trkpt lat="43.20536400826937" lon="12.162474343789535"><ele>535.0</ele><time>2026-05-02T17:38:30Z</time></trkpt><trkpt lat="43.20546200048102" lon="12.162543998512188"><ele>535.0</ele><time>2026-05-02T17:38:32Z</time></trkpt><trkpt lat="43.20555466635277" lon="12.16252814703405"><ele>535.0</ele><time>2026-05-02T17:38:34Z</time></trkpt><trkpt lat="43.205664123143265" lon="12.162535045946312"><ele>535.0</ele><time>2026-05-02T17:38:36Z</time></trkpt><trkpt lat="43.205745133375856" lon="12.16263158556116"><ele>533.1666666666667</ele><time>2026-05-02T17:38:38Z</time></trkpt><trkpt lat="43.20583007807" lon="12.162718368219588"><ele>531.3333333333334</ele><time>2026-05-02T17:38:40Z</time></trkpt><trkpt lat="43.20594281713169" lon="12.16276684864856"><ele>529.5</ele><time>2026-05-02T17:38:42Z</time></trkpt><trkpt lat="43.206006382854014" lon="12.162775887381924"><ele>527.6666666666666</ele><time>2026-05-02T17:38:43Z</time></trkpt><trkpt lat="43.206075242175736" lon="12.16276932723238"><ele>525.8333333333333</ele><time>2026-05-02T17:38:44Z</time></trkpt><trkpt lat="43.20613800503927" lon="12.16279358466895"><ele>524.0</ele><time>2026-05-02T17:38:45Z</time></trkpt><trkpt lat="43.20621459399258" lon="12.162837384787474"><ele>524.0</ele><time>2026-05-02T17:38:46Z</time></trkpt><trkpt lat="43.20628418892692" lon="12.162875156093246"><ele>524.0</ele><time>2026-05-02T17:38:47Z</time></trkpt><trkpt lat="43.206374008395585" lon="12.162917759795151"><ele>524.0</ele><time>2026-05-02T17:38:49Z</time></trkpt><trkpt lat="43.206476801918505" lon="12.16302642846337"><ele>524.0</ele><time>2026-05-02T17:38:51Z</time></trkpt><trkpt lat="43.20653308567819" lon="12.163094853107301"><ele>524.0</ele><time>2026-05-02T17:38:52Z</time></trkpt><trkpt lat="43.20664178884227" lon="12.163149783990905"><ele>523.3333333333333</ele><time>2026-05-02T17:38:54Z</time></trkpt><trkpt lat="43.20671287524522" lon="12.16316008163366"><ele>522.6666666666666</ele><time>2026-05-02T17:38:55Z</time></trkpt><trkpt lat="43.206800483966575" lon="12.163196809991554"><ele>522.0</ele><time>2026-05-02T17:38:56Z</time></trkpt><trkpt lat="43.20687190438944" lon="12.163208190486303"><ele>521.3333333333334</ele><time>2026-05-02T17:38:57Z</time></trkpt><trkpt lat="43.20693730668827" lon="12.163204645200418"><ele>520.6666666666667</ele><time>2026-05-02T17:38:59Z</time></trkpt><trkpt lat="43.20701854896019" lon="12.163186170831604"><ele>520.0</ele><time>2026-05-02T17:39:01Z</time></trkpt><trkpt lat="43.20712216857094" lon="12.163152118465277"><ele>518.6</ele><time>2026-05-02T17:39:03Z</time></trkpt><trkpt lat="43.207237843383304" lon="12.163121800961294"><ele>517.2</ele><time>2026-05-02T17:39:05Z</time></trkpt><trkpt lat="43.207301860254006" lon="12.16311142006462"><ele>515.8</ele><time>2026-05-02T17:39:06Z</time></trkpt><trkpt lat="43.207408973833985" lon="12.163082389739946"><ele>514.4</ele><time>2026-05-02T17:39:08Z</time></trkpt><trkpt lat="43.20751372654856" lon="12.163044190456265"><ele>513.0</ele><time>2026-05-02T17:39:10Z</time></trkpt><trkpt lat="43.20762247773" lon="12.162984149518142"><ele>511.59999999999997</ele><time>2026-05-02T17:39:12Z</time></trkpt><trkpt lat="43.20772516728019" lon="12.16291527859732"><ele>510.19999999999993</ele><time>2026-05-02T17:39:14Z</time></trkpt><trkpt lat="43.20782926105566" lon="12.162864072355195"><ele>508.8</ele><time>2026-05-02T17:39:16Z</time></trkpt><trkpt lat="43.20792052133034" lon="12.162818672672655"><ele>507.4</ele><time>2026-05-02T17:39:18Z</time></trkpt><trkpt lat="43.20800404913816" lon="12.162821862959257"><ele>506.0</ele><time>2026-05-02T17:39:20Z</time></trkpt><trkpt lat="43.208066971639575" lon="12.162864428660559"><ele>505.99999999999994</ele><time>2026-05-02T17:39:22Z</time></trkpt><trkpt lat="43.20813023064619" lon="12.162855445614412"><ele>506.0</ele><time>2026-05-02T17:39:24Z</time></trkpt><trkpt lat="43.20821599612427" lon="12.162825205738763"><ele>506.0</ele><time>2026-05-02T17:39:26Z</time></trkpt><trkpt lat="43.208278415353675" lon="12.162856074238082"><ele>506.0</ele><time>2026-05-02T17:39:28Z</time></trkpt><trkpt lat="43.20835341645278" lon="12.162933369022138"><ele>505.99999999999994</ele><time>2026-05-02T17:39:30Z</time></trkpt><trkpt lat="43.20843326960579" lon="12.163008700839034"><ele>506.0</ele><time>2026-05-02T17:39:32Z</time></trkpt><trkpt lat="43.20850208827744" lon="12.163086580325714"><ele>504.8</ele><time>2026-05-02T17:39:34Z</time></trkpt><trkpt lat="43.20857394531549" lon="12.163164187958586"><ele>503.6</ele><time>2026-05-02T17:39:36Z</time></trkpt><trkpt lat="43.20865327855564" lon="12.163256444549997"><ele>502.4</ele><time>2026-05-02T17:39:40Z</time></trkpt><trkpt lat="43.208731589653766" lon="12.163326649561162"><ele>501.2</ele><time>2026-05-02T17:39:42Z</time></trkpt><trkpt lat="43.208794202999776" lon="12.163404838841602"><ele>500.0</ele><time>2026-05-02T17:39:44Z</time></trkpt><trkpt lat="43.20886526118634" lon="12.163462856624607"><ele>499.99999999999994</ele><time>2026-05-02T17:39:46Z</time></trkpt><trkpt lat="43.208916882058716" lon="12.163552944860648"><ele>500.0</ele><time>2026-05-02T17:39:48Z</time></trkpt><trkpt lat="43.208972104507794" lon="12.163656161662038"><ele>500.0</ele><time>2026-05-02T17:39:50Z</time></trkpt><trkpt lat="43.20904229047404" lon="12.163681534908285"><ele>500.0</ele><time>2026-05-02T17:39:52Z</time></trkpt><trkpt lat="43.20912298656935" lon="12.163721083862681"><ele>499.99999999999994</ele><time>2026-05-02T17:39:55Z</time></trkpt><trkpt lat="43.20918859078148" lon="12.163765285901057"><ele>500.0</ele><time>2026-05-02T17:39:58Z</time></trkpt><trkpt lat="43.20923667620229" lon="12.163822318110414"><ele>496.66666666666663</ele><time>2026-05-02T17:40:01Z</time></trkpt><trkpt lat="43.20926844973872" lon="12.16391575101264"><ele>493.3333333333333</ele><time>2026-05-02T17:40:03Z</time></trkpt><trkpt lat="43.20930617364292" lon="12.164002127076591"><ele>490.0</ele><time>2026-05-02T17:40:05Z</time></trkpt><trkpt lat="43.20934472010173" lon="12.164080845038184"><ele>486.66666666666663</ele><time>2026-05-02T17:40:07Z</time></trkpt><trkpt lat="43.20936506366903" lon="12.164178670319497"><ele>483.3333333333333</ele><time>2026-05-02T17:40:09Z</time></trkpt><trkpt lat="43.20938172758037" lon="12.164274782731395"><ele>480.0</ele><time>2026-05-02T17:40:11Z</time></trkpt><trkpt lat="43.20940139374525" lon="12.164392216805354"><ele>480.0</ele><time>2026-05-02T17:40:13Z</time></trkpt><trkpt lat="43.209425741871286" lon="12.164481346299617"><ele>480.0</ele><time>2026-05-02T17:40:20Z</time></trkpt><trkpt lat="43.209413807141075" lon="12.164566832087194"><ele>480.0</ele><time>2026-05-02T17:40:22Z</time></trkpt><trkpt lat="43.20937856104607" lon="12.164642545005675"><ele>480.0</ele><time>2026-05-02T17:40:23Z</time></trkpt><trkpt lat="43.209349951965834" lon="12.164728144045334"><ele>480.0</ele><time>2026-05-02T17:40:24Z</time></trkpt><trkpt lat="43.20931991670903" lon="12.164871597614086"><ele>480.0</ele><time>2026-05-02T17:40:26Z</time></trkpt><trkpt lat="43.2093324048133" lon="12.164991570597724"><ele>478.1666666666667</ele><time>2026-05-02T17:40:29Z</time></trkpt><trkpt lat="43.209319152000006" lon="12.165090347206872"><ele>476.33333333333337</ele><time>2026-05-02T17:40:33Z</time></trkpt><trkpt lat="43.209307011628134" lon="12.165176239685424"><ele>474.5</ele><time>2026-05-02T17:40:37Z</time></trkpt><trkpt lat="43.209274572786164" lon="12.165261324949237"><ele>472.6666666666667</ele><time>2026-05-02T17:40:39Z</time></trkpt><trkpt lat="43.20937969054391" lon="12.165289575695196"><ele>470.83333333333337</ele><time>2026-05-02T17:40:42Z</time></trkpt><trkpt lat="43.209453235241384" lon="12.16531544588704"><ele>469.0</ele><time>2026-05-02T17:40:44Z</time></trkpt><trkpt lat="43.2095149560063" lon="12.165378881320956"><ele>469.00000000000006</ele><time>2026-05-02T17:40:46Z</time></trkpt><trkpt lat="43.20957727500446" lon="12.165432123521878"><ele>469.0</ele><time>2026-05-02T17:40:49Z</time></trkpt><trkpt lat="43.209625794025094" lon="12.16555565532913"><ele>469.0</ele><time>2026-05-02T17:40:54Z</time></trkpt><trkpt lat="43.209654897955936" lon="12.16564206006873"><ele>469.0</ele><time>2026-05-02T17:40:55Z</time></trkpt><trkpt lat="43.209695876575445" lon="12.165743370089492"><ele>469.00000000000006</ele><time>2026-05-02T17:40:57Z</time></trkpt><trkpt lat="43.20974360593599" lon="12.165808907438764"><ele>469.0</ele><time>2026-05-02T17:40:59Z</time></trkpt><trkpt lat="43.20982329632848" lon="12.16586038458967"><ele>462.4</ele><time>2026-05-02T17:41:02Z</time></trkpt><trkpt lat="43.20992338439237" lon="12.165902208058199"><ele>455.79999999999995</ele><time>2026-05-02T17:41:04Z</time></trkpt><trkpt lat="43.21001314804322" lon="12.165991974078556"><ele>449.20000000000005</ele><time>2026-05-02T17:41:06Z</time></trkpt><trkpt lat="43.210105303758425" lon="12.16606877983918"><ele>442.6</ele><time>2026-05-02T17:41:08Z</time></trkpt><trkpt lat="43.210156052671074" lon="12.166169276371319"><ele>436.0</ele><time>2026-05-02T17:41:11Z</time></trkpt><trkpt lat="43.21014699560581" lon="12.166259770627812"><ele>436.00000000000006</ele><time>2026-05-02T17:41:14Z</time></trkpt><trkpt lat="43.21015320786574" lon="12.16636235380478"><ele>436.0</ele><time>2026-05-02T17:41:17Z</time></trkpt><trkpt lat="43.21012172562338" lon="12.166446337621649"><ele>436.0</ele><time>2026-05-02T17:41:21Z</time></trkpt><trkpt lat="43.2101467797121" lon="12.166530065927649"><ele>436.0</ele><time>2026-05-02T17:42:16Z</time></trkpt><trkpt lat="43.21022966351121" lon="12.166508698728668"><ele>436.00000000000006</ele><time>2026-05-02T17:43:37Z</time></trkpt><trkpt lat="43.21031371290892" lon="12.166502835162728"><ele>436.0</ele><time>2026-05-02T17:43:40Z</time></trkpt><trkpt lat="43.21038189360506" lon="12.166440338917125"><ele>436.00000000000006</ele><time>2026-05-02T17:43:42Z</time></trkpt><trkpt lat="43.21045117020134" lon="12.166442850050748"><ele>436.0</ele><time>2026-05-02T17:43:45Z</time></trkpt><trkpt lat="43.210469292996244" lon="12.166526333341006"><ele>436.0</ele><time>2026-05-02T17:44:07Z</time></trkpt><trkpt lat="43.21054057858841" lon="12.166563655028947"><ele>436.0</ele><time>2026-05-02T17:44:12Z</time></trkpt><trkpt lat="43.21059739155709" lon="12.166633962808435"><ele>436.00000000000006</ele><time>2026-05-02T17:44:17Z</time></trkpt><trkpt lat="43.210667825835316" lon="12.166713915401553"><ele>436.0</ele><time>2026-05-02T17:44:21Z</time></trkpt><trkpt lat="43.210724442526875" lon="12.16678147188519"><ele>432.0</ele><time>2026-05-02T17:44:24Z</time></trkpt><trkpt lat="43.21076946438805" lon="12.166860512628913"><ele>428.0</ele><time>2026-05-02T17:44:28Z</time></trkpt><trkpt lat="43.21082614711272" lon="12.166906604831555"><ele>424.0</ele><time>2026-05-02T17:44:30Z</time></trkpt><trkpt lat="43.21087902345487" lon="12.166957526543065"><ele>420.0</ele><time>2026-05-02T17:44:32Z</time></trkpt><trkpt lat="43.21091783677899" lon="12.1670280680878"><ele>416.0</ele><time>2026-05-02T17:44:35Z</time></trkpt><trkpt lat="43.21095584910141" lon="12.167105298146566"><ele>412.0</ele><time>2026-05-02T17:44:38Z</time></trkpt><trkpt lat="43.21100033552185" lon="12.16717181859338"><ele>408.0</ele><time>2026-05-02T17:44:40Z</time></trkpt><trkpt lat="43.211056691925556" lon="12.167219624586735"><ele>408.0</ele><time>2026-05-02T17:44:43Z</time></trkpt><trkpt lat="43.211139242510335" lon="12.167280785710771"><ele>408.0</ele><time>2026-05-02T17:44:46Z</time></trkpt><trkpt lat="43.21114310431847" lon="12.167367296774405"><ele>408.0</ele><time>2026-05-02T17:44:49Z</time></trkpt><trkpt lat="43.21117490885268" lon="12.167475662514686"><ele>408.0</ele><time>2026-05-02T17:44:53Z</time></trkpt><trkpt lat="43.21122984520326" lon="12.167564098911631"><ele>408.0</ele><time>2026-05-02T17:44:55Z</time></trkpt><trkpt lat="43.211259357170036" lon="12.167650948813941"><ele>408.0</ele><time>2026-05-02T17:44:57Z</time></trkpt><trkpt lat="43.21132715828559" lon="12.167720363907762"><ele>406.2857142857143</ele><time>2026-05-02T17:45:01Z</time></trkpt><trkpt lat="43.211378305870966" lon="12.167797932454738"><ele>404.57142857142856</ele><time>2026-05-02T17:45:04Z</time></trkpt><trkpt lat="43.2114201378923" lon="12.167863834960588"><ele>402.8571428571429</ele><time>2026-05-02T17:45:07Z</time></trkpt><trkpt lat="43.21144483109538" lon="12.167958728276254"><ele>401.1428571428571</ele><time>2026-05-02T17:45:11Z</time></trkpt><trkpt lat="43.21149101786759" lon="12.16802000612273"><ele>399.4285714285714</ele><time>2026-05-02T17:45:43Z</time></trkpt><trkpt lat="43.21156267641676" lon="12.168024479797612"><ele>397.7142857142857</ele><time>2026-05-02T17:45:53Z</time></trkpt><trkpt lat="43.21162535372376" lon="12.168042818058735"><ele>396.0</ele><time>2026-05-02T17:45:56Z</time></trkpt><trkpt lat="43.21180187276302" lon="12.168123199073493"><ele>392.5714285714286</ele><time>2026-05-02T17:46:10Z</time></trkpt><trkpt lat="43.211815602417495" lon="12.168207599914837"><ele>389.1428571428571</ele><time>2026-05-02T17:46:12Z</time></trkpt><trkpt lat="43.21182461986228" lon="12.16830569307655"><ele>385.7142857142857</ele><time>2026-05-02T17:46:14Z</time></trkpt><trkpt lat="43.21183984164922" lon="12.168414898924654"><ele>382.28571428571433</ele><time>2026-05-02T17:46:19Z</time></trkpt><trkpt lat="43.21188006134463" lon="12.168507250176427"><ele>378.8571428571429</ele><time>2026-05-02T17:46:21Z</time></trkpt><trkpt lat="43.21194022231865" lon="12.168533751311537"><ele>375.42857142857144</ele><time>2026-05-02T17:46:23Z</time></trkpt><trkpt lat="43.2120043099474" lon="12.168580417180033"><ele>372.0</ele><time>2026-05-02T17:46:25Z</time></trkpt><trkpt lat="43.21202724581513" lon="12.168663003830783"><ele>372.0</ele><time>2026-05-02T17:46:27Z</time></trkpt><trkpt lat="43.21203249095486" lon="12.168776130035647"><ele>372.0</ele><time>2026-05-02T17:46:29Z</time></trkpt><trkpt lat="43.21196065645975" lon="12.168830128540588"><ele>372.0</ele><time>2026-05-02T17:46:32Z</time></trkpt><trkpt lat="43.21191786351567" lon="12.16890692583143"><ele>372.0</ele><time>2026-05-02T17:46:34Z</time></trkpt><trkpt lat="43.211944946389025" lon="12.16901976743978"><ele>372.0</ele><time>2026-05-02T17:46:36Z</time></trkpt><trkpt lat="43.212003637615304" lon="12.169080605843023"><ele>372.0</ele><time>2026-05-02T17:46:38Z</time></trkpt><trkpt lat="43.212047437371936" lon="12.169173443875941"><ele>370.1666666666667</ele><time>2026-05-02T17:46:40Z</time></trkpt><trkpt lat="43.212034364339424" lon="12.169298450423089"><ele>368.3333333333333</ele><time>2026-05-02T17:47:01Z</time></trkpt><trkpt lat="43.21204510906909" lon="12.16940580130103"><ele>366.5</ele><time>2026-05-02T17:47:03Z</time></trkpt><trkpt lat="43.212015335031154" lon="12.169521732505737"><ele>364.66666666666663</ele><time>2026-05-02T17:47:05Z</time></trkpt><trkpt lat="43.21197264500894" lon="12.169629281475812"><ele>362.8333333333333</ele><time>2026-05-02T17:47:07Z</time></trkpt><trkpt lat="43.211929476127885" lon="12.16969986412198"><ele>361.0</ele><time>2026-05-02T17:47:11Z</time></trkpt><trkpt lat="43.2119041196067" lon="12.16981909021127"><ele>361.0</ele><time>2026-05-02T17:47:13Z</time></trkpt><trkpt lat="43.21197099138901" lon="12.169877166601426"><ele>361.0</ele><time>2026-05-02T17:47:19Z</time></trkpt><trkpt lat="43.21205620342212" lon="12.169780537105291"><ele>361.0</ele><time>2026-05-02T17:47:21Z</time></trkpt><trkpt lat="43.212154822771645" lon="12.169699606847471"><ele>361.0</ele><time>2026-05-02T17:47:23Z</time></trkpt><trkpt lat="43.212216774367164" lon="12.169643474716665"><ele>361.0</ele><time>2026-05-02T17:47:24Z</time></trkpt><trkpt lat="43.212305297239666" lon="12.169548700507049"><ele>357.4</ele><time>2026-05-02T17:47:26Z</time></trkpt><trkpt lat="43.21238533435445" lon="12.169442143425243"><ele>353.8</ele><time>2026-05-02T17:47:28Z</time></trkpt><trkpt lat="43.2124179391786" lon="12.169311141747333"><ele>350.2</ele><time>2026-05-02T17:47:30Z</time></trkpt><trkpt lat="43.21245010114667" lon="12.169231309054954"><ele>346.59999999999997</ele><time>2026-05-02T17:47:32Z</time></trkpt><trkpt lat="43.21248063740841" lon="12.169136167737934"><ele>343.0</ele><time>2026-05-02T17:47:34Z</time></trkpt><trkpt lat="43.21251127085509" lon="12.169012239647182"><ele>343.0</ele><time>2026-05-02T17:47:36Z</time></trkpt><trkpt lat="43.21249445607861" lon="12.16889631473197"><ele>343.0</ele><time>2026-05-02T17:47:38Z</time></trkpt><trkpt lat="43.21250247101924" lon="12.16879166225908"><ele>343.0</ele><time>2026-05-02T17:47:40Z</time></trkpt><trkpt lat="43.2124969509761" lon="12.16867160788165"><ele>343.0</ele><time>2026-05-02T17:47:42Z</time></trkpt><trkpt lat="43.21249744210744" lon="12.168583114854288"><ele>343.0</ele><time>2026-05-02T17:47:43Z</time></trkpt><trkpt lat="43.2125058636169" lon="12.168488406426809"><ele>343.0</ele><time>2026-05-02T17:47:44Z</time></trkpt><trkpt lat="43.2125273024506" lon="12.168400414074839"><ele>343.0</ele><time>2026-05-02T17:47:45Z</time></trkpt><trkpt lat="43.21254856277507" lon="12.168302258110915"><ele>343.0</ele><time>2026-05-02T17:47:46Z</time></trkpt><trkpt lat="43.21256853693152" lon="12.16820871052407"><ele>343.0</ele><time>2026-05-02T17:47:47Z</time></trkpt><trkpt lat="43.212592112906805" lon="12.168106424928256"><ele>343.0</ele><time>2026-05-02T17:47:48Z</time></trkpt><trkpt lat="43.21263500979843" lon="12.167972079921315"><ele>343.0</ele><time>2026-05-02T17:47:50Z</time></trkpt><trkpt lat="43.212684788775114" lon="12.167847219683333"><ele>343.0</ele><time>2026-05-02T17:47:52Z</time></trkpt><trkpt lat="43.21269746376454" lon="12.167757496970472"><ele>344.0</ele><time>2026-05-02T17:47:54Z</time></trkpt><trkpt lat="43.212711799002314" lon="12.167666746584226"><ele>345.0</ele><time>2026-05-02T17:48:22Z</time></trkpt><trkpt lat="43.21273946449977" lon="12.167522108382517"><ele>346.0</ele><time>2026-05-02T17:48:24Z</time></trkpt><trkpt lat="43.212748870453716" lon="12.167412642907177"><ele>347.0</ele><time>2026-05-02T17:48:25Z</time></trkpt><trkpt lat="43.21276691084911" lon="12.167291236141628"><ele>348.0</ele><time>2026-05-02T17:48:26Z</time></trkpt><trkpt lat="43.21279194818768" lon="12.167168029389577"><ele>349.0</ele><time>2026-05-02T17:48:27Z</time></trkpt><trkpt lat="43.21279384627139" lon="12.16704916668885"><ele>349.79999999999995</ele><time>2026-05-02T17:48:28Z</time></trkpt><trkpt lat="43.21278494034321" lon="12.166946361047092"><ele>350.59999999999997</ele><time>2026-05-02T17:48:29Z</time></trkpt><trkpt lat="43.21277704238052" lon="12.166859558442013"><ele>351.4</ele><time>2026-05-02T17:48:30Z</time></trkpt><trkpt lat="43.212837373333734" lon="12.166670284629486"><ele>352.2</ele><time>2026-05-02T17:48:32Z</time></trkpt><trkpt lat="43.2128717594668" lon="12.16653136815895"><ele>353.0</ele><time>2026-05-02T17:48:33Z</time></trkpt><trkpt lat="43.21291320425661" lon="12.166371899702723"><ele>354.5</ele><time>2026-05-02T17:48:34Z</time></trkpt><trkpt lat="43.212956889548636" lon="12.166228906472723"><ele>356.0</ele><time>2026-05-02T17:48:35Z</time></trkpt><trkpt lat="43.21298352427729" lon="12.166090822697749"><ele>357.5</ele><time>2026-05-02T17:48:36Z</time></trkpt><trkpt lat="43.21299981683457" lon="12.165943517476855"><ele>359.0</ele><time>2026-05-02T17:48:37Z</time></trkpt><trkpt lat="43.213015641069944" lon="12.165767302149439"><ele>360.0</ele><time>2026-05-02T17:48:38Z</time></trkpt><trkpt lat="43.2130280547854" lon="12.165618691449476"><ele>361.0</ele><time>2026-05-02T17:48:39Z</time></trkpt><trkpt lat="43.21303420916145" lon="12.165485897574817"><ele>362.0</ele><time>2026-05-02T17:48:40Z</time></trkpt><trkpt lat="43.21304438279203" lon="12.16535607636286"><ele>363.0</ele><time>2026-05-02T17:48:41Z</time></trkpt><trkpt lat="43.2130684508952" lon="12.165217513753117"><ele>364.0</ele><time>2026-05-02T17:48:42Z</time></trkpt><trkpt lat="43.213105129720695" lon="12.165079048346863"><ele>364.0</ele><time>2026-05-02T17:48:43Z</time></trkpt><trkpt lat="43.21314085818266" lon="12.164955522725794"><ele>364.0</ele><time>2026-05-02T17:48:44Z</time></trkpt><trkpt lat="43.213167605549415" lon="12.164828126827814"><ele>364.0</ele><time>2026-05-02T17:48:45Z</time></trkpt><trkpt lat="43.213180038154185" lon="12.164688573219449"><ele>364.0</ele><time>2026-05-02T17:48:46Z</time></trkpt><trkpt lat="43.2131912189176" lon="12.164546191256433"><ele>364.0</ele><time>2026-05-02T17:48:47Z</time></trkpt><trkpt lat="43.213213337994475" lon="12.164425314284793"><ele>362.16666666666663</ele><time>2026-05-02T17:48:48Z</time></trkpt><trkpt lat="43.21324129456778" lon="12.164318458301265"><ele>360.3333333333333</ele><time>2026-05-02T17:48:49Z</time></trkpt><trkpt lat="43.21324771090503" lon="12.164224321049625"><ele>358.5</ele><time>2026-05-02T17:48:50Z</time></trkpt><trkpt lat="43.21323712584064" lon="12.164123132114737"><ele>356.6666666666667</ele><time>2026-05-02T17:48:51Z</time></trkpt><trkpt lat="43.21323209384117" lon="12.16398142898704"><ele>354.83333333333337</ele><time>2026-05-02T17:48:52Z</time></trkpt><trkpt lat="43.21323033332918" lon="12.16383423428146"><ele>353.0</ele><time>2026-05-02T17:48:53Z</time></trkpt><trkpt lat="43.21322869765183" lon="12.163681068968028"><ele>353.0</ele><time>2026-05-02T17:48:54Z</time></trkpt><trkpt lat="43.213214137737246" lon="12.16352159134335"><ele>353.0</ele><time>2026-05-02T17:48:55Z</time></trkpt><trkpt lat="43.213200312036946" lon="12.163396053430684"><ele>353.0</ele><time>2026-05-02T17:48:56Z</time></trkpt><trkpt lat="43.21318062974253" lon="12.163266615624556"><ele>353.0</ele><time>2026-05-02T17:48:57Z</time></trkpt><trkpt lat="43.21315942971539" lon="12.163122085026831"><ele>353.0</ele><time>2026-05-02T17:48:58Z</time></trkpt><trkpt lat="43.2131367259083" lon="12.16297313410595"><ele>355.5</ele><time>2026-05-02T17:48:59Z</time></trkpt><trkpt lat="43.21311816786213" lon="12.162845781377426"><ele>358.0</ele><time>2026-05-02T17:49:00Z</time></trkpt><trkpt lat="43.213101234008256" lon="12.16276182402676"><ele>360.5</ele><time>2026-05-02T17:49:01Z</time></trkpt><trkpt lat="43.21309680162009" lon="12.162637049882793"><ele>363.0</ele><time>2026-05-02T17:49:03Z</time></trkpt><trkpt lat="43.21312071236363" lon="12.16254154593819"><ele>365.5</ele><time>2026-05-02T17:49:04Z</time></trkpt><trkpt lat="43.21310347648125" lon="12.162409593579655"><ele>368.0</ele><time>2026-05-02T17:49:05Z</time></trkpt><trkpt lat="43.21307246682579" lon="12.162304703101452"><ele>369.2</ele><time>2026-05-02T17:49:06Z</time></trkpt><trkpt lat="43.21305582849031" lon="12.162208944847148"><ele>370.4</ele><time>2026-05-02T17:49:07Z</time></trkpt><trkpt lat="43.213069122701754" lon="12.162112038347928"><ele>371.59999999999997</ele><time>2026-05-02T17:49:09Z</time></trkpt><trkpt lat="43.21307017686917" lon="12.161971639660027"><ele>372.79999999999995</ele><time>2026-05-02T17:49:11Z</time></trkpt><trkpt lat="43.21307868371085" lon="12.161810827651912"><ele>374.0</ele><time>2026-05-02T17:49:13Z</time></trkpt><trkpt lat="43.213113051827875" lon="12.161639590869255"><ele>373.2</ele><time>2026-05-02T17:49:15Z</time></trkpt><trkpt lat="43.21315537436986" lon="12.16152335366846"><ele>372.4</ele><time>2026-05-02T17:49:16Z</time></trkpt><trkpt lat="43.213187476426704" lon="12.161427767993537"><ele>371.6</ele><time>2026-05-02T17:49:17Z</time></trkpt><trkpt lat="43.21320627093323" lon="12.161249587019876"><ele>370.8</ele><time>2026-05-02T17:49:19Z</time></trkpt><trkpt lat="43.21321949229772" lon="12.161149413315758"><ele>370.0</ele><time>2026-05-02T17:49:20Z</time></trkpt><trkpt lat="43.21325357756949" lon="12.161060485510534"><ele>370.0</ele><time>2026-05-02T17:49:21Z</time></trkpt><trkpt lat="43.21330142571018" lon="12.160923882889321"><ele>370.0</ele><time>2026-05-02T17:49:23Z</time></trkpt><trkpt lat="43.21325919864673" lon="12.160851113761689"><ele>370.0</ele><time>2026-05-02T17:49:30Z</time></trkpt><trkpt lat="43.21322296595399" lon="12.160750184377994"><ele>370.0</ele><time>2026-05-02T17:49:34Z</time></trkpt><trkpt lat="43.21322421561424" lon="12.160561386470642"><ele>370.0</ele><time>2026-05-02T17:49:36Z</time></trkpt><trkpt lat="43.21322898918939" lon="12.160464445754041"><ele>369.6</ele><time>2026-05-02T17:49:37Z</time></trkpt><trkpt lat="43.2132343740106" lon="12.16030488733251"><ele>369.2</ele><time>2026-05-02T17:49:39Z</time></trkpt><trkpt lat="43.21322543405626" lon="12.160210773246115"><ele>368.79999999999995</ele><time>2026-05-02T17:49:42Z</time></trkpt><trkpt lat="43.21318016713194" lon="12.160036360834845"><ele>368.4</ele><time>2026-05-02T17:49:44Z</time></trkpt><trkpt lat="43.213170470930244" lon="12.159949420676787"><ele>368.0</ele><time>2026-05-02T17:49:47Z</time></trkpt><trkpt lat="43.21314835597472" lon="12.159839111220895"><ele>368.8571428571429</ele><time>2026-05-02T17:49:50Z</time></trkpt><trkpt lat="43.21311723227974" lon="12.159759316952911"><ele>369.71428571428567</ele><time>2026-05-02T17:49:51Z</time></trkpt><trkpt lat="43.21306060725035" lon="12.15964033780314"><ele>370.57142857142856</ele><time>2026-05-02T17:49:53Z</time></trkpt><trkpt lat="43.21302073504839" lon="12.159566346891436"><ele>371.42857142857144</ele><time>2026-05-02T17:49:56Z</time></trkpt><trkpt lat="43.212984530225185" lon="12.159477188499354"><ele>372.28571428571433</ele><time>2026-05-02T17:49:58Z</time></trkpt><trkpt lat="43.21294346664759" lon="12.15940654830394"><ele>373.1428571428571</ele><time>2026-05-02T17:49:59Z</time></trkpt><trkpt lat="43.21293528491728" lon="12.159316111607852"><ele>374.0</ele><time>2026-05-02T17:50:01Z</time></trkpt><trkpt lat="43.21290351477763" lon="12.159200464941419"><ele>374.0</ele><time>2026-05-02T17:50:05Z</time></trkpt><trkpt lat="43.21288307274305" lon="12.159114948008689"><ele>374.0</ele><time>2026-05-02T17:50:07Z</time></trkpt><trkpt lat="43.21283376416042" lon="12.159041250331326"><ele>374.0</ele><time>2026-05-02T17:50:09Z</time></trkpt><trkpt lat="43.212841018411766" lon="12.158949628041606"><ele>374.0</ele><time>2026-05-02T17:50:12Z</time></trkpt><trkpt lat="43.21283991912521" lon="12.158861408218042"><ele>374.0</ele><time>2026-05-02T17:50:14Z</time></trkpt><trkpt lat="43.21284120127268" lon="12.15876450227906"><ele>374.0</ele><time>2026-05-02T17:50:17Z</time></trkpt><trkpt lat="43.21284655010869" lon="12.158635921368026"><ele>374.0</ele><time>2026-05-02T17:50:20Z</time></trkpt><trkpt lat="43.21286303250357" lon="12.158533644123445"><ele>372.79999999999995</ele><time>2026-05-02T17:50:21Z</time></trkpt><trkpt lat="43.2127691538936" lon="12.15848707437191"><ele>371.59999999999997</ele><time>2026-05-02T17:50:23Z</time></trkpt><trkpt lat="43.212699528231724" lon="12.158466190546502"><ele>370.4</ele><time>2026-05-02T17:50:24Z</time></trkpt><trkpt lat="43.21262953497364" lon="12.158434082757777"><ele>369.2</ele><time>2026-05-02T17:50:26Z</time></trkpt><trkpt lat="43.212584117712794" lon="12.158301107653587"><ele>368.0</ele><time>2026-05-02T17:50:28Z</time></trkpt><trkpt lat="43.212496827197675" lon="12.158228172216074"><ele>369.33333333333337</ele><time>2026-05-02T17:50:31Z</time></trkpt><trkpt lat="43.212443219867126" lon="12.158142944647393"><ele>370.6666666666667</ele><time>2026-05-02T17:50:33Z</time></trkpt><trkpt lat="43.21237964719961" lon="12.15809408792968"><ele>372.0</ele><time>2026-05-02T17:50:34Z</time></trkpt><trkpt lat="43.21228010271433" lon="12.157984387026119"><ele>373.3333333333333</ele><time>2026-05-02T17:50:36Z</time></trkpt><trkpt lat="43.212218693771064" lon="12.157949220171618"><ele>374.66666666666663</ele><time>2026-05-02T17:50:37Z</time></trkpt><trkpt lat="43.212169937507696" lon="12.157889504437383"><ele>376.0</ele><time>2026-05-02T17:50:38Z</time></trkpt><trkpt lat="43.212114300077815" lon="12.157791778728669"><ele>376.0</ele><time>2026-05-02T17:50:40Z</time></trkpt><trkpt lat="43.21206614384108" lon="12.157734179762617"><ele>376.0</ele><time>2026-05-02T17:50:42Z</time></trkpt><trkpt lat="43.21199414085373" lon="12.157657725302949"><ele>376.0</ele><time>2026-05-02T17:50:44Z</time></trkpt><trkpt lat="43.211938039775276" lon="12.157596809709814"><ele>376.0</ele><time>2026-05-02T17:50:46Z</time></trkpt><trkpt lat="43.21187424541408" lon="12.157550637545159"><ele>376.0</ele><time>2026-05-02T17:50:48Z</time></trkpt><trkpt lat="43.21179463823393" lon="12.157480695960958"><ele>376.0</ele><time>2026-05-02T17:50:50Z</time></trkpt><trkpt lat="43.21170881089064" lon="12.157405657449186"><ele>376.0</ele><time>2026-05-02T17:50:52Z</time></trkpt><trkpt lat="43.21164429161675" lon="12.15737247790358"><ele>376.0</ele><time>2026-05-02T17:50:54Z</time></trkpt><trkpt lat="43.21158672199645" lon="12.157316472071528"><ele>376.0</ele><time>2026-05-02T17:50:55Z</time></trkpt><trkpt lat="43.21150770349711" lon="12.157246585429622"><ele>376.0</ele><time>2026-05-02T17:50:56Z</time></trkpt><trkpt lat="43.21145694453611" lon="12.157192743162076"><ele>376.0</ele><time>2026-05-02T17:50:57Z</time></trkpt><trkpt lat="43.21136948854583" lon="12.15712686665847"><ele>376.0</ele><time>2026-05-02T17:50:59Z</time></trkpt><trkpt lat="43.21131684301107" lon="12.15707244040158"><ele>378.3333333333333</ele><time>2026-05-02T17:51:00Z</time></trkpt><trkpt lat="43.21124391622012" lon="12.156988986400776"><ele>380.66666666666663</ele><time>2026-05-02T17:51:02Z</time></trkpt><trkpt lat="43.211164330255066" lon="12.156914200990474"><ele>383.0</ele><time>2026-05-02T17:51:04Z</time></trkpt><trkpt lat="43.211119303061196" lon="12.156841660820469"><ele>385.3333333333333</ele><time>2026-05-02T17:51:06Z</time></trkpt><trkpt lat="43.211060307380855" lon="12.156772530711457"><ele>387.6666666666667</ele><time>2026-05-02T17:51:08Z</time></trkpt><trkpt lat="43.21096704240176" lon="12.156731149803049"><ele>390.0</ele><time>2026-05-02T17:51:10Z</time></trkpt><trkpt lat="43.21086012826129" lon="12.156717810891807"><ele>390.0</ele><time>2026-05-02T17:51:13Z</time></trkpt><trkpt lat="43.21078515270001" lon="12.156686481260548"><ele>390.0</ele><time>2026-05-02T17:51:15Z</time></trkpt><trkpt lat="43.21071577862786" lon="12.15665786939957"><ele>390.0</ele><time>2026-05-02T17:51:17Z</time></trkpt><trkpt lat="43.21064774133744" lon="12.156658418882047"><ele>390.0</ele><time>2026-05-02T17:51:20Z</time></trkpt><trkpt lat="43.210535862599855" lon="12.156624830165105"><ele>390.0</ele><time>2026-05-02T17:51:22Z</time></trkpt><trkpt lat="43.21047221117439" lon="12.15662290688012"><ele>390.0</ele><time>2026-05-02T17:51:23Z</time></trkpt><trkpt lat="43.21038704076402" lon="12.156569104798947"><ele>391.0</ele><time>2026-05-02T17:51:25Z</time></trkpt><trkpt lat="43.21034811889209" lon="12.156485114202528"><ele>392.0</ele><time>2026-05-02T17:51:27Z</time></trkpt><trkpt lat="43.21028573610743" lon="12.156440162203008"><ele>393.0</ele><time>2026-05-02T17:51:30Z</time></trkpt><trkpt lat="43.210219073917465" lon="12.156354925828301"><ele>394.0</ele><time>2026-05-02T17:51:32Z</time></trkpt><trkpt lat="43.210155136834864" lon="12.15632498924671"><ele>395.0</ele><time>2026-05-02T17:51:34Z</time></trkpt><trkpt lat="43.21009791629207" lon="12.156281777619853"><ele>396.0</ele><time>2026-05-02T17:51:35Z</time></trkpt><trkpt lat="43.210039299597724" lon="12.156235766301839"><ele>397.0</ele><time>2026-05-02T17:51:36Z</time></trkpt><trkpt lat="43.209969042259026" lon="12.156163350153273"><ele>397.00000000000006</ele><time>2026-05-02T17:51:38Z</time></trkpt><trkpt lat="43.20989840189828" lon="12.156068563809177"><ele>397.0</ele><time>2026-05-02T17:51:40Z</time></trkpt><trkpt lat="43.20988122763118" lon="12.15598492312024"><ele>397.0</ele><time>2026-05-02T17:51:42Z</time></trkpt><trkpt lat="43.209811833567" lon="12.155966312236913"><ele>397.0</ele><time>2026-05-02T17:51:46Z</time></trkpt><trkpt lat="43.20971501770774" lon="12.155969419466114"><ele>397.00000000000006</ele><time>2026-05-02T17:51:48Z</time></trkpt><trkpt lat="43.20962279190542" lon="12.155881060284008"><ele>397.0</ele><time>2026-05-02T17:51:50Z</time></trkpt><trkpt lat="43.209556112374194" lon="12.15589232122464"><ele>396.50000000000006</ele><time>2026-05-02T17:51:51Z</time></trkpt><trkpt lat="43.20948009602753" lon="12.155843481973776"><ele>396.0</ele><time>2026-05-02T17:51:52Z</time></trkpt><trkpt lat="43.20942106351317" lon="12.155791857222638"><ele>395.5</ele><time>2026-05-02T17:51:53Z</time></trkpt><trkpt lat="43.2093236312378" lon="12.155764740318652"><ele>395.0</ele><time>2026-05-02T17:51:55Z</time></trkpt><trkpt lat="43.20923053550614" lon="12.155721099093903"><ele>394.50000000000006</ele><time>2026-05-02T17:51:57Z</time></trkpt><trkpt lat="43.20915488418783" lon="12.155708453732792"><ele>394.0</ele><time>2026-05-02T17:51:58Z</time></trkpt><trkpt lat="43.20907008565779" lon="12.155696828939428"><ele>394.00000000000006</ele><time>2026-05-02T17:52:00Z</time></trkpt><trkpt lat="43.20899946593207" lon="12.155730160381333"><ele>394.0</ele><time>2026-05-02T17:52:03Z</time></trkpt><trkpt lat="43.20888992861538" lon="12.155693871544822"><ele>394.0</ele><time>2026-05-02T17:52:05Z</time></trkpt><trkpt lat="43.20879980907201" lon="12.155667483426582"><ele>394.0</ele><time>2026-05-02T17:52:08Z</time></trkpt><trkpt lat="43.20874041428077" lon="12.155606680514268"><ele>394.00000000000006</ele><time>2026-05-02T17:52:10Z</time></trkpt><trkpt lat="43.208654287849875" lon="12.155574256840305"><ele>394.0</ele><time>2026-05-02T17:52:12Z</time></trkpt><trkpt lat="43.208598668669026" lon="12.155510689720728"><ele>396.0</ele><time>2026-05-02T17:52:14Z</time></trkpt><trkpt lat="43.20847164701107" lon="12.155413309822242"><ele>398.0</ele><time>2026-05-02T17:52:16Z</time></trkpt><trkpt lat="43.20839120410571" lon="12.155372920714978"><ele>400.0</ele><time>2026-05-02T17:52:17Z</time></trkpt><trkpt lat="43.20832052254737" lon="12.155353261894287"><ele>402.0</ele><time>2026-05-02T17:52:18Z</time></trkpt><trkpt lat="43.20825202910139" lon="12.155305073683618"><ele>404.0</ele><time>2026-05-02T17:52:19Z</time></trkpt><trkpt lat="43.20816609037035" lon="12.155264437458314"><ele>406.49999999999994</ele><time>2026-05-02T17:52:21Z</time></trkpt><trkpt lat="43.20806516470611" lon="12.1552167892929"><ele>409.0</ele><time>2026-05-02T17:52:23Z</time></trkpt><trkpt lat="43.207999464217295" lon="12.15517164831877"><ele>411.5</ele><time>2026-05-02T17:52:24Z</time></trkpt><trkpt lat="43.20794628445066" lon="12.155083323067641"><ele>414.0</ele><time>2026-05-02T17:52:25Z</time></trkpt><trkpt lat="43.20790987299995" lon="12.154999583571374"><ele>416.49999999999994</ele><time>2026-05-02T17:52:26Z</time></trkpt><trkpt lat="43.20787326739076" lon="12.154918816516707"><ele>419.0</ele><time>2026-05-02T17:52:27Z</time></trkpt><trkpt lat="43.20781632425188" lon="12.154840855520092"><ele>418.99999999999994</ele><time>2026-05-02T17:52:28Z</time></trkpt><trkpt lat="43.20773126812998" lon="12.154773507805029"><ele>419.0</ele><time>2026-05-02T17:52:30Z</time></trkpt><trkpt lat="43.20764339192553" lon="12.154738561336089"><ele>419.0</ele><time>2026-05-02T17:52:32Z</time></trkpt><trkpt lat="43.207590026005455" lon="12.154662534966954"><ele>419.0</ele><time>2026-05-02T17:52:34Z</time></trkpt><trkpt lat="43.20754647783516" lon="12.1545967869648"><ele>418.99999999999994</ele><time>2026-05-02T17:52:35Z</time></trkpt><trkpt lat="43.207464311688746" lon="12.15456097220627"><ele>419.0</ele><time>2026-05-02T17:52:36Z</time></trkpt><trkpt lat="43.207403841073145" lon="12.154526476353105"><ele>418.99999999999994</ele><time>2026-05-02T17:52:37Z</time></trkpt><trkpt lat="43.20736141758037" lon="12.154461745394727"><ele>419.0</ele><time>2026-05-02T17:52:38Z</time></trkpt><trkpt lat="43.20732083569699" lon="12.154377760810524"><ele>419.0</ele><time>2026-05-02T17:52:39Z</time></trkpt><trkpt lat="43.20731156811658" lon="12.154291990010076"><ele>419.0</ele><time>2026-05-02T17:52:40Z</time></trkpt><trkpt lat="43.20731467572051" lon="12.154204541241494"><ele>419.0</ele><time>2026-05-02T17:52:41Z</time></trkpt><trkpt lat="43.20731582377044" lon="12.154115751222802"><ele>418.99999999999994</ele><time>2026-05-02T17:52:42Z</time></trkpt><trkpt lat="43.20723549886401" lon="12.154037843122838"><ele>419.0</ele><time>2026-05-02T17:52:44Z</time></trkpt><trkpt lat="43.20716988170736" lon="12.153917802234911"><ele>423.2</ele><time>2026-05-02T17:52:46Z</time></trkpt><trkpt lat="43.20715350390882" lon="12.15373058726491"><ele>427.4</ele><time>2026-05-02T17:52:48Z</time></trkpt><trkpt lat="43.20710625689787" lon="12.153607058038725"><ele>431.6</ele><time>2026-05-02T17:52:49Z</time></trkpt><trkpt lat="43.207084338184785" lon="12.15350340507531"><ele>435.8</ele><time>2026-05-02T17:52:50Z</time></trkpt><trkpt lat="43.20704420366204" lon="12.153422962850613"><ele>440.0</ele><time>2026-05-02T17:52:52Z</time></trkpt><trkpt lat="43.206939767737644" lon="12.153421041557557"><ele>439.99999999999994</ele><time>2026-05-02T17:52:54Z</time></trkpt><trkpt lat="43.20687310429424" lon="12.153402327502148"><ele>440.0</ele><time>2026-05-02T17:52:55Z</time></trkpt><trkpt lat="43.20674941413432" lon="12.153373981168365"><ele>440.0</ele><time>2026-05-02T17:52:57Z</time></trkpt><trkpt lat="43.20667718574506" lon="12.153336715024205"><ele>440.0</ele><time>2026-05-02T17:52:59Z</time></trkpt><trkpt lat="43.20670352149577" lon="12.153232430421665"><ele>439.99999999999994</ele><time>2026-05-02T17:53:01Z</time></trkpt><trkpt lat="43.206729140852026" lon="12.153107647703894"><ele>440.0</ele><time>2026-05-02T17:53:03Z</time></trkpt><trkpt lat="43.206647269184394" lon="12.15301852855894"><ele>438.99999999999994</ele><time>2026-05-02T17:53:05Z</time></trkpt><trkpt lat="43.206574171099476" lon="12.152915083576945"><ele>438.0</ele><time>2026-05-02T17:53:07Z</time></trkpt><trkpt lat="43.20652052294754" lon="12.152841153326277"><ele>437.0</ele><time>2026-05-02T17:53:08Z</time></trkpt><trkpt lat="43.2064626252183" lon="12.152752567963214"><ele>436.0</ele><time>2026-05-02T17:53:10Z</time></trkpt><trkpt lat="43.20641701322743" lon="12.152677602476063"><ele>434.99999999999994</ele><time>2026-05-02T17:53:11Z</time></trkpt><trkpt lat="43.206383709125866" lon="12.152585535706608"><ele>434.0</ele><time>2026-05-02T17:53:12Z</time></trkpt><trkpt lat="43.20634837318923" lon="12.15250545667679"><ele>437.49999999999994</ele><time>2026-05-02T17:53:13Z</time></trkpt><trkpt lat="43.206282778369705" lon="12.152436708314168"><ele>441.0</ele><time>2026-05-02T17:53:16Z</time></trkpt><trkpt lat="43.20620962271308" lon="12.15243191448516"><ele>444.5</ele><time>2026-05-02T17:53:18Z</time></trkpt><trkpt lat="43.20614807533289" lon="12.152478165670216"><ele>448.0</ele><time>2026-05-02T17:53:19Z</time></trkpt><trkpt lat="43.20607013960541" lon="12.15256330542081"><ele>451.49999999999994</ele><time>2026-05-02T17:53:21Z</time></trkpt><trkpt lat="43.206002271532725" lon="12.152611884374902"><ele>455.0</ele><time>2026-05-02T17:53:23Z</time></trkpt><trkpt lat="43.20597789841987" lon="12.152515402510168"><ele>454.99999999999994</ele><time>2026-05-02T17:53:25Z</time></trkpt><trkpt lat="43.20595582566004" lon="12.152375353574165"><ele>455.0</ele><time>2026-05-02T17:53:26Z</time></trkpt><trkpt lat="43.20594723250046" lon="12.152238667433108"><ele>455.0</ele><time>2026-05-02T17:53:27Z</time></trkpt><trkpt lat="43.205951374453726" lon="12.152137547464253"><ele>455.0</ele><time>2026-05-02T17:53:28Z</time></trkpt><trkpt lat="43.2059491787838" lon="12.152038482598858"><ele>454.99999999999994</ele><time>2026-05-02T17:53:29Z</time></trkpt><trkpt lat="43.205978246272196" lon="12.151947325286343"><ele>455.0</ele><time>2026-05-02T17:53:30Z</time></trkpt><trkpt lat="43.205990736909655" lon="12.15180732221379"><ele>457.0</ele><time>2026-05-02T17:53:31Z</time></trkpt><trkpt lat="43.20605715192357" lon="12.151653466134695"><ele>459.0</ele><time>2026-05-02T17:53:33Z</time></trkpt><trkpt lat="43.20610272750983" lon="12.151575311503237"><ele>461.0</ele><time>2026-05-02T17:53:34Z</time></trkpt><trkpt lat="43.20616516805468" lon="12.15147944790315"><ele>463.0</ele><time>2026-05-02T17:53:35Z</time></trkpt><trkpt lat="43.20621769757549" lon="12.151389133120217"><ele>465.0</ele><time>2026-05-02T17:53:36Z</time></trkpt><trkpt lat="43.20625531338423" lon="12.151279089574889"><ele>467.2</ele><time>2026-05-02T17:53:38Z</time></trkpt><trkpt lat="43.206258609165175" lon="12.151148256043616"><ele>469.4</ele><time>2026-05-02T17:53:40Z</time></trkpt><trkpt lat="43.20623690743556" lon="12.151047316105082"><ele>471.6</ele><time>2026-05-02T17:53:41Z</time></trkpt><trkpt lat="43.20614521176546" lon="12.150950699541573"><ele>473.8</ele><time>2026-05-02T17:53:44Z</time></trkpt><trkpt lat="43.20607421951308" lon="12.150872888112712"><ele>476.0</ele><time>2026-05-02T17:53:45Z</time></trkpt><trkpt lat="43.20601281058449" lon="12.150802009474573"><ele>476.0</ele><time>2026-05-02T17:53:46Z</time></trkpt><trkpt lat="43.20596946051609" lon="12.150736755316453"><ele>476.0</ele><time>2026-05-02T17:53:47Z</time></trkpt><trkpt lat="43.205943500176225" lon="12.150643178605279"><ele>476.0</ele><time>2026-05-02T17:53:49Z</time></trkpt><trkpt lat="43.20598447009078" lon="12.15057157848364"><ele>476.0</ele><time>2026-05-02T17:53:50Z</time></trkpt><trkpt lat="43.20603331263965" lon="12.150500449937592"><ele>476.0</ele><time>2026-05-02T17:53:51Z</time></trkpt><trkpt lat="43.2060340517471" lon="12.150388549100208"><ele>476.0</ele><time>2026-05-02T17:53:53Z</time></trkpt><trkpt lat="43.205994172889966" lon="12.15030420349474"><ele>476.0</ele><time>2026-05-02T17:53:55Z</time></trkpt><trkpt lat="43.20595718671573" lon="12.150199848085858"><ele>477.3333333333333</ele><time>2026-05-02T17:54:12Z</time></trkpt><trkpt lat="43.20594492238705" lon="12.150088865808414"><ele>478.66666666666663</ele><time>2026-05-02T17:54:14Z</time></trkpt><trkpt lat="43.20593994151238" lon="12.14999900508867"><ele>480.0</ele><time>2026-05-02T17:54:15Z</time></trkpt><trkpt lat="43.20595531502106" lon="12.14991169019704"><ele>481.33333333333337</ele><time>2026-05-02T17:54:16Z</time></trkpt><trkpt lat="43.2059753135895" lon="12.149751163246492"><ele>482.6666666666667</ele><time>2026-05-02T17:54:18Z</time></trkpt><trkpt lat="43.20601122718285" lon="12.149668211612724"><ele>484.0</ele><time>2026-05-02T17:54:19Z</time></trkpt><trkpt lat="43.20605135084593" lon="12.149593281085759"><ele>486.2</ele><time>2026-05-02T17:54:20Z</time></trkpt><trkpt lat="43.20605803037673" lon="12.149425448674233"><ele>488.4</ele><time>2026-05-02T17:54:22Z</time></trkpt><trkpt lat="43.20605173870543" lon="12.149312665855547"><ele>490.6</ele><time>2026-05-02T17:54:23Z</time></trkpt><trkpt lat="43.20604885044246" lon="12.14917181304163"><ele>492.8</ele><time>2026-05-02T17:54:24Z</time></trkpt><trkpt lat="43.20604571556143" lon="12.149032653375258"><ele>495.0</ele><time>2026-05-02T17:54:25Z</time></trkpt><trkpt lat="43.20604059329594" lon="12.148915540848037"><ele>495.0</ele><time>2026-05-02T17:54:26Z</time></trkpt><trkpt lat="43.20604093079263" lon="12.148804295340629"><ele>495.0</ele><time>2026-05-02T17:54:27Z</time></trkpt><trkpt lat="43.20601884081902" lon="12.148678662814978"><ele>495.0</ele><time>2026-05-02T17:54:28Z</time></trkpt><trkpt lat="43.20598705803354" lon="12.148547168610172"><ele>495.0</ele><time>2026-05-02T17:54:29Z</time></trkpt><trkpt lat="43.20596280835981" lon="12.148441640930711"><ele>495.0</ele><time>2026-05-02T17:54:30Z</time></trkpt><trkpt lat="43.20592464848163" lon="12.148369244835415"><ele>495.0</ele><time>2026-05-02T17:54:31Z</time></trkpt><trkpt lat="43.20586420526005" lon="12.148301404900954"><ele>495.0</ele><time>2026-05-02T17:54:32Z</time></trkpt><trkpt lat="43.20579491334656" lon="12.148212559121365"><ele>495.0</ele><time>2026-05-02T17:54:34Z</time></trkpt><trkpt lat="43.205763180146796" lon="12.148103652964975"><ele>495.0</ele><time>2026-05-02T17:54:35Z</time></trkpt><trkpt lat="43.205741529556" lon="12.148012036866682"><ele>495.0</ele><time>2026-05-02T17:54:36Z</time></trkpt><trkpt lat="43.20566340987721" lon="12.147906286923877"><ele>495.0</ele><time>2026-05-02T17:54:38Z</time></trkpt><trkpt lat="43.20558966439354" lon="12.147855782025298"><ele>495.0</ele><time>2026-05-02T17:54:39Z</time></trkpt><trkpt lat="43.20545089140602" lon="12.147818081102256"><ele>496.4</ele><time>2026-05-02T17:54:40Z</time></trkpt><trkpt lat="43.20537243826596" lon="12.14772171441657"><ele>497.8</ele><time>2026-05-02T17:54:41Z</time></trkpt><trkpt lat="43.20529862215143" lon="12.147673203504532"><ele>499.20000000000005</ele><time>2026-05-02T17:54:42Z</time></trkpt><trkpt lat="43.20523265319454" lon="12.147633434903412"><ele>500.6</ele><time>2026-05-02T17:54:43Z</time></trkpt><trkpt lat="43.20516886484964" lon="12.147595177919948"><ele>502.0</ele><time>2026-05-02T17:54:44Z</time></trkpt><trkpt lat="43.20508647036607" lon="12.147462682285122"><ele>502.6666666666667</ele><time>2026-05-02T17:54:46Z</time></trkpt><trkpt lat="43.20506680929412" lon="12.147355119383498"><ele>503.33333333333337</ele><time>2026-05-02T17:54:47Z</time></trkpt><trkpt lat="43.20505119037083" lon="12.14722764400808"><ele>504.0</ele><time>2026-05-02T17:54:48Z</time></trkpt><trkpt lat="43.20503907618627" lon="12.147101901055871"><ele>504.66666666666663</ele><time>2026-05-02T17:54:49Z</time></trkpt><trkpt lat="43.2050069945311" lon="12.147003301893507"><ele>505.3333333333333</ele><time>2026-05-02T17:54:50Z</time></trkpt><trkpt lat="43.204950294532" lon="12.14691388106987"><ele>506.0</ele><time>2026-05-02T17:54:51Z</time></trkpt><trkpt lat="43.20488259467196" lon="12.146824856615671"><ele>507.4</ele><time>2026-05-02T17:54:52Z</time></trkpt><trkpt lat="43.2048168278052" lon="12.146737880014735"><ele>508.8</ele><time>2026-05-02T17:54:53Z</time></trkpt><trkpt lat="43.204749420366696" lon="12.146629173943351"><ele>510.19999999999993</ele><time>2026-05-02T17:54:54Z</time></trkpt><trkpt lat="43.20469056660257" lon="12.146521096963399"><ele>511.59999999999997</ele><time>2026-05-02T17:54:55Z</time></trkpt><trkpt lat="43.2046290708768" lon="12.146409866637354"><ele>513.0</ele><time>2026-05-02T17:54:56Z</time></trkpt><trkpt lat="43.20456253448323" lon="12.146292862044238"><ele>513.1999999999999</ele><time>2026-05-02T17:54:57Z</time></trkpt><trkpt lat="43.204486725736096" lon="12.146163787921399"><ele>513.4</ele><time>2026-05-02T17:54:58Z</time></trkpt><trkpt lat="43.204426360215166" lon="12.146069633601355"><ele>513.5999999999999</ele><time>2026-05-02T17:54:59Z</time></trkpt><trkpt lat="43.20438167366465" lon="12.145992024252713"><ele>513.8</ele><time>2026-05-02T17:55:00Z</time></trkpt><trkpt lat="43.204344213740505" lon="12.145916386718653"><ele>514.0</ele><time>2026-05-02T17:55:01Z</time></trkpt><trkpt lat="43.2044511258178" lon="12.14567999981405"><ele>514.0</ele><time>2026-05-02T17:55:02Z</time></trkpt><trkpt lat="43.2044130893261" lon="12.145577542275348"><ele>514.0</ele><time>2026-05-02T17:55:04Z</time></trkpt><trkpt lat="43.204352943954596" lon="12.145617243914872"><ele>514.0</ele><time>2026-05-02T17:55:05Z</time></trkpt><trkpt lat="43.20415557090324" lon="12.145631281465533"><ele>514.0</ele><time>2026-05-02T17:55:09Z</time></trkpt><trkpt lat="43.20408116765501" lon="12.145734380799498"><ele>515.6666666666667</ele><time>2026-05-02T17:55:11Z</time></trkpt><trkpt lat="43.20398474881268" lon="12.145841286782325"><ele>517.3333333333334</ele><time>2026-05-02T17:55:13Z</time></trkpt><trkpt lat="43.203932410665814" lon="12.145920084581276"><ele>519.0</ele><time>2026-05-02T17:55:14Z</time></trkpt><trkpt lat="43.203883891683176" lon="12.145998603196883"><ele>520.6666666666666</ele><time>2026-05-02T17:55:15Z</time></trkpt><trkpt lat="43.20385121177003" lon="12.146092833289337"><ele>522.3333333333333</ele><time>2026-05-02T17:55:16Z</time></trkpt><trkpt lat="43.20381269918012" lon="12.14616398021751"><ele>524.0</ele><time>2026-05-02T17:55:17Z</time></trkpt><trkpt lat="43.20377332511057" lon="12.146246396023718"><ele>524.0</ele><time>2026-05-02T17:55:18Z</time></trkpt><trkpt lat="43.2037340317125" lon="12.146337392011246"><ele>524.0</ele><time>2026-05-02T17:55:19Z</time></trkpt><trkpt lat="43.20370456805928" lon="12.146432756399198"><ele>524.0</ele><time>2026-05-02T17:55:20Z</time></trkpt><trkpt lat="43.2036805700743" lon="12.146533677795222"><ele>524.0</ele><time>2026-05-02T17:55:21Z</time></trkpt><trkpt lat="43.20365807430079" lon="12.146636325365622"><ele>524.0</ele><time>2026-05-02T17:55:22Z</time></trkpt><trkpt lat="43.20363000327369" lon="12.146739060018966"><ele>524.0</ele><time>2026-05-02T17:55:23Z</time></trkpt><trkpt lat="43.20357151292024" lon="12.14688338175401"><ele>524.0</ele><time>2026-05-02T17:55:25Z</time></trkpt><trkpt lat="43.20351535520629" lon="12.146996469200127"><ele>524.0</ele><time>2026-05-02T17:55:27Z</time></trkpt><trkpt lat="43.20342741324131" lon="12.147058239058563"><ele>524.0</ele><time>2026-05-02T17:55:29Z</time></trkpt><trkpt lat="43.20336687987019" lon="12.147103961179955"><ele>524.0</ele><time>2026-05-02T17:55:31Z</time></trkpt><trkpt lat="43.20328994769369" lon="12.14712717716322"><ele>524.0</ele><time>2026-05-02T17:55:33Z</time></trkpt><trkpt lat="43.20322264164342" lon="12.14715253292785"><ele>524.0</ele><time>2026-05-02T17:55:37Z</time></trkpt><trkpt lat="43.20316235599086" lon="12.147190390448925"><ele>524.0</ele><time>2026-05-02T17:56:38Z</time></trkpt><trkpt lat="43.20307161608925" lon="12.147217503423338"><ele>524.0</ele><time>2026-05-02T17:57:19Z</time></trkpt><trkpt lat="43.20299078394768" lon="12.147271868558068"><ele>524.0</ele><time>2026-05-02T17:57:20Z</time></trkpt><trkpt lat="43.20292584113992" lon="12.147330943041869"><ele>524.0</ele><time>2026-05-02T17:57:21Z</time></trkpt><trkpt lat="43.20287535994472" lon="12.147390411539028"><ele>524.0</ele><time>2026-05-02T17:57:22Z</time></trkpt><trkpt lat="43.20279448771891" lon="12.147501739981921"><ele>524.0</ele><time>2026-05-02T17:57:24Z</time></trkpt><trkpt lat="43.20274506973407" lon="12.147579231986578"><ele>524.5</ele><time>2026-05-02T17:57:25Z</time></trkpt><trkpt lat="43.202701231400845" lon="12.147649213784133"><ele>525.0</ele><time>2026-05-02T17:57:26Z</time></trkpt><trkpt lat="43.202661017702845" lon="12.14771892642647"><ele>525.5</ele><time>2026-05-02T17:57:27Z</time></trkpt><trkpt lat="43.202618413608306" lon="12.147792782684991"><ele>526.0</ele><time>2026-05-02T17:57:28Z</time></trkpt><trkpt lat="43.20254664958188" lon="12.147915884647123"><ele>526.5</ele><time>2026-05-02T17:57:30Z</time></trkpt><trkpt lat="43.20250348459942" lon="12.14798840194479"><ele>527.0</ele><time>2026-05-02T17:57:31Z</time></trkpt><trkpt lat="43.202456174979496" lon="12.148067882050219"><ele>527.0000000000001</ele><time>2026-05-02T17:57:32Z</time></trkpt><trkpt lat="43.20242570215033" lon="12.148153754132045"><ele>527.0</ele><time>2026-05-02T17:57:33Z</time></trkpt><trkpt lat="43.20237779530251" lon="12.148221482315462"><ele>527.0</ele><time>2026-05-02T17:57:34Z</time></trkpt><trkpt lat="43.20232026821843" lon="12.14828988188539"><ele>527.0</ele><time>2026-05-02T17:57:35Z</time></trkpt><trkpt lat="43.202288139777174" lon="12.148366069131887"><ele>527.0</ele><time>2026-05-02T17:57:36Z</time></trkpt><trkpt lat="43.20224045601234" lon="12.148444691434655"><ele>527.0000000000001</ele><time>2026-05-02T17:57:37Z</time></trkpt><trkpt lat="43.202193154496236" lon="12.148519598059274"><ele>527.0</ele><time>2026-05-02T17:57:38Z</time></trkpt><trkpt lat="43.2021383961914" lon="12.148598926601982"><ele>527.4285714285714</ele><time>2026-05-02T17:57:39Z</time></trkpt><trkpt lat="43.2020888242925" lon="12.148676985661517"><ele>527.8571428571429</ele><time>2026-05-02T17:57:40Z</time></trkpt><trkpt lat="43.20203586273391" lon="12.148750412820938"><ele>528.2857142857142</ele><time>2026-05-02T17:57:41Z</time></trkpt><trkpt lat="43.20198118016445" lon="12.148830049546524"><ele>528.7142857142858</ele><time>2026-05-02T17:57:42Z</time></trkpt><trkpt lat="43.20193325996598" lon="12.148892159381631"><ele>529.1428571428571</ele><time>2026-05-02T17:57:43Z</time></trkpt><trkpt lat="43.20186803070791" lon="12.148945364036331"><ele>529.5714285714286</ele><time>2026-05-02T17:57:44Z</time></trkpt><trkpt lat="43.20181808008894" lon="12.149011882733932"><ele>530.0</ele><time>2026-05-02T17:57:45Z</time></trkpt><trkpt lat="43.20175750163071" lon="12.149127044358385"><ele>532.0</ele><time>2026-05-02T17:57:47Z</time></trkpt><trkpt lat="43.20171039705448" lon="12.14923634138083"><ele>534.0</ele><time>2026-05-02T17:57:49Z</time></trkpt><trkpt lat="43.20166056657464" lon="12.149370704217795"><ele>536.0</ele><time>2026-05-02T17:57:51Z</time></trkpt><trkpt lat="43.201636116732864" lon="12.149452594186211"><ele>538.0</ele><time>2026-05-02T17:57:52Z</time></trkpt><trkpt lat="43.201615581808824" lon="12.149548222239213"><ele>540.0</ele><time>2026-05-02T17:57:53Z</time></trkpt><trkpt lat="43.20157772052595" lon="12.14964795027333"><ele>542.0</ele><time>2026-05-02T17:57:54Z</time></trkpt><trkpt lat="43.20155832595981" lon="12.149750227510966"><ele>542.0</ele><time>2026-05-02T17:57:55Z</time></trkpt><trkpt lat="43.20154332240252" lon="12.149847365663522"><ele>542.0</ele><time>2026-05-02T17:57:56Z</time></trkpt><trkpt lat="43.20153055553873" lon="12.149939173025924"><ele>542.0</ele><time>2026-05-02T17:57:57Z</time></trkpt><trkpt lat="43.201517674711724" lon="12.150039787787053"><ele>542.0</ele><time>2026-05-02T17:57:58Z</time></trkpt><trkpt lat="43.20151055617048" lon="12.150146469727352"><ele>542.0</ele><time>2026-05-02T17:57:59Z</time></trkpt><trkpt lat="43.20150320134881" lon="12.150248258547483"><ele>542.0</ele><time>2026-05-02T17:58:00Z</time></trkpt><trkpt lat="43.20149459112733" lon="12.150338684327282"><ele>542.0</ele><time>2026-05-02T17:58:01Z</time></trkpt><trkpt lat="43.2014807773114" lon="12.150448506207674"><ele>540.5</ele><time>2026-05-02T17:58:02Z</time></trkpt><trkpt lat="43.20146180711823" lon="12.150566171765188"><ele>539.0</ele><time>2026-05-02T17:58:03Z</time></trkpt><trkpt lat="43.2014433323303" lon="12.150676841203301"><ele>537.5</ele><time>2026-05-02T17:58:04Z</time></trkpt><trkpt lat="43.201422942575796" lon="12.150769990508003"><ele>536.0</ele><time>2026-05-02T17:58:05Z</time></trkpt><trkpt lat="43.20139500724683" lon="12.150856326219944"><ele>534.5</ele><time>2026-05-02T17:58:06Z</time></trkpt><trkpt lat="43.20132859629684" lon="12.150980316586748"><ele>533.0</ele><time>2026-05-02T17:58:08Z</time></trkpt><trkpt lat="43.20134756959191" lon="12.151109019243073"><ele>533.0</ele><time>2026-05-02T17:58:09Z</time></trkpt><trkpt lat="43.20130537966244" lon="12.151194245830862"><ele>533.0</ele><time>2026-05-02T17:58:10Z</time></trkpt><trkpt lat="43.20126568456024" lon="12.151282052424513"><ele>533.0</ele><time>2026-05-02T17:58:11Z</time></trkpt><trkpt lat="43.20122691188328" lon="12.151372534060547"><ele>533.0</ele><time>2026-05-02T17:58:12Z</time></trkpt><trkpt lat="43.20118582217633" lon="12.151483049043255"><ele>533.0</ele><time>2026-05-02T17:58:13Z</time></trkpt><trkpt lat="43.2011340943685" lon="12.15161190930103"><ele>533.0</ele><time>2026-05-02T17:58:14Z</time></trkpt><trkpt lat="43.20106837717746" lon="12.15174783752989"><ele>536.0</ele><time>2026-05-02T17:58:15Z</time></trkpt><trkpt lat="43.201003644732545" lon="12.151878318223577"><ele>539.0</ele><time>2026-05-02T17:58:16Z</time></trkpt><trkpt lat="43.200949271897336" lon="12.151969345787872"><ele>542.0</ele><time>2026-05-02T17:58:17Z</time></trkpt><trkpt lat="43.2009101438322" lon="12.152071980145546"><ele>545.0</ele><time>2026-05-02T17:58:18Z</time></trkpt><trkpt lat="43.20087386229599" lon="12.152178297489883"><ele>548.0</ele><time>2026-05-02T17:58:19Z</time></trkpt><trkpt lat="43.200842865263546" lon="12.152279851508794"><ele>550.1666666666666</ele><time>2026-05-02T17:58:20Z</time></trkpt><trkpt lat="43.20082626752026" lon="12.152378757915567"><ele>552.3333333333333</ele><time>2026-05-02T17:58:21Z</time></trkpt><trkpt lat="43.20082597042521" lon="12.152472136893177"><ele>554.5</ele><time>2026-05-02T17:58:22Z</time></trkpt><trkpt lat="43.20083394297284" lon="12.15258727946555"><ele>556.6666666666666</ele><time>2026-05-02T17:58:23Z</time></trkpt><trkpt lat="43.20085111181515" lon="12.152690180711776"><ele>558.8333333333334</ele><time>2026-05-02T17:58:24Z</time></trkpt><trkpt lat="43.20088067719708" lon="12.152794749177247"><ele>561.0</ele><time>2026-05-02T17:58:25Z</time></trkpt><trkpt lat="43.20091654733936" lon="12.152903451486779"><ele>561.0</ele><time>2026-05-02T17:58:26Z</time></trkpt><trkpt lat="43.200946767973456" lon="12.153028763986596"><ele>561.0</ele><time>2026-05-02T17:58:27Z</time></trkpt><trkpt lat="43.20100183030367" lon="12.153156209599052"><ele>561.0</ele><time>2026-05-02T17:58:28Z</time></trkpt><trkpt lat="43.20103294141587" lon="12.153293622739177"><ele>561.0</ele><time>2026-05-02T17:58:29Z</time></trkpt><trkpt lat="43.20104990553524" lon="12.153439487603478"><ele>561.0</ele><time>2026-05-02T17:58:30Z</time></trkpt><trkpt lat="43.20103914932437" lon="12.153603335768047"><ele>562.0</ele><time>2026-05-02T17:58:31Z</time></trkpt><trkpt lat="43.20103914932429" lon="12.153730893487145"><ele>563.0</ele><time>2026-05-02T17:58:32Z</time></trkpt><trkpt lat="43.20105414309277" lon="12.153847170509707"><ele>564.0</ele><time>2026-05-02T17:58:33Z</time></trkpt><trkpt lat="43.201054200815086" lon="12.153944519909006"><ele>565.0</ele><time>2026-05-02T17:58:34Z</time></trkpt><trkpt lat="43.20106147093121" lon="12.154039814240779"><ele>566.0</ele><time>2026-05-02T17:58:35Z</time></trkpt><trkpt lat="43.201071047756386" lon="12.154149516596611"><ele>567.0</ele><time>2026-05-02T17:58:36Z</time></trkpt><trkpt lat="43.20107280413683" lon="12.154250375737076"><ele>567.0</ele><time>2026-05-02T17:58:37Z</time></trkpt><trkpt lat="43.20109195794208" lon="12.154362314747962"><ele>567.0</ele><time>2026-05-02T17:58:38Z</time></trkpt><trkpt lat="43.20112035871799" lon="12.154479367493154"><ele>567.0</ele><time>2026-05-02T17:58:39Z</time></trkpt><trkpt lat="43.20114449938745" lon="12.154568219760892"><ele>567.0</ele><time>2026-05-02T17:58:40Z</time></trkpt><trkpt lat="43.201174159615185" lon="12.154645147763562"><ele>567.0</ele><time>2026-05-02T17:58:41Z</time></trkpt><trkpt lat="43.20123695922537" lon="12.15476978558304"><ele>567.0</ele><time>2026-05-02T17:58:43Z</time></trkpt><trkpt lat="43.20130011519092" lon="12.154798285950124"><ele>567.0</ele><time>2026-05-02T17:58:44Z</time></trkpt><trkpt lat="43.20134479531858" lon="12.154863212214007"><ele>567.0</ele><time>2026-05-02T17:58:45Z</time></trkpt><trkpt lat="43.20140108933658" lon="12.154917087034196"><ele>567.0</ele><time>2026-05-02T17:58:46Z</time></trkpt><trkpt lat="43.201453238456025" lon="12.154966995139711"><ele>567.0</ele><time>2026-05-02T17:58:47Z</time></trkpt><trkpt lat="43.20152401563693" lon="12.155012707933185"><ele>567.0</ele><time>2026-05-02T17:58:48Z</time></trkpt><trkpt lat="43.2015964078687" lon="12.155144108181016"><ele>567.0</ele><time>2026-05-02T17:58:50Z</time></trkpt><trkpt lat="43.2016464977542" lon="12.155231561382942"><ele>566.4285714285714</ele><time>2026-05-02T17:58:51Z</time></trkpt><trkpt lat="43.20168893617522" lon="12.155325536238912"><ele>565.8571428571429</ele><time>2026-05-02T17:58:52Z</time></trkpt><trkpt lat="43.20172902855554" lon="12.15542861668684"><ele>565.2857142857142</ele><time>2026-05-02T17:58:53Z</time></trkpt><trkpt lat="43.201763791273635" lon="12.155520233032723"><ele>564.7142857142858</ele><time>2026-05-02T17:58:54Z</time></trkpt><trkpt lat="43.20180118531326" lon="12.15560757839974"><ele>564.1428571428571</ele><time>2026-05-02T17:58:55Z</time></trkpt><trkpt lat="43.2018344300773" lon="12.155690401818395"><ele>563.5714285714286</ele><time>2026-05-02T17:58:56Z</time></trkpt><trkpt lat="43.20186382862674" lon="12.155770779358239"><ele>563.0</ele><time>2026-05-02T17:58:57Z</time></trkpt><trkpt lat="43.20191092376892" lon="12.155912885663499"><ele>563.0</ele><time>2026-05-02T17:58:59Z</time></trkpt><trkpt lat="43.20199905056998" lon="12.155993890667293"><ele>563.0</ele><time>2026-05-02T17:59:01Z</time></trkpt><trkpt lat="43.20210626919005" lon="12.15605893488964"><ele>563.0</ele><time>2026-05-02T17:59:03Z</time></trkpt><trkpt lat="43.20219831034166" lon="12.156146715209912"><ele>563.0</ele><time>2026-05-02T17:59:05Z</time></trkpt><trkpt lat="43.202298791784735" lon="12.156217465440498"><ele>563.0</ele><time>2026-05-02T17:59:07Z</time></trkpt><trkpt lat="43.20235504057998" lon="12.156257070927516"><ele>562.1666666666666</ele><time>2026-05-02T17:59:08Z</time></trkpt><trkpt lat="43.20245997949319" lon="12.15633129299232"><ele>561.3333333333333</ele><time>2026-05-02T17:59:10Z</time></trkpt><trkpt lat="43.202564827611575" lon="12.156405723093865"><ele>560.5</ele><time>2026-05-02T17:59:12Z</time></trkpt><trkpt lat="43.202631814087056" lon="12.156463959973788"><ele>559.6666666666666</ele><time>2026-05-02T17:59:14Z</time></trkpt><trkpt lat="43.20267931967114" lon="12.156524549447656"><ele>558.8333333333334</ele><time>2026-05-02T17:59:16Z</time></trkpt><trkpt lat="43.20269202451524" lon="12.156610665988023"><ele>558.0</ele><time>2026-05-02T17:59:18Z</time></trkpt><trkpt lat="43.20265060675093" lon="12.156711019575951"><ele>556.8333333333334</ele><time>2026-05-02T17:59:20Z</time></trkpt><trkpt lat="43.20258987935707" lon="12.15682471084132"><ele>555.6666666666666</ele><time>2026-05-02T17:59:22Z</time></trkpt><trkpt lat="43.20253169391848" lon="12.15686387925809"><ele>554.5</ele><time>2026-05-02T17:59:23Z</time></trkpt><trkpt lat="43.20246723726325" lon="12.156885175842874"><ele>553.3333333333333</ele><time>2026-05-02T17:59:24Z</time></trkpt><trkpt lat="43.202407305274335" lon="12.156941099604012"><ele>552.1666666666666</ele><time>2026-05-02T17:59:25Z</time></trkpt><trkpt lat="43.202314169698866" lon="12.157039991274026"><ele>551.0</ele><time>2026-05-02T17:59:27Z</time></trkpt><trkpt lat="43.20225193084935" lon="12.157136184673199"><ele>551.0</ele><time>2026-05-02T17:59:29Z</time></trkpt><trkpt lat="43.20226620938616" lon="12.157287714896151"><ele>551.0</ele><time>2026-05-02T17:59:31Z</time></trkpt><trkpt lat="43.202328310037366" lon="12.157434118290011"><ele>551.0</ele><time>2026-05-02T17:59:33Z</time></trkpt><trkpt lat="43.202368543533304" lon="12.157535236927226"><ele>551.0</ele><time>2026-05-02T17:59:34Z</time></trkpt><trkpt lat="43.20239399985859" lon="12.15765793140947"><ele>551.0</ele><time>2026-05-02T17:59:35Z</time></trkpt><trkpt lat="43.20243134740946" lon="12.15776715701698"><ele>549.3333333333333</ele><time>2026-05-02T17:59:36Z</time></trkpt><trkpt lat="43.202463614283865" lon="12.157861523708174"><ele>547.6666666666666</ele><time>2026-05-02T17:59:37Z</time></trkpt><trkpt lat="43.20249504537413" lon="12.15795885573478"><ele>546.0</ele><time>2026-05-02T17:59:38Z</time></trkpt><trkpt lat="43.20253791310476" lon="12.15806267106154"><ele>544.3333333333334</ele><time>2026-05-02T17:59:39Z</time></trkpt><trkpt lat="43.20257282264977" lon="12.158149383154122"><ele>542.6666666666667</ele><time>2026-05-02T17:59:40Z</time></trkpt><trkpt lat="43.202610846642216" lon="12.158243410259068"><ele>541.0</ele><time>2026-05-02T17:59:41Z</time></trkpt><trkpt lat="43.20264488021514" lon="12.158336217909651"><ele>540.1666666666667</ele><time>2026-05-02T17:59:42Z</time></trkpt><trkpt lat="43.20269498549458" lon="12.158432734424832"><ele>539.3333333333334</ele><time>2026-05-02T17:59:43Z</time></trkpt><trkpt lat="43.2027380575927" lon="12.158520411476086"><ele>538.5</ele><time>2026-05-02T17:59:44Z</time></trkpt><trkpt lat="43.20277105735033" lon="12.158608134426396"><ele>537.6666666666666</ele><time>2026-05-02T17:59:45Z</time></trkpt><trkpt lat="43.20279779412838" lon="12.15869444010505"><ele>536.8333333333333</ele><time>2026-05-02T17:59:46Z</time></trkpt><trkpt lat="43.20280439812847" lon="12.158808543916779"><ele>536.0</ele><time>2026-05-02T17:59:47Z</time></trkpt><trkpt lat="43.20282496695226" lon="12.158915630086481"><ele>534.6</ele><time>2026-05-02T17:59:48Z</time></trkpt><trkpt lat="43.2028254701971" lon="12.159045791980118"><ele>533.2</ele><time>2026-05-02T17:59:49Z</time></trkpt><trkpt lat="43.20280901117478" lon="12.159171981264766"><ele>531.8</ele><time>2026-05-02T17:59:50Z</time></trkpt><trkpt lat="43.20279142143082" lon="12.159311914907995"><ele>530.4</ele><time>2026-05-02T17:59:51Z</time></trkpt><trkpt lat="43.202764270245034" lon="12.159450731717213"><ele>529.0</ele><time>2026-05-02T17:59:52Z</time></trkpt><trkpt lat="43.202733070680985" lon="12.159579409644458"><ele>529.0</ele><time>2026-05-02T17:59:53Z</time></trkpt><trkpt lat="43.20269790396974" lon="12.15970843456874"><ele>529.0</ele><time>2026-05-02T17:59:54Z</time></trkpt><trkpt lat="43.20266106172576" lon="12.159836850386846"><ele>529.0</ele><time>2026-05-02T17:59:55Z</time></trkpt><trkpt lat="43.20262027983329" lon="12.159963508804488"><ele>529.0</ele><time>2026-05-02T17:59:56Z</time></trkpt><trkpt lat="43.20257397058003" lon="12.160099488409175"><ele>529.0</ele><time>2026-05-02T17:59:57Z</time></trkpt><trkpt lat="43.20251620668383" lon="12.160221385157906"><ele>528.8</ele><time>2026-05-02T17:59:58Z</time></trkpt><trkpt lat="43.20245487301849" lon="12.160347954809467"><ele>528.5999999999999</ele><time>2026-05-02T17:59:59Z</time></trkpt><trkpt lat="43.202389297878184" lon="12.160471248337696"><ele>528.4</ele><time>2026-05-02T18:00:00Z</time></trkpt><trkpt lat="43.20232408122765" lon="12.160569122912273"><ele>528.1999999999999</ele><time>2026-05-02T18:00:01Z</time></trkpt><trkpt lat="43.202256240260354" lon="12.160665154579213"><ele>528.0</ele><time>2026-05-02T18:00:02Z</time></trkpt><trkpt lat="43.20218435491693" lon="12.160770387143659"><ele>528.6</ele><time>2026-05-02T18:00:03Z</time></trkpt><trkpt lat="43.20210511114694" lon="12.160872488032114"><ele>529.1999999999999</ele><time>2026-05-02T18:00:04Z</time></trkpt><trkpt lat="43.202023831764166" lon="12.160971284858952"><ele>529.8</ele><time>2026-05-02T18:00:05Z</time></trkpt><trkpt lat="43.20193884751685" lon="12.161062705306822"><ele>530.4</ele><time>2026-05-02T18:00:06Z</time></trkpt><trkpt lat="43.201849142910156" lon="12.161152331718023"><ele>531.0</ele><time>2026-05-02T18:00:07Z</time></trkpt><trkpt lat="43.20176089711495" lon="12.16122606426059"><ele>531.0</ele><time>2026-05-02T18:00:08Z</time></trkpt><trkpt lat="43.20168076927624" lon="12.161295801235717"><ele>531.0</ele><time>2026-05-02T18:00:09Z</time></trkpt><trkpt lat="43.20160292023118" lon="12.161367712381436"><ele>531.0</ele><time>2026-05-02T18:00:10Z</time></trkpt><trkpt lat="43.20152616431536" lon="12.161429833693001"><ele>531.0</ele><time>2026-05-02T18:00:11Z</time></trkpt><trkpt lat="43.20145299187365" lon="12.161501025616667"><ele>531.0</ele><time>2026-05-02T18:00:12Z</time></trkpt><trkpt lat="43.20137828339481" lon="12.161589235894539"><ele>531.1666666666666</ele><time>2026-05-02T18:00:13Z</time></trkpt><trkpt lat="43.201316707628976" lon="12.16166986367914"><ele>531.3333333333334</ele><time>2026-05-02T18:00:14Z</time></trkpt><trkpt lat="43.201253855517955" lon="12.161752712492392"><ele>531.5</ele><time>2026-05-02T18:00:15Z</time></trkpt><trkpt lat="43.20119095815956" lon="12.161839235761015"><ele>531.6666666666667</ele><time>2026-05-02T18:00:16Z</time></trkpt><trkpt lat="43.201132898876274" lon="12.161909689039936"><ele>531.8333333333334</ele><time>2026-05-02T18:00:17Z</time></trkpt><trkpt lat="43.201082412789276" lon="12.161987788878195"><ele>532.0</ele><time>2026-05-02T18:00:18Z</time></trkpt><trkpt lat="43.20102710089243" lon="12.162070387625878"><ele>532.0</ele><time>2026-05-02T18:00:19Z</time></trkpt><trkpt lat="43.20097070095932" lon="12.162140275857894"><ele>532.0</ele><time>2026-05-02T18:00:20Z</time></trkpt><trkpt lat="43.200898898199824" lon="12.162232530472973"><ele>532.0</ele><time>2026-05-02T18:00:21Z</time></trkpt><trkpt lat="43.2008349542907" lon="12.162312715318016"><ele>532.0</ele><time>2026-05-02T18:00:22Z</time></trkpt><trkpt lat="43.20076788857402" lon="12.162409670654004"><ele>532.0</ele><time>2026-05-02T18:00:23Z</time></trkpt><trkpt lat="43.20070509924114" lon="12.162487847233121"><ele>532.0</ele><time>2026-05-02T18:00:24Z</time></trkpt><trkpt lat="43.20064503312353" lon="12.162565628113496"><ele>532.0</ele><time>2026-05-02T18:00:25Z</time></trkpt><trkpt lat="43.2005797716656" lon="12.16264487982526"><ele>532.0</ele><time>2026-05-02T18:00:26Z</time></trkpt><trkpt lat="43.200526171763904" lon="12.162715334278216"><ele>532.0</ele><time>2026-05-02T18:00:27Z</time></trkpt><trkpt lat="43.20046063970365" lon="12.162788390165376"><ele>532.0</ele><time>2026-05-02T18:00:28Z</time></trkpt><trkpt lat="43.200410537700535" lon="12.162856082316436"><ele>532.0</ele><time>2026-05-02T18:00:29Z</time></trkpt><trkpt lat="43.200352708806854" lon="12.162932742226857"><ele>532.0</ele><time>2026-05-02T18:00:30Z</time></trkpt><trkpt lat="43.20030013452414" lon="12.163021703529045"><ele>532.0</ele><time>2026-05-02T18:00:31Z</time></trkpt><trkpt lat="43.20026914183154" lon="12.163108738497757"><ele>532.0</ele><time>2026-05-02T18:00:32Z</time></trkpt><trkpt lat="43.200254715355996" lon="12.163200138985248"><ele>532.0</ele><time>2026-05-02T18:00:33Z</time></trkpt><trkpt lat="43.200249258808306" lon="12.16330335505807"><ele>532.0</ele><time>2026-05-02T18:00:34Z</time></trkpt><trkpt lat="43.2002462190472" lon="12.163422355247649"><ele>532.0</ele><time>2026-05-02T18:00:35Z</time></trkpt><trkpt lat="43.2002475796802" lon="12.163539493658412"><ele>532.0</ele><time>2026-05-02T18:00:36Z</time></trkpt><trkpt lat="43.20024817280785" lon="12.163681937481009"><ele>534.6</ele><time>2026-05-02T18:00:37Z</time></trkpt><trkpt lat="43.200253633138416" lon="12.163800542648486"><ele>537.2</ele><time>2026-05-02T18:00:38Z</time></trkpt><trkpt lat="43.20026840965006" lon="12.163895770988058"><ele>539.8</ele><time>2026-05-02T18:00:39Z</time></trkpt><trkpt lat="43.20028097273686" lon="12.164029013845461"><ele>542.4</ele><time>2026-05-02T18:00:40Z</time></trkpt><trkpt lat="43.20030378887075" lon="12.164158717993487"><ele>545.0</ele><time>2026-05-02T18:00:41Z</time></trkpt><trkpt lat="43.20032691881189" lon="12.164287645510578"><ele>545.3333333333333</ele><time>2026-05-02T18:00:42Z</time></trkpt><trkpt lat="43.200348830122806" lon="12.164398007290512"><ele>545.6666666666666</ele><time>2026-05-02T18:00:43Z</time></trkpt><trkpt lat="43.20038884497898" lon="12.164496510746382"><ele>546.0</ele><time>2026-05-02T18:00:44Z</time></trkpt><trkpt lat="43.20040991032244" lon="12.164625879112602"><ele>546.3333333333334</ele><time>2026-05-02T18:00:45Z</time></trkpt><trkpt lat="43.20044185603765" lon="12.164741392697382"><ele>546.6666666666667</ele><time>2026-05-02T18:00:46Z</time></trkpt><trkpt lat="43.2004669683566" lon="12.164863365234103"><ele>547.0</ele><time>2026-05-02T18:00:47Z</time></trkpt><trkpt lat="43.200484557321325" lon="12.164982421794669"><ele>548.2</ele><time>2026-05-02T18:00:48Z</time></trkpt><trkpt lat="43.20048924015787" lon="12.165095192435698"><ele>549.4000000000001</ele><time>2026-05-02T18:00:49Z</time></trkpt><trkpt lat="43.20048695582207" lon="12.16521772058172"><ele>550.5999999999999</ele><time>2026-05-02T18:00:50Z</time></trkpt><trkpt lat="43.2004838440412" lon="12.165344756453939"><ele>551.8</ele><time>2026-05-02T18:00:51Z</time></trkpt><trkpt lat="43.20044781125487" lon="12.165463056060839"><ele>553.0</ele><time>2026-05-02T18:00:52Z</time></trkpt><trkpt lat="43.20040226546579" lon="12.165585392105857"><ele>554.4</ele><time>2026-05-02T18:00:53Z</time></trkpt><trkpt lat="43.20036405812332" lon="12.165706240969943"><ele>555.8</ele><time>2026-05-02T18:00:54Z</time></trkpt><trkpt lat="43.20031157912687" lon="12.16580859589419"><ele>557.2</ele><time>2026-05-02T18:00:55Z</time></trkpt><trkpt lat="43.20027676962639" lon="12.165913665909969"><ele>558.6</ele><time>2026-05-02T18:00:56Z</time></trkpt><trkpt lat="43.20024547385516" lon="12.166040680138185"><ele>560.0</ele><time>2026-05-02T18:00:57Z</time></trkpt><trkpt lat="43.20022494327812" lon="12.166172914931009"><ele>560.0</ele><time>2026-05-02T18:00:58Z</time></trkpt><trkpt lat="43.200238474286216" lon="12.166302705821805"><ele>560.0</ele><time>2026-05-02T18:00:59Z</time></trkpt><trkpt lat="43.20024857644197" lon="12.166409858993516"><ele>560.0</ele><time>2026-05-02T18:01:00Z</time></trkpt><trkpt lat="43.20025355283762" lon="12.166538590362865"><ele>560.0</ele><time>2026-05-02T18:01:01Z</time></trkpt><trkpt lat="43.20027593053935" lon="12.16667272965436"><ele>560.0</ele><time>2026-05-02T18:01:02Z</time></trkpt><trkpt lat="43.20030165396038" lon="12.16680585510916"><ele>561.4</ele><time>2026-05-02T18:01:03Z</time></trkpt><trkpt lat="43.200328798938955" lon="12.16693962303606"><ele>562.8</ele><time>2026-05-02T18:01:04Z</time></trkpt><trkpt lat="43.20035614599976" lon="12.16707040429928"><ele>564.2</ele><time>2026-05-02T18:01:05Z</time></trkpt><trkpt lat="43.20038338723566" lon="12.1672001765926"><ele>565.6</ele><time>2026-05-02T18:01:06Z</time></trkpt><trkpt lat="43.20041259644919" lon="12.167329844275228"><ele>567.0</ele><time>2026-05-02T18:01:07Z</time></trkpt><trkpt lat="43.20044225502166" lon="12.167457704593863"><ele>568.0</ele><time>2026-05-02T18:01:08Z</time></trkpt><trkpt lat="43.200492484980295" lon="12.167580745080565"><ele>569.0</ele><time>2026-05-02T18:01:09Z</time></trkpt><trkpt lat="43.200525139123286" lon="12.167700294482941"><ele>570.0</ele><time>2026-05-02T18:01:10Z</time></trkpt><trkpt lat="43.20055717185689" lon="12.167817661990705"><ele>571.0</ele><time>2026-05-02T18:01:11Z</time></trkpt><trkpt lat="43.20060524519942" lon="12.167961634388814"><ele>572.0</ele><time>2026-05-02T18:01:12Z</time></trkpt><trkpt lat="43.20066292602764" lon="12.16810695456579"><ele>570.6</ele><time>2026-05-02T18:01:13Z</time></trkpt><trkpt lat="43.200722193580056" lon="12.168239653992796"><ele>569.2</ele><time>2026-05-02T18:01:14Z</time></trkpt><trkpt lat="43.20078473150223" lon="12.168364828945638"><ele>567.8</ele><time>2026-05-02T18:01:15Z</time></trkpt><trkpt lat="43.20084323835515" lon="12.168485988623999"><ele>566.4</ele><time>2026-05-02T18:01:16Z</time></trkpt><trkpt lat="43.20090094952954" lon="12.168627396715936"><ele>565.0</ele><time>2026-05-02T18:01:17Z</time></trkpt><trkpt lat="43.200960172170895" lon="12.168800088767387"><ele>565.0</ele><time>2026-05-02T18:01:18Z</time></trkpt><trkpt lat="43.201008905472754" lon="12.168960296447688"><ele>565.0</ele><time>2026-05-02T18:01:19Z</time></trkpt><trkpt lat="43.20105151833831" lon="12.16909551143241"><ele>565.0</ele><time>2026-05-02T18:01:20Z</time></trkpt><trkpt lat="43.20108795034788" lon="12.169218536990618"><ele>565.0</ele><time>2026-05-02T18:01:21Z</time></trkpt><trkpt lat="43.201110596770874" lon="12.16933453956594"><ele>565.0</ele><time>2026-05-02T18:01:22Z</time></trkpt><trkpt lat="43.20112379460799" lon="12.169452377821784"><ele>565.8</ele><time>2026-05-02T18:01:23Z</time></trkpt><trkpt lat="43.20110165517104" lon="12.16959337427841"><ele>566.6</ele><time>2026-05-02T18:01:24Z</time></trkpt><trkpt lat="43.201079217149086" lon="12.1697425906194"><ele>567.4</ele><time>2026-05-02T18:01:25Z</time></trkpt><trkpt lat="43.201077951100075" lon="12.169888304791865"><ele>568.2</ele><time>2026-05-02T18:01:26Z</time></trkpt><trkpt lat="43.20106461822018" lon="12.170009571702705"><ele>569.0</ele><time>2026-05-02T18:01:27Z</time></trkpt><trkpt lat="43.20106432499739" lon="12.17010631877779"><ele>569.8</ele><time>2026-05-02T18:01:28Z</time></trkpt><trkpt lat="43.20107956472459" lon="12.17019441360233"><ele>570.5999999999999</ele><time>2026-05-02T18:01:29Z</time></trkpt><trkpt lat="43.20112363050485" lon="12.170291153381688"><ele>571.4</ele><time>2026-05-02T18:01:30Z</time></trkpt><trkpt lat="43.20117183091435" lon="12.170391506386062"><ele>572.1999999999999</ele><time>2026-05-02T18:01:31Z</time></trkpt><trkpt lat="43.201242013454085" lon="12.170476265936811"><ele>573.0</ele><time>2026-05-02T18:01:32Z</time></trkpt><trkpt lat="43.201347279747615" lon="12.170553926272849"><ele>573.0</ele><time>2026-05-02T18:01:33Z</time></trkpt><trkpt lat="43.20144333410972" lon="12.170650758198697"><ele>573.0</ele><time>2026-05-02T18:01:34Z</time></trkpt><trkpt lat="43.201521840369026" lon="12.170743172271544"><ele>573.0</ele><time>2026-05-02T18:01:35Z</time></trkpt><trkpt lat="43.201606276688224" lon="12.170822695763995"><ele>573.0</ele><time>2026-05-02T18:01:36Z</time></trkpt><trkpt lat="43.201692520957096" lon="12.170911491956232"><ele>573.0</ele><time>2026-05-02T18:01:37Z</time></trkpt><trkpt lat="43.20177186043522" lon="12.17098736598445"><ele>571.6666666666666</ele><time>2026-05-02T18:01:38Z</time></trkpt><trkpt lat="43.20184901391137" lon="12.171062812260846"><ele>570.3333333333334</ele><time>2026-05-02T18:01:39Z</time></trkpt><trkpt lat="43.201918790483624" lon="12.171129915507844"><ele>569.0</ele><time>2026-05-02T18:01:40Z</time></trkpt><trkpt lat="43.20198817778694" lon="12.171198617517664"><ele>567.6666666666667</ele><time>2026-05-02T18:01:41Z</time></trkpt><trkpt lat="43.20205025274849" lon="12.17126612350104"><ele>566.3333333333334</ele><time>2026-05-02T18:01:42Z</time></trkpt><trkpt lat="43.20211902819968" lon="12.171335134128514"><ele>565.0</ele><time>2026-05-02T18:01:43Z</time></trkpt><trkpt lat="43.202198610887756" lon="12.171418241617433"><ele>565.0</ele><time>2026-05-02T18:01:44Z</time></trkpt><trkpt lat="43.202290412700336" lon="12.171510086445965"><ele>565.0</ele><time>2026-05-02T18:01:45Z</time></trkpt><trkpt lat="43.202368214693124" lon="12.17159042111077"><ele>565.0</ele><time>2026-05-02T18:01:46Z</time></trkpt><trkpt lat="43.202436192889934" lon="12.17165955865662"><ele>565.0</ele><time>2026-05-02T18:01:47Z</time></trkpt><trkpt lat="43.20251295576212" lon="12.171750449693718"><ele>565.0</ele><time>2026-05-02T18:01:48Z</time></trkpt><trkpt lat="43.20257535440925" lon="12.171830763385309"><ele>565.5</ele><time>2026-05-02T18:01:49Z</time></trkpt><trkpt lat="43.202629167243764" lon="12.171924401511083"><ele>566.0</ele><time>2026-05-02T18:01:50Z</time></trkpt><trkpt lat="43.20264862432219" lon="12.172043791442976"><ele>566.5</ele><time>2026-05-02T18:01:51Z</time></trkpt><trkpt lat="43.202673399807345" lon="12.172173245326537"><ele>567.0</ele><time>2026-05-02T18:01:52Z</time></trkpt><trkpt lat="43.20271199738659" lon="12.172264370941576"><ele>567.5</ele><time>2026-05-02T18:01:53Z</time></trkpt><trkpt lat="43.20273890313872" lon="12.172343890554036"><ele>568.0</ele><time>2026-05-02T18:01:54Z</time></trkpt><trkpt lat="43.20276287112399" lon="12.172426701559084"><ele>569.1999999999999</ele><time>2026-05-02T18:01:55Z</time></trkpt><trkpt lat="43.202735029582925" lon="12.172585633437073"><ele>570.4</ele><time>2026-05-02T18:01:57Z</time></trkpt><trkpt lat="43.202683034575536" lon="12.172651210357799"><ele>571.5999999999999</ele><time>2026-05-02T18:01:58Z</time></trkpt><trkpt lat="43.2026029872669" lon="12.172670924442826"><ele>572.8</ele><time>2026-05-02T18:01:59Z</time></trkpt><trkpt lat="43.20252371288422" lon="12.172705849481932"><ele>574.0</ele><time>2026-05-02T18:02:00Z</time></trkpt><trkpt lat="43.20242405149864" lon="12.172744056210302"><ele>576.0</ele><time>2026-05-02T18:02:01Z</time></trkpt><trkpt lat="43.20230060931925" lon="12.172806090552491"><ele>578.0</ele><time>2026-05-02T18:02:02Z</time></trkpt><trkpt lat="43.20218881619051" lon="12.172841131733577"><ele>580.0</ele><time>2026-05-02T18:02:03Z</time></trkpt><trkpt lat="43.202082221996605" lon="12.172873100874165"><ele>582.0</ele><time>2026-05-02T18:02:04Z</time></trkpt><trkpt lat="43.20198599439318" lon="12.172897906052327"><ele>582.0</ele><time>2026-05-02T18:02:05Z</time></trkpt><trkpt lat="43.20188289847246" lon="12.172926561558375"><ele>582.0</ele><time>2026-05-02T18:02:06Z</time></trkpt><trkpt lat="43.20177815839149" lon="12.172972618320559"><ele>582.0</ele><time>2026-05-02T18:02:07Z</time></trkpt><trkpt lat="43.20166866415349" lon="12.172996969251347"><ele>582.0</ele><time>2026-05-02T18:02:08Z</time></trkpt><trkpt lat="43.20156177149816" lon="12.173042353481883"><ele>582.0</ele><time>2026-05-02T18:02:09Z</time></trkpt><trkpt lat="43.20146215541444" lon="12.173109169726331"><ele>581.0</ele><time>2026-05-02T18:02:10Z</time></trkpt><trkpt lat="43.20138141934797" lon="12.173142420089734"><ele>580.0</ele><time>2026-05-02T18:02:11Z</time></trkpt><trkpt lat="43.201294817369885" lon="12.173187110078711"><ele>579.0</ele><time>2026-05-02T18:02:12Z</time></trkpt><trkpt lat="43.201214221787374" lon="12.173228194281826"><ele>578.0</ele><time>2026-05-02T18:02:13Z</time></trkpt><trkpt lat="43.201115889242836" lon="12.173253378277925"><ele>577.0</ele><time>2026-05-02T18:02:14Z</time></trkpt><trkpt lat="43.20102790359665" lon="12.173313253065487"><ele>577.0</ele><time>2026-05-02T18:02:15Z</time></trkpt><trkpt lat="43.200935484771975" lon="12.173359655790149"><ele>577.0</ele><time>2026-05-02T18:02:16Z</time></trkpt><trkpt lat="43.20084011763919" lon="12.17340090496503"><ele>577.0</ele><time>2026-05-02T18:02:17Z</time></trkpt><trkpt lat="43.20076521189309" lon="12.17344515869284"><ele>577.0</ele><time>2026-05-02T18:02:18Z</time></trkpt><trkpt lat="43.20070255998695" lon="12.17348309142796"><ele>577.0</ele><time>2026-05-02T18:02:19Z</time></trkpt><trkpt lat="43.20063893047793" lon="12.173532657356787"><ele>577.0</ele><time>2026-05-02T18:02:20Z</time></trkpt><trkpt lat="43.20056601875903" lon="12.173590992232922"><ele>577.2857142857142</ele><time>2026-05-02T18:02:21Z</time></trkpt><trkpt lat="43.200506845153434" lon="12.173655586211481"><ele>577.5714285714286</ele><time>2026-05-02T18:02:22Z</time></trkpt><trkpt lat="43.20045650123284" lon="12.173728958875014"><ele>577.8571428571429</ele><time>2026-05-02T18:02:23Z</time></trkpt><trkpt lat="43.20041790902431" lon="12.173821441279024"><ele>578.1428571428571</ele><time>2026-05-02T18:02:24Z</time></trkpt><trkpt lat="43.20036762230097" lon="12.173898581697774"><ele>578.4285714285714</ele><time>2026-05-02T18:02:25Z</time></trkpt><trkpt lat="43.200338067555506" lon="12.173992069637693"><ele>578.7142857142857</ele><time>2026-05-02T18:02:26Z</time></trkpt><trkpt lat="43.20030509144368" lon="12.174069228181512"><ele>579.0</ele><time>2026-05-02T18:02:27Z</time></trkpt><trkpt lat="43.200257106252586" lon="12.174140607262133"><ele>577.2857142857142</ele><time>2026-05-02T18:02:28Z</time></trkpt><trkpt lat="43.200170212930225" lon="12.17425638702671"><ele>575.5714285714286</ele><time>2026-05-02T18:02:30Z</time></trkpt><trkpt lat="43.200126913791294" lon="12.17432532392599"><ele>573.8571428571429</ele><time>2026-05-02T18:02:31Z</time></trkpt><trkpt lat="43.200080391125724" lon="12.174385139363716"><ele>572.1428571428571</ele><time>2026-05-02T18:02:32Z</time></trkpt><trkpt lat="43.200031350354" lon="12.174441568619288"><ele>570.4285714285714</ele><time>2026-05-02T18:02:33Z</time></trkpt><trkpt lat="43.199981872306836" lon="12.174497291865121"><ele>568.7142857142857</ele><time>2026-05-02T18:02:34Z</time></trkpt><trkpt lat="43.19993037867029" lon="12.174551179709301"><ele>567.0</ele><time>2026-05-02T18:02:35Z</time></trkpt><trkpt lat="43.199877555342184" lon="12.174610732939403"><ele>564.8000000000001</ele><time>2026-05-02T18:02:36Z</time></trkpt><trkpt lat="43.19978798422861" lon="12.174721496394703"><ele>562.6</ele><time>2026-05-02T18:02:38Z</time></trkpt><trkpt lat="43.19967973757359" lon="12.174818565573553"><ele>560.4000000000001</ele><time>2026-05-02T18:02:40Z</time></trkpt><trkpt lat="43.199625234003236" lon="12.174882274096687"><ele>558.2</ele><time>2026-05-02T18:02:41Z</time></trkpt><trkpt lat="43.19957663443151" lon="12.174939081484672"><ele>556.0</ele><time>2026-05-02T18:02:42Z</time></trkpt><trkpt lat="43.19952072085735" lon="12.175004438208868"><ele>555.4</ele><time>2026-05-02T18:02:43Z</time></trkpt><trkpt lat="43.19947204880207" lon="12.17506324741767"><ele>554.8</ele><time>2026-05-02T18:02:44Z</time></trkpt><trkpt lat="43.199397021468734" lon="12.17517816570323"><ele>554.1999999999999</ele><time>2026-05-02T18:02:46Z</time></trkpt><trkpt lat="43.199335488439445" lon="12.175286459304854"><ele>553.6</ele><time>2026-05-02T18:02:48Z</time></trkpt><trkpt lat="43.19929347360803" lon="12.175397046974192"><ele>553.0</ele><time>2026-05-02T18:02:50Z</time></trkpt><trkpt lat="43.19925423268754" lon="12.175545263809694"><ele>551.3333333333334</ele><time>2026-05-02T18:02:52Z</time></trkpt><trkpt lat="43.19925864079464" lon="12.175693129702838"><ele>549.6666666666667</ele><time>2026-05-02T18:02:54Z</time></trkpt><trkpt lat="43.199251616520286" lon="12.175779601255151"><ele>548.0</ele><time>2026-05-02T18:02:55Z</time></trkpt><trkpt lat="43.1992515140605" lon="12.175881698133505"><ele>546.3333333333334</ele><time>2026-05-02T18:02:56Z</time></trkpt><trkpt lat="43.19925336901083" lon="12.176009340734158"><ele>544.6666666666666</ele><time>2026-05-02T18:02:57Z</time></trkpt><trkpt lat="43.199249132055364" lon="12.176128090943605"><ele>543.0</ele><time>2026-05-02T18:02:58Z</time></trkpt><trkpt lat="43.19924477627137" lon="12.176239232129985"><ele>543.0</ele><time>2026-05-02T18:02:59Z</time></trkpt><trkpt lat="43.19923737122059" lon="12.176361620910953"><ele>543.0</ele><time>2026-05-02T18:03:00Z</time></trkpt><trkpt lat="43.19922645716904" lon="12.176478971544535"><ele>543.0</ele><time>2026-05-02T18:03:01Z</time></trkpt><trkpt lat="43.19921072317368" lon="12.176586609474583"><ele>543.0</ele><time>2026-05-02T18:03:02Z</time></trkpt><trkpt lat="43.199188064237966" lon="12.176699604173898"><ele>543.0</ele><time>2026-05-02T18:03:03Z</time></trkpt><trkpt lat="43.19915286048422" lon="12.176829251645138"><ele>543.0</ele><time>2026-05-02T18:03:04Z</time></trkpt><trkpt lat="43.19912061465737" lon="12.176923281308513"><ele>542.0</ele><time>2026-05-02T18:03:05Z</time></trkpt><trkpt lat="43.19908211955474" lon="12.177032290553214"><ele>541.0</ele><time>2026-05-02T18:03:06Z</time></trkpt><trkpt lat="43.19904852112197" lon="12.177144219439235"><ele>540.0</ele><time>2026-05-02T18:03:07Z</time></trkpt><trkpt lat="43.199018976816625" lon="12.177243822555823"><ele>539.0</ele><time>2026-05-02T18:03:08Z</time></trkpt><trkpt lat="43.19898665020641" lon="12.17734150382669"><ele>538.0</ele><time>2026-05-02T18:03:09Z</time></trkpt><trkpt lat="43.198955399943486" lon="12.177433407853917"><ele>537.0</ele><time>2026-05-02T18:03:10Z</time></trkpt><trkpt lat="43.19892858937157" lon="12.177521255808323"><ele>534.6666666666666</ele><time>2026-05-02T18:03:11Z</time></trkpt><trkpt lat="43.19890377171234" lon="12.177612038244819"><ele>532.3333333333334</ele><time>2026-05-02T18:03:12Z</time></trkpt><trkpt lat="43.198869934853725" lon="12.177712907004645"><ele>530.0</ele><time>2026-05-02T18:03:13Z</time></trkpt><trkpt lat="43.19884053638483" lon="12.177809332030298"><ele>527.6666666666667</ele><time>2026-05-02T18:03:14Z</time></trkpt><trkpt lat="43.19881898466699" lon="12.177895638591872"><ele>525.3333333333334</ele><time>2026-05-02T18:03:15Z</time></trkpt><trkpt lat="43.19879581333121" lon="12.177976835039583"><ele>523.0</ele><time>2026-05-02T18:03:16Z</time></trkpt><trkpt lat="43.198758536214115" lon="12.178118787727989"><ele>522.8333333333334</ele><time>2026-05-02T18:03:18Z</time></trkpt><trkpt lat="43.19873489760998" lon="12.178220897107662"><ele>522.6666666666667</ele><time>2026-05-02T18:03:20Z</time></trkpt><trkpt lat="43.198700048845375" lon="12.178306943756628"><ele>522.5</ele><time>2026-05-02T18:04:01Z</time></trkpt><trkpt lat="43.19868748204" lon="12.178416718380912"><ele>522.3333333333334</ele><time>2026-05-02T18:04:04Z</time></trkpt><trkpt lat="43.19865406436801" lon="12.17851469872888"><ele>522.1666666666666</ele><time>2026-05-02T18:04:06Z</time></trkpt><trkpt lat="43.19861631077053" lon="12.178645156094293"><ele>522.0</ele><time>2026-05-02T18:04:08Z</time></trkpt><trkpt lat="43.198565528160564" lon="12.178795883259399"><ele>522.0</ele><time>2026-05-02T18:04:10Z</time></trkpt><trkpt lat="43.19853358528393" lon="12.178877966286045"><ele>522.0</ele><time>2026-05-02T18:04:11Z</time></trkpt><trkpt lat="43.198482501933604" lon="12.179014336913747"><ele>522.0</ele><time>2026-05-02T18:04:13Z</time></trkpt><trkpt lat="43.19845318158589" lon="12.179091712374092"><ele>522.0</ele><time>2026-05-02T18:04:14Z</time></trkpt><trkpt lat="43.198425758870826" lon="12.179176942509446"><ele>522.0</ele><time>2026-05-02T18:04:15Z</time></trkpt><trkpt lat="43.19839586349775" lon="12.179259538629054"><ele>522.0</ele><time>2026-05-02T18:04:16Z</time></trkpt><trkpt lat="43.19832891633238" lon="12.179395855017603"><ele>521.6</ele><time>2026-05-02T18:04:18Z</time></trkpt><trkpt lat="43.19824909493432" lon="12.179540660826701"><ele>521.2</ele><time>2026-05-02T18:04:20Z</time></trkpt><trkpt lat="43.1981617994663" lon="12.179654824015206"><ele>520.8</ele><time>2026-05-02T18:04:22Z</time></trkpt><trkpt lat="43.19811240906602" lon="12.179710192808072"><ele>520.4</ele><time>2026-05-02T18:04:23Z</time></trkpt><trkpt lat="43.198056852587655" lon="12.17976887977032"><ele>520.0</ele><time>2026-05-02T18:04:24Z</time></trkpt><trkpt lat="43.19800352805805" lon="12.179820321231022"><ele>518.6</ele><time>2026-05-02T18:04:25Z</time></trkpt><trkpt lat="43.197955664815964" lon="12.179891615383603"><ele>517.2</ele><time>2026-05-02T18:04:26Z</time></trkpt><trkpt lat="43.19789836219582" lon="12.179939272931025"><ele>515.8</ele><time>2026-05-02T18:04:27Z</time></trkpt><trkpt lat="43.197839717025424" lon="12.180002509782168"><ele>514.4</ele><time>2026-05-02T18:04:28Z</time></trkpt><trkpt lat="43.19774361050184" lon="12.180099743246702"><ele>513.0</ele><time>2026-05-02T18:04:30Z</time></trkpt><trkpt lat="43.197641803965716" lon="12.180197279047862"><ele>513.0</ele><time>2026-05-02T18:04:32Z</time></trkpt><trkpt lat="43.19760145226984" lon="12.180272478770318"><ele>513.0</ele><time>2026-05-02T18:04:33Z</time></trkpt><trkpt lat="43.1975738097284" lon="12.180352830438553"><ele>513.0</ele><time>2026-05-02T18:04:34Z</time></trkpt><trkpt lat="43.197563877369284" lon="12.180460204237813"><ele>513.0</ele><time>2026-05-02T18:04:35Z</time></trkpt><trkpt lat="43.19758257835981" lon="12.180546751652006"><ele>513.0</ele><time>2026-05-02T18:04:36Z</time></trkpt><trkpt lat="43.19760661611762" lon="12.180700409653966"><ele>513.0</ele><time>2026-05-02T18:04:38Z</time></trkpt><trkpt lat="43.197661914016386" lon="12.180836230685664"><ele>512.5</ele><time>2026-05-02T18:04:40Z</time></trkpt><trkpt lat="43.197734808065434" lon="12.180983081139034"><ele>512.0</ele><time>2026-05-02T18:04:42Z</time></trkpt><trkpt lat="43.197772821468746" lon="12.18107101659394"><ele>511.5</ele><time>2026-05-02T18:04:43Z</time></trkpt><trkpt lat="43.19781949034564" lon="12.181162293249209"><ele>511.0</ele><time>2026-05-02T18:04:44Z</time></trkpt><trkpt lat="43.19785717861703" lon="12.181254784045933"><ele>510.5</ele><time>2026-05-02T18:04:45Z</time></trkpt><trkpt lat="43.19787945372882" lon="12.181355201230204"><ele>510.0</ele><time>2026-05-02T18:04:46Z</time></trkpt><trkpt lat="43.197895774737894" lon="12.181456238637939"><ele>509.1666666666667</ele><time>2026-05-02T18:04:47Z</time></trkpt><trkpt lat="43.19789578431681" lon="12.181565890546096"><ele>508.33333333333337</ele><time>2026-05-02T18:04:48Z</time></trkpt><trkpt lat="43.19788599750941" lon="12.18167541471295"><ele>507.5</ele><time>2026-05-02T18:04:49Z</time></trkpt><trkpt lat="43.19787310125954" lon="12.181786219930993"><ele>506.6666666666667</ele><time>2026-05-02T18:04:50Z</time></trkpt><trkpt lat="43.197847827924406" lon="12.181903795975288"><ele>505.83333333333337</ele><time>2026-05-02T18:04:51Z</time></trkpt><trkpt lat="43.19781194667385" lon="12.182014702487555"><ele>505.0</ele><time>2026-05-02T18:04:52Z</time></trkpt><trkpt lat="43.197772143323185" lon="12.182126887604756"><ele>505.0</ele><time>2026-05-02T18:04:53Z</time></trkpt><trkpt lat="43.197736274729074" lon="12.182243121378535"><ele>505.0</ele><time>2026-05-02T18:04:54Z</time></trkpt><trkpt lat="43.19769819847038" lon="12.182357855360623"><ele>505.0</ele><time>2026-05-02T18:04:55Z</time></trkpt><trkpt lat="43.19765869689488" lon="12.182477251804272"><ele>505.0</ele><time>2026-05-02T18:04:56Z</time></trkpt><trkpt lat="43.19761815570672" lon="12.18259653231839"><ele>505.0</ele><time>2026-05-02T18:04:57Z</time></trkpt><trkpt lat="43.19757280962873" lon="12.18271625520869"><ele>505.4</ele><time>2026-05-02T18:04:58Z</time></trkpt><trkpt lat="43.19752382893799" lon="12.18283625485143"><ele>505.8</ele><time>2026-05-02T18:04:59Z</time></trkpt><trkpt lat="43.19747244284624" lon="12.182949373232134"><ele>506.20000000000005</ele><time>2026-05-02T18:05:00Z</time></trkpt><trkpt lat="43.197416941581906" lon="12.183055779356534"><ele>506.6</ele><time>2026-05-02T18:05:01Z</time></trkpt><trkpt lat="43.19735817485246" lon="12.183160606277326"><ele>507.0</ele><time>2026-05-02T18:05:02Z</time></trkpt><trkpt lat="43.19729698974824" lon="12.183265500882737"><ele>508.1666666666667</ele><time>2026-05-02T18:05:03Z</time></trkpt><trkpt lat="43.197234843146774" lon="12.183351712100114"><ele>509.33333333333337</ele><time>2026-05-02T18:05:04Z</time></trkpt><trkpt lat="43.19716688199766" lon="12.183399937135464"><ele>510.5</ele><time>2026-05-02T18:05:05Z</time></trkpt><trkpt lat="43.19709552540347" lon="12.18343036097585"><ele>511.6666666666667</ele><time>2026-05-02T18:05:06Z</time></trkpt><trkpt lat="43.19702765635516" lon="12.183383830651948"><ele>512.8333333333334</ele><time>2026-05-02T18:05:07Z</time></trkpt><trkpt lat="43.19694214151739" lon="12.183368758635392"><ele>514.0</ele><time>2026-05-02T18:05:08Z</time></trkpt><trkpt lat="43.19683225529801" lon="12.18335235521693"><ele>514.0</ele><time>2026-05-02T18:05:09Z</time></trkpt><trkpt lat="43.19675319923962" lon="12.183358913598257"><ele>514.0</ele><time>2026-05-02T18:05:10Z</time></trkpt><trkpt lat="43.196689400779675" lon="12.183343040620743"><ele>514.0</ele><time>2026-05-02T18:05:11Z</time></trkpt><trkpt lat="43.19662108650226" lon="12.183361647820814"><ele>514.0</ele><time>2026-05-02T18:05:12Z</time></trkpt><trkpt lat="43.19653047346065" lon="12.183431857682418"><ele>514.0</ele><time>2026-05-02T18:05:14Z</time></trkpt><trkpt lat="43.19650794667703" lon="12.18352040631448"><ele>514.0</ele><time>2026-05-02T18:05:15Z</time></trkpt><trkpt lat="43.196453242735856" lon="12.183568545656723"><ele>514.6</ele><time>2026-05-02T18:05:16Z</time></trkpt><trkpt lat="43.19640427788488" lon="12.183635763540252"><ele>515.2</ele><time>2026-05-02T18:05:17Z</time></trkpt><trkpt lat="43.19635066535626" lon="12.18370936219772"><ele>515.8000000000001</ele><time>2026-05-02T18:05:18Z</time></trkpt><trkpt lat="43.19626803349817" lon="12.183805132570395"><ele>516.4</ele><time>2026-05-02T18:05:20Z</time></trkpt><trkpt lat="43.19620803935448" lon="12.183862926702824"><ele>517.0</ele><time>2026-05-02T18:05:23Z</time></trkpt><trkpt lat="43.19633269824545" lon="12.183793448671388"><ele>517.0</ele><time>2026-05-02T18:05:54Z</time></trkpt><trkpt lat="43.19639454291106" lon="12.183714458454064"><ele>517.0</ele><time>2026-05-02T18:05:56Z</time></trkpt><trkpt lat="43.19645311713849" lon="12.183609047688156"><ele>517.0</ele><time>2026-05-02T18:05:58Z</time></trkpt><trkpt lat="43.19652156258124" lon="12.183517407017918"><ele>517.0</ele><time>2026-05-02T18:06:00Z</time></trkpt><trkpt lat="43.196593368971286" lon="12.183432788083262"><ele>517.0</ele><time>2026-05-02T18:06:02Z</time></trkpt><trkpt lat="43.19664857468488" lon="12.183386570177491"><ele>517.0</ele><time>2026-05-02T18:06:05Z</time></trkpt><trkpt lat="43.19657371232818" lon="12.18331276968554"><ele>517.0</ele><time>2026-05-02T18:06:20Z</time></trkpt><trkpt lat="43.19648544497766" lon="12.183269241052814"><ele>517.0</ele><time>2026-05-02T18:06:22Z</time></trkpt><trkpt lat="43.196386446965406" lon="12.183224831038824"><ele>517.0</ele><time>2026-05-02T18:06:24Z</time></trkpt><trkpt lat="43.196306828875535" lon="12.183184639408532"><ele>517.0</ele><time>2026-05-02T18:06:26Z</time></trkpt><trkpt lat="43.19622510590394" lon="12.183150081761315"><ele>517.0</ele><time>2026-05-02T18:06:28Z</time></trkpt><trkpt lat="43.19613567786881" lon="12.183102599134044"><ele>514.4</ele><time>2026-05-02T18:06:30Z</time></trkpt><trkpt lat="43.19605115334599" lon="12.18309666169061"><ele>511.80000000000007</ele><time>2026-05-02T18:06:32Z</time></trkpt><trkpt lat="43.195970302684586" lon="12.183052222482864"><ele>509.2</ele><time>2026-05-02T18:06:34Z</time></trkpt><trkpt lat="43.195880102091316" lon="12.183001466421235"><ele>506.6</ele><time>2026-05-02T18:06:36Z</time></trkpt><trkpt lat="43.19578388012999" lon="12.18299277996394"><ele>504.0</ele><time>2026-05-02T18:06:38Z</time></trkpt><trkpt lat="43.19570424799551" lon="12.18295512594851"><ele>503.0</ele><time>2026-05-02T18:06:40Z</time></trkpt><trkpt lat="43.195610249981385" lon="12.182938092744504"><ele>502.0</ele><time>2026-05-02T18:06:42Z</time></trkpt><trkpt lat="43.19549747838406" lon="12.182943986431399"><ele>501.0</ele><time>2026-05-02T18:06:44Z</time></trkpt><trkpt lat="43.19538572449259" lon="12.182936758597744"><ele>500.0</ele><time>2026-05-02T18:06:46Z</time></trkpt><trkpt lat="43.195267245947676" lon="12.182915116153156"><ele>499.0</ele><time>2026-05-02T18:06:48Z</time></trkpt><trkpt lat="43.19520072835219" lon="12.182921406824194"><ele>499.0</ele><time>2026-05-02T18:06:49Z</time></trkpt><trkpt lat="43.19508346929271" lon="12.182946159911499"><ele>499.0</ele><time>2026-05-02T18:06:51Z</time></trkpt><trkpt lat="43.194991152571326" lon="12.182974134506113"><ele>499.0</ele><time>2026-05-02T18:06:53Z</time></trkpt><trkpt lat="43.19490214404557" lon="12.182965631526985"><ele>499.0</ele><time>2026-05-02T18:06:55Z</time></trkpt><trkpt lat="43.19479734186996" lon="12.182949414618383"><ele>499.0</ele><time>2026-05-02T18:06:57Z</time></trkpt><trkpt lat="43.194686364020434" lon="12.182960000635076"><ele>498.4</ele><time>2026-05-02T18:06:59Z</time></trkpt><trkpt lat="43.19461857841679" lon="12.183024998786129"><ele>497.79999999999995</ele><time>2026-05-02T18:07:02Z</time></trkpt><trkpt lat="43.19450347889816" lon="12.183089889487285"><ele>497.20000000000005</ele><time>2026-05-02T18:07:03Z</time></trkpt><trkpt lat="43.19441933205456" lon="12.183140175709745"><ele>496.6</ele><time>2026-05-02T18:07:05Z</time></trkpt><trkpt lat="43.19437977138693" lon="12.183208757431396"><ele>496.0</ele><time>2026-05-02T18:07:07Z</time></trkpt><trkpt lat="43.19432966205427" lon="12.183331108592938"><ele>496.0</ele><time>2026-05-02T18:07:09Z</time></trkpt><trkpt lat="43.194277714164514" lon="12.183409915978377"><ele>496.0</ele><time>2026-05-02T18:07:11Z</time></trkpt><trkpt lat="43.19420893801084" lon="12.183279677424077"><ele>496.0</ele><time>2026-05-02T18:07:15Z</time></trkpt><trkpt lat="43.1941673022288" lon="12.183179490022962"><ele>496.0</ele><time>2026-05-02T18:07:17Z</time></trkpt><trkpt lat="43.19414636592701" lon="12.183013367009254"><ele>496.0</ele><time>2026-05-02T18:07:19Z</time></trkpt><trkpt lat="43.19413431578779" lon="12.182852666591947"><ele>495.00000000000006</ele><time>2026-05-02T18:07:21Z</time></trkpt><trkpt lat="43.19413111289404" lon="12.182705375269158"><ele>494.0</ele><time>2026-05-02T18:07:23Z</time></trkpt><trkpt lat="43.19413565058901" lon="12.182608069226214"><ele>493.0</ele><time>2026-05-02T18:07:25Z</time></trkpt><trkpt lat="43.19416620481982" lon="12.182510076977614"><ele>492.0</ele><time>2026-05-02T18:07:27Z</time></trkpt><trkpt lat="43.194212167971756" lon="12.182386235367112"><ele>491.00000000000006</ele><time>2026-05-02T18:07:29Z</time></trkpt><trkpt lat="43.19426495617285" lon="12.182317075373563"><ele>490.0</ele><time>2026-05-02T18:07:31Z</time></trkpt><trkpt lat="43.194172840177096" lon="12.182205594073748"><ele>487.33333333333337</ele><time>2026-05-02T18:07:35Z</time></trkpt><trkpt lat="43.1941336686199" lon="12.18228237594996"><ele>484.6666666666667</ele><time>2026-05-02T18:07:36Z</time></trkpt><trkpt lat="43.194056661012574" lon="12.182282509181167"><ele>482.0</ele><time>2026-05-02T18:07:37Z</time></trkpt><trkpt lat="43.193994188243884" lon="12.182266158961248"><ele>479.33333333333337</ele><time>2026-05-02T18:07:38Z</time></trkpt><trkpt lat="43.19391575560493" lon="12.182283304361881"><ele>476.6666666666667</ele><time>2026-05-02T18:07:40Z</time></trkpt><trkpt lat="43.19383399719155" lon="12.182336075767006"><ele>474.0</ele><time>2026-05-02T18:07:42Z</time></trkpt><trkpt lat="43.193741662422525" lon="12.182435478134488"><ele>472.3333333333333</ele><time>2026-05-02T18:07:44Z</time></trkpt><trkpt lat="43.19367844029656" lon="12.182527617875168"><ele>470.66666666666663</ele><time>2026-05-02T18:07:46Z</time></trkpt><trkpt lat="43.19363349856809" lon="12.182609567026269"><ele>469.0</ele><time>2026-05-02T18:07:48Z</time></trkpt><trkpt lat="43.193600575531974" lon="12.182685910275364"><ele>467.3333333333333</ele><time>2026-05-02T18:07:50Z</time></trkpt><trkpt lat="43.19358280674889" lon="12.182770694758366"><ele>465.66666666666663</ele><time>2026-05-02T18:07:51Z</time></trkpt><trkpt lat="43.19351714684225" lon="12.182888108352254"><ele>464.0</ele><time>2026-05-02T18:07:53Z</time></trkpt><trkpt lat="43.19348122044563" lon="12.183024076386456"><ele>464.0</ele><time>2026-05-02T18:07:55Z</time></trkpt><trkpt lat="43.19348295872246" lon="12.183170486656966"><ele>464.0</ele><time>2026-05-02T18:07:57Z</time></trkpt><trkpt lat="43.19350743299505" lon="12.183298165398842"><ele>464.0</ele><time>2026-05-02T18:07:59Z</time></trkpt><trkpt lat="43.19352060179789" lon="12.183423913803395"><ele>464.0</ele><time>2026-05-02T18:08:01Z</time></trkpt><trkpt lat="43.19351883417911" lon="12.183568785809447"><ele>464.0</ele><time>2026-05-02T18:08:03Z</time></trkpt><trkpt lat="43.193514365240105" lon="12.183716098703133"><ele>464.3333333333333</ele><time>2026-05-02T18:08:05Z</time></trkpt><trkpt lat="43.19347217878146" lon="12.183809797086193"><ele>464.66666666666663</ele><time>2026-05-02T18:08:07Z</time></trkpt><trkpt lat="43.1933767011951" lon="12.183925617119565"><ele>465.0</ele><time>2026-05-02T18:08:10Z</time></trkpt><trkpt lat="43.193321696528635" lon="12.183979869608523"><ele>465.33333333333337</ele><time>2026-05-02T18:08:11Z</time></trkpt><trkpt lat="43.19326727149945" lon="12.184029371144243"><ele>465.6666666666667</ele><time>2026-05-02T18:08:12Z</time></trkpt><trkpt lat="43.193210568277316" lon="12.18407783151817"><ele>466.0</ele><time>2026-05-02T18:08:13Z</time></trkpt><trkpt lat="43.19315825451127" lon="12.184136690337269"><ele>462.83333333333337</ele><time>2026-05-02T18:08:14Z</time></trkpt><trkpt lat="43.19311088542491" lon="12.184215225108263"><ele>459.6666666666667</ele><time>2026-05-02T18:08:15Z</time></trkpt><trkpt lat="43.19304974037316" lon="12.184261549066006"><ele>456.5</ele><time>2026-05-02T18:08:16Z</time></trkpt><trkpt lat="43.19299343365112" lon="12.184321515783497"><ele>453.33333333333337</ele><time>2026-05-02T18:08:17Z</time></trkpt><trkpt lat="43.192902883156535" lon="12.18437937290024"><ele>450.1666666666667</ele><time>2026-05-02T18:08:19Z</time></trkpt><trkpt lat="43.19280973841626" lon="12.184358364170048"><ele>447.0</ele><time>2026-05-02T18:08:21Z</time></trkpt><trkpt lat="43.19272220992706" lon="12.184376519733554"><ele>447.0</ele><time>2026-05-02T18:08:23Z</time></trkpt><trkpt lat="43.192645296247186" lon="12.184430355095305"><ele>447.0</ele><time>2026-05-02T18:08:25Z</time></trkpt><trkpt lat="43.19257003602715" lon="12.184531797584825"><ele>447.0</ele><time>2026-05-02T18:08:27Z</time></trkpt><trkpt lat="43.19251826720924" lon="12.184627771673997"><ele>447.0</ele><time>2026-05-02T18:08:29Z</time></trkpt><trkpt lat="43.1924489255434" lon="12.184690878100914"><ele>447.0</ele><time>2026-05-02T18:08:31Z</time></trkpt><trkpt lat="43.19237483033809" lon="12.184740390342077"><ele>447.0</ele><time>2026-05-02T18:08:34Z</time></trkpt><trkpt lat="43.19227656855741" lon="12.184808297336488"><ele>446.0</ele><time>2026-05-02T18:08:36Z</time></trkpt><trkpt lat="43.192219480946726" lon="12.184849691647463"><ele>445.0</ele><time>2026-05-02T18:08:37Z</time></trkpt><trkpt lat="43.192144382690415" lon="12.184858724170798"><ele>444.0</ele><time>2026-05-02T18:08:38Z</time></trkpt><trkpt lat="43.19207907506433" lon="12.184892973521386"><ele>443.0</ele><time>2026-05-02T18:08:39Z</time></trkpt><trkpt lat="43.1920096226209" lon="12.18492680048428"><ele>442.0</ele><time>2026-05-02T18:08:40Z</time></trkpt><trkpt lat="43.19190199960395" lon="12.184957483200149"><ele>441.0</ele><time>2026-05-02T18:08:42Z</time></trkpt><trkpt lat="43.19183309153094" lon="12.184864686685561"><ele>439.3333333333333</ele><time>2026-05-02T18:08:44Z</time></trkpt><trkpt lat="43.191786482108874" lon="12.184729658955563"><ele>437.66666666666663</ele><time>2026-05-02T18:08:46Z</time></trkpt><trkpt lat="43.191741716999516" lon="12.184656521910552"><ele>436.0</ele><time>2026-05-02T18:08:47Z</time></trkpt><trkpt lat="43.19170267154726" lon="12.184562624392964"><ele>434.3333333333333</ele><time>2026-05-02T18:08:48Z</time></trkpt><trkpt lat="43.19166916164708" lon="12.18447827559259"><ele>432.66666666666663</ele><time>2026-05-02T18:08:49Z</time></trkpt><trkpt lat="43.191650310162736" lon="12.184384613994892"><ele>431.0</ele><time>2026-05-02T18:08:50Z</time></trkpt><trkpt lat="43.19160716101339" lon="12.184320296892489"><ele>431.0</ele><time>2026-05-02T18:08:51Z</time></trkpt><trkpt lat="43.191589484848926" lon="12.184230431759946"><ele>431.0</ele><time>2026-05-02T18:08:52Z</time></trkpt><trkpt lat="43.19155697397976" lon="12.184149372593417"><ele>431.0</ele><time>2026-05-02T18:08:53Z</time></trkpt><trkpt lat="43.191525156007806" lon="12.184070261705815"><ele>431.0</ele><time>2026-05-02T18:08:54Z</time></trkpt><trkpt lat="43.19148906374861" lon="12.183980523882585"><ele>431.0</ele><time>2026-05-02T18:08:55Z</time></trkpt><trkpt lat="43.19145751826534" lon="12.183902090665411"><ele>431.0</ele><time>2026-05-02T18:08:56Z</time></trkpt><trkpt lat="43.19140148481342" lon="12.183796066355018"><ele>431.0</ele><time>2026-05-02T18:08:58Z</time></trkpt><trkpt lat="43.19136911465659" lon="12.183696229529533"><ele>427.99999999999994</ele><time>2026-05-02T18:09:03Z</time></trkpt><trkpt lat="43.19126214336228" lon="12.183684847319938"><ele>425.0</ele><time>2026-05-02T18:09:06Z</time></trkpt><trkpt lat="43.191288926835405" lon="12.18359625585234"><ele>422.0</ele><time>2026-05-02T18:09:28Z</time></trkpt><trkpt lat="43.191256714283085" lon="12.183520007859855"><ele>419.0</ele><time>2026-05-02T18:10:19Z</time></trkpt><trkpt lat="43.191239675125374" lon="12.18342881077557"><ele>415.99999999999994</ele><time>2026-05-02T18:10:21Z</time></trkpt><trkpt lat="43.19125386528598" lon="12.183280999382504"><ele>413.0</ele><time>2026-05-02T18:10:24Z</time></trkpt><trkpt lat="43.19129199045966" lon="12.183165991582602"><ele>412.3333333333333</ele><time>2026-05-02T18:10:26Z</time></trkpt><trkpt lat="43.19131486536196" lon="12.183061169724974"><ele>411.66666666666663</ele><time>2026-05-02T18:10:28Z</time></trkpt><trkpt lat="43.19131202026126" lon="12.182971969705017"><ele>411.0</ele><time>2026-05-02T18:10:30Z</time></trkpt><trkpt lat="43.19126150883396" lon="12.182898955118851"><ele>410.33333333333337</ele><time>2026-05-02T18:10:32Z</time></trkpt><trkpt lat="43.19119246042307" lon="12.182862676839367"><ele>409.6666666666667</ele><time>2026-05-02T18:10:34Z</time></trkpt><trkpt lat="43.191085431496994" lon="12.182836997668295"><ele>409.0</ele><time>2026-05-02T18:10:36Z</time></trkpt><trkpt lat="43.19099688148969" lon="12.182851073795993"><ele>409.0</ele><time>2026-05-02T18:10:38Z</time></trkpt><trkpt lat="43.19091796391322" lon="12.182959084346585"><ele>409.0</ele><time>2026-05-02T18:10:40Z</time></trkpt><trkpt lat="43.19087698212421" lon="12.183037757689572"><ele>409.0</ele><time>2026-05-02T18:10:41Z</time></trkpt><trkpt lat="43.19081313407724" lon="12.183189612737287"><ele>409.0</ele><time>2026-05-02T18:10:43Z</time></trkpt><trkpt lat="43.19077907444823" lon="12.183275951273362"><ele>409.0</ele><time>2026-05-02T18:10:44Z</time></trkpt><trkpt lat="43.190751723356456" lon="12.183380897541513"><ele>409.33333333333337</ele><time>2026-05-02T18:10:45Z</time></trkpt><trkpt lat="43.19073721541138" lon="12.183467417072595"><ele>409.6666666666667</ele><time>2026-05-02T18:10:46Z</time></trkpt><trkpt lat="43.19071888169172" lon="12.183571834733302"><ele>410.0</ele><time>2026-05-02T18:10:47Z</time></trkpt><trkpt lat="43.190702537374925" lon="12.183684051239851"><ele>410.33333333333337</ele><time>2026-05-02T18:10:48Z</time></trkpt><trkpt lat="43.19069920545342" lon="12.183786813479045"><ele>410.6666666666667</ele><time>2026-05-02T18:10:49Z</time></trkpt><trkpt lat="43.190656761023824" lon="12.18390081026949"><ele>411.0</ele><time>2026-05-02T18:10:51Z</time></trkpt><trkpt lat="43.19058913329133" lon="12.183920490778357"><ele>411.0</ele><time>2026-05-02T18:10:52Z</time></trkpt><trkpt lat="43.19050748052724" lon="12.183930905893659"><ele>411.0</ele><time>2026-05-02T18:10:53Z</time></trkpt><trkpt lat="43.190436886605205" lon="12.183947699414572"><ele>411.0</ele><time>2026-05-02T18:10:54Z</time></trkpt><trkpt lat="43.19032408966173" lon="12.183940212723588"><ele>411.0</ele><time>2026-05-02T18:10:56Z</time></trkpt><trkpt lat="43.190260621077066" lon="12.183875798206117"><ele>411.0</ele><time>2026-05-02T18:10:57Z</time></trkpt><trkpt lat="43.190198023421274" lon="12.183775878226271"><ele>411.0</ele><time>2026-05-02T18:10:58Z</time></trkpt><trkpt lat="43.190138896205774" lon="12.183664029106364"><ele>411.0</ele><time>2026-05-02T18:10:59Z</time></trkpt><trkpt lat="43.19007675999525" lon="12.18354792882752"><ele>411.0</ele><time>2026-05-02T18:11:00Z</time></trkpt><trkpt lat="43.19002706068101" lon="12.183445381359713"><ele>411.0</ele><time>2026-05-02T18:11:01Z</time></trkpt><trkpt lat="43.189991552464825" lon="12.183367534964386"><ele>411.0</ele><time>2026-05-02T18:11:02Z</time></trkpt><trkpt lat="43.18994696270928" lon="12.18330407612244"><ele>411.0</ele><time>2026-05-02T18:11:03Z</time></trkpt><trkpt lat="43.189827553135586" lon="12.18326562462623"><ele>411.0</ele><time>2026-05-02T18:11:05Z</time></trkpt><trkpt lat="43.189751117753765" lon="12.183290216373008"><ele>410.3333333333333</ele><time>2026-05-02T18:11:06Z</time></trkpt><trkpt lat="43.18966478042626" lon="12.183315018752833"><ele>409.66666666666663</ele><time>2026-05-02T18:11:07Z</time></trkpt><trkpt lat="43.18957801397747" lon="12.183323738353804"><ele>409.0</ele><time>2026-05-02T18:11:08Z</time></trkpt><trkpt lat="43.18948666413698" lon="12.183322726508713"><ele>408.3333333333333</ele><time>2026-05-02T18:11:09Z</time></trkpt><trkpt lat="43.18939522609027" lon="12.183331691643652"><ele>407.66666666666663</ele><time>2026-05-02T18:11:10Z</time></trkpt><trkpt lat="43.189306241673336" lon="12.183325138107321"><ele>407.0</ele><time>2026-05-02T18:11:11Z</time></trkpt><trkpt lat="43.18922452167233" lon="12.183300684815595"><ele>407.0</ele><time>2026-05-02T18:11:12Z</time></trkpt><trkpt lat="43.18913367471213" lon="12.183264314790456"><ele>407.0</ele><time>2026-05-02T18:11:13Z</time></trkpt><trkpt lat="43.189039127082545" lon="12.1832332754059"><ele>407.0</ele><time>2026-05-02T18:11:14Z</time></trkpt><trkpt lat="43.18893844326584" lon="12.183230498121416"><ele>407.0</ele><time>2026-05-02T18:11:15Z</time></trkpt><trkpt lat="43.18883845185943" lon="12.183248137245348"><ele>407.0</ele><time>2026-05-02T18:11:16Z</time></trkpt><trkpt lat="43.188733881175516" lon="12.1832548978619"><ele>407.6</ele><time>2026-05-02T18:11:17Z</time></trkpt><trkpt lat="43.188640013554824" lon="12.18325343425897"><ele>408.20000000000005</ele><time>2026-05-02T18:11:18Z</time></trkpt><trkpt lat="43.188556264952766" lon="12.18323263751395"><ele>408.8</ele><time>2026-05-02T18:11:19Z</time></trkpt><trkpt lat="43.18848318630506" lon="12.18318719227839"><ele>409.4</ele><time>2026-05-02T18:11:20Z</time></trkpt><trkpt lat="43.188402717853876" lon="12.183100787838875"><ele>410.0</ele><time>2026-05-02T18:11:21Z</time></trkpt><trkpt lat="43.18833938905548" lon="12.182998398729827"><ele>409.16666666666663</ele><time>2026-05-02T18:11:22Z</time></trkpt><trkpt lat="43.18830222241482" lon="12.1828992572258"><ele>408.3333333333333</ele><time>2026-05-02T18:11:23Z</time></trkpt><trkpt lat="43.188276099026666" lon="12.182799147216482"><ele>407.5</ele><time>2026-05-02T18:11:24Z</time></trkpt><trkpt lat="43.18824449042452" lon="12.18269608628003"><ele>406.66666666666663</ele><time>2026-05-02T18:11:25Z</time></trkpt><trkpt lat="43.188204943915004" lon="12.182603962528454"><ele>405.8333333333333</ele><time>2026-05-02T18:11:26Z</time></trkpt><trkpt lat="43.18816406221672" lon="12.1825322025913"><ele>405.0</ele><time>2026-05-02T18:11:27Z</time></trkpt><trkpt lat="43.18810755489784" lon="12.18247636409077"><ele>405.0</ele><time>2026-05-02T18:11:28Z</time></trkpt><trkpt lat="43.18802363074547" lon="12.182436897654288"><ele>405.0</ele><time>2026-05-02T18:11:29Z</time></trkpt><trkpt lat="43.18791440304376" lon="12.182386030632477"><ele>405.0</ele><time>2026-05-02T18:11:30Z</time></trkpt><trkpt lat="43.18780569013388" lon="12.182330261028438"><ele>405.0</ele><time>2026-05-02T18:11:31Z</time></trkpt><trkpt lat="43.18770729461672" lon="12.182274726719987"><ele>405.0</ele><time>2026-05-02T18:11:32Z</time></trkpt><trkpt lat="43.18762532212327" lon="12.182229072129287"><ele>402.8</ele><time>2026-05-02T18:11:33Z</time></trkpt><trkpt lat="43.187543702383735" lon="12.182182579096992"><ele>400.6</ele><time>2026-05-02T18:11:34Z</time></trkpt><trkpt lat="43.18745456834399" lon="12.182104671380722"><ele>398.4</ele><time>2026-05-02T18:11:35Z</time></trkpt><trkpt lat="43.18735909782413" lon="12.182020223925303"><ele>396.2</ele><time>2026-05-02T18:11:36Z</time></trkpt><trkpt lat="43.187267073430206" lon="12.181954774190642"><ele>394.0</ele><time>2026-05-02T18:11:37Z</time></trkpt><trkpt lat="43.18718821908588" lon="12.181901353345191"><ele>394.00000000000006</ele><time>2026-05-02T18:11:38Z</time></trkpt><trkpt lat="43.18710945300948" lon="12.18184789795961"><ele>394.0</ele><time>2026-05-02T18:11:39Z</time></trkpt><trkpt lat="43.18702793461716" lon="12.181792699499"><ele>394.0</ele><time>2026-05-02T18:11:40Z</time></trkpt><trkpt lat="43.186942171237376" lon="12.181734507035532"><ele>394.0</ele><time>2026-05-02T18:11:41Z</time></trkpt><trkpt lat="43.18686314625095" lon="12.181708489375767"><ele>394.00000000000006</ele><time>2026-05-02T18:11:42Z</time></trkpt><trkpt lat="43.18678732065822" lon="12.181667792061852"><ele>394.0</ele><time>2026-05-02T18:11:43Z</time></trkpt><trkpt lat="43.186708761588534" lon="12.181629125449764"><ele>394.00000000000006</ele><time>2026-05-02T18:11:44Z</time></trkpt><trkpt lat="43.18664387323493" lon="12.181567762815172"><ele>394.0</ele><time>2026-05-02T18:11:45Z</time></trkpt><trkpt lat="43.18657442022939" lon="12.181529386202904"><ele>394.0</ele><time>2026-05-02T18:11:46Z</time></trkpt><trkpt lat="43.18649653000847" lon="12.181478534015486"><ele>394.0</ele><time>2026-05-02T18:11:48Z</time></trkpt><trkpt lat="43.18643376321569" lon="12.181454458789245"><ele>394.00000000000006</ele><time>2026-05-02T18:11:56Z</time></trkpt><trkpt lat="43.18648139880727" lon="12.181330642412778"><ele>394.0</ele><time>2026-05-02T18:11:58Z</time></trkpt><trkpt lat="43.186515796654994" lon="12.181168233620713"><ele>392.83333333333337</ele><time>2026-05-02T18:12:00Z</time></trkpt><trkpt lat="43.18654826053205" lon="12.181065873486762"><ele>391.6666666666667</ele><time>2026-05-02T18:12:01Z</time></trkpt><trkpt lat="43.18657465594593" lon="12.180937569819765"><ele>390.5</ele><time>2026-05-02T18:12:02Z</time></trkpt><trkpt lat="43.18661891924041" lon="12.180859005061805"><ele>389.33333333333337</ele><time>2026-05-02T18:12:03Z</time></trkpt><trkpt lat="43.18664995397218" lon="12.18077602424242"><ele>388.1666666666667</ele><time>2026-05-02T18:12:04Z</time></trkpt><trkpt lat="43.18669913744299" lon="12.180627725519866"><ele>387.0</ele><time>2026-05-02T18:12:06Z</time></trkpt><trkpt lat="43.186721943802496" lon="12.180544363588348"><ele>386.6666666666667</ele><time>2026-05-02T18:12:07Z</time></trkpt><trkpt lat="43.18673517917407" lon="12.180459240561392"><ele>386.33333333333337</ele><time>2026-05-02T18:12:08Z</time></trkpt><trkpt lat="43.186709843762955" lon="12.18036499277349"><ele>386.0</ele><time>2026-05-02T18:12:09Z</time></trkpt><trkpt lat="43.186668038500265" lon="12.180196964109726"><ele>385.6666666666667</ele><time>2026-05-02T18:12:11Z</time></trkpt><trkpt lat="43.186636527687654" lon="12.180079134076085"><ele>385.33333333333337</ele><time>2026-05-02T18:12:12Z</time></trkpt><trkpt lat="43.18660346294595" lon="12.179971778783791"><ele>385.0</ele><time>2026-05-02T18:12:13Z</time></trkpt><trkpt lat="43.18657736331554" lon="12.179848689130875"><ele>385.0</ele><time>2026-05-02T18:12:14Z</time></trkpt><trkpt lat="43.18655484711198" lon="12.179702864259943"><ele>385.0</ele><time>2026-05-02T18:12:15Z</time></trkpt><trkpt lat="43.18654848486023" lon="12.179576603549323"><ele>385.0</ele><time>2026-05-02T18:12:16Z</time></trkpt><trkpt lat="43.18655013075539" lon="12.179468613216216"><ele>385.0</ele><time>2026-05-02T18:12:17Z</time></trkpt><trkpt lat="43.186567637868016" lon="12.17935341078664"><ele>385.0</ele><time>2026-05-02T18:12:18Z</time></trkpt><trkpt lat="43.18659170385228" lon="12.179218733980601"><ele>385.0</ele><time>2026-05-02T18:12:19Z</time></trkpt><trkpt lat="43.18663925235589" lon="12.179094616808683"><ele>385.0</ele><time>2026-05-02T18:12:20Z</time></trkpt><trkpt lat="43.1866868674023" lon="12.178957862748783"><ele>385.0</ele><time>2026-05-02T18:12:21Z</time></trkpt><trkpt lat="43.186731672120466" lon="12.178840532726865"><ele>385.0</ele><time>2026-05-02T18:12:22Z</time></trkpt><trkpt lat="43.186765091998325" lon="12.17873531457809"><ele>385.0</ele><time>2026-05-02T18:12:23Z</time></trkpt><trkpt lat="43.186770738152454" lon="12.17856816858594"><ele>384.0</ele><time>2026-05-02T18:12:25Z</time></trkpt><trkpt lat="43.18669068580406" lon="12.17841425748367"><ele>383.0</ele><time>2026-05-02T18:12:27Z</time></trkpt><trkpt lat="43.186623909595326" lon="12.17834433675657"><ele>382.0</ele><time>2026-05-02T18:12:28Z</time></trkpt><trkpt lat="43.18656196677598" lon="12.178266989617454"><ele>381.0</ele><time>2026-05-02T18:12:29Z</time></trkpt><trkpt lat="43.18650295073032" lon="12.178208417440382"><ele>380.0</ele><time>2026-05-02T18:12:30Z</time></trkpt><trkpt lat="43.186441274899295" lon="12.178147242167002"><ele>379.5</ele><time>2026-05-02T18:12:31Z</time></trkpt><trkpt lat="43.18638640746276" lon="12.178081500858607"><ele>379.0</ele><time>2026-05-02T18:12:32Z</time></trkpt><trkpt lat="43.18633677460639" lon="12.17799716751961"><ele>378.5</ele><time>2026-05-02T18:12:33Z</time></trkpt><trkpt lat="43.18627795732991" lon="12.177919745051607"><ele>378.0</ele><time>2026-05-02T18:12:34Z</time></trkpt><trkpt lat="43.186238735732395" lon="12.177807409814761"><ele>377.5</ele><time>2026-05-02T18:12:35Z</time></trkpt><trkpt lat="43.18618854548707" lon="12.177698011032533"><ele>377.0</ele><time>2026-05-02T18:12:36Z</time></trkpt><trkpt lat="43.18614210503065" lon="12.177592244442318"><ele>377.0</ele><time>2026-05-02T18:12:37Z</time></trkpt><trkpt lat="43.18607377984879" lon="12.17751239503403"><ele>377.0</ele><time>2026-05-02T18:12:38Z</time></trkpt><trkpt lat="43.18600254114343" lon="12.177424937881682"><ele>377.0</ele><time>2026-05-02T18:12:39Z</time></trkpt><trkpt lat="43.18590400140357" lon="12.17731453950596"><ele>377.0</ele><time>2026-05-02T18:12:40Z</time></trkpt><trkpt lat="43.18579276554118" lon="12.177202706698928"><ele>374.5</ele><time>2026-05-02T18:12:41Z</time></trkpt><trkpt lat="43.18567813161634" lon="12.17709071021754"><ele>372.0</ele><time>2026-05-02T18:12:42Z</time></trkpt><trkpt lat="43.18556944590439" lon="12.176985647193165"><ele>369.5</ele><time>2026-05-02T18:12:43Z</time></trkpt><trkpt lat="43.18547367844893" lon="12.17689315622525"><ele>367.0</ele><time>2026-05-02T18:12:44Z</time></trkpt><trkpt lat="43.18538607789816" lon="12.176808598500527"><ele>367.0</ele><time>2026-05-02T18:12:45Z</time></trkpt><trkpt lat="43.185298758205036" lon="12.176721411568503"><ele>367.0</ele><time>2026-05-02T18:12:46Z</time></trkpt><trkpt lat="43.185213954622796" lon="12.17663217305712"><ele>367.0</ele><time>2026-05-02T18:12:47Z</time></trkpt><trkpt lat="43.18514057779951" lon="12.176558110383457"><ele>367.0</ele><time>2026-05-02T18:12:48Z</time></trkpt><trkpt lat="43.18507785293725" lon="12.176525034861601"><ele>367.0</ele><time>2026-05-02T18:12:49Z</time></trkpt><trkpt lat="43.18494400308272" lon="12.176424483649726"><ele>363.20000000000005</ele><time>2026-05-02T18:12:51Z</time></trkpt><trkpt lat="43.18482402933174" lon="12.176379943009676"><ele>359.4</ele><time>2026-05-02T18:12:52Z</time></trkpt><trkpt lat="43.18470402842863" lon="12.17634459460442"><ele>355.6</ele><time>2026-05-02T18:12:53Z</time></trkpt><trkpt lat="43.18459752470311" lon="12.176322740450422"><ele>351.79999999999995</ele><time>2026-05-02T18:12:54Z</time></trkpt><trkpt lat="43.184503504063585" lon="12.176306528460726"><ele>348.0</ele><time>2026-05-02T18:12:55Z</time></trkpt><trkpt lat="43.18440906795857" lon="12.17629139744009"><ele>348.0</ele><time>2026-05-02T18:12:56Z</time></trkpt><trkpt lat="43.1843176490282" lon="12.176276749866654"><ele>348.0</ele><time>2026-05-02T18:12:57Z</time></trkpt><trkpt lat="43.18423004934096" lon="12.176261908563339"><ele>348.0</ele><time>2026-05-02T18:12:58Z</time></trkpt><trkpt lat="43.18415666719728" lon="12.176247032293636"><ele>348.0</ele><time>2026-05-02T18:12:59Z</time></trkpt><trkpt lat="43.18404190253231" lon="12.176218822600744"><ele>348.0</ele><time>2026-05-02T18:13:01Z</time></trkpt><trkpt lat="43.183983323558365" lon="12.176124736394128"><ele>348.0</ele><time>2026-05-02T18:13:03Z</time></trkpt><trkpt lat="43.1840243021188" lon="12.175989885606358"><ele>348.0</ele><time>2026-05-02T18:13:05Z</time></trkpt><trkpt lat="43.184089268584" lon="12.175885172364346"><ele>348.0</ele><time>2026-05-02T18:13:06Z</time></trkpt><trkpt lat="43.18416222524407" lon="12.175790927958168"><ele>348.0</ele><time>2026-05-02T18:13:07Z</time></trkpt><trkpt lat="43.18424331313001" lon="12.175716714207537"><ele>348.0</ele><time>2026-05-02T18:13:08Z</time></trkpt><trkpt lat="43.18431817801281" lon="12.175661840340696"><ele>344.79999999999995</ele><time>2026-05-02T18:13:09Z</time></trkpt><trkpt lat="43.18441684340139" lon="12.175608951112347"><ele>341.6</ele><time>2026-05-02T18:13:11Z</time></trkpt><trkpt lat="43.18433023973399" lon="12.175485068802393"><ele>338.4</ele><time>2026-05-02T18:13:14Z</time></trkpt><trkpt lat="43.184264454381626" lon="12.175444430144328"><ele>335.20000000000005</ele><time>2026-05-02T18:13:15Z</time></trkpt><trkpt lat="43.184196891222086" lon="12.175419043191846"><ele>332.0</ele><time>2026-05-02T18:13:16Z</time></trkpt><trkpt lat="43.184076389157255" lon="12.175374350461189"><ele>331.5</ele><time>2026-05-02T18:13:18Z</time></trkpt><trkpt lat="43.18400951798781" lon="12.175352597124068"><ele>331.0</ele><time>2026-05-02T18:13:19Z</time></trkpt><trkpt lat="43.183933051087735" lon="12.175327991116824"><ele>330.5</ele><time>2026-05-02T18:13:20Z</time></trkpt><trkpt lat="43.18385200874177" lon="12.175301912789532"><ele>330.0</ele><time>2026-05-02T18:13:21Z</time></trkpt><trkpt lat="43.183761287591686" lon="12.175295987248623"><ele>329.5</ele><time>2026-05-02T18:13:22Z</time></trkpt><trkpt lat="43.183680125552804" lon="12.175246603128734"><ele>329.0</ele><time>2026-05-02T18:13:23Z</time></trkpt><trkpt lat="43.18360001442598" lon="12.175220824466006"><ele>329.0</ele><time>2026-05-02T18:13:24Z</time></trkpt><trkpt lat="43.18351728727761" lon="12.175192626906796"><ele>329.0</ele><time>2026-05-02T18:13:25Z</time></trkpt><trkpt lat="43.18343481333596" lon="12.175165899216879"><ele>329.0</ele><time>2026-05-02T18:13:26Z</time></trkpt><trkpt lat="43.183347401584584" lon="12.175148321703407"><ele>329.0</ele><time>2026-05-02T18:13:27Z</time></trkpt><trkpt lat="43.183265952454065" lon="12.175145757681458"><ele>329.0</ele><time>2026-05-02T18:13:28Z</time></trkpt><trkpt lat="43.18318648173545" lon="12.17515325953137"><ele>329.0</ele><time>2026-05-02T18:13:29Z</time></trkpt><trkpt lat="43.18307674118883" lon="12.175177423432732"><ele>326.2</ele><time>2026-05-02T18:13:31Z</time></trkpt><trkpt lat="43.182993627000386" lon="12.175288242355299"><ele>323.4</ele><time>2026-05-02T18:13:33Z</time></trkpt><trkpt lat="43.18297851056475" lon="12.175444532557954"><ele>320.6</ele><time>2026-05-02T18:13:35Z</time></trkpt><trkpt lat="43.18296292256017" lon="12.175546069600017"><ele>317.8</ele><time>2026-05-02T18:13:36Z</time></trkpt><trkpt lat="43.182970049858206" lon="12.175651884231733"><ele>315.0</ele><time>2026-05-02T18:13:37Z</time></trkpt><trkpt lat="43.18298708394256" lon="12.175748832627407"><ele>314.5</ele><time>2026-05-02T18:13:38Z</time></trkpt><trkpt lat="43.18302096116948" lon="12.175855727319087"><ele>314.0</ele><time>2026-05-02T18:13:39Z</time></trkpt><trkpt lat="43.183034842684116" lon="12.175964212065207"><ele>313.5</ele><time>2026-05-02T18:13:40Z</time></trkpt><trkpt lat="43.18304860211738" lon="12.176071486990992"><ele>313.0</ele><time>2026-05-02T18:13:41Z</time></trkpt><trkpt lat="43.1830504491702" lon="12.176181773783046"><ele>312.5</ele><time>2026-05-02T18:13:42Z</time></trkpt><trkpt lat="43.18302057479782" lon="12.176306331067398"><ele>312.0</ele><time>2026-05-02T18:13:43Z</time></trkpt><trkpt lat="43.1829994839043" lon="12.176445254324669"><ele>311.4</ele><time>2026-05-02T18:13:44Z</time></trkpt><trkpt lat="43.182975628349894" lon="12.176566647739765"><ele>310.79999999999995</ele><time>2026-05-02T18:13:45Z</time></trkpt><trkpt lat="43.182955724583955" lon="12.176709242720037"><ele>310.2</ele><time>2026-05-02T18:13:46Z</time></trkpt><trkpt lat="43.18289686798584" lon="12.176839796511965"><ele>309.59999999999997</ele><time>2026-05-02T18:13:47Z</time></trkpt><trkpt lat="43.18284315897205" lon="12.176962597216486"><ele>309.0</ele><time>2026-05-02T18:13:48Z</time></trkpt><trkpt lat="43.182798536310166" lon="12.177088671661597"><ele>309.0</ele><time>2026-05-02T18:13:49Z</time></trkpt><trkpt lat="43.18274937681411" lon="12.177209911977664"><ele>309.0</ele><time>2026-05-02T18:13:50Z</time></trkpt><trkpt lat="43.18270303260304" lon="12.177329570729638"><ele>309.0</ele><time>2026-05-02T18:13:51Z</time></trkpt><trkpt lat="43.182638553667765" lon="12.177449212959708"><ele>309.0</ele><time>2026-05-02T18:13:52Z</time></trkpt><trkpt lat="43.18259707307488" lon="12.1775814255114"><ele>309.0</ele><time>2026-05-02T18:13:53Z</time></trkpt><trkpt lat="43.18255492286357" lon="12.177704916424068"><ele>310.2</ele><time>2026-05-02T18:13:54Z</time></trkpt><trkpt lat="43.18250579324271" lon="12.17781830224975"><ele>311.4</ele><time>2026-05-02T18:13:55Z</time></trkpt><trkpt lat="43.18245754281801" lon="12.17793265859921"><ele>312.6</ele><time>2026-05-02T18:13:56Z</time></trkpt><trkpt lat="43.1824103340673" lon="12.178046159186824"><ele>313.8</ele><time>2026-05-02T18:13:57Z</time></trkpt><trkpt lat="43.18236596052299" lon="12.178154873618901"><ele>315.0</ele><time>2026-05-02T18:13:58Z</time></trkpt><trkpt lat="43.18232240801163" lon="12.178255958263875"><ele>310.5</ele><time>2026-05-02T18:13:59Z</time></trkpt><trkpt lat="43.182286264895254" lon="12.178354915374486"><ele>306.0</ele><time>2026-05-02T18:14:00Z</time></trkpt><trkpt lat="43.18224512886511" lon="12.178451639912385"><ele>301.5</ele><time>2026-05-02T18:14:01Z</time></trkpt><trkpt lat="43.1822078211588" lon="12.178529477278733"><ele>297.0</ele><time>2026-05-02T18:14:02Z</time></trkpt><trkpt lat="43.1821767549536" lon="12.178613257616048"><ele>292.5</ele><time>2026-05-02T18:14:03Z</time></trkpt><trkpt lat="43.18215308763308" lon="12.178773034378041"><ele>288.0</ele><time>2026-05-02T18:14:05Z</time></trkpt><trkpt lat="43.182163827414016" lon="12.178864830919736"><ele>288.0</ele><time>2026-05-02T18:14:06Z</time></trkpt><trkpt lat="43.18218505778227" lon="12.178971590125965"><ele>288.0</ele><time>2026-05-02T18:14:07Z</time></trkpt><trkpt lat="43.182204829796234" lon="12.179084613521415"><ele>288.0</ele><time>2026-05-02T18:14:08Z</time></trkpt><trkpt lat="43.182218403446335" lon="12.17919462737342"><ele>288.0</ele><time>2026-05-02T18:14:09Z</time></trkpt><trkpt lat="43.18223078649726" lon="12.179299018652621"><ele>288.0</ele><time>2026-05-02T18:14:10Z</time></trkpt><trkpt lat="43.18224878554752" lon="12.17940330821392"><ele>288.0</ele><time>2026-05-02T18:14:11Z</time></trkpt><trkpt lat="43.182276533728405" lon="12.179500705092886"><ele>288.3333333333333</ele><time>2026-05-02T18:14:12Z</time></trkpt><trkpt lat="43.18231041243771" lon="12.179604121588183"><ele>288.6666666666667</ele><time>2026-05-02T18:14:13Z</time></trkpt><trkpt lat="43.18233542956915" lon="12.179724099616482"><ele>289.0</ele><time>2026-05-02T18:14:14Z</time></trkpt><trkpt lat="43.1823649859067" lon="12.179836886137872"><ele>289.33333333333337</ele><time>2026-05-02T18:14:15Z</time></trkpt><trkpt lat="43.182385643348844" lon="12.179938790011455"><ele>289.6666666666667</ele><time>2026-05-02T18:14:16Z</time></trkpt><trkpt lat="43.18243651845471" lon="12.180035936254844"><ele>290.0</ele><time>2026-05-02T18:14:17Z</time></trkpt><trkpt lat="43.18246567009998" lon="12.180144894643421"><ele>290.6666666666667</ele><time>2026-05-02T18:14:18Z</time></trkpt><trkpt lat="43.182502502520364" lon="12.18025892656986"><ele>291.33333333333337</ele><time>2026-05-02T18:14:19Z</time></trkpt><trkpt lat="43.18254374991938" lon="12.180366115914017"><ele>292.0</ele><time>2026-05-02T18:14:20Z</time></trkpt><trkpt lat="43.18253818410355" lon="12.180481780418098"><ele>292.6666666666667</ele><time>2026-05-02T18:14:21Z</time></trkpt><trkpt lat="43.18252765098163" lon="12.18059435932055"><ele>293.3333333333333</ele><time>2026-05-02T18:14:22Z</time></trkpt><trkpt lat="43.18251103146144" lon="12.180711075661169"><ele>294.0</ele><time>2026-05-02T18:14:23Z</time></trkpt><trkpt lat="43.1824855660531" lon="12.180819134988191"><ele>294.0</ele><time>2026-05-02T18:14:24Z</time></trkpt><trkpt lat="43.18247412169572" lon="12.180913214051593"><ele>294.0</ele><time>2026-05-02T18:14:25Z</time></trkpt><trkpt lat="43.18242147938029" lon="12.180978439582754"><ele>294.0</ele><time>2026-05-02T18:14:26Z</time></trkpt><trkpt lat="43.18233933633192" lon="12.181049231182568"><ele>294.0</ele><time>2026-05-02T18:14:28Z</time></trkpt><trkpt lat="43.18224713377863" lon="12.181060278049392"><ele>294.0</ele><time>2026-05-02T18:14:32Z</time></trkpt><trkpt lat="43.1821734177921" lon="12.181022013740952"><ele>294.0</ele><time>2026-05-02T18:14:35Z</time></trkpt><trkpt lat="43.18213183609583" lon="12.18088686144343"><ele>291.2</ele><time>2026-05-02T18:14:37Z</time></trkpt><trkpt lat="43.18204625279808" lon="12.180783573755102"><ele>288.4</ele><time>2026-05-02T18:14:39Z</time></trkpt><trkpt lat="43.18195827004851" lon="12.180801983871445"><ele>285.6</ele><time>2026-05-02T18:14:40Z</time></trkpt><trkpt lat="43.181865127971285" lon="12.1808327138173"><ele>282.8</ele><time>2026-05-02T18:14:41Z</time></trkpt><trkpt lat="43.18179347246156" lon="12.180933179292076"><ele>280.0</ele><time>2026-05-02T18:14:42Z</time></trkpt><trkpt lat="43.18172479639558" lon="12.181013819700219"><ele>280.0</ele><time>2026-05-02T18:14:43Z</time></trkpt><trkpt lat="43.18165917154942" lon="12.181095126143587"><ele>280.0</ele><time>2026-05-02T18:14:44Z</time></trkpt><trkpt lat="43.1815896808003" lon="12.181168618755084"><ele>280.0</ele><time>2026-05-02T18:14:45Z</time></trkpt><trkpt lat="43.18150320313782" lon="12.181218783811413"><ele>280.0</ele><time>2026-05-02T18:14:46Z</time></trkpt><trkpt lat="43.18140862068308" lon="12.181214214250119"><ele>280.0</ele><time>2026-05-02T18:14:47Z</time></trkpt><trkpt lat="43.18131719011853" lon="12.181153458291337"><ele>278.2</ele><time>2026-05-02T18:14:48Z</time></trkpt><trkpt lat="43.18125299344309" lon="12.181056786150306"><ele>276.4</ele><time>2026-05-02T18:14:49Z</time></trkpt><trkpt lat="43.18121490907066" lon="12.180942560654112"><ele>274.6</ele><time>2026-05-02T18:14:50Z</time></trkpt><trkpt lat="43.18121788764183" lon="12.180805510038063"><ele>272.8</ele><time>2026-05-02T18:14:51Z</time></trkpt><trkpt lat="43.18123303867599" lon="12.180657074176734"><ele>271.0</ele><time>2026-05-02T18:14:52Z</time></trkpt><trkpt lat="43.181242554382074" lon="12.180499471427641"><ele>270.8</ele><time>2026-05-02T18:14:53Z</time></trkpt><trkpt lat="43.1812479021731" lon="12.180354603583817"><ele>270.6</ele><time>2026-05-02T18:14:54Z</time></trkpt><trkpt lat="43.18124276947025" lon="12.180217661932573"><ele>270.4</ele><time>2026-05-02T18:14:55Z</time></trkpt><trkpt lat="43.1812081369806" lon="12.180081854304833"><ele>270.2</ele><time>2026-05-02T18:14:56Z</time></trkpt><trkpt lat="43.18115618282046" lon="12.179956406720628"><ele>270.0</ele><time>2026-05-02T18:14:57Z</time></trkpt><trkpt lat="43.181097040330215" lon="12.17984994175226"><ele>269.5</ele><time>2026-05-02T18:14:58Z</time></trkpt><trkpt lat="43.18102341821464" lon="12.179756746769243"><ele>269.0</ele><time>2026-05-02T18:14:59Z</time></trkpt><trkpt lat="43.18093221433419" lon="12.179674659145977"><ele>268.5</ele><time>2026-05-02T18:15:00Z</time></trkpt><trkpt lat="43.18082276508379" lon="12.179610188617083"><ele>268.0</ele><time>2026-05-02T18:15:01Z</time></trkpt><trkpt lat="43.18070140336671" lon="12.179567732994842"><ele>267.16666666666663</ele><time>2026-05-02T18:15:02Z</time></trkpt><trkpt lat="43.18058935304717" lon="12.179545407775898"><ele>266.3333333333333</ele><time>2026-05-02T18:15:03Z</time></trkpt><trkpt lat="43.1804916270417" lon="12.179531191482493"><ele>265.5</ele><time>2026-05-02T18:15:04Z</time></trkpt><trkpt lat="43.18040057986957" lon="12.179521344504302"><ele>264.6666666666667</ele><time>2026-05-02T18:15:05Z</time></trkpt><trkpt lat="43.18032337680082" lon="12.179509258774287"><ele>263.83333333333337</ele><time>2026-05-02T18:15:06Z</time></trkpt><trkpt lat="43.18026014528759" lon="12.179500975485897"><ele>263.0</ele><time>2026-05-02T18:15:07Z</time></trkpt><trkpt lat="43.18017132383091" lon="12.17949743699406"><ele>263.0</ele><time>2026-05-02T18:15:09Z</time></trkpt><trkpt lat="43.18003431490931" lon="12.179649513890896"><ele>263.0</ele><time>2026-05-02T18:15:12Z</time></trkpt><trkpt lat="43.179993984652775" lon="12.179777657644127"><ele>263.0</ele><time>2026-05-02T18:15:13Z</time></trkpt><trkpt lat="43.17991239058771" lon="12.179948840605668"><ele>263.0</ele><time>2026-05-02T18:15:14Z</time></trkpt><trkpt lat="43.1798137393565" lon="12.180171937898566"><ele>262.33333333333337</ele><time>2026-05-02T18:15:15Z</time></trkpt><trkpt lat="43.17971402116323" lon="12.18041851210594"><ele>261.6666666666667</ele><time>2026-05-02T18:15:16Z</time></trkpt><trkpt lat="43.179613324337254" lon="12.180618766296691"><ele>261.0</ele><time>2026-05-02T18:15:17Z</time></trkpt><trkpt lat="43.17951880739133" lon="12.180789958208917"><ele>260.75</ele><time>2026-05-02T18:15:18Z</time></trkpt><trkpt lat="43.179428337670984" lon="12.180934464936445"><ele>260.5</ele><time>2026-05-02T18:15:19Z</time></trkpt><trkpt lat="43.17934080214047" lon="12.18107488159634"><ele>260.25</ele><time>2026-05-02T18:15:20Z</time></trkpt><trkpt lat="43.17924867722106" lon="12.181216853714625"><ele>260.0</ele><time>2026-05-02T18:15:21Z</time></trkpt><trkpt lat="43.17915570841092" lon="12.181360993043084"><ele>260.0</ele><time>2026-05-02T18:15:22Z</time></trkpt><trkpt lat="43.17906781860596" lon="12.181488247400416"><ele>260.0</ele><time>2026-05-02T18:15:23Z</time></trkpt><trkpt lat="43.178981317323434" lon="12.1815979055732"><ele>260.0</ele><time>2026-05-02T18:15:24Z</time></trkpt><trkpt lat="43.178900475494906" lon="12.181700410272038"><ele>260.0</ele><time>2026-05-02T18:15:25Z</time></trkpt><trkpt lat="43.1788234917871" lon="12.181799475449179"><ele>260.6</ele><time>2026-05-02T18:15:26Z</time></trkpt><trkpt lat="43.1787460826747" lon="12.181888082832524"><ele>261.2</ele><time>2026-05-02T18:15:27Z</time></trkpt><trkpt lat="43.17866864691974" lon="12.181975076344948"><ele>261.8</ele><time>2026-05-02T18:15:28Z</time></trkpt><trkpt lat="43.178596949678635" lon="12.182067344817305"><ele>262.4</ele><time>2026-05-02T18:15:29Z</time></trkpt><trkpt lat="43.17852254553031" lon="12.182158351166324"><ele>263.0</ele><time>2026-05-02T18:15:30Z</time></trkpt><trkpt lat="43.17844845247255" lon="12.182247458048257"><ele>263.0</ele><time>2026-05-02T18:15:31Z</time></trkpt><trkpt lat="43.17837497987308" lon="12.182333724792263"><ele>263.0</ele><time>2026-05-02T18:15:32Z</time></trkpt><trkpt lat="43.17830443391415" lon="12.182421822536599"><ele>263.0</ele><time>2026-05-02T18:15:33Z</time></trkpt><trkpt lat="43.17823511522062" lon="12.182509004719876"><ele>263.0</ele><time>2026-05-02T18:15:34Z</time></trkpt><trkpt lat="43.178163616851215" lon="12.182591594540709"><ele>263.0</ele><time>2026-05-02T18:15:35Z</time></trkpt><trkpt lat="43.17809281016119" lon="12.182673232338276"><ele>262.8</ele><time>2026-05-02T18:15:36Z</time></trkpt><trkpt lat="43.178026411615214" lon="12.182767469890468"><ele>262.6</ele><time>2026-05-02T18:15:37Z</time></trkpt><trkpt lat="43.17794785124976" lon="12.182834639567078"><ele>262.4</ele><time>2026-05-02T18:15:38Z</time></trkpt><trkpt lat="43.17787956453017" lon="12.182915168603756"><ele>262.2</ele><time>2026-05-02T18:15:39Z</time></trkpt><trkpt lat="43.17781020141701" lon="12.182996966935875"><ele>262.0</ele><time>2026-05-02T18:15:40Z</time></trkpt><trkpt lat="43.17774754397287" lon="12.183068864140111"><ele>262.0</ele><time>2026-05-02T18:15:41Z</time></trkpt><trkpt lat="43.17769129575592" lon="12.1831333388214"><ele>262.0</ele><time>2026-05-02T18:15:42Z</time></trkpt><trkpt lat="43.177598974733" lon="12.183232719699344"><ele>262.0</ele><time>2026-05-02T18:15:44Z</time></trkpt><trkpt lat="43.17764821501016" lon="12.18349346987486"><ele>262.0</ele><time>2026-05-02T18:15:46Z</time></trkpt><trkpt lat="43.17764449092187" lon="12.183589435860343"><ele>262.4</ele><time>2026-05-02T18:15:47Z</time></trkpt><trkpt lat="43.17761600488259" lon="12.183680017009832"><ele>262.79999999999995</ele><time>2026-05-02T18:15:48Z</time></trkpt><trkpt lat="43.177594076235565" lon="12.18376250165218"><ele>263.2</ele><time>2026-05-02T18:15:49Z</time></trkpt><trkpt lat="43.17756380620622" lon="12.183916946276435"><ele>263.59999999999997</ele><time>2026-05-02T18:15:51Z</time></trkpt><trkpt lat="43.17752135232959" lon="12.184078099859207"><ele>264.0</ele><time>2026-05-02T18:15:53Z</time></trkpt><trkpt lat="43.17749339490557" lon="12.184175331945342"><ele>264.1666666666667</ele><time>2026-05-02T18:15:54Z</time></trkpt><trkpt lat="43.17746096561755" lon="12.184253347033726"><ele>264.3333333333333</ele><time>2026-05-02T18:15:55Z</time></trkpt><trkpt lat="43.17742929846267" lon="12.184414493980775"><ele>264.5</ele><time>2026-05-02T18:15:57Z</time></trkpt><trkpt lat="43.17744171070472" lon="12.184535994097734"><ele>264.66666666666663</ele><time>2026-05-02T18:15:58Z</time></trkpt><trkpt lat="43.17751375122303" lon="12.184571038272734"><ele>264.8333333333333</ele><time>2026-05-02T18:15:59Z</time></trkpt><trkpt lat="43.17757693514159" lon="12.184624600431897"><ele>265.0</ele><time>2026-05-02T18:16:00Z</time></trkpt><trkpt lat="43.17762809832196" lon="12.184695463027126"><ele>266.16666666666663</ele><time>2026-05-02T18:16:01Z</time></trkpt><trkpt lat="43.17763592416078" lon="12.184873914832805"><ele>267.3333333333333</ele><time>2026-05-02T18:16:03Z</time></trkpt><trkpt lat="43.177636494910196" lon="12.184979930844694"><ele>268.5</ele><time>2026-05-02T18:16:04Z</time></trkpt><trkpt lat="43.17765323091213" lon="12.185072321306164"><ele>269.6666666666667</ele><time>2026-05-02T18:16:05Z</time></trkpt><trkpt lat="43.17763761434933" lon="12.185187865251079"><ele>270.83333333333337</ele><time>2026-05-02T18:16:06Z</time></trkpt><trkpt lat="43.17763940289943" lon="12.185295462623783"><ele>272.0</ele><time>2026-05-02T18:16:07Z</time></trkpt><trkpt lat="43.17764242400542" lon="12.185508092132837"><ele>272.0</ele><time>2026-05-02T18:16:08Z</time></trkpt><trkpt lat="43.17763928090317" lon="12.18566809549863"><ele>272.0</ele><time>2026-05-02T18:16:09Z</time></trkpt><trkpt lat="43.177638385948065" lon="12.185781764921556"><ele>272.0</ele><time>2026-05-02T18:16:10Z</time></trkpt><trkpt lat="43.17765044715322" lon="12.185899044465117"><ele>272.0</ele><time>2026-05-02T18:16:11Z</time></trkpt><trkpt lat="43.17769472996696" lon="12.186006539202404"><ele>272.0</ele><time>2026-05-02T18:16:12Z</time></trkpt><trkpt lat="43.17777324689286" lon="12.186116542274037"><ele>275.33333333333337</ele><time>2026-05-02T18:16:13Z</time></trkpt><trkpt lat="43.177861656660504" lon="12.186256153114483"><ele>278.6666666666667</ele><time>2026-05-02T18:16:14Z</time></trkpt><trkpt lat="43.17795339140879" lon="12.186433354725706"><ele>282.0</ele><time>2026-05-02T18:16:15Z</time></trkpt><trkpt lat="43.178051396766776" lon="12.186631121836864"><ele>282.0</ele><time>2026-05-02T18:16:16Z</time></trkpt><trkpt lat="43.17811489724133" lon="12.186787442584768"><ele>282.0</ele><time>2026-05-02T18:16:17Z</time></trkpt><trkpt lat="43.17816144910866" lon="12.186903029428063"><ele>282.0</ele><time>2026-05-02T18:16:18Z</time></trkpt><trkpt lat="43.17818544062694" lon="12.187025121604727"><ele>282.0</ele><time>2026-05-02T18:16:19Z</time></trkpt><trkpt lat="43.17818437687182" lon="12.187160195493682"><ele>282.0</ele><time>2026-05-02T18:16:20Z</time></trkpt><trkpt lat="43.178201845792664" lon="12.18730398498068"><ele>286.25</ele><time>2026-05-02T18:16:21Z</time></trkpt><trkpt lat="43.17824458531984" lon="12.187443333582923"><ele>290.5</ele><time>2026-05-02T18:16:22Z</time></trkpt><trkpt lat="43.17830087443276" lon="12.187601644302434"><ele>294.75</ele><time>2026-05-02T18:16:23Z</time></trkpt><trkpt lat="43.17837543995565" lon="12.187754044960553"><ele>299.0</ele><time>2026-05-02T18:16:24Z</time></trkpt><trkpt lat="43.178431022510374" lon="12.187864399627498"><ele>299.0</ele><time>2026-05-02T18:16:25Z</time></trkpt><trkpt lat="43.17847620326866" lon="12.187953150788417"><ele>299.0</ele><time>2026-05-02T18:16:26Z</time></trkpt><trkpt lat="43.17848458595607" lon="12.188047822536852"><ele>299.0</ele><time>2026-05-02T18:16:28Z</time></trkpt><trkpt lat="43.178518255581444" lon="12.188158200521425"><ele>299.0</ele><time>2026-05-02T18:16:30Z</time></trkpt><trkpt lat="43.17837450931661" lon="12.188335662248369"><ele>299.0</ele><time>2026-05-02T18:16:31Z</time></trkpt><trkpt lat="43.17835508828991" lon="12.188431337921939"><ele>299.4</ele><time>2026-05-02T18:16:32Z</time></trkpt><trkpt lat="43.17833284061082" lon="12.188540938824653"><ele>299.79999999999995</ele><time>2026-05-02T18:16:33Z</time></trkpt><trkpt lat="43.17840544308214" lon="12.188754171784469"><ele>300.20000000000005</ele><time>2026-05-02T18:16:35Z</time></trkpt><trkpt lat="43.1783840747661" lon="12.18884520985599"><ele>300.6</ele><time>2026-05-02T18:16:36Z</time></trkpt><trkpt lat="43.178352823636956" lon="12.188937914543818"><ele>301.0</ele><time>2026-05-02T18:16:37Z</time></trkpt><trkpt lat="43.178303557576875" lon="12.189022308120876"><ele>301.3333333333333</ele><time>2026-05-02T18:16:38Z</time></trkpt><trkpt lat="43.17824567128028" lon="12.189091482905924"><ele>301.66666666666663</ele><time>2026-05-02T18:16:39Z</time></trkpt><trkpt lat="43.17818454647081" lon="12.18916333455408"><ele>302.0</ele><time>2026-05-02T18:16:40Z</time></trkpt><trkpt lat="43.17811518616197" lon="12.189230605791613"><ele>302.3333333333333</ele><time>2026-05-02T18:16:41Z</time></trkpt><trkpt lat="43.178057275087305" lon="12.189304455842542"><ele>302.6666666666667</ele><time>2026-05-02T18:16:42Z</time></trkpt><trkpt lat="43.17800859060029" lon="12.189373136103299"><ele>303.0</ele><time>2026-05-02T18:16:43Z</time></trkpt><trkpt lat="43.177958219185626" lon="12.189525501180333"><ele>300.5</ele><time>2026-05-02T18:16:45Z</time></trkpt><trkpt lat="43.17793452306261" lon="12.189618870152277"><ele>298.0</ele><time>2026-05-02T18:16:46Z</time></trkpt><trkpt lat="43.177896087797116" lon="12.189689714586768"><ele>295.5</ele><time>2026-05-02T18:16:47Z</time></trkpt><trkpt lat="43.177831676753904" lon="12.189712262264182"><ele>293.0</ele><time>2026-05-02T18:16:48Z</time></trkpt><trkpt lat="43.177733823102514" lon="12.18972852523099"><ele>290.5</ele><time>2026-05-02T18:16:49Z</time></trkpt><trkpt lat="43.177613070652306" lon="12.18974146622049"><ele>288.0</ele><time>2026-05-02T18:16:50Z</time></trkpt><trkpt lat="43.177499674483435" lon="12.189741824840896"><ele>288.0</ele><time>2026-05-02T18:16:51Z</time></trkpt><trkpt lat="43.17740888780866" lon="12.189750795205002"><ele>288.0</ele><time>2026-05-02T18:16:52Z</time></trkpt><trkpt lat="43.17731894154798" lon="12.189784567522123"><ele>288.0</ele><time>2026-05-02T18:16:53Z</time></trkpt><trkpt lat="43.177241224900015" lon="12.189829719294957"><ele>288.0</ele><time>2026-05-02T18:16:54Z</time></trkpt><trkpt lat="43.17716592849144" lon="12.189896695246137"><ele>288.0</ele><time>2026-05-02T18:16:55Z</time></trkpt><trkpt lat="43.177069213685336" lon="12.189967212271794"><ele>289.2</ele><time>2026-05-02T18:16:56Z</time></trkpt><trkpt lat="43.17696419633795" lon="12.190038271962393"><ele>290.4</ele><time>2026-05-02T18:16:57Z</time></trkpt><trkpt lat="43.176872137467825" lon="12.190116443841564"><ele>291.59999999999997</ele><time>2026-05-02T18:16:58Z</time></trkpt><trkpt lat="43.17680644122883" lon="12.190193127615254"><ele>292.8</ele><time>2026-05-02T18:16:59Z</time></trkpt><trkpt lat="43.17676135843139" lon="12.190306691365587"><ele>294.0</ele><time>2026-05-02T18:17:01Z</time></trkpt><trkpt lat="43.17682822597935" lon="12.190318048669996"><ele>294.0</ele><time>2026-05-02T18:17:07Z</time></trkpt></trkseg></trk></gpx>